<?xml version='1.0' encoding='UTF-8'?><gpx version="1.1" creator="JPX - https://github.com/jenetics/jpx" xmlns="http://www.topografix.com/GPX/1/1"><trk><trkseg><trkpt lat="43.4219387" lon="11.1812568"><ele>174.0</ele><time>2026-04-11T06:33:37.479Z</time></trkpt><trkpt lat="43.4219979" lon="11.181224"><ele>174.0</ele><time>2026-04-11T06:34:12.48Z</time></trkpt><trkpt lat="43.4220668" lon="11.1811849"><ele>174.0</ele><time>2026-04-11T06:34:16.478Z</time></trkpt><trkpt lat="43.4221307" lon="11.1811294"><ele>174.0</ele><time>2026-04-11T06:34:21.497Z</time></trkpt><trkpt lat="43.4221929" lon="11.1810705"><ele>174.0</ele><time>2026-04-11T06:34:27.479Z</time></trkpt><trkpt lat="43.4222584" lon="11.1810804"><ele>174.0</ele><time>2026-04-11T06:34:32.488Z</time></trkpt><trkpt lat="43.4223131" lon="11.1811643"><ele>174.0</ele><time>2026-04-11T06:34:36.485Z</time></trkpt><trkpt lat="43.4223351" lon="11.1812569"><ele>173.42857142857142</ele><time>2026-04-11T06:34:39.497Z</time></trkpt><trkpt lat="43.4223498" lon="11.1813476"><ele>172.85714285714286</ele><time>2026-04-11T06:34:42.5Z</time></trkpt><trkpt lat="43.4223876" lon="11.181439"><ele>172.28571428571428</ele><time>2026-04-11T06:34:45.478Z</time></trkpt><trkpt lat="43.4223894" lon="11.1815454"><ele>171.71428571428572</ele><time>2026-04-11T06:34:48.489Z</time></trkpt><trkpt lat="43.4223524" lon="11.1816365"><ele>171.14285714285714</ele><time>2026-04-11T06:34:51.486Z</time></trkpt><trkpt lat="43.422304" lon="11.1817131"><ele>170.57142857142858</ele><time>2026-04-11T06:34:54.493Z</time></trkpt><trkpt lat="43.422251" lon="11.1817716"><ele>170.0</ele><time>2026-04-11T06:34:57.489Z</time></trkpt><trkpt lat="43.4221899" lon="11.181839"><ele>170.0</ele><time>2026-04-11T06:35:01.475Z</time></trkpt><trkpt lat="43.4221316" lon="11.1819224"><ele>170.0</ele><time>2026-04-11T06:35:05.485Z</time></trkpt><trkpt lat="43.4220806" lon="11.1819954"><ele>170.0</ele><time>2026-04-11T06:35:09.496Z</time></trkpt><trkpt lat="43.4220949" lon="11.1821038"><ele>170.0</ele><time>2026-04-11T06:35:12.479Z</time></trkpt><trkpt lat="43.4221336" lon="11.1822005"><ele>170.0</ele><time>2026-04-11T06:35:15.49Z</time></trkpt><trkpt lat="43.4221693" lon="11.1822976"><ele>170.0</ele><time>2026-04-11T06:35:18.484Z</time></trkpt><trkpt lat="43.4222112" lon="11.182398"><ele>170.5</ele><time>2026-04-11T06:35:21.492Z</time></trkpt><trkpt lat="43.4222496" lon="11.1825067"><ele>171.0</ele><time>2026-04-11T06:35:24.496Z</time></trkpt><trkpt lat="43.4223203" lon="11.1825907"><ele>171.5</ele><time>2026-04-11T06:35:27.5Z</time></trkpt><trkpt lat="43.4223954" lon="11.1825678"><ele>172.0</ele><time>2026-04-11T06:35:30.488Z</time></trkpt><trkpt lat="43.4224624" lon="11.1825186"><ele>172.5</ele><time>2026-04-11T06:35:33.499Z</time></trkpt><trkpt lat="43.4225357" lon="11.1824607"><ele>173.0</ele><time>2026-04-11T06:35:36.505Z</time></trkpt><trkpt lat="43.4225951" lon="11.1824198"><ele>173.0</ele><time>2026-04-11T06:35:38.494Z</time></trkpt><trkpt lat="43.4226591" lon="11.1823818"><ele>173.0</ele><time>2026-04-11T06:35:40.503Z</time></trkpt><trkpt lat="43.4227226" lon="11.1823605"><ele>173.0</ele><time>2026-04-11T06:35:42.494Z</time></trkpt><trkpt lat="43.4228199" lon="11.1823542"><ele>173.0</ele><time>2026-04-11T06:35:45.484Z</time></trkpt><trkpt lat="43.4229046" lon="11.1823738"><ele>173.0</ele><time>2026-04-11T06:35:48.49Z</time></trkpt><trkpt lat="43.4230007" lon="11.1823916"><ele>173.0</ele><time>2026-04-11T06:35:51.51Z</time></trkpt><trkpt lat="43.4230617" lon="11.1824445"><ele>172.57142857142856</ele><time>2026-04-11T06:35:53.487Z</time></trkpt><trkpt lat="43.4231173" lon="11.1824998"><ele>172.14285714285717</ele><time>2026-04-11T06:35:55.49Z</time></trkpt><trkpt lat="43.423192" lon="11.1825808"><ele>171.71428571428572</ele><time>2026-04-11T06:35:58.495Z</time></trkpt><trkpt lat="43.4232479" lon="11.1826395"><ele>171.28571428571428</ele><time>2026-04-11T06:36:00.477Z</time></trkpt><trkpt lat="43.4233149" lon="11.1826723"><ele>170.85714285714283</ele><time>2026-04-11T06:36:02.496Z</time></trkpt><trkpt lat="43.423382" lon="11.1826683"><ele>170.42857142857144</ele><time>2026-04-11T06:36:04.489Z</time></trkpt><trkpt lat="43.4234564" lon="11.182678"><ele>170.0</ele><time>2026-04-11T06:36:07.483Z</time></trkpt><trkpt lat="43.4235417" lon="11.1827087"><ele>170.0</ele><time>2026-04-11T06:36:10.492Z</time></trkpt><trkpt lat="43.4236236" lon="11.1827127"><ele>170.0</ele><time>2026-04-11T06:36:13.496Z</time></trkpt><trkpt lat="43.4236902" lon="11.1827128"><ele>170.0</ele><time>2026-04-11T06:36:15.486Z</time></trkpt><trkpt lat="43.4237818" lon="11.1827214"><ele>170.0</ele><time>2026-04-11T06:36:18.492Z</time></trkpt><trkpt lat="43.423871" lon="11.1827231"><ele>170.0</ele><time>2026-04-11T06:36:21.484Z</time></trkpt><trkpt lat="43.4239544" lon="11.1827224"><ele>170.0</ele><time>2026-04-11T06:36:24.501Z</time></trkpt><trkpt lat="43.4240271" lon="11.1827342"><ele>169.16666666666666</ele><time>2026-04-11T06:36:26.501Z</time></trkpt><trkpt lat="43.4241057" lon="11.1827382"><ele>168.33333333333331</ele><time>2026-04-11T06:36:28.499Z</time></trkpt><trkpt lat="43.4241895" lon="11.1827497"><ele>167.5</ele><time>2026-04-11T06:36:31.502Z</time></trkpt><trkpt lat="43.4242854" lon="11.1827924"><ele>166.66666666666666</ele><time>2026-04-11T06:36:34.486Z</time></trkpt><trkpt lat="43.4243672" lon="11.1827848"><ele>165.83333333333334</ele><time>2026-04-11T06:36:37.492Z</time></trkpt><trkpt lat="43.4244314" lon="11.1827947"><ele>165.0</ele><time>2026-04-11T06:36:39.498Z</time></trkpt><trkpt lat="43.4245215" lon="11.1828114"><ele>165.00000000000003</ele><time>2026-04-11T06:36:42.48Z</time></trkpt><trkpt lat="43.4245821" lon="11.1828365"><ele>165.0</ele><time>2026-04-11T06:36:44.476Z</time></trkpt><trkpt lat="43.4246475" lon="11.1828313"><ele>165.0</ele><time>2026-04-11T06:36:47.49Z</time></trkpt><trkpt lat="43.4246514" lon="11.1827412"><ele>165.0</ele><time>2026-04-11T06:36:49.491Z</time></trkpt><trkpt lat="43.4246546" lon="11.1826502"><ele>165.0</ele><time>2026-04-11T06:36:51.49Z</time></trkpt><trkpt lat="43.4246307" lon="11.1825405"><ele>165.00000000000003</ele><time>2026-04-11T06:36:54.489Z</time></trkpt><trkpt lat="43.4246886" lon="11.1826158"><ele>165.0</ele><time>2026-04-11T06:36:59.478Z</time></trkpt><trkpt lat="43.4247143" lon="11.1826978"><ele>164.2857142857143</ele><time>2026-04-11T06:37:01.491Z</time></trkpt><trkpt lat="43.4247467" lon="11.1827848"><ele>163.57142857142858</ele><time>2026-04-11T06:37:03.485Z</time></trkpt><trkpt lat="43.424787" lon="11.1828545"><ele>162.85714285714286</ele><time>2026-04-11T06:37:05.492Z</time></trkpt><trkpt lat="43.4248423" lon="11.182933"><ele>162.14285714285717</ele><time>2026-04-11T06:37:08.478Z</time></trkpt><trkpt lat="43.4248878" lon="11.1829942"><ele>161.42857142857144</ele><time>2026-04-11T06:37:10.493Z</time></trkpt><trkpt lat="43.4249234" lon="11.1830672"><ele>160.71428571428572</ele><time>2026-04-11T06:37:12.475Z</time></trkpt><trkpt lat="43.4249923" lon="11.1831468"><ele>160.0</ele><time>2026-04-11T06:37:15.484Z</time></trkpt><trkpt lat="43.4250413" lon="11.1832124"><ele>160.0</ele><time>2026-04-11T06:37:17.506Z</time></trkpt><trkpt lat="43.4250962" lon="11.1832646"><ele>160.0</ele><time>2026-04-11T06:37:19.486Z</time></trkpt><trkpt lat="43.4251506" lon="11.1833194"><ele>160.0</ele><time>2026-04-11T06:37:21.484Z</time></trkpt><trkpt lat="43.4252153" lon="11.1833596"><ele>160.0</ele><time>2026-04-11T06:37:23.484Z</time></trkpt><trkpt lat="43.4252767" lon="11.1833358"><ele>160.0</ele><time>2026-04-11T06:37:25.503Z</time></trkpt><trkpt lat="43.4253244" lon="11.1832556"><ele>160.0</ele><time>2026-04-11T06:37:27.492Z</time></trkpt><trkpt lat="43.4253619" lon="11.1831474"><ele>160.0</ele><time>2026-04-11T06:37:29.476Z</time></trkpt><trkpt lat="43.4254021" lon="11.183051"><ele>160.0</ele><time>2026-04-11T06:37:31.499Z</time></trkpt><trkpt lat="43.4254459" lon="11.1829614"><ele>160.0</ele><time>2026-04-11T06:37:33.493Z</time></trkpt><trkpt lat="43.4255038" lon="11.1828601"><ele>160.0</ele><time>2026-04-11T06:37:35.487Z</time></trkpt><trkpt lat="43.4255639" lon="11.1827364"><ele>160.0</ele><time>2026-04-11T06:37:37.519Z</time></trkpt><trkpt lat="43.4256476" lon="11.1825497"><ele>160.0</ele><time>2026-04-11T06:37:40.503Z</time></trkpt><trkpt lat="43.4256991" lon="11.1824352"><ele>157.5</ele><time>2026-04-11T06:37:42.474Z</time></trkpt><trkpt lat="43.4257455" lon="11.1823338"><ele>155.0</ele><time>2026-04-11T06:37:44.473Z</time></trkpt><trkpt lat="43.4258018" lon="11.1822399"><ele>152.5</ele><time>2026-04-11T06:37:46.486Z</time></trkpt><trkpt lat="43.4258626" lon="11.182168"><ele>150.0</ele><time>2026-04-11T06:37:48.48Z</time></trkpt><trkpt lat="43.4259214" lon="11.1821213"><ele>147.5</ele><time>2026-04-11T06:37:50.488Z</time></trkpt><trkpt lat="43.425992" lon="11.182096"><ele>145.0</ele><time>2026-04-11T06:37:52.499Z</time></trkpt><trkpt lat="43.426063" lon="11.1820922"><ele>145.0</ele><time>2026-04-11T06:37:54.507Z</time></trkpt><trkpt lat="43.4261328" lon="11.1820907"><ele>145.0</ele><time>2026-04-11T06:37:56.493Z</time></trkpt><trkpt lat="43.4261982" lon="11.1821021"><ele>145.0</ele><time>2026-04-11T06:37:58.494Z</time></trkpt><trkpt lat="43.4262823" lon="11.1820941"><ele>145.0</ele><time>2026-04-11T06:38:01.494Z</time></trkpt><trkpt lat="43.4263602" lon="11.1821001"><ele>145.0</ele><time>2026-04-11T06:38:04.492Z</time></trkpt><trkpt lat="43.4264278" lon="11.1821075"><ele>145.0</ele><time>2026-04-11T06:38:07.487Z</time></trkpt><trkpt lat="43.4265142" lon="11.1821009"><ele>144.66666666666669</ele><time>2026-04-11T06:38:12.506Z</time></trkpt><trkpt lat="43.4265915" lon="11.1820669"><ele>144.33333333333334</ele><time>2026-04-11T06:38:16.503Z</time></trkpt><trkpt lat="43.4266749" lon="11.1820481"><ele>144.0</ele><time>2026-04-11T06:38:20.485Z</time></trkpt><trkpt lat="43.426749" lon="11.1820118"><ele>143.66666666666666</ele><time>2026-04-11T06:38:23.515Z</time></trkpt><trkpt lat="43.4268141" lon="11.1819915"><ele>143.33333333333331</ele><time>2026-04-11T06:38:26.493Z</time></trkpt><trkpt lat="43.4268938" lon="11.1819721"><ele>143.0</ele><time>2026-04-11T06:38:30.485Z</time></trkpt><trkpt lat="43.426956" lon="11.1819473"><ele>143.0</ele><time>2026-04-11T06:38:33.479Z</time></trkpt><trkpt lat="43.4270484" lon="11.1819099"><ele>143.0</ele><time>2026-04-11T06:38:37.496Z</time></trkpt><trkpt lat="43.4271278" lon="11.1818764"><ele>143.0</ele><time>2026-04-11T06:38:40.474Z</time></trkpt><trkpt lat="43.4272023" lon="11.1818443"><ele>143.0</ele><time>2026-04-11T06:38:43.473Z</time></trkpt><trkpt lat="43.427286" lon="11.1818037"><ele>143.0</ele><time>2026-04-11T06:38:46.476Z</time></trkpt><trkpt lat="43.4273431" lon="11.1817606"><ele>143.0</ele><time>2026-04-11T06:38:48.476Z</time></trkpt><trkpt lat="43.4274078" lon="11.1817151"><ele>142.99999999999997</ele><time>2026-04-11T06:38:50.482Z</time></trkpt><trkpt lat="43.4274786" lon="11.1816717"><ele>143.0</ele><time>2026-04-11T06:38:52.486Z</time></trkpt><trkpt lat="43.4275556" lon="11.1816483"><ele>143.0</ele><time>2026-04-11T06:38:55.483Z</time></trkpt><trkpt lat="43.427555" lon="11.181551"><ele>143.0</ele><time>2026-04-11T06:39:01.481Z</time></trkpt><trkpt lat="43.427528" lon="11.1814675"><ele>143.0</ele><time>2026-04-11T06:39:04.496Z</time></trkpt><trkpt lat="43.4275315" lon="11.1813554"><ele>142.99999999999997</ele><time>2026-04-11T06:39:08.49Z</time></trkpt><trkpt lat="43.4275577" lon="11.1812721"><ele>143.0</ele><time>2026-04-11T06:39:11.48Z</time></trkpt><trkpt lat="43.4275932" lon="11.1811806"><ele>143.0</ele><time>2026-04-11T06:39:14.482Z</time></trkpt><trkpt lat="43.4276482" lon="11.1810958"><ele>143.0</ele><time>2026-04-11T06:39:17.48Z</time></trkpt><trkpt lat="43.4277043" lon="11.1809985"><ele>143.0</ele><time>2026-04-11T06:39:20.478Z</time></trkpt><trkpt lat="43.4277358" lon="11.1809214"><ele>143.0</ele><time>2026-04-11T06:39:22.489Z</time></trkpt><trkpt lat="43.4277773" lon="11.1808131"><ele>143.0</ele><time>2026-04-11T06:39:25.473Z</time></trkpt><trkpt lat="43.4277934" lon="11.1807154"><ele>143.0</ele><time>2026-04-11T06:39:28.475Z</time></trkpt><trkpt lat="43.4278136" lon="11.1806088"><ele>143.16666666666666</ele><time>2026-04-11T06:39:31.474Z</time></trkpt><trkpt lat="43.4278306" lon="11.1804814"><ele>143.33333333333331</ele><time>2026-04-11T06:39:34.469Z</time></trkpt><trkpt lat="43.4278574" lon="11.1803903"><ele>143.5</ele><time>2026-04-11T06:39:36.473Z</time></trkpt><trkpt lat="43.427898" lon="11.180307"><ele>143.66666666666666</ele><time>2026-04-11T06:39:38.491Z</time></trkpt><trkpt lat="43.4279411" lon="11.1802312"><ele>143.83333333333334</ele><time>2026-04-11T06:39:40.481Z</time></trkpt><trkpt lat="43.4279953" lon="11.1801393"><ele>144.0</ele><time>2026-04-11T06:39:42.489Z</time></trkpt><trkpt lat="43.4280643" lon="11.1800247"><ele>144.0</ele><time>2026-04-11T06:39:44.481Z</time></trkpt><trkpt lat="43.4281422" lon="11.1799137"><ele>144.0</ele><time>2026-04-11T06:39:46.49Z</time></trkpt><trkpt lat="43.4282377" lon="11.1798295"><ele>144.0</ele><time>2026-04-11T06:39:48.473Z</time></trkpt><trkpt lat="43.4283354" lon="11.1797722"><ele>144.0</ele><time>2026-04-11T06:39:50.484Z</time></trkpt><trkpt lat="43.4284213" lon="11.1797483"><ele>144.0</ele><time>2026-04-11T06:39:52.496Z</time></trkpt><trkpt lat="43.4284888" lon="11.1797422"><ele>143.0</ele><time>2026-04-11T06:39:54.484Z</time></trkpt><trkpt lat="43.4285679" lon="11.1797025"><ele>142.0</ele><time>2026-04-11T06:39:57.492Z</time></trkpt><trkpt lat="43.4286486" lon="11.1796317"><ele>141.0</ele><time>2026-04-11T06:40:00.493Z</time></trkpt><trkpt lat="43.4287009" lon="11.1795502"><ele>140.0</ele><time>2026-04-11T06:40:02.506Z</time></trkpt><trkpt lat="43.4287445" lon="11.1794768"><ele>139.0</ele><time>2026-04-11T06:40:04.483Z</time></trkpt><trkpt lat="43.4287721" lon="11.1793945"><ele>138.0</ele><time>2026-04-11T06:40:06.505Z</time></trkpt><trkpt lat="43.4288416" lon="11.1792869"><ele>138.0</ele><time>2026-04-11T06:40:09.574Z</time></trkpt><trkpt lat="43.4288918" lon="11.1791718"><ele>138.0</ele><time>2026-04-11T06:40:13.494Z</time></trkpt><trkpt lat="43.4289348" lon="11.1791021"><ele>138.0</ele><time>2026-04-11T06:40:15.576Z</time></trkpt><trkpt lat="43.4290528" lon="11.1788134"><ele>138.0</ele><time>2026-04-11T06:40:20.517Z</time></trkpt><trkpt lat="43.4290899" lon="11.1787091"><ele>136.8</ele><time>2026-04-11T06:40:22.497Z</time></trkpt><trkpt lat="43.4291244" lon="11.1785968"><ele>135.60000000000002</ele><time>2026-04-11T06:40:24.561Z</time></trkpt><trkpt lat="43.4291355" lon="11.1784826"><ele>134.39999999999998</ele><time>2026-04-11T06:40:26.484Z</time></trkpt><trkpt lat="43.4291805" lon="11.178365"><ele>133.2</ele><time>2026-04-11T06:40:28.504Z</time></trkpt><trkpt lat="43.4292298" lon="11.1782521"><ele>132.0</ele><time>2026-04-11T06:40:30.5Z</time></trkpt><trkpt lat="43.4292724" lon="11.1781437"><ele>132.0</ele><time>2026-04-11T06:40:32.483Z</time></trkpt><trkpt lat="43.4293134" lon="11.1780276"><ele>132.0</ele><time>2026-04-11T06:40:34.496Z</time></trkpt><trkpt lat="43.4293522" lon="11.1779078"><ele>132.0</ele><time>2026-04-11T06:40:36.543Z</time></trkpt><trkpt lat="43.4293988" lon="11.1778045"><ele>132.0</ele><time>2026-04-11T06:40:38.499Z</time></trkpt><trkpt lat="43.4294549" lon="11.1777108"><ele>132.0</ele><time>2026-04-11T06:40:40.569Z</time></trkpt><trkpt lat="43.4295221" lon="11.1776361"><ele>132.0</ele><time>2026-04-11T06:40:42.491Z</time></trkpt><trkpt lat="43.429578" lon="11.1775829"><ele>132.0</ele><time>2026-04-11T06:40:44.587Z</time></trkpt><trkpt lat="43.4296454" lon="11.1775381"><ele>132.0</ele><time>2026-04-11T06:40:46.487Z</time></trkpt><trkpt lat="43.4297157" lon="11.1775287"><ele>132.0</ele><time>2026-04-11T06:40:48.513Z</time></trkpt><trkpt lat="43.4297972" lon="11.1775299"><ele>132.0</ele><time>2026-04-11T06:40:50.578Z</time></trkpt><trkpt lat="43.4298711" lon="11.1775422"><ele>132.0</ele><time>2026-04-11T06:40:52.498Z</time></trkpt><trkpt lat="43.4299488" lon="11.1775533"><ele>132.0</ele><time>2026-04-11T06:40:54.54Z</time></trkpt><trkpt lat="43.4300223" lon="11.1775888"><ele>131.83333333333334</ele><time>2026-04-11T06:40:56.503Z</time></trkpt><trkpt lat="43.4301005" lon="11.177629"><ele>131.66666666666666</ele><time>2026-04-11T06:40:58.514Z</time></trkpt><trkpt lat="43.4301831" lon="11.1776718"><ele>131.5</ele><time>2026-04-11T06:41:00.503Z</time></trkpt><trkpt lat="43.4302589" lon="11.1777109"><ele>131.33333333333331</ele><time>2026-04-11T06:41:02.499Z</time></trkpt><trkpt lat="43.4303324" lon="11.1777444"><ele>131.16666666666666</ele><time>2026-04-11T06:41:04.497Z</time></trkpt><trkpt lat="43.4304038" lon="11.1777759"><ele>131.0</ele><time>2026-04-11T06:41:06.501Z</time></trkpt><trkpt lat="43.4304753" lon="11.1778176"><ele>131.66666666666666</ele><time>2026-04-11T06:41:08.498Z</time></trkpt><trkpt lat="43.4305483" lon="11.1778631"><ele>132.33333333333331</ele><time>2026-04-11T06:41:10.501Z</time></trkpt><trkpt lat="43.4306179" lon="11.1779132"><ele>133.0</ele><time>2026-04-11T06:41:12.496Z</time></trkpt><trkpt lat="43.4306932" lon="11.1779695"><ele>133.66666666666666</ele><time>2026-04-11T06:41:14.502Z</time></trkpt><trkpt lat="43.4307688" lon="11.1780252"><ele>134.33333333333334</ele><time>2026-04-11T06:41:16.484Z</time></trkpt><trkpt lat="43.4308443" lon="11.1780761"><ele>135.0</ele><time>2026-04-11T06:41:18.503Z</time></trkpt><trkpt lat="43.4309211" lon="11.1781264"><ele>135.0</ele><time>2026-04-11T06:41:20.577Z</time></trkpt><trkpt lat="43.4309973" lon="11.1781678"><ele>135.0</ele><time>2026-04-11T06:41:22.496Z</time></trkpt><trkpt lat="43.4310773" lon="11.1782147"><ele>135.0</ele><time>2026-04-11T06:41:24.567Z</time></trkpt><trkpt lat="43.4311578" lon="11.1782636"><ele>135.0</ele><time>2026-04-11T06:41:26.49Z</time></trkpt><trkpt lat="43.4312388" lon="11.178306"><ele>135.0</ele><time>2026-04-11T06:41:28.507Z</time></trkpt><trkpt lat="43.4313087" lon="11.1783371"><ele>135.0</ele><time>2026-04-11T06:41:30.581Z</time></trkpt><trkpt lat="43.4313861" lon="11.1783812"><ele>134.66666666666666</ele><time>2026-04-11T06:41:32.494Z</time></trkpt><trkpt lat="43.4314746" lon="11.1784329"><ele>134.33333333333334</ele><time>2026-04-11T06:41:34.57Z</time></trkpt><trkpt lat="43.4315512" lon="11.178508"><ele>134.0</ele><time>2026-04-11T06:41:36.492Z</time></trkpt><trkpt lat="43.4316333" lon="11.1785429"><ele>133.66666666666669</ele><time>2026-04-11T06:41:38.495Z</time></trkpt><trkpt lat="43.4317096" lon="11.1785957"><ele>133.33333333333334</ele><time>2026-04-11T06:41:40.512Z</time></trkpt><trkpt lat="43.4317728" lon="11.1786488"><ele>133.0</ele><time>2026-04-11T06:41:42.502Z</time></trkpt><trkpt lat="43.4318316" lon="11.1787089"><ele>133.0</ele><time>2026-04-11T06:41:44.564Z</time></trkpt><trkpt lat="43.4318807" lon="11.178768"><ele>133.0</ele><time>2026-04-11T06:41:46.509Z</time></trkpt><trkpt lat="43.4319419" lon="11.1788097"><ele>133.0</ele><time>2026-04-11T06:41:48.504Z</time></trkpt><trkpt lat="43.432004" lon="11.178855"><ele>133.0</ele><time>2026-04-11T06:41:50.477Z</time></trkpt><trkpt lat="43.4320649" lon="11.1788983"><ele>133.0</ele><time>2026-04-11T06:41:52.498Z</time></trkpt><trkpt lat="43.4321385" lon="11.1789358"><ele>133.0</ele><time>2026-04-11T06:41:54.573Z</time></trkpt><trkpt lat="43.4322113" lon="11.1789592"><ele>133.0</ele><time>2026-04-11T06:41:56.498Z</time></trkpt><trkpt lat="43.4323068" lon="11.1790025"><ele>133.33333333333334</ele><time>2026-04-11T06:41:59.561Z</time></trkpt><trkpt lat="43.4324128" lon="11.1790293"><ele>133.66666666666669</ele><time>2026-04-11T06:42:01.506Z</time></trkpt><trkpt lat="43.4325011" lon="11.1790411"><ele>134.0</ele><time>2026-04-11T06:42:03.504Z</time></trkpt><trkpt lat="43.4325797" lon="11.1790356"><ele>134.33333333333334</ele><time>2026-04-11T06:42:05.568Z</time></trkpt><trkpt lat="43.4326557" lon="11.1790051"><ele>134.66666666666666</ele><time>2026-04-11T06:42:07.499Z</time></trkpt><trkpt lat="43.4327078" lon="11.1789368"><ele>135.0</ele><time>2026-04-11T06:42:09.567Z</time></trkpt><trkpt lat="43.4327891" lon="11.1788311"><ele>135.0</ele><time>2026-04-11T06:42:11.504Z</time></trkpt><trkpt lat="43.4328545" lon="11.1787596"><ele>135.0</ele><time>2026-04-11T06:42:13.517Z</time></trkpt><trkpt lat="43.4329394" lon="11.1787053"><ele>135.0</ele><time>2026-04-11T06:42:15.499Z</time></trkpt><trkpt lat="43.4330253" lon="11.178653"><ele>135.0</ele><time>2026-04-11T06:42:17.514Z</time></trkpt><trkpt lat="43.4331067" lon="11.1786131"><ele>135.0</ele><time>2026-04-11T06:42:19.499Z</time></trkpt><trkpt lat="43.4331845" lon="11.1785863"><ele>135.0</ele><time>2026-04-11T06:42:21.487Z</time></trkpt><trkpt lat="43.4332663" lon="11.1785773"><ele>134.16666666666666</ele><time>2026-04-11T06:42:23.506Z</time></trkpt><trkpt lat="43.4333634" lon="11.1785805"><ele>133.33333333333334</ele><time>2026-04-11T06:42:25.497Z</time></trkpt><trkpt lat="43.4334497" lon="11.1786151"><ele>132.5</ele><time>2026-04-11T06:42:27.503Z</time></trkpt><trkpt lat="43.4335281" lon="11.1786705"><ele>131.66666666666669</ele><time>2026-04-11T06:42:29.573Z</time></trkpt><trkpt lat="43.4335924" lon="11.1787398"><ele>130.83333333333334</ele><time>2026-04-11T06:42:31.5Z</time></trkpt><trkpt lat="43.4336658" lon="11.1788011"><ele>130.0</ele><time>2026-04-11T06:42:33.506Z</time></trkpt><trkpt lat="43.4337383" lon="11.1788314"><ele>129.83333333333334</ele><time>2026-04-11T06:42:35.503Z</time></trkpt><trkpt lat="43.433813" lon="11.1788531"><ele>129.66666666666669</ele><time>2026-04-11T06:42:37.517Z</time></trkpt><trkpt lat="43.4338976" lon="11.178861"><ele>129.5</ele><time>2026-04-11T06:42:39.581Z</time></trkpt><trkpt lat="43.4339844" lon="11.1788649"><ele>129.33333333333334</ele><time>2026-04-11T06:42:41.491Z</time></trkpt><trkpt lat="43.4340786" lon="11.1788573"><ele>129.16666666666666</ele><time>2026-04-11T06:42:43.493Z</time></trkpt><trkpt lat="43.4341709" lon="11.1788468"><ele>129.0</ele><time>2026-04-11T06:42:45.574Z</time></trkpt><trkpt lat="43.4342516" lon="11.1787936"><ele>129.0</ele><time>2026-04-11T06:42:47.499Z</time></trkpt><trkpt lat="43.4343348" lon="11.178771"><ele>129.0</ele><time>2026-04-11T06:42:49.488Z</time></trkpt><trkpt lat="43.43442" lon="11.178768"><ele>129.0</ele><time>2026-04-11T06:42:51.494Z</time></trkpt><trkpt lat="43.4344982" lon="11.17877"><ele>129.0</ele><time>2026-04-11T06:42:53.501Z</time></trkpt><trkpt lat="43.4345683" lon="11.1787595"><ele>129.0</ele><time>2026-04-11T06:42:55.496Z</time></trkpt><trkpt lat="43.4346447" lon="11.1787496"><ele>129.0</ele><time>2026-04-11T06:42:57.49Z</time></trkpt><trkpt lat="43.4347471" lon="11.1787373"><ele>129.16666666666666</ele><time>2026-04-11T06:42:59.573Z</time></trkpt><trkpt lat="43.4348304" lon="11.1787295"><ele>129.33333333333334</ele><time>2026-04-11T06:43:01.509Z</time></trkpt><trkpt lat="43.4349102" lon="11.1787151"><ele>129.5</ele><time>2026-04-11T06:43:03.495Z</time></trkpt><trkpt lat="43.4349948" lon="11.1787012"><ele>129.66666666666669</ele><time>2026-04-11T06:43:05.573Z</time></trkpt><trkpt lat="43.4350747" lon="11.1786862"><ele>129.83333333333334</ele><time>2026-04-11T06:43:07.498Z</time></trkpt><trkpt lat="43.4351584" lon="11.1786727"><ele>130.0</ele><time>2026-04-11T06:43:09.51Z</time></trkpt><trkpt lat="43.4352391" lon="11.1786641"><ele>130.0</ele><time>2026-04-11T06:43:11.507Z</time></trkpt><trkpt lat="43.4353174" lon="11.17865"><ele>130.0</ele><time>2026-04-11T06:43:13.502Z</time></trkpt><trkpt lat="43.4353989" lon="11.1786428"><ele>130.0</ele><time>2026-04-11T06:43:15.562Z</time></trkpt><trkpt lat="43.4354826" lon="11.1786345"><ele>130.0</ele><time>2026-04-11T06:43:17.499Z</time></trkpt><trkpt lat="43.435566" lon="11.1786416"><ele>130.0</ele><time>2026-04-11T06:43:19.476Z</time></trkpt><trkpt lat="43.4356659" lon="11.1786252"><ele>130.0</ele><time>2026-04-11T06:43:21.498Z</time></trkpt><trkpt lat="43.4357384" lon="11.1786063"><ele>130.66666666666669</ele><time>2026-04-11T06:43:23.499Z</time></trkpt><trkpt lat="43.4358014" lon="11.1785994"><ele>131.33333333333334</ele><time>2026-04-11T06:43:25.499Z</time></trkpt><trkpt lat="43.4358839" lon="11.1785796"><ele>132.0</ele><time>2026-04-11T06:43:27.501Z</time></trkpt><trkpt lat="43.4359762" lon="11.1785521"><ele>132.66666666666666</ele><time>2026-04-11T06:43:29.57Z</time></trkpt><trkpt lat="43.4360697" lon="11.1785457"><ele>133.33333333333331</ele><time>2026-04-11T06:43:31.483Z</time></trkpt><trkpt lat="43.4361482" lon="11.1785364"><ele>134.0</ele><time>2026-04-11T06:43:33.499Z</time></trkpt><trkpt lat="43.4362388" lon="11.178537"><ele>133.0</ele><time>2026-04-11T06:43:35.575Z</time></trkpt><trkpt lat="43.4363263" lon="11.1785524"><ele>132.0</ele><time>2026-04-11T06:43:37.509Z</time></trkpt><trkpt lat="43.4364168" lon="11.1785694"><ele>131.0</ele><time>2026-04-11T06:43:39.507Z</time></trkpt><trkpt lat="43.4364947" lon="11.1785936"><ele>130.0</ele><time>2026-04-11T06:43:41.501Z</time></trkpt><trkpt lat="43.4365756" lon="11.1786296"><ele>129.0</ele><time>2026-04-11T06:43:43.499Z</time></trkpt><trkpt lat="43.4366595" lon="11.178666"><ele>128.0</ele><time>2026-04-11T06:43:45.563Z</time></trkpt><trkpt lat="43.4367615" lon="11.1787054"><ele>127.99999999999999</ele><time>2026-04-11T06:43:47.501Z</time></trkpt><trkpt lat="43.436839" lon="11.1787362"><ele>128.0</ele><time>2026-04-11T06:43:49.51Z</time></trkpt><trkpt lat="43.436918" lon="11.1787769"><ele>128.0</ele><time>2026-04-11T06:43:51.483Z</time></trkpt><trkpt lat="43.4369965" lon="11.1788194"><ele>128.0</ele><time>2026-04-11T06:43:53.578Z</time></trkpt><trkpt lat="43.4370733" lon="11.1788532"><ele>127.99999999999999</ele><time>2026-04-11T06:43:55.508Z</time></trkpt><trkpt lat="43.4371497" lon="11.1788887"><ele>128.0</ele><time>2026-04-11T06:43:57.503Z</time></trkpt><trkpt lat="43.4372296" lon="11.1789273"><ele>127.66666666666666</ele><time>2026-04-11T06:43:59.494Z</time></trkpt><trkpt lat="43.4373128" lon="11.1789669"><ele>127.33333333333333</ele><time>2026-04-11T06:44:01.571Z</time></trkpt><trkpt lat="43.437414" lon="11.17899"><ele>127.0</ele><time>2026-04-11T06:44:03.509Z</time></trkpt><trkpt lat="43.4374985" lon="11.1790128"><ele>126.66666666666666</ele><time>2026-04-11T06:44:05.571Z</time></trkpt><trkpt lat="43.4375641" lon="11.1790472"><ele>126.33333333333333</ele><time>2026-04-11T06:44:07.503Z</time></trkpt><trkpt lat="43.437635" lon="11.1790881"><ele>126.0</ele><time>2026-04-11T06:44:09.573Z</time></trkpt><trkpt lat="43.4377199" lon="11.1791318"><ele>126.0</ele><time>2026-04-11T06:44:11.506Z</time></trkpt><trkpt lat="43.4378134" lon="11.1791543"><ele>126.0</ele><time>2026-04-11T06:44:13.496Z</time></trkpt><trkpt lat="43.4378877" lon="11.1791986"><ele>126.0</ele><time>2026-04-11T06:44:15.569Z</time></trkpt><trkpt lat="43.4379656" lon="11.1792326"><ele>126.0</ele><time>2026-04-11T06:44:17.498Z</time></trkpt><trkpt lat="43.4380515" lon="11.1792429"><ele>126.0</ele><time>2026-04-11T06:44:19.571Z</time></trkpt><trkpt lat="43.438131" lon="11.1792483"><ele>126.0</ele><time>2026-04-11T06:44:21.485Z</time></trkpt><trkpt lat="43.4382014" lon="11.1792526"><ele>125.83333333333333</ele><time>2026-04-11T06:44:23.509Z</time></trkpt><trkpt lat="43.438285" lon="11.1792562"><ele>125.66666666666666</ele><time>2026-04-11T06:44:25.507Z</time></trkpt><trkpt lat="43.4383689" lon="11.1792414"><ele>125.5</ele><time>2026-04-11T06:44:27.496Z</time></trkpt><trkpt lat="43.4384489" lon="11.1792203"><ele>125.33333333333333</ele><time>2026-04-11T06:44:29.561Z</time></trkpt><trkpt lat="43.4385265" lon="11.1791942"><ele>125.16666666666666</ele><time>2026-04-11T06:44:31.512Z</time></trkpt><trkpt lat="43.4386166" lon="11.179149"><ele>125.0</ele><time>2026-04-11T06:44:33.496Z</time></trkpt><trkpt lat="43.4387083" lon="11.1790963"><ele>125.0</ele><time>2026-04-11T06:44:35.507Z</time></trkpt><trkpt lat="43.4388007" lon="11.1790037"><ele>125.0</ele><time>2026-04-11T06:44:37.486Z</time></trkpt><trkpt lat="43.4388832" lon="11.1789026"><ele>125.0</ele><time>2026-04-11T06:44:39.499Z</time></trkpt><trkpt lat="43.4389628" lon="11.1787923"><ele>125.0</ele><time>2026-04-11T06:44:41.491Z</time></trkpt><trkpt lat="43.439034" lon="11.17869"><ele>125.0</ele><time>2026-04-11T06:44:43.53Z</time></trkpt><trkpt lat="43.4390967" lon="11.1785851"><ele>125.0</ele><time>2026-04-11T06:44:45.499Z</time></trkpt><trkpt lat="43.4391553" lon="11.1784725"><ele>125.0</ele><time>2026-04-11T06:44:47.503Z</time></trkpt><trkpt lat="43.4392075" lon="11.1783673"><ele>125.0</ele><time>2026-04-11T06:44:49.567Z</time></trkpt><trkpt lat="43.4392653" lon="11.1782667"><ele>125.0</ele><time>2026-04-11T06:44:51.483Z</time></trkpt><trkpt lat="43.4392982" lon="11.1781667"><ele>125.0</ele><time>2026-04-11T06:44:53.495Z</time></trkpt><trkpt lat="43.4393214" lon="11.1780536"><ele>124.8</ele><time>2026-04-11T06:44:55.579Z</time></trkpt><trkpt lat="43.4393331" lon="11.1779474"><ele>124.6</ele><time>2026-04-11T06:44:57.499Z</time></trkpt><trkpt lat="43.4393269" lon="11.1778244"><ele>124.4</ele><time>2026-04-11T06:44:59.57Z</time></trkpt><trkpt lat="43.4393138" lon="11.1777036"><ele>124.2</ele><time>2026-04-11T06:45:01.49Z</time></trkpt><trkpt lat="43.4392968" lon="11.1775745"><ele>124.0</ele><time>2026-04-11T06:45:03.507Z</time></trkpt><trkpt lat="43.4392613" lon="11.1774472"><ele>124.00000000000001</ele><time>2026-04-11T06:45:05.562Z</time></trkpt><trkpt lat="43.4392403" lon="11.1773573"><ele>124.0</ele><time>2026-04-11T06:45:06.5Z</time></trkpt><trkpt lat="43.4392197" lon="11.1772665"><ele>124.0</ele><time>2026-04-11T06:45:07.496Z</time></trkpt><trkpt lat="43.4391834" lon="11.1771413"><ele>124.0</ele><time>2026-04-11T06:45:09.487Z</time></trkpt><trkpt lat="43.4391714" lon="11.1770128"><ele>124.00000000000001</ele><time>2026-04-11T06:45:11.5Z</time></trkpt><trkpt lat="43.439174" lon="11.1768879"><ele>124.0</ele><time>2026-04-11T06:45:13.496Z</time></trkpt><trkpt lat="43.439186" lon="11.1767699"><ele>124.16666666666667</ele><time>2026-04-11T06:45:15.568Z</time></trkpt><trkpt lat="43.4392046" lon="11.1766543"><ele>124.33333333333334</ele><time>2026-04-11T06:45:17.515Z</time></trkpt><trkpt lat="43.4392201" lon="11.1765368"><ele>124.5</ele><time>2026-04-11T06:45:19.485Z</time></trkpt><trkpt lat="43.4392344" lon="11.1764174"><ele>124.66666666666666</ele><time>2026-04-11T06:45:21.508Z</time></trkpt><trkpt lat="43.439253" lon="11.1762938"><ele>124.83333333333333</ele><time>2026-04-11T06:45:23.568Z</time></trkpt><trkpt lat="43.4392751" lon="11.1761745"><ele>125.0</ele><time>2026-04-11T06:45:25.573Z</time></trkpt><trkpt lat="43.4392951" lon="11.1760608"><ele>124.8</ele><time>2026-04-11T06:45:27.501Z</time></trkpt><trkpt lat="43.4393258" lon="11.1759368"><ele>124.6</ele><time>2026-04-11T06:45:29.582Z</time></trkpt><trkpt lat="43.4393486" lon="11.1758007"><ele>124.4</ele><time>2026-04-11T06:45:31.493Z</time></trkpt><trkpt lat="43.4393654" lon="11.175699"><ele>124.2</ele><time>2026-04-11T06:45:33.499Z</time></trkpt><trkpt lat="43.4393972" lon="11.175591"><ele>124.0</ele><time>2026-04-11T06:45:35.571Z</time></trkpt><trkpt lat="43.4394312" lon="11.1754664"><ele>124.0</ele><time>2026-04-11T06:45:37.514Z</time></trkpt><trkpt lat="43.4394568" lon="11.1753574"><ele>124.0</ele><time>2026-04-11T06:45:39.495Z</time></trkpt><trkpt lat="43.4394874" lon="11.1752369"><ele>124.0</ele><time>2026-04-11T06:45:41.508Z</time></trkpt><trkpt lat="43.4395208" lon="11.1751194"><ele>124.0</ele><time>2026-04-11T06:45:43.502Z</time></trkpt><trkpt lat="43.4395524" lon="11.1750029"><ele>124.0</ele><time>2026-04-11T06:45:45.557Z</time></trkpt><trkpt lat="43.4395819" lon="11.1748827"><ele>123.80000000000001</ele><time>2026-04-11T06:45:47.5Z</time></trkpt><trkpt lat="43.4395981" lon="11.1747545"><ele>123.60000000000001</ele><time>2026-04-11T06:45:49.471Z</time></trkpt><trkpt lat="43.4396125" lon="11.1746303"><ele>123.4</ele><time>2026-04-11T06:45:51.491Z</time></trkpt><trkpt lat="43.4396131" lon="11.1745058"><ele>123.2</ele><time>2026-04-11T06:45:53.501Z</time></trkpt><trkpt lat="43.4396063" lon="11.1743858"><ele>123.0</ele><time>2026-04-11T06:45:55.482Z</time></trkpt><trkpt lat="43.4395882" lon="11.1742698"><ele>123.0</ele><time>2026-04-11T06:45:57.476Z</time></trkpt><trkpt lat="43.4395661" lon="11.174147"><ele>123.00000000000001</ele><time>2026-04-11T06:45:59.483Z</time></trkpt><trkpt lat="43.4395405" lon="11.1740212"><ele>123.00000000000001</ele><time>2026-04-11T06:46:01.575Z</time></trkpt><trkpt lat="43.4395036" lon="11.1738896"><ele>123.0</ele><time>2026-04-11T06:46:03.504Z</time></trkpt><trkpt lat="43.4394663" lon="11.1737777"><ele>123.0</ele><time>2026-04-11T06:46:05.485Z</time></trkpt><trkpt lat="43.439438" lon="11.1736739"><ele>123.0</ele><time>2026-04-11T06:46:07.495Z</time></trkpt><trkpt lat="43.4394092" lon="11.1735686"><ele>123.0</ele><time>2026-04-11T06:46:09.561Z</time></trkpt><trkpt lat="43.4393685" lon="11.173444"><ele>123.0</ele><time>2026-04-11T06:46:11.57Z</time></trkpt><trkpt lat="43.439354" lon="11.173336"><ele>123.0</ele><time>2026-04-11T06:46:13.504Z</time></trkpt><trkpt lat="43.4393642" lon="11.17321"><ele>123.0</ele><time>2026-04-11T06:46:15.57Z</time></trkpt><trkpt lat="43.4393786" lon="11.1731191"><ele>123.0</ele><time>2026-04-11T06:46:17.503Z</time></trkpt><trkpt lat="43.4394301" lon="11.1730399"><ele>122.60000000000001</ele><time>2026-04-11T06:46:19.576Z</time></trkpt><trkpt lat="43.4395085" lon="11.1729726"><ele>122.20000000000002</ele><time>2026-04-11T06:46:21.584Z</time></trkpt><trkpt lat="43.4396083" lon="11.1729149"><ele>121.8</ele><time>2026-04-11T06:46:23.512Z</time></trkpt><trkpt lat="43.4396911" lon="11.172854"><ele>121.4</ele><time>2026-04-11T06:46:25.565Z</time></trkpt><trkpt lat="43.4397877" lon="11.1727893"><ele>121.0</ele><time>2026-04-11T06:46:27.501Z</time></trkpt><trkpt lat="43.4398488" lon="11.1727094"><ele>121.0</ele><time>2026-04-11T06:46:29.575Z</time></trkpt><trkpt lat="43.4399208" lon="11.1726332"><ele>121.0</ele><time>2026-04-11T06:46:31.489Z</time></trkpt><trkpt lat="43.4399971" lon="11.1725578"><ele>121.0</ele><time>2026-04-11T06:46:33.494Z</time></trkpt><trkpt lat="43.440064" lon="11.1724843"><ele>121.0</ele><time>2026-04-11T06:46:35.493Z</time></trkpt><trkpt lat="43.4401413" lon="11.1724086"><ele>121.0</ele><time>2026-04-11T06:46:37.5Z</time></trkpt><trkpt lat="43.4402132" lon="11.1723295"><ele>121.4</ele><time>2026-04-11T06:46:39.511Z</time></trkpt><trkpt lat="43.4402822" lon="11.1722426"><ele>121.8</ele><time>2026-04-11T06:46:41.486Z</time></trkpt><trkpt lat="43.4403555" lon="11.1721496"><ele>122.20000000000002</ele><time>2026-04-11T06:46:43.501Z</time></trkpt><trkpt lat="43.4404355" lon="11.1720557"><ele>122.60000000000001</ele><time>2026-04-11T06:46:45.512Z</time></trkpt><trkpt lat="43.4405083" lon="11.1719637"><ele>123.0</ele><time>2026-04-11T06:46:47.499Z</time></trkpt><trkpt lat="43.440578" lon="11.1718664"><ele>123.0</ele><time>2026-04-11T06:46:49.574Z</time></trkpt><trkpt lat="43.4406385" lon="11.1717702"><ele>123.0</ele><time>2026-04-11T06:46:51.507Z</time></trkpt><trkpt lat="43.4406854" lon="11.1716529"><ele>123.0</ele><time>2026-04-11T06:46:53.505Z</time></trkpt><trkpt lat="43.4407151" lon="11.1715368"><ele>123.0</ele><time>2026-04-11T06:46:55.572Z</time></trkpt><trkpt lat="43.44075" lon="11.1714273"><ele>123.0</ele><time>2026-04-11T06:46:57.502Z</time></trkpt><trkpt lat="43.440759" lon="11.1713155"><ele>123.0</ele><time>2026-04-11T06:46:59.566Z</time></trkpt><trkpt lat="43.4407725" lon="11.1712059"><ele>123.16666666666667</ele><time>2026-04-11T06:47:01.568Z</time></trkpt><trkpt lat="43.4407823" lon="11.1711011"><ele>123.33333333333334</ele><time>2026-04-11T06:47:03.507Z</time></trkpt><trkpt lat="43.4407977" lon="11.1709848"><ele>123.5</ele><time>2026-04-11T06:47:05.563Z</time></trkpt><trkpt lat="43.4408075" lon="11.1708757"><ele>123.66666666666667</ele><time>2026-04-11T06:47:07.493Z</time></trkpt><trkpt lat="43.4408165" lon="11.1707341"><ele>123.83333333333334</ele><time>2026-04-11T06:47:09.567Z</time></trkpt><trkpt lat="43.4408284" lon="11.1705993"><ele>124.0</ele><time>2026-04-11T06:47:11.502Z</time></trkpt><trkpt lat="43.4408435" lon="11.1704774"><ele>124.33333333333334</ele><time>2026-04-11T06:47:13.508Z</time></trkpt><trkpt lat="43.4408413" lon="11.1703536"><ele>124.66666666666667</ele><time>2026-04-11T06:47:15.56Z</time></trkpt><trkpt lat="43.4408157" lon="11.170231"><ele>125.0</ele><time>2026-04-11T06:47:17.487Z</time></trkpt><trkpt lat="43.440765" lon="11.1701311"><ele>125.33333333333334</ele><time>2026-04-11T06:47:19.49Z</time></trkpt><trkpt lat="43.4407161" lon="11.1700402"><ele>125.66666666666667</ele><time>2026-04-11T06:47:21.484Z</time></trkpt><trkpt lat="43.4406742" lon="11.1699333"><ele>126.0</ele><time>2026-04-11T06:47:23.484Z</time></trkpt><trkpt lat="43.4406466" lon="11.1698461"><ele>125.33333333333333</ele><time>2026-04-11T06:47:25.578Z</time></trkpt><trkpt lat="43.440628" lon="11.1697599"><ele>124.66666666666666</ele><time>2026-04-11T06:47:27.513Z</time></trkpt><trkpt lat="43.4405885" lon="11.1696401"><ele>124.0</ele><time>2026-04-11T06:47:29.566Z</time></trkpt><trkpt lat="43.4405509" lon="11.1695472"><ele>123.33333333333333</ele><time>2026-04-11T06:47:31.508Z</time></trkpt><trkpt lat="43.440539" lon="11.1694217"><ele>122.66666666666666</ele><time>2026-04-11T06:47:33.507Z</time></trkpt><trkpt lat="43.4405021" lon="11.1692858"><ele>122.0</ele><time>2026-04-11T06:47:35.566Z</time></trkpt><trkpt lat="43.4404486" lon="11.1691789"><ele>121.99999999999999</ele><time>2026-04-11T06:47:37.51Z</time></trkpt><trkpt lat="43.4404096" lon="11.1690794"><ele>122.0</ele><time>2026-04-11T06:47:39.571Z</time></trkpt><trkpt lat="43.4403716" lon="11.1689896"><ele>122.0</ele><time>2026-04-11T06:47:41.48Z</time></trkpt><trkpt lat="43.4403445" lon="11.1688997"><ele>122.0</ele><time>2026-04-11T06:47:43.502Z</time></trkpt><trkpt lat="43.440314" lon="11.1688105"><ele>121.99999999999999</ele><time>2026-04-11T06:47:45.56Z</time></trkpt><trkpt lat="43.4402875" lon="11.1686877"><ele>122.0</ele><time>2026-04-11T06:47:47.501Z</time></trkpt><trkpt lat="43.4402206" lon="11.1685992"><ele>122.16666666666666</ele><time>2026-04-11T06:47:49.496Z</time></trkpt><trkpt lat="43.4401623" lon="11.1685116"><ele>122.33333333333333</ele><time>2026-04-11T06:47:51.505Z</time></trkpt><trkpt lat="43.440117" lon="11.1684072"><ele>122.5</ele><time>2026-04-11T06:47:53.501Z</time></trkpt><trkpt lat="43.440065" lon="11.1682999"><ele>122.66666666666666</ele><time>2026-04-11T06:47:55.578Z</time></trkpt><trkpt lat="43.4400111" lon="11.1682042"><ele>122.83333333333333</ele><time>2026-04-11T06:47:57.477Z</time></trkpt><trkpt lat="43.4399557" lon="11.1681079"><ele>123.0</ele><time>2026-04-11T06:47:59.491Z</time></trkpt><trkpt lat="43.4399023" lon="11.168016"><ele>124.0</ele><time>2026-04-11T06:48:01.571Z</time></trkpt><trkpt lat="43.4398589" lon="11.167888"><ele>125.00000000000001</ele><time>2026-04-11T06:48:03.492Z</time></trkpt><trkpt lat="43.4398237" lon="11.1677603"><ele>126.00000000000001</ele><time>2026-04-11T06:48:05.565Z</time></trkpt><trkpt lat="43.4397912" lon="11.1676791"><ele>127.0</ele><time>2026-04-11T06:48:07.516Z</time></trkpt><trkpt lat="43.439728" lon="11.1675705"><ele>128.0</ele><time>2026-04-11T06:48:09.568Z</time></trkpt><trkpt lat="43.4396502" lon="11.1674789"><ele>128.16666666666666</ele><time>2026-04-11T06:48:11.489Z</time></trkpt><trkpt lat="43.4395695" lon="11.1674127"><ele>128.33333333333331</ele><time>2026-04-11T06:48:13.511Z</time></trkpt><trkpt lat="43.4395058" lon="11.1673536"><ele>128.5</ele><time>2026-04-11T06:48:15.583Z</time></trkpt><trkpt lat="43.4394652" lon="11.1672721"><ele>128.66666666666666</ele><time>2026-04-11T06:48:17.493Z</time></trkpt><trkpt lat="43.4394171" lon="11.1672056"><ele>128.83333333333334</ele><time>2026-04-11T06:48:20.626Z</time></trkpt><trkpt lat="43.4393445" lon="11.167136"><ele>129.0</ele><time>2026-04-11T06:48:23.503Z</time></trkpt><trkpt lat="43.439326" lon="11.1670494"><ele>129.0</ele><time>2026-04-11T06:48:28.511Z</time></trkpt><trkpt lat="43.439243" lon="11.1670238"><ele>129.0</ele><time>2026-04-11T06:48:30.498Z</time></trkpt><trkpt lat="43.4391438" lon="11.1669923"><ele>129.0</ele><time>2026-04-11T06:48:32.505Z</time></trkpt><trkpt lat="43.4390429" lon="11.1669362"><ele>129.0</ele><time>2026-04-11T06:48:34.499Z</time></trkpt><trkpt lat="43.4389557" lon="11.1668741"><ele>129.0</ele><time>2026-04-11T06:48:36.496Z</time></trkpt><trkpt lat="43.4388858" lon="11.1668061"><ele>129.0</ele><time>2026-04-11T06:48:38.498Z</time></trkpt><trkpt lat="43.4388154" lon="11.1667388"><ele>129.0</ele><time>2026-04-11T06:48:40.499Z</time></trkpt><trkpt lat="43.4387456" lon="11.1666818"><ele>129.0</ele><time>2026-04-11T06:48:42.491Z</time></trkpt><trkpt lat="43.4386827" lon="11.1666321"><ele>129.0</ele><time>2026-04-11T06:48:44.496Z</time></trkpt><trkpt lat="43.4386237" lon="11.1665838"><ele>129.0</ele><time>2026-04-11T06:48:46.498Z</time></trkpt><trkpt lat="43.4385619" lon="11.166537"><ele>129.0</ele><time>2026-04-11T06:48:48.497Z</time></trkpt><trkpt lat="43.4385016" lon="11.166484"><ele>128.5</ele><time>2026-04-11T06:48:50.483Z</time></trkpt><trkpt lat="43.4384453" lon="11.16643"><ele>128.0</ele><time>2026-04-11T06:48:52.51Z</time></trkpt><trkpt lat="43.4383952" lon="11.1663668"><ele>127.5</ele><time>2026-04-11T06:48:54.512Z</time></trkpt><trkpt lat="43.4383322" lon="11.1663016"><ele>127.0</ele><time>2026-04-11T06:48:56.503Z</time></trkpt><trkpt lat="43.438268" lon="11.1662301"><ele>126.5</ele><time>2026-04-11T06:48:58.508Z</time></trkpt><trkpt lat="43.4382" lon="11.1661542"><ele>126.0</ele><time>2026-04-11T06:49:00.495Z</time></trkpt><trkpt lat="43.4381152" lon="11.1660475"><ele>126.0</ele><time>2026-04-11T06:49:02.494Z</time></trkpt><trkpt lat="43.438039" lon="11.1659172"><ele>126.0</ele><time>2026-04-11T06:49:04.505Z</time></trkpt><trkpt lat="43.4379702" lon="11.1657866"><ele>126.0</ele><time>2026-04-11T06:49:06.505Z</time></trkpt><trkpt lat="43.4379091" lon="11.1656544"><ele>126.0</ele><time>2026-04-11T06:49:08.511Z</time></trkpt><trkpt lat="43.4378486" lon="11.1655175"><ele>125.19999999999999</ele><time>2026-04-11T06:49:10.5Z</time></trkpt><trkpt lat="43.4377789" lon="11.1653885"><ele>124.39999999999999</ele><time>2026-04-11T06:49:12.525Z</time></trkpt><trkpt lat="43.4377047" lon="11.1652584"><ele>123.6</ele><time>2026-04-11T06:49:14.509Z</time></trkpt><trkpt lat="43.4376659" lon="11.1651897"><ele>122.8</ele><time>2026-04-11T06:49:15.499Z</time></trkpt><trkpt lat="43.4375989" lon="11.1650522"><ele>122.0</ele><time>2026-04-11T06:49:17.505Z</time></trkpt><trkpt lat="43.437542" lon="11.1649078"><ele>122.19999999999999</ele><time>2026-04-11T06:49:19.494Z</time></trkpt><trkpt lat="43.4374954" lon="11.1647596"><ele>122.39999999999999</ele><time>2026-04-11T06:49:21.504Z</time></trkpt><trkpt lat="43.4374555" lon="11.1646166"><ele>122.60000000000001</ele><time>2026-04-11T06:49:23.513Z</time></trkpt><trkpt lat="43.4374228" lon="11.1644731"><ele>122.80000000000001</ele><time>2026-04-11T06:49:25.49Z</time></trkpt><trkpt lat="43.4373903" lon="11.1643341"><ele>123.0</ele><time>2026-04-11T06:49:27.512Z</time></trkpt><trkpt lat="43.4373602" lon="11.1642028"><ele>123.0</ele><time>2026-04-11T06:49:29.514Z</time></trkpt><trkpt lat="43.4373392" lon="11.1640721"><ele>123.00000000000001</ele><time>2026-04-11T06:49:31.508Z</time></trkpt><trkpt lat="43.4373259" lon="11.1639452"><ele>123.00000000000001</ele><time>2026-04-11T06:49:33.499Z</time></trkpt><trkpt lat="43.437316" lon="11.1638131"><ele>123.0</ele><time>2026-04-11T06:49:35.505Z</time></trkpt><trkpt lat="43.4373092" lon="11.1636807"><ele>123.0</ele><time>2026-04-11T06:49:37.514Z</time></trkpt><trkpt lat="43.4373067" lon="11.1635376"><ele>122.80000000000001</ele><time>2026-04-11T06:49:39.512Z</time></trkpt><trkpt lat="43.4373163" lon="11.1633775"><ele>122.60000000000001</ele><time>2026-04-11T06:49:41.518Z</time></trkpt><trkpt lat="43.4373088" lon="11.163263"><ele>122.39999999999999</ele><time>2026-04-11T06:49:43.495Z</time></trkpt><trkpt lat="43.4373007" lon="11.1630906"><ele>122.19999999999999</ele><time>2026-04-11T06:49:46.509Z</time></trkpt><trkpt lat="43.4373062" lon="11.1629682"><ele>122.0</ele><time>2026-04-11T06:49:48.497Z</time></trkpt><trkpt lat="43.4373128" lon="11.1628378"><ele>122.0</ele><time>2026-04-11T06:49:50.502Z</time></trkpt><trkpt lat="43.4373272" lon="11.1627059"><ele>121.99999999999999</ele><time>2026-04-11T06:49:52.508Z</time></trkpt><trkpt lat="43.4373401" lon="11.1625706"><ele>121.99999999999999</ele><time>2026-04-11T06:49:54.5Z</time></trkpt><trkpt lat="43.4373577" lon="11.1624376"><ele>122.0</ele><time>2026-04-11T06:49:56.491Z</time></trkpt><trkpt lat="43.4373811" lon="11.1623075"><ele>122.0</ele><time>2026-04-11T06:49:58.498Z</time></trkpt><trkpt lat="43.437404" lon="11.1621724"><ele>121.8</ele><time>2026-04-11T06:50:00.506Z</time></trkpt><trkpt lat="43.4374276" lon="11.1620402"><ele>121.6</ele><time>2026-04-11T06:50:02.507Z</time></trkpt><trkpt lat="43.4374487" lon="11.1619053"><ele>121.39999999999999</ele><time>2026-04-11T06:50:04.504Z</time></trkpt><trkpt lat="43.437471" lon="11.1617732"><ele>121.19999999999999</ele><time>2026-04-11T06:50:06.506Z</time></trkpt><trkpt lat="43.4374902" lon="11.1616316"><ele>121.0</ele><time>2026-04-11T06:50:08.512Z</time></trkpt><trkpt lat="43.437505" lon="11.161495"><ele>121.0</ele><time>2026-04-11T06:50:10.498Z</time></trkpt><trkpt lat="43.4375249" lon="11.1613682"><ele>121.0</ele><time>2026-04-11T06:50:12.508Z</time></trkpt><trkpt lat="43.4375392" lon="11.1612415"><ele>121.0</ele><time>2026-04-11T06:50:14.509Z</time></trkpt><trkpt lat="43.437561" lon="11.1611201"><ele>121.0</ele><time>2026-04-11T06:50:16.5Z</time></trkpt><trkpt lat="43.4375821" lon="11.1609916"><ele>121.0</ele><time>2026-04-11T06:50:18.484Z</time></trkpt><trkpt lat="43.4376078" lon="11.1608642"><ele>121.0</ele><time>2026-04-11T06:50:20.498Z</time></trkpt><trkpt lat="43.43763" lon="11.1607309"><ele>121.0</ele><time>2026-04-11T06:50:22.506Z</time></trkpt><trkpt lat="43.4376581" lon="11.1606014"><ele>121.0</ele><time>2026-04-11T06:50:24.499Z</time></trkpt><trkpt lat="43.4376889" lon="11.1604688"><ele>121.0</ele><time>2026-04-11T06:50:26.507Z</time></trkpt><trkpt lat="43.4377232" lon="11.1603293"><ele>121.0</ele><time>2026-04-11T06:50:28.498Z</time></trkpt><trkpt lat="43.4377573" lon="11.1602014"><ele>120.8</ele><time>2026-04-11T06:50:30.508Z</time></trkpt><trkpt lat="43.4378022" lon="11.1600798"><ele>120.6</ele><time>2026-04-11T06:50:32.504Z</time></trkpt><trkpt lat="43.4378481" lon="11.159955"><ele>120.4</ele><time>2026-04-11T06:50:34.506Z</time></trkpt><trkpt lat="43.4378943" lon="11.1598318"><ele>120.2</ele><time>2026-04-11T06:50:36.512Z</time></trkpt><trkpt lat="43.4379428" lon="11.1597012"><ele>120.0</ele><time>2026-04-11T06:50:38.499Z</time></trkpt><trkpt lat="43.4379888" lon="11.1595814"><ele>120.6</ele><time>2026-04-11T06:50:40.499Z</time></trkpt><trkpt lat="43.4380372" lon="11.1594585"><ele>121.2</ele><time>2026-04-11T06:50:42.494Z</time></trkpt><trkpt lat="43.4380855" lon="11.1593391"><ele>121.80000000000001</ele><time>2026-04-11T06:50:44.498Z</time></trkpt><trkpt lat="43.4381363" lon="11.1592231"><ele>122.4</ele><time>2026-04-11T06:50:46.502Z</time></trkpt><trkpt lat="43.4381921" lon="11.1591051"><ele>123.0</ele><time>2026-04-11T06:50:48.509Z</time></trkpt><trkpt lat="43.4382473" lon="11.1589939"><ele>123.0</ele><time>2026-04-11T06:50:50.496Z</time></trkpt><trkpt lat="43.4383018" lon="11.1588838"><ele>123.00000000000001</ele><time>2026-04-11T06:50:52.508Z</time></trkpt><trkpt lat="43.4383599" lon="11.1587787"><ele>123.00000000000001</ele><time>2026-04-11T06:50:54.498Z</time></trkpt><trkpt lat="43.438418" lon="11.1586701"><ele>123.0</ele><time>2026-04-11T06:50:56.494Z</time></trkpt><trkpt lat="43.4384787" lon="11.1585664"><ele>123.0</ele><time>2026-04-11T06:50:58.487Z</time></trkpt><trkpt lat="43.4385425" lon="11.1584716"><ele>123.0</ele><time>2026-04-11T06:51:00.5Z</time></trkpt><trkpt lat="43.438608" lon="11.1583851"><ele>123.0</ele><time>2026-04-11T06:51:02.498Z</time></trkpt><trkpt lat="43.4386661" lon="11.1582992"><ele>123.0</ele><time>2026-04-11T06:51:04.505Z</time></trkpt><trkpt lat="43.4387231" lon="11.158207"><ele>123.0</ele><time>2026-04-11T06:51:06.507Z</time></trkpt><trkpt lat="43.4387733" lon="11.1581077"><ele>123.0</ele><time>2026-04-11T06:51:08.506Z</time></trkpt><trkpt lat="43.4388252" lon="11.1580074"><ele>123.0</ele><time>2026-04-11T06:51:10.506Z</time></trkpt><trkpt lat="43.4388828" lon="11.1579141"><ele>123.0</ele><time>2026-04-11T06:51:12.498Z</time></trkpt><trkpt lat="43.4389469" lon="11.1578263"><ele>123.00000000000001</ele><time>2026-04-11T06:51:14.507Z</time></trkpt><trkpt lat="43.4389932" lon="11.1577091"><ele>123.00000000000001</ele><time>2026-04-11T06:51:16.507Z</time></trkpt><trkpt lat="43.4390171" lon="11.1575764"><ele>123.0</ele><time>2026-04-11T06:51:18.509Z</time></trkpt><trkpt lat="43.4390264" lon="11.1574379"><ele>123.0</ele><time>2026-04-11T06:51:20.492Z</time></trkpt><trkpt lat="43.4390346" lon="11.1572904"><ele>121.80000000000001</ele><time>2026-04-11T06:51:22.503Z</time></trkpt><trkpt lat="43.4390408" lon="11.1571393"><ele>120.60000000000001</ele><time>2026-04-11T06:51:24.494Z</time></trkpt><trkpt lat="43.4390401" lon="11.1569817"><ele>119.39999999999999</ele><time>2026-04-11T06:51:26.51Z</time></trkpt><trkpt lat="43.4390371" lon="11.1568299"><ele>118.19999999999999</ele><time>2026-04-11T06:51:28.496Z</time></trkpt><trkpt lat="43.4390185" lon="11.1566754"><ele>117.0</ele><time>2026-04-11T06:51:30.511Z</time></trkpt><trkpt lat="43.4389762" lon="11.1565236"><ele>116.8</ele><time>2026-04-11T06:51:32.515Z</time></trkpt><trkpt lat="43.4389221" lon="11.1563831"><ele>116.6</ele><time>2026-04-11T06:51:34.48Z</time></trkpt><trkpt lat="43.4388697" lon="11.1562574"><ele>116.39999999999999</ele><time>2026-04-11T06:51:36.505Z</time></trkpt><trkpt lat="43.4388175" lon="11.1561389"><ele>116.19999999999999</ele><time>2026-04-11T06:51:38.508Z</time></trkpt><trkpt lat="43.4387766" lon="11.1560169"><ele>116.0</ele><time>2026-04-11T06:51:40.503Z</time></trkpt><trkpt lat="43.4387304" lon="11.1558932"><ele>117.8</ele><time>2026-04-11T06:51:42.501Z</time></trkpt><trkpt lat="43.4386887" lon="11.155781"><ele>119.6</ele><time>2026-04-11T06:51:44.511Z</time></trkpt><trkpt lat="43.4386761" lon="11.1556575"><ele>121.4</ele><time>2026-04-11T06:51:46.504Z</time></trkpt><trkpt lat="43.4386991" lon="11.1555219"><ele>123.2</ele><time>2026-04-11T06:51:48.508Z</time></trkpt><trkpt lat="43.4387418" lon="11.1554004"><ele>125.0</ele><time>2026-04-11T06:51:50.508Z</time></trkpt><trkpt lat="43.4388" lon="11.155295"><ele>123.6</ele><time>2026-04-11T06:51:52.495Z</time></trkpt><trkpt lat="43.4388616" lon="11.1552006"><ele>122.2</ele><time>2026-04-11T06:51:54.509Z</time></trkpt><trkpt lat="43.438922" lon="11.1551086"><ele>120.80000000000001</ele><time>2026-04-11T06:51:56.508Z</time></trkpt><trkpt lat="43.4389775" lon="11.1550175"><ele>119.4</ele><time>2026-04-11T06:51:58.507Z</time></trkpt><trkpt lat="43.439036" lon="11.1549129"><ele>118.0</ele><time>2026-04-11T06:52:00.496Z</time></trkpt><trkpt lat="43.4390965" lon="11.1547963"><ele>118.0</ele><time>2026-04-11T06:52:02.495Z</time></trkpt><trkpt lat="43.4391608" lon="11.154688"><ele>118.00000000000001</ele><time>2026-04-11T06:52:04.505Z</time></trkpt><trkpt lat="43.4392234" lon="11.154587"><ele>118.00000000000001</ele><time>2026-04-11T06:52:06.51Z</time></trkpt><trkpt lat="43.4392939" lon="11.1544918"><ele>118.0</ele><time>2026-04-11T06:52:08.496Z</time></trkpt><trkpt lat="43.4393798" lon="11.154416"><ele>118.0</ele><time>2026-04-11T06:52:10.506Z</time></trkpt><trkpt lat="43.43947" lon="11.154342"><ele>118.0</ele><time>2026-04-11T06:52:12.504Z</time></trkpt><trkpt lat="43.4395611" lon="11.1542699"><ele>118.00000000000001</ele><time>2026-04-11T06:52:14.502Z</time></trkpt><trkpt lat="43.4396464" lon="11.1541932"><ele>118.00000000000001</ele><time>2026-04-11T06:52:16.506Z</time></trkpt><trkpt lat="43.4397307" lon="11.1541231"><ele>118.0</ele><time>2026-04-11T06:52:18.497Z</time></trkpt><trkpt lat="43.4398113" lon="11.1540579"><ele>118.0</ele><time>2026-04-11T06:52:20.498Z</time></trkpt><trkpt lat="43.439899" lon="11.1539909"><ele>117.60000000000001</ele><time>2026-04-11T06:52:22.499Z</time></trkpt><trkpt lat="43.4399823" lon="11.1539228"><ele>117.20000000000002</ele><time>2026-04-11T06:52:24.503Z</time></trkpt><trkpt lat="43.440067" lon="11.1538634"><ele>116.8</ele><time>2026-04-11T06:52:26.509Z</time></trkpt><trkpt lat="43.4401492" lon="11.1538048"><ele>116.4</ele><time>2026-04-11T06:52:28.479Z</time></trkpt><trkpt lat="43.4402356" lon="11.1537456"><ele>116.0</ele><time>2026-04-11T06:52:30.508Z</time></trkpt><trkpt lat="43.4403165" lon="11.1536836"><ele>116.0</ele><time>2026-04-11T06:52:32.508Z</time></trkpt><trkpt lat="43.4404049" lon="11.1536108"><ele>116.0</ele><time>2026-04-11T06:52:34.502Z</time></trkpt><trkpt lat="43.4405013" lon="11.1535554"><ele>116.0</ele><time>2026-04-11T06:52:36.497Z</time></trkpt><trkpt lat="43.4406051" lon="11.1535209"><ele>116.0</ele><time>2026-04-11T06:52:38.5Z</time></trkpt><trkpt lat="43.4407057" lon="11.1534917"><ele>116.0</ele><time>2026-04-11T06:52:40.503Z</time></trkpt><trkpt lat="43.4408084" lon="11.1534656"><ele>115.8</ele><time>2026-04-11T06:52:42.497Z</time></trkpt><trkpt lat="43.4409137" lon="11.1534567"><ele>115.6</ele><time>2026-04-11T06:52:44.503Z</time></trkpt><trkpt lat="43.4410142" lon="11.1534697"><ele>115.4</ele><time>2026-04-11T06:52:46.498Z</time></trkpt><trkpt lat="43.4411119" lon="11.1535258"><ele>115.2</ele><time>2026-04-11T06:52:48.501Z</time></trkpt><trkpt lat="43.4411958" lon="11.1536284"><ele>115.0</ele><time>2026-04-11T06:52:50.495Z</time></trkpt><trkpt lat="43.4412834" lon="11.1537216"><ele>114.8</ele><time>2026-04-11T06:52:52.509Z</time></trkpt><trkpt lat="43.4413507" lon="11.1538189"><ele>114.6</ele><time>2026-04-11T06:52:54.519Z</time></trkpt><trkpt lat="43.4414222" lon="11.1539113"><ele>114.4</ele><time>2026-04-11T06:52:56.511Z</time></trkpt><trkpt lat="43.4415039" lon="11.1539778"><ele>114.2</ele><time>2026-04-11T06:52:58.503Z</time></trkpt><trkpt lat="43.4415943" lon="11.1540109"><ele>114.0</ele><time>2026-04-11T06:53:00.501Z</time></trkpt><trkpt lat="43.4416932" lon="11.1539989"><ele>114.0</ele><time>2026-04-11T06:53:02.505Z</time></trkpt><trkpt lat="43.4417911" lon="11.153976"><ele>114.0</ele><time>2026-04-11T06:53:04.505Z</time></trkpt><trkpt lat="43.4418831" lon="11.1539514"><ele>114.0</ele><time>2026-04-11T06:53:06.5Z</time></trkpt><trkpt lat="43.441972" lon="11.153918"><ele>114.0</ele><time>2026-04-11T06:53:08.501Z</time></trkpt><trkpt lat="43.4420657" lon="11.1538793"><ele>114.0</ele><time>2026-04-11T06:53:10.497Z</time></trkpt><trkpt lat="43.4421651" lon="11.1538229"><ele>114.2</ele><time>2026-04-11T06:53:12.501Z</time></trkpt><trkpt lat="43.442255" lon="11.1537624"><ele>114.4</ele><time>2026-04-11T06:53:14.499Z</time></trkpt><trkpt lat="43.442331" lon="11.1536568"><ele>114.6</ele><time>2026-04-11T06:53:16.5Z</time></trkpt><trkpt lat="43.4424033" lon="11.1535477"><ele>114.8</ele><time>2026-04-11T06:53:18.495Z</time></trkpt><trkpt lat="43.4424767" lon="11.1534446"><ele>115.0</ele><time>2026-04-11T06:53:20.503Z</time></trkpt><trkpt lat="43.4425534" lon="11.1533541"><ele>115.0</ele><time>2026-04-11T06:53:22.496Z</time></trkpt><trkpt lat="43.4426285" lon="11.1532561"><ele>115.0</ele><time>2026-04-11T06:53:24.494Z</time></trkpt><trkpt lat="43.4426941" lon="11.1531409"><ele>115.0</ele><time>2026-04-11T06:53:26.509Z</time></trkpt><trkpt lat="43.4427532" lon="11.1530319"><ele>115.0</ele><time>2026-04-11T06:53:28.499Z</time></trkpt><trkpt lat="43.4428098" lon="11.1529206"><ele>115.0</ele><time>2026-04-11T06:53:30.503Z</time></trkpt><trkpt lat="43.4428788" lon="11.1528159"><ele>114.6</ele><time>2026-04-11T06:53:32.508Z</time></trkpt><trkpt lat="43.4429577" lon="11.1527207"><ele>114.2</ele><time>2026-04-11T06:53:34.513Z</time></trkpt><trkpt lat="43.4430366" lon="11.1526421"><ele>113.80000000000001</ele><time>2026-04-11T06:53:36.498Z</time></trkpt><trkpt lat="43.4431225" lon="11.1525688"><ele>113.4</ele><time>2026-04-11T06:53:38.503Z</time></trkpt><trkpt lat="43.4432142" lon="11.1525101"><ele>113.0</ele><time>2026-04-11T06:53:40.503Z</time></trkpt><trkpt lat="43.4433239" lon="11.1525009"><ele>112.60000000000001</ele><time>2026-04-11T06:53:42.505Z</time></trkpt><trkpt lat="43.4434295" lon="11.1525183"><ele>112.20000000000002</ele><time>2026-04-11T06:53:44.495Z</time></trkpt><trkpt lat="43.4435336" lon="11.1525326"><ele>111.8</ele><time>2026-04-11T06:53:46.508Z</time></trkpt><trkpt lat="43.4436395" lon="11.1525434"><ele>111.4</ele><time>2026-04-11T06:53:48.511Z</time></trkpt><trkpt lat="43.4437442" lon="11.1525489"><ele>111.0</ele><time>2026-04-11T06:53:50.505Z</time></trkpt><trkpt lat="43.443839" lon="11.1525159"><ele>111.0</ele><time>2026-04-11T06:53:52.502Z</time></trkpt><trkpt lat="43.4439276" lon="11.1524723"><ele>111.0</ele><time>2026-04-11T06:53:54.497Z</time></trkpt><trkpt lat="43.4440064" lon="11.1523838"><ele>111.0</ele><time>2026-04-11T06:53:56.509Z</time></trkpt><trkpt lat="43.4440793" lon="11.1522861"><ele>111.0</ele><time>2026-04-11T06:53:58.511Z</time></trkpt><trkpt lat="43.4441581" lon="11.1521927"><ele>111.0</ele><time>2026-04-11T06:54:00.559Z</time></trkpt><trkpt lat="43.4442087" lon="11.152137"><ele>111.19999999999999</ele><time>2026-04-11T06:54:01.492Z</time></trkpt><trkpt lat="43.4443416" lon="11.1520995"><ele>111.39999999999999</ele><time>2026-04-11T06:54:04.479Z</time></trkpt><trkpt lat="43.4444489" lon="11.1521094"><ele>111.6</ele><time>2026-04-11T06:54:06.565Z</time></trkpt><trkpt lat="43.4445431" lon="11.1520957"><ele>111.8</ele><time>2026-04-11T06:54:08.488Z</time></trkpt><trkpt lat="43.4446436" lon="11.1520891"><ele>112.0</ele><time>2026-04-11T06:54:10.491Z</time></trkpt><trkpt lat="43.4447393" lon="11.1520813"><ele>112.0</ele><time>2026-04-11T06:54:12.476Z</time></trkpt><trkpt lat="43.4448224" lon="11.1520601"><ele>111.99999999999999</ele><time>2026-04-11T06:54:14.575Z</time></trkpt><trkpt lat="43.4449413" lon="11.1520671"><ele>111.99999999999999</ele><time>2026-04-11T06:54:16.493Z</time></trkpt><trkpt lat="43.4450486" lon="11.15207"><ele>112.0</ele><time>2026-04-11T06:54:18.484Z</time></trkpt><trkpt lat="43.445156" lon="11.1520653"><ele>112.0</ele><time>2026-04-11T06:54:20.519Z</time></trkpt><trkpt lat="43.4452652" lon="11.1520591"><ele>112.0</ele><time>2026-04-11T06:54:22.505Z</time></trkpt><trkpt lat="43.44537" lon="11.1520501"><ele>111.99999999999999</ele><time>2026-04-11T06:54:24.498Z</time></trkpt><trkpt lat="43.4454774" lon="11.1520521"><ele>111.99999999999999</ele><time>2026-04-11T06:54:26.498Z</time></trkpt><trkpt lat="43.4455816" lon="11.1520655"><ele>112.0</ele><time>2026-04-11T06:54:28.498Z</time></trkpt><trkpt lat="43.44568" lon="11.1521343"><ele>112.0</ele><time>2026-04-11T06:54:30.562Z</time></trkpt><trkpt lat="43.4457591" lon="11.1522416"><ele>112.0</ele><time>2026-04-11T06:54:32.505Z</time></trkpt><trkpt lat="43.445826" lon="11.1523558"><ele>111.99999999999999</ele><time>2026-04-11T06:54:34.499Z</time></trkpt><trkpt lat="43.4458972" lon="11.1524633"><ele>111.99999999999999</ele><time>2026-04-11T06:54:36.499Z</time></trkpt><trkpt lat="43.4459869" lon="11.152551"><ele>112.0</ele><time>2026-04-11T06:54:38.498Z</time></trkpt><trkpt lat="43.4460832" lon="11.1526151"><ele>112.0</ele><time>2026-04-11T06:54:40.571Z</time></trkpt><trkpt lat="43.4461807" lon="11.15267"><ele>112.0</ele><time>2026-04-11T06:54:42.5Z</time></trkpt><trkpt lat="43.4462854" lon="11.1527082"><ele>111.99999999999999</ele><time>2026-04-11T06:54:44.512Z</time></trkpt><trkpt lat="43.4463868" lon="11.1527048"><ele>111.99999999999999</ele><time>2026-04-11T06:54:46.551Z</time></trkpt><trkpt lat="43.4464949" lon="11.1526783"><ele>112.0</ele><time>2026-04-11T06:54:48.5Z</time></trkpt><trkpt lat="43.4465664" lon="11.1526694"><ele>112.0</ele><time>2026-04-11T06:54:50.564Z</time></trkpt><trkpt lat="43.4466813" lon="11.1526366"><ele>112.0</ele><time>2026-04-11T06:54:53.488Z</time></trkpt><trkpt lat="43.4467819" lon="11.1526402"><ele>111.99999999999999</ele><time>2026-04-11T06:54:55.566Z</time></trkpt><trkpt lat="43.4468589" lon="11.1526208"><ele>111.99999999999999</ele><time>2026-04-11T06:54:57.506Z</time></trkpt><trkpt lat="43.4469514" lon="11.1526014"><ele>112.0</ele><time>2026-04-11T06:54:59.515Z</time></trkpt><trkpt lat="43.4470373" lon="11.1525885"><ele>112.0</ele><time>2026-04-11T06:55:01.566Z</time></trkpt><trkpt lat="43.4471412" lon="11.1525546"><ele>112.39999999999999</ele><time>2026-04-11T06:55:03.514Z</time></trkpt><trkpt lat="43.4472442" lon="11.1525211"><ele>112.79999999999998</ele><time>2026-04-11T06:55:05.493Z</time></trkpt><trkpt lat="43.447354" lon="11.1524959"><ele>113.2</ele><time>2026-04-11T06:55:07.505Z</time></trkpt><trkpt lat="43.447464" lon="11.1524758"><ele>113.6</ele><time>2026-04-11T06:55:09.505Z</time></trkpt><trkpt lat="43.447566" lon="11.1524734"><ele>114.0</ele><time>2026-04-11T06:55:11.582Z</time></trkpt><trkpt lat="43.4476573" lon="11.1524826"><ele>114.0</ele><time>2026-04-11T06:55:13.494Z</time></trkpt><trkpt lat="43.4477507" lon="11.1524416"><ele>114.0</ele><time>2026-04-11T06:55:15.498Z</time></trkpt><trkpt lat="43.4478559" lon="11.1524035"><ele>114.0</ele><time>2026-04-11T06:55:17.498Z</time></trkpt><trkpt lat="43.4479522" lon="11.1523749"><ele>114.0</ele><time>2026-04-11T06:55:19.495Z</time></trkpt><trkpt lat="43.4480377" lon="11.1523623"><ele>114.0</ele><time>2026-04-11T06:55:21.495Z</time></trkpt><trkpt lat="43.4481124" lon="11.1523307"><ele>114.0</ele><time>2026-04-11T06:55:23.498Z</time></trkpt><trkpt lat="43.448195" lon="11.1522992"><ele>114.0</ele><time>2026-04-11T06:55:25.564Z</time></trkpt><trkpt lat="43.4483049" lon="11.1522746"><ele>114.0</ele><time>2026-04-11T06:55:27.511Z</time></trkpt><trkpt lat="43.4483697" lon="11.1522696"><ele>114.0</ele><time>2026-04-11T06:55:28.514Z</time></trkpt><trkpt lat="43.4484349" lon="11.1522635"><ele>114.0</ele><time>2026-04-11T06:55:29.497Z</time></trkpt><trkpt lat="43.4484989" lon="11.1522509"><ele>114.0</ele><time>2026-04-11T06:55:30.57Z</time></trkpt><trkpt lat="43.4486083" lon="11.1521994"><ele>114.0</ele><time>2026-04-11T06:55:32.493Z</time></trkpt><trkpt lat="43.4487165" lon="11.1521279"><ele>114.0</ele><time>2026-04-11T06:55:34.494Z</time></trkpt><trkpt lat="43.4488223" lon="11.1520524"><ele>114.0</ele><time>2026-04-11T06:55:36.561Z</time></trkpt><trkpt lat="43.4489087" lon="11.1520011"><ele>114.0</ele><time>2026-04-11T06:55:38.496Z</time></trkpt><trkpt lat="43.4489994" lon="11.1518981"><ele>113.80000000000001</ele><time>2026-04-11T06:55:40.57Z</time></trkpt><trkpt lat="43.4490776" lon="11.1518301"><ele>113.60000000000001</ele><time>2026-04-11T06:55:42.497Z</time></trkpt><trkpt lat="43.4491414" lon="11.1517268"><ele>113.4</ele><time>2026-04-11T06:55:44.506Z</time></trkpt><trkpt lat="43.4491815" lon="11.1516532"><ele>113.2</ele><time>2026-04-11T06:55:45.577Z</time></trkpt><trkpt lat="43.4492458" lon="11.1515279"><ele>113.0</ele><time>2026-04-11T06:55:47.505Z</time></trkpt><trkpt lat="43.4493224" lon="11.1514038"><ele>113.0</ele><time>2026-04-11T06:55:49.498Z</time></trkpt><trkpt lat="43.4494138" lon="11.1512991"><ele>113.00000000000001</ele><time>2026-04-11T06:55:51.498Z</time></trkpt><trkpt lat="43.4495057" lon="11.1512253"><ele>113.00000000000001</ele><time>2026-04-11T06:55:53.498Z</time></trkpt><trkpt lat="43.4496039" lon="11.1511747"><ele>113.0</ele><time>2026-04-11T06:55:55.557Z</time></trkpt><trkpt lat="43.4496928" lon="11.1511127"><ele>113.0</ele><time>2026-04-11T06:55:57.489Z</time></trkpt><trkpt lat="43.4497779" lon="11.1510292"><ele>112.60000000000001</ele><time>2026-04-11T06:55:59.496Z</time></trkpt><trkpt lat="43.4498527" lon="11.1509434"><ele>112.20000000000002</ele><time>2026-04-11T06:56:01.572Z</time></trkpt><trkpt lat="43.4499227" lon="11.1508648"><ele>111.8</ele><time>2026-04-11T06:56:03.506Z</time></trkpt><trkpt lat="43.4500007" lon="11.1508076"><ele>111.4</ele><time>2026-04-11T06:56:05.556Z</time></trkpt><trkpt lat="43.4500905" lon="11.1507703"><ele>111.0</ele><time>2026-04-11T06:56:07.482Z</time></trkpt><trkpt lat="43.4501873" lon="11.150712"><ele>111.0</ele><time>2026-04-11T06:56:09.502Z</time></trkpt><trkpt lat="43.4502644" lon="11.1506651"><ele>111.0</ele><time>2026-04-11T06:56:11.558Z</time></trkpt><trkpt lat="43.4503395" lon="11.1506564"><ele>111.0</ele><time>2026-04-11T06:56:13.495Z</time></trkpt><trkpt lat="43.4504483" lon="11.1506977"><ele>111.0</ele><time>2026-04-11T06:56:15.564Z</time></trkpt><trkpt lat="43.4505638" lon="11.1507488"><ele>111.0</ele><time>2026-04-11T06:56:17.492Z</time></trkpt><trkpt lat="43.4506721" lon="11.1508005"><ele>110.83333333333333</ele><time>2026-04-11T06:56:19.504Z</time></trkpt><trkpt lat="43.4507684" lon="11.1508544"><ele>110.66666666666666</ele><time>2026-04-11T06:56:21.496Z</time></trkpt><trkpt lat="43.4508471" lon="11.1509263"><ele>110.5</ele><time>2026-04-11T06:56:23.483Z</time></trkpt><trkpt lat="43.4509" lon="11.1510201"><ele>110.33333333333333</ele><time>2026-04-11T06:56:25.571Z</time></trkpt><trkpt lat="43.4509209" lon="11.1511065"><ele>110.16666666666666</ele><time>2026-04-11T06:56:27.498Z</time></trkpt><trkpt lat="43.4509905" lon="11.1512006"><ele>110.0</ele><time>2026-04-11T06:56:30.507Z</time></trkpt><trkpt lat="43.451061" lon="11.1512632"><ele>109.99999999999999</ele><time>2026-04-11T06:56:32.489Z</time></trkpt><trkpt lat="43.4511293" lon="11.1513118"><ele>110.0</ele><time>2026-04-11T06:56:34.58Z</time></trkpt><trkpt lat="43.4511945" lon="11.1513484"><ele>110.0</ele><time>2026-04-11T06:56:36.561Z</time></trkpt><trkpt lat="43.4512782" lon="11.1513975"><ele>110.0</ele><time>2026-04-11T06:56:38.494Z</time></trkpt><trkpt lat="43.451365" lon="11.151453"><ele>109.99999999999999</ele><time>2026-04-11T06:56:40.569Z</time></trkpt><trkpt lat="43.4514398" lon="11.1515192"><ele>110.0</ele><time>2026-04-11T06:56:42.497Z</time></trkpt><trkpt lat="43.4515389" lon="11.1515986"><ele>110.8</ele><time>2026-04-11T06:56:44.501Z</time></trkpt><trkpt lat="43.4516439" lon="11.1516891"><ele>111.6</ele><time>2026-04-11T06:56:46.559Z</time></trkpt><trkpt lat="43.4517214" lon="11.1517757"><ele>112.4</ele><time>2026-04-11T06:56:48.502Z</time></trkpt><trkpt lat="43.4517972" lon="11.151889"><ele>113.2</ele><time>2026-04-11T06:56:50.578Z</time></trkpt><trkpt lat="43.4518633" lon="11.1520103"><ele>114.0</ele><time>2026-04-11T06:56:52.497Z</time></trkpt><trkpt lat="43.4518793" lon="11.1520948"><ele>114.0</ele><time>2026-04-11T06:56:53.499Z</time></trkpt><trkpt lat="43.4518814" lon="11.1522571"><ele>114.0</ele><time>2026-04-11T06:56:55.56Z</time></trkpt><trkpt lat="43.4518857" lon="11.1523651"><ele>114.0</ele><time>2026-04-11T06:56:57.478Z</time></trkpt><trkpt lat="43.4519719" lon="11.1524687"><ele>114.0</ele><time>2026-04-11T06:56:59.488Z</time></trkpt><trkpt lat="43.4520273" lon="11.1525216"><ele>114.0</ele><time>2026-04-11T06:57:00.489Z</time></trkpt><trkpt lat="43.4521238" lon="11.1526029"><ele>113.4</ele><time>2026-04-11T06:57:02.504Z</time></trkpt><trkpt lat="43.45221" lon="11.1526843"><ele>112.80000000000001</ele><time>2026-04-11T06:57:04.497Z</time></trkpt><trkpt lat="43.4522801" lon="11.1527595"><ele>112.19999999999999</ele><time>2026-04-11T06:57:06.495Z</time></trkpt><trkpt lat="43.4522623" lon="11.1528873"><ele>111.6</ele><time>2026-04-11T06:57:09.477Z</time></trkpt><trkpt lat="43.4522709" lon="11.1530015"><ele>111.0</ele><time>2026-04-11T06:57:11.562Z</time></trkpt><trkpt lat="43.452294" lon="11.1531416"><ele>110.4</ele><time>2026-04-11T06:57:13.498Z</time></trkpt><trkpt lat="43.4523405" lon="11.1532987"><ele>109.8</ele><time>2026-04-11T06:57:15.556Z</time></trkpt><trkpt lat="43.4523806" lon="11.153423"><ele>109.20000000000002</ele><time>2026-04-11T06:57:17.494Z</time></trkpt><trkpt lat="43.4524112" lon="11.1535469"><ele>108.60000000000001</ele><time>2026-04-11T06:57:19.492Z</time></trkpt><trkpt lat="43.4524372" lon="11.1536765"><ele>108.0</ele><time>2026-04-11T06:57:21.564Z</time></trkpt><trkpt lat="43.4524496" lon="11.1538141"><ele>108.0</ele><time>2026-04-11T06:57:23.503Z</time></trkpt><trkpt lat="43.4524683" lon="11.1539283"><ele>108.00000000000001</ele><time>2026-04-11T06:57:25.564Z</time></trkpt><trkpt lat="43.4524983" lon="11.1540332"><ele>108.00000000000001</ele><time>2026-04-11T06:57:27.48Z</time></trkpt><trkpt lat="43.4525323" lon="11.1541615"><ele>108.0</ele><time>2026-04-11T06:57:29.476Z</time></trkpt><trkpt lat="43.4525686" lon="11.1543028"><ele>108.0</ele><time>2026-04-11T06:57:31.489Z</time></trkpt><trkpt lat="43.4526023" lon="11.1544243"><ele>108.0</ele><time>2026-04-11T06:57:33.492Z</time></trkpt><trkpt lat="43.4526454" lon="11.1545215"><ele>108.00000000000001</ele><time>2026-04-11T06:57:35.485Z</time></trkpt><trkpt lat="43.452719" lon="11.1546119"><ele>108.00000000000001</ele><time>2026-04-11T06:57:37.495Z</time></trkpt><trkpt lat="43.4528013" lon="11.1546882"><ele>108.0</ele><time>2026-04-11T06:57:39.557Z</time></trkpt><trkpt lat="43.4528544" lon="11.1547854"><ele>108.0</ele><time>2026-04-11T06:57:41.489Z</time></trkpt><trkpt lat="43.4529279" lon="11.1548604"><ele>108.2</ele><time>2026-04-11T06:57:43.506Z</time></trkpt><trkpt lat="43.4530214" lon="11.1549337"><ele>108.4</ele><time>2026-04-11T06:57:45.503Z</time></trkpt><trkpt lat="43.4531071" lon="11.1550128"><ele>108.60000000000001</ele><time>2026-04-11T06:57:47.5Z</time></trkpt><trkpt lat="43.4531712" lon="11.1551024"><ele>108.80000000000001</ele><time>2026-04-11T06:57:49.5Z</time></trkpt><trkpt lat="43.4532699" lon="11.1551721"><ele>109.0</ele><time>2026-04-11T06:57:51.504Z</time></trkpt><trkpt lat="43.4533626" lon="11.1552276"><ele>109.00000000000001</ele><time>2026-04-11T06:57:53.48Z</time></trkpt><trkpt lat="43.4534644" lon="11.155287"><ele>109.0</ele><time>2026-04-11T06:57:55.56Z</time></trkpt><trkpt lat="43.4535466" lon="11.1553372"><ele>109.0</ele><time>2026-04-11T06:57:57.499Z</time></trkpt><trkpt lat="43.4536298" lon="11.1554045"><ele>109.0</ele><time>2026-04-11T06:57:59.498Z</time></trkpt><trkpt lat="43.4536462" lon="11.1555076"><ele>109.00000000000001</ele><time>2026-04-11T06:58:01.554Z</time></trkpt><trkpt lat="43.4536237" lon="11.1555955"><ele>109.0</ele><time>2026-04-11T06:58:03.476Z</time></trkpt><trkpt lat="43.4536448" lon="11.1557176"><ele>109.4</ele><time>2026-04-11T06:58:05.575Z</time></trkpt><trkpt lat="43.4536967" lon="11.1558361"><ele>109.80000000000001</ele><time>2026-04-11T06:58:07.479Z</time></trkpt><trkpt lat="43.4537611" lon="11.1559201"><ele>110.19999999999999</ele><time>2026-04-11T06:58:09.474Z</time></trkpt><trkpt lat="43.4538304" lon="11.1560141"><ele>110.6</ele><time>2026-04-11T06:58:11.578Z</time></trkpt><trkpt lat="43.4538842" lon="11.1560935"><ele>111.0</ele><time>2026-04-11T06:58:13.494Z</time></trkpt><trkpt lat="43.4539489" lon="11.1561901"><ele>110.8</ele><time>2026-04-11T06:58:15.573Z</time></trkpt><trkpt lat="43.4540109" lon="11.1562635"><ele>110.6</ele><time>2026-04-11T06:58:17.484Z</time></trkpt><trkpt lat="43.4540704" lon="11.1563601"><ele>110.4</ele><time>2026-04-11T06:58:19.501Z</time></trkpt><trkpt lat="43.4541256" lon="11.1564322"><ele>110.2</ele><time>2026-04-11T06:58:20.491Z</time></trkpt><trkpt lat="43.4542098" lon="11.1565376"><ele>110.0</ele><time>2026-04-11T06:58:22.485Z</time></trkpt><trkpt lat="43.4542865" lon="11.1566415"><ele>110.0</ele><time>2026-04-11T06:58:24.497Z</time></trkpt><trkpt lat="43.4543552" lon="11.1567402"><ele>110.0</ele><time>2026-04-11T06:58:26.49Z</time></trkpt><trkpt lat="43.454418" lon="11.1568514"><ele>110.0</ele><time>2026-04-11T06:58:28.494Z</time></trkpt><trkpt lat="43.4544862" lon="11.1569483"><ele>110.0</ele><time>2026-04-11T06:58:30.49Z</time></trkpt><trkpt lat="43.4545462" lon="11.1570474"><ele>110.0</ele><time>2026-04-11T06:58:32.506Z</time></trkpt><trkpt lat="43.4546335" lon="11.1571485"><ele>109.5</ele><time>2026-04-11T06:58:34.489Z</time></trkpt><trkpt lat="43.4547107" lon="11.1572467"><ele>109.0</ele><time>2026-04-11T06:58:36.566Z</time></trkpt><trkpt lat="43.4547676" lon="11.1574577"><ele>108.5</ele><time>2026-04-11T06:58:39.469Z</time></trkpt><trkpt lat="43.4548078" lon="11.1575835"><ele>108.0</ele><time>2026-04-11T06:58:41.53Z</time></trkpt><trkpt lat="43.4548662" lon="11.1577157"><ele>108.0</ele><time>2026-04-11T06:58:43.473Z</time></trkpt><trkpt lat="43.454935" lon="11.1577955"><ele>108.0</ele><time>2026-04-11T06:58:45.551Z</time></trkpt><trkpt lat="43.4549862" lon="11.1578952"><ele>108.0</ele><time>2026-04-11T06:58:47.476Z</time></trkpt><trkpt lat="43.4550766" lon="11.1579777"><ele>108.0</ele><time>2026-04-11T06:58:49.482Z</time></trkpt><trkpt lat="43.4551501" lon="11.1580443"><ele>108.0</ele><time>2026-04-11T06:58:51.549Z</time></trkpt><trkpt lat="43.4552115" lon="11.1580893"><ele>108.0</ele><time>2026-04-11T06:58:53.482Z</time></trkpt><trkpt lat="43.4553236" lon="11.158112"><ele>108.0</ele><time>2026-04-11T06:58:55.473Z</time></trkpt><trkpt lat="43.4554384" lon="11.1581153"><ele>108.0</ele><time>2026-04-11T06:58:57.482Z</time></trkpt><trkpt lat="43.4555452" lon="11.1581151"><ele>108.0</ele><time>2026-04-11T06:58:59.461Z</time></trkpt><trkpt lat="43.4556636" lon="11.1581127"><ele>108.0</ele><time>2026-04-11T06:59:01.533Z</time></trkpt><trkpt lat="43.4557788" lon="11.1581164"><ele>107.83333333333333</ele><time>2026-04-11T06:59:03.477Z</time></trkpt><trkpt lat="43.4558977" lon="11.1581286"><ele>107.66666666666666</ele><time>2026-04-11T06:59:05.487Z</time></trkpt><trkpt lat="43.4559696" lon="11.1581426"><ele>107.5</ele><time>2026-04-11T06:59:06.481Z</time></trkpt><trkpt lat="43.4560459" lon="11.1581577"><ele>107.33333333333333</ele><time>2026-04-11T06:59:07.48Z</time></trkpt><trkpt lat="43.4561245" lon="11.1581786"><ele>107.16666666666666</ele><time>2026-04-11T06:59:08.484Z</time></trkpt><trkpt lat="43.4562005" lon="11.1582023"><ele>107.0</ele><time>2026-04-11T06:59:09.55Z</time></trkpt><trkpt lat="43.456266" lon="11.1582352"><ele>106.8</ele><time>2026-04-11T06:59:10.546Z</time></trkpt><trkpt lat="43.4563225" lon="11.1582739"><ele>106.6</ele><time>2026-04-11T06:59:11.507Z</time></trkpt><trkpt lat="43.4563842" lon="11.1583057"><ele>106.39999999999999</ele><time>2026-04-11T06:59:12.473Z</time></trkpt><trkpt lat="43.4565014" lon="11.1583662"><ele>106.19999999999999</ele><time>2026-04-11T06:59:14.471Z</time></trkpt><trkpt lat="43.4566057" lon="11.1584442"><ele>106.0</ele><time>2026-04-11T06:59:16.479Z</time></trkpt><trkpt lat="43.4566604" lon="11.1585466"><ele>106.0</ele><time>2026-04-11T06:59:18.49Z</time></trkpt><trkpt lat="43.4566779" lon="11.1586482"><ele>106.0</ele><time>2026-04-11T06:59:20.536Z</time></trkpt><trkpt lat="43.4567443" lon="11.1587348"><ele>106.0</ele><time>2026-04-11T06:59:23.479Z</time></trkpt><trkpt lat="43.4568265" lon="11.1587462"><ele>106.0</ele><time>2026-04-11T06:59:26.553Z</time></trkpt><trkpt lat="43.456928" lon="11.1587778"><ele>106.0</ele><time>2026-04-11T06:59:29.553Z</time></trkpt><trkpt lat="43.4570177" lon="11.1588539"><ele>106.0</ele><time>2026-04-11T06:59:31.548Z</time></trkpt><trkpt lat="43.4571097" lon="11.1588801"><ele>106.0</ele><time>2026-04-11T06:59:33.474Z</time></trkpt><trkpt lat="43.4571867" lon="11.1588651"><ele>106.0</ele><time>2026-04-11T06:59:34.477Z</time></trkpt><trkpt lat="43.4572965" lon="11.1588631"><ele>106.0</ele><time>2026-04-11T06:59:36.546Z</time></trkpt><trkpt lat="43.4574065" lon="11.1588531"><ele>106.0</ele><time>2026-04-11T06:59:38.474Z</time></trkpt><trkpt lat="43.4575121" lon="11.1588274"><ele>106.16666666666667</ele><time>2026-04-11T06:59:40.478Z</time></trkpt><trkpt lat="43.4576141" lon="11.158767"><ele>106.33333333333334</ele><time>2026-04-11T06:59:42.475Z</time></trkpt><trkpt lat="43.4576925" lon="11.1587013"><ele>106.5</ele><time>2026-04-11T06:59:44.473Z</time></trkpt><trkpt lat="43.4577496" lon="11.1586309"><ele>106.66666666666666</ele><time>2026-04-11T06:59:46.545Z</time></trkpt><trkpt lat="43.4577926" lon="11.1585605"><ele>106.83333333333333</ele><time>2026-04-11T06:59:48.468Z</time></trkpt><trkpt lat="43.4577859" lon="11.1584503"><ele>107.0</ele><time>2026-04-11T06:59:50.47Z</time></trkpt><trkpt lat="43.4577479" lon="11.1583376"><ele>106.99999999999999</ele><time>2026-04-11T06:59:52.479Z</time></trkpt><trkpt lat="43.4576983" lon="11.1582286"><ele>107.0</ele><time>2026-04-11T06:59:54.548Z</time></trkpt><trkpt lat="43.4576426" lon="11.1581431"><ele>107.0</ele><time>2026-04-11T06:59:56.54Z</time></trkpt><trkpt lat="43.4576164" lon="11.158041"><ele>107.0</ele><time>2026-04-11T07:00:00.473Z</time></trkpt><trkpt lat="43.4576019" lon="11.1579335"><ele>106.99999999999999</ele><time>2026-04-11T07:00:02.461Z</time></trkpt><trkpt lat="43.4575845" lon="11.1578396"><ele>107.0</ele><time>2026-04-11T07:00:04.474Z</time></trkpt><trkpt lat="43.4575727" lon="11.1577524"><ele>107.99999999999999</ele><time>2026-04-11T07:00:06.462Z</time></trkpt><trkpt lat="43.457594" lon="11.1576696"><ele>109.0</ele><time>2026-04-11T07:00:08.493Z</time></trkpt><trkpt lat="43.4576231" lon="11.1575893"><ele>110.0</ele><time>2026-04-11T07:00:10.542Z</time></trkpt><trkpt lat="43.4576698" lon="11.157464"><ele>111.0</ele><time>2026-04-11T07:00:13.483Z</time></trkpt><trkpt lat="43.4576606" lon="11.1573529"><ele>111.99999999999999</ele><time>2026-04-11T07:00:15.544Z</time></trkpt><trkpt lat="43.4576576" lon="11.1572366"><ele>113.0</ele><time>2026-04-11T07:00:18.485Z</time></trkpt><trkpt lat="43.4577335" lon="11.1572594"><ele>112.99999999999999</ele><time>2026-04-11T07:00:25.531Z</time></trkpt><trkpt lat="43.4578126" lon="11.1573148"><ele>113.0</ele><time>2026-04-11T07:00:28.488Z</time></trkpt><trkpt lat="43.4578896" lon="11.157358"><ele>113.0</ele><time>2026-04-11T07:00:30.476Z</time></trkpt><trkpt lat="43.457938" lon="11.1574286"><ele>113.0</ele><time>2026-04-11T07:00:32.471Z</time></trkpt><trkpt lat="43.4579953" lon="11.1574818"><ele>112.99999999999999</ele><time>2026-04-11T07:00:34.542Z</time></trkpt><trkpt lat="43.4580767" lon="11.1575044"><ele>113.0</ele><time>2026-04-11T07:00:36.455Z</time></trkpt><trkpt lat="43.4581435" lon="11.1575333"><ele>114.33333333333333</ele><time>2026-04-11T07:00:38.477Z</time></trkpt><trkpt lat="43.4581946" lon="11.1576006"><ele>115.66666666666666</ele><time>2026-04-11T07:00:42.492Z</time></trkpt><trkpt lat="43.45827" lon="11.1575785"><ele>117.0</ele><time>2026-04-11T07:00:52.481Z</time></trkpt><trkpt lat="43.4583517" lon="11.1575464"><ele>118.33333333333334</ele><time>2026-04-11T07:00:55.537Z</time></trkpt><trkpt lat="43.4584236" lon="11.1575529"><ele>119.66666666666667</ele><time>2026-04-11T07:01:47.453Z</time></trkpt><trkpt lat="43.4583838" lon="11.1574635"><ele>121.0</ele><time>2026-04-11T07:02:13.476Z</time></trkpt><trkpt lat="43.4584332" lon="11.1573739"><ele>121.00000000000001</ele><time>2026-04-11T07:03:40.538Z</time></trkpt><trkpt lat="43.4583875" lon="11.1574517"><ele>121.0</ele><time>2026-04-11T07:04:00.461Z</time></trkpt><trkpt lat="43.4583611" lon="11.1575399"><ele>121.0</ele><time>2026-04-11T07:04:12.484Z</time></trkpt><trkpt lat="43.4583381" lon="11.1576562"><ele>121.0</ele><time>2026-04-11T07:04:16.539Z</time></trkpt><trkpt lat="43.4583749" lon="11.1577518"><ele>121.00000000000001</ele><time>2026-04-11T07:04:18.48Z</time></trkpt><trkpt lat="43.458449" lon="11.1577993"><ele>121.0</ele><time>2026-04-11T07:04:20.468Z</time></trkpt><trkpt lat="43.458526" lon="11.1578427"><ele>121.0</ele><time>2026-04-11T07:04:22.489Z</time></trkpt><trkpt lat="43.4585777" lon="11.1579151"><ele>120.99999999999999</ele><time>2026-04-11T07:04:24.538Z</time></trkpt><trkpt lat="43.4586437" lon="11.1579712"><ele>121.0</ele><time>2026-04-11T07:04:26.556Z</time></trkpt><trkpt lat="43.4586961" lon="11.1580221"><ele>121.0</ele><time>2026-04-11T07:04:28.475Z</time></trkpt><trkpt lat="43.4587627" lon="11.1580615"><ele>120.99999999999999</ele><time>2026-04-11T07:04:30.488Z</time></trkpt><trkpt lat="43.4588167" lon="11.1581189"><ele>121.0</ele><time>2026-04-11T07:04:32.465Z</time></trkpt><trkpt lat="43.4588763" lon="11.1581642"><ele>121.0</ele><time>2026-04-11T07:04:34.468Z</time></trkpt><trkpt lat="43.4589338" lon="11.1582089"><ele>121.16666666666667</ele><time>2026-04-11T07:04:36.453Z</time></trkpt><trkpt lat="43.4590073" lon="11.1582348"><ele>121.33333333333334</ele><time>2026-04-11T07:04:39.478Z</time></trkpt><trkpt lat="43.4590819" lon="11.1582073"><ele>121.5</ele><time>2026-04-11T07:04:42.458Z</time></trkpt><trkpt lat="43.4591355" lon="11.1582597"><ele>121.66666666666666</ele><time>2026-04-11T07:04:44.484Z</time></trkpt><trkpt lat="43.4591964" lon="11.1583229"><ele>121.83333333333333</ele><time>2026-04-11T07:04:46.545Z</time></trkpt><trkpt lat="43.4592723" lon="11.1583472"><ele>122.0</ele><time>2026-04-11T07:04:49.48Z</time></trkpt><trkpt lat="43.459375" lon="11.1583704"><ele>122.0</ele><time>2026-04-11T07:04:54.551Z</time></trkpt><trkpt lat="43.459444" lon="11.1584436"><ele>121.99999999999999</ele><time>2026-04-11T07:04:56.537Z</time></trkpt><trkpt lat="43.4595263" lon="11.1585171"><ele>121.99999999999999</ele><time>2026-04-11T07:04:58.478Z</time></trkpt><trkpt lat="43.4596062" lon="11.1585917"><ele>122.0</ele><time>2026-04-11T07:05:00.476Z</time></trkpt><trkpt lat="43.4596946" lon="11.158654"><ele>122.0</ele><time>2026-04-11T07:05:02.475Z</time></trkpt><trkpt lat="43.4597877" lon="11.1587145"><ele>122.33333333333333</ele><time>2026-04-11T07:05:04.47Z</time></trkpt><trkpt lat="43.4598891" lon="11.1587726"><ele>122.66666666666666</ele><time>2026-04-11T07:05:06.483Z</time></trkpt><trkpt lat="43.4599955" lon="11.1588345"><ele>123.0</ele><time>2026-04-11T07:05:08.478Z</time></trkpt><trkpt lat="43.4600589" lon="11.1588526"><ele>123.33333333333334</ele><time>2026-04-11T07:05:09.471Z</time></trkpt><trkpt lat="43.4601291" lon="11.1588643"><ele>123.66666666666667</ele><time>2026-04-11T07:05:10.471Z</time></trkpt><trkpt lat="43.4602014" lon="11.1588725"><ele>124.0</ele><time>2026-04-11T07:05:11.558Z</time></trkpt><trkpt lat="43.460268" lon="11.158875"><ele>124.00000000000001</ele><time>2026-04-11T07:05:12.467Z</time></trkpt><trkpt lat="43.4603355" lon="11.1588784"><ele>124.0</ele><time>2026-04-11T07:05:13.476Z</time></trkpt><trkpt lat="43.4604005" lon="11.1588803"><ele>124.0</ele><time>2026-04-11T07:05:14.48Z</time></trkpt><trkpt lat="43.4605277" lon="11.1588817"><ele>124.0</ele><time>2026-04-11T07:05:16.474Z</time></trkpt><trkpt lat="43.4605926" lon="11.1588823"><ele>124.00000000000001</ele><time>2026-04-11T07:05:17.483Z</time></trkpt><trkpt lat="43.4606565" lon="11.1588767"><ele>124.0</ele><time>2026-04-11T07:05:18.483Z</time></trkpt><trkpt lat="43.4607196" lon="11.1588709"><ele>123.33333333333334</ele><time>2026-04-11T07:05:19.477Z</time></trkpt><trkpt lat="43.460787" lon="11.1588599"><ele>122.66666666666667</ele><time>2026-04-11T07:05:20.546Z</time></trkpt><trkpt lat="43.4608591" lon="11.158855"><ele>122.0</ele><time>2026-04-11T07:05:21.537Z</time></trkpt><trkpt lat="43.4609282" lon="11.1588447"><ele>121.33333333333334</ele><time>2026-04-11T07:05:22.462Z</time></trkpt><trkpt lat="43.4610487" lon="11.1588471"><ele>120.66666666666667</ele><time>2026-04-11T07:05:24.491Z</time></trkpt><trkpt lat="43.4611029" lon="11.1587968"><ele>120.0</ele><time>2026-04-11T07:05:25.472Z</time></trkpt><trkpt lat="43.4612192" lon="11.1587336"><ele>119.0</ele><time>2026-04-11T07:05:27.488Z</time></trkpt><trkpt lat="43.4613318" lon="11.1586735"><ele>118.0</ele><time>2026-04-11T07:05:29.481Z</time></trkpt><trkpt lat="43.461389" lon="11.1586347"><ele>117.0</ele><time>2026-04-11T07:05:30.466Z</time></trkpt><trkpt lat="43.4614431" lon="11.1585883"><ele>116.0</ele><time>2026-04-11T07:05:31.539Z</time></trkpt><trkpt lat="43.4615534" lon="11.1584947"><ele>115.0</ele><time>2026-04-11T07:05:33.47Z</time></trkpt><trkpt lat="43.461613" lon="11.1584475"><ele>114.0</ele><time>2026-04-11T07:05:34.469Z</time></trkpt><trkpt lat="43.4616698" lon="11.1583996"><ele>114.0</ele><time>2026-04-11T07:05:35.533Z</time></trkpt><trkpt lat="43.4617202" lon="11.1583467"><ele>113.99999999999999</ele><time>2026-04-11T07:05:36.458Z</time></trkpt><trkpt lat="43.4617708" lon="11.1582805"><ele>114.0</ele><time>2026-04-11T07:05:37.525Z</time></trkpt><trkpt lat="43.4618139" lon="11.1582094"><ele>114.0</ele><time>2026-04-11T07:05:38.467Z</time></trkpt><trkpt lat="43.4618511" lon="11.1581378"><ele>113.99999999999999</ele><time>2026-04-11T07:05:39.478Z</time></trkpt><trkpt lat="43.4619072" lon="11.1580026"><ele>114.0</ele><time>2026-04-11T07:05:41.475Z</time></trkpt><trkpt lat="43.4619081" lon="11.1579152"><ele>114.0</ele><time>2026-04-11T07:05:43.489Z</time></trkpt><trkpt lat="43.4619124" lon="11.1578019"><ele>113.83333333333333</ele><time>2026-04-11T07:05:56.467Z</time></trkpt><trkpt lat="43.4619438" lon="11.1577083"><ele>113.66666666666666</ele><time>2026-04-11T07:05:59.486Z</time></trkpt><trkpt lat="43.4619688" lon="11.1576172"><ele>113.5</ele><time>2026-04-11T07:06:01.472Z</time></trkpt><trkpt lat="43.4619952" lon="11.15751"><ele>113.33333333333333</ele><time>2026-04-11T07:06:03.468Z</time></trkpt><trkpt lat="43.4620461" lon="11.1573966"><ele>113.16666666666666</ele><time>2026-04-11T07:06:05.467Z</time></trkpt><trkpt lat="43.4621056" lon="11.157287"><ele>113.0</ele><time>2026-04-11T07:06:07.497Z</time></trkpt><trkpt lat="43.462142" lon="11.1571915"><ele>112.80000000000001</ele><time>2026-04-11T07:06:09.487Z</time></trkpt><trkpt lat="43.4621891" lon="11.1570777"><ele>112.60000000000001</ele><time>2026-04-11T07:06:11.466Z</time></trkpt><trkpt lat="43.4622345" lon="11.1569602"><ele>112.39999999999999</ele><time>2026-04-11T07:06:13.482Z</time></trkpt><trkpt lat="43.4622771" lon="11.1568403"><ele>112.19999999999999</ele><time>2026-04-11T07:06:15.489Z</time></trkpt><trkpt lat="43.4623219" lon="11.1567164"><ele>112.0</ele><time>2026-04-11T07:06:17.482Z</time></trkpt><trkpt lat="43.4623723" lon="11.1565953"><ele>111.8</ele><time>2026-04-11T07:06:19.475Z</time></trkpt><trkpt lat="43.4624253" lon="11.1564806"><ele>111.6</ele><time>2026-04-11T07:06:21.473Z</time></trkpt><trkpt lat="43.4624684" lon="11.1563502"><ele>111.39999999999999</ele><time>2026-04-11T07:06:23.478Z</time></trkpt><trkpt lat="43.4625127" lon="11.1562206"><ele>111.19999999999999</ele><time>2026-04-11T07:06:25.485Z</time></trkpt><trkpt lat="43.4625462" lon="11.1561111"><ele>111.0</ele><time>2026-04-11T07:06:27.476Z</time></trkpt><trkpt lat="43.4625784" lon="11.155992"><ele>111.0</ele><time>2026-04-11T07:06:29.471Z</time></trkpt><trkpt lat="43.4626297" lon="11.1558879"><ele>111.0</ele><time>2026-04-11T07:06:31.488Z</time></trkpt><trkpt lat="43.4626689" lon="11.1557789"><ele>111.0</ele><time>2026-04-11T07:06:33.472Z</time></trkpt><trkpt lat="43.4627015" lon="11.15565"><ele>111.0</ele><time>2026-04-11T07:06:35.488Z</time></trkpt><trkpt lat="43.4627314" lon="11.1555195"><ele>111.0</ele><time>2026-04-11T07:06:37.474Z</time></trkpt><trkpt lat="43.4627661" lon="11.155397"><ele>111.0</ele><time>2026-04-11T07:06:39.473Z</time></trkpt><trkpt lat="43.4627969" lon="11.1552858"><ele>111.0</ele><time>2026-04-11T07:06:41.48Z</time></trkpt><trkpt lat="43.4628262" lon="11.1551774"><ele>111.0</ele><time>2026-04-11T07:06:43.475Z</time></trkpt><trkpt lat="43.4628714" lon="11.1550605"><ele>111.0</ele><time>2026-04-11T07:06:46.476Z</time></trkpt><trkpt lat="43.4629164" lon="11.1549783"><ele>111.0</ele><time>2026-04-11T07:06:48.478Z</time></trkpt><trkpt lat="43.4629448" lon="11.154877"><ele>111.0</ele><time>2026-04-11T07:06:50.485Z</time></trkpt><trkpt lat="43.4629596" lon="11.1547724"><ele>111.0</ele><time>2026-04-11T07:06:52.482Z</time></trkpt><trkpt lat="43.4629758" lon="11.15466"><ele>111.0</ele><time>2026-04-11T07:06:54.456Z</time></trkpt><trkpt lat="43.4630121" lon="11.1545487"><ele>111.0</ele><time>2026-04-11T07:06:56.459Z</time></trkpt><trkpt lat="43.4630501" lon="11.1544297"><ele>111.0</ele><time>2026-04-11T07:06:58.48Z</time></trkpt><trkpt lat="43.4630866" lon="11.1543239"><ele>111.0</ele><time>2026-04-11T07:07:00.487Z</time></trkpt><trkpt lat="43.463124" lon="11.1542332"><ele>111.0</ele><time>2026-04-11T07:07:02.476Z</time></trkpt><trkpt lat="43.4631608" lon="11.1541258"><ele>111.5</ele><time>2026-04-11T07:07:04.479Z</time></trkpt><trkpt lat="43.463207" lon="11.1540194"><ele>112.0</ele><time>2026-04-11T07:07:06.481Z</time></trkpt><trkpt lat="43.4632388" lon="11.1539197"><ele>112.5</ele><time>2026-04-11T07:07:08.469Z</time></trkpt><trkpt lat="43.4632812" lon="11.1538093"><ele>113.0</ele><time>2026-04-11T07:07:10.474Z</time></trkpt><trkpt lat="43.4633243" lon="11.1537099"><ele>113.5</ele><time>2026-04-11T07:07:12.488Z</time></trkpt><trkpt lat="43.4633796" lon="11.1536156"><ele>114.0</ele><time>2026-04-11T07:07:14.489Z</time></trkpt><trkpt lat="43.4634322" lon="11.1535274"><ele>114.0</ele><time>2026-04-11T07:07:16.484Z</time></trkpt><trkpt lat="43.4634934" lon="11.1534422"><ele>114.0</ele><time>2026-04-11T07:07:18.49Z</time></trkpt><trkpt lat="43.4635493" lon="11.1533462"><ele>114.0</ele><time>2026-04-11T07:07:20.485Z</time></trkpt><trkpt lat="43.463589" lon="11.1532425"><ele>114.0</ele><time>2026-04-11T07:07:22.488Z</time></trkpt><trkpt lat="43.4636323" lon="11.1531342"><ele>114.0</ele><time>2026-04-11T07:07:24.472Z</time></trkpt><trkpt lat="43.4636886" lon="11.153051"><ele>114.0</ele><time>2026-04-11T07:07:26.477Z</time></trkpt><trkpt lat="43.4637445" lon="11.1529526"><ele>113.4</ele><time>2026-04-11T07:07:28.472Z</time></trkpt><trkpt lat="43.4637994" lon="11.1528499"><ele>112.80000000000001</ele><time>2026-04-11T07:07:30.476Z</time></trkpt><trkpt lat="43.4638589" lon="11.1527578"><ele>112.19999999999999</ele><time>2026-04-11T07:07:32.489Z</time></trkpt><trkpt lat="43.4639107" lon="11.1526497"><ele>111.6</ele><time>2026-04-11T07:07:34.477Z</time></trkpt><trkpt lat="43.463959" lon="11.1525487"><ele>111.0</ele><time>2026-04-11T07:07:36.477Z</time></trkpt><trkpt lat="43.4640128" lon="11.1524442"><ele>110.66666666666667</ele><time>2026-04-11T07:07:38.479Z</time></trkpt><trkpt lat="43.4640721" lon="11.1523562"><ele>110.33333333333334</ele><time>2026-04-11T07:07:40.47Z</time></trkpt><trkpt lat="43.4641324" lon="11.1522776"><ele>110.0</ele><time>2026-04-11T07:07:42.489Z</time></trkpt><trkpt lat="43.4641821" lon="11.1521999"><ele>109.66666666666667</ele><time>2026-04-11T07:07:44.473Z</time></trkpt><trkpt lat="43.4642264" lon="11.1521053"><ele>109.33333333333334</ele><time>2026-04-11T07:07:46.482Z</time></trkpt><trkpt lat="43.4642689" lon="11.1520068"><ele>109.0</ele><time>2026-04-11T07:07:48.474Z</time></trkpt><trkpt lat="43.4643161" lon="11.1518994"><ele>109.00000000000001</ele><time>2026-04-11T07:07:50.483Z</time></trkpt><trkpt lat="43.464363" lon="11.1517928"><ele>109.0</ele><time>2026-04-11T07:07:52.47Z</time></trkpt><trkpt lat="43.4644111" lon="11.1516893"><ele>109.0</ele><time>2026-04-11T07:07:54.474Z</time></trkpt><trkpt lat="43.4644624" lon="11.1515908"><ele>109.0</ele><time>2026-04-11T07:07:56.482Z</time></trkpt><trkpt lat="43.4645108" lon="11.1514981"><ele>109.00000000000001</ele><time>2026-04-11T07:07:58.476Z</time></trkpt><trkpt lat="43.4645472" lon="11.1514082"><ele>109.0</ele><time>2026-04-11T07:08:00.473Z</time></trkpt><trkpt lat="43.464628" lon="11.1513563"><ele>109.33333333333334</ele><time>2026-04-11T07:08:03.476Z</time></trkpt><trkpt lat="43.4646907" lon="11.1513644"><ele>109.66666666666667</ele><time>2026-04-11T07:08:05.485Z</time></trkpt><trkpt lat="43.4647627" lon="11.1513776"><ele>110.0</ele><time>2026-04-11T07:08:07.478Z</time></trkpt><trkpt lat="43.464842" lon="11.1514063"><ele>110.33333333333334</ele><time>2026-04-11T07:08:09.481Z</time></trkpt><trkpt lat="43.4649086" lon="11.1514546"><ele>110.66666666666667</ele><time>2026-04-11T07:08:11.475Z</time></trkpt><trkpt lat="43.4649814" lon="11.1514778"><ele>111.0</ele><time>2026-04-11T07:08:14.486Z</time></trkpt><trkpt lat="43.4650523" lon="11.1514167"><ele>111.0</ele><time>2026-04-11T07:08:17.472Z</time></trkpt><trkpt lat="43.4650775" lon="11.1513318"><ele>111.0</ele><time>2026-04-11T07:08:19.478Z</time></trkpt><trkpt lat="43.4650923" lon="11.1512188"><ele>111.0</ele><time>2026-04-11T07:08:21.485Z</time></trkpt><trkpt lat="43.4651212" lon="11.1511086"><ele>111.0</ele><time>2026-04-11T07:08:23.455Z</time></trkpt><trkpt lat="43.4651838" lon="11.1510075"><ele>111.0</ele><time>2026-04-11T07:08:25.473Z</time></trkpt><trkpt lat="43.4652616" lon="11.1509002"><ele>111.0</ele><time>2026-04-11T07:08:27.483Z</time></trkpt><trkpt lat="43.4653547" lon="11.1508146"><ele>111.0</ele><time>2026-04-11T07:08:29.475Z</time></trkpt><trkpt lat="43.465429" lon="11.1507097"><ele>111.0</ele><time>2026-04-11T07:08:31.474Z</time></trkpt><trkpt lat="43.4654946" lon="11.1505797"><ele>111.0</ele><time>2026-04-11T07:08:33.488Z</time></trkpt><trkpt lat="43.4655737" lon="11.150458"><ele>111.0</ele><time>2026-04-11T07:08:35.48Z</time></trkpt><trkpt lat="43.465666" lon="11.1503374"><ele>110.57142857142857</ele><time>2026-04-11T07:08:37.477Z</time></trkpt><trkpt lat="43.4657136" lon="11.1502761"><ele>110.14285714285715</ele><time>2026-04-11T07:08:38.474Z</time></trkpt><trkpt lat="43.4657617" lon="11.150218"><ele>109.71428571428572</ele><time>2026-04-11T07:08:39.478Z</time></trkpt><trkpt lat="43.4658093" lon="11.1501592"><ele>109.28571428571428</ele><time>2026-04-11T07:08:40.471Z</time></trkpt><trkpt lat="43.465859" lon="11.1500996"><ele>108.85714285714286</ele><time>2026-04-11T07:08:41.47Z</time></trkpt><trkpt lat="43.4659101" lon="11.1500415"><ele>108.42857142857143</ele><time>2026-04-11T07:08:42.473Z</time></trkpt><trkpt lat="43.4659583" lon="11.1499856"><ele>108.0</ele><time>2026-04-11T07:08:43.486Z</time></trkpt><trkpt lat="43.4660038" lon="11.1499249"><ele>108.5</ele><time>2026-04-11T07:08:44.475Z</time></trkpt><trkpt lat="43.466049" lon="11.1498622"><ele>109.0</ele><time>2026-04-11T07:08:45.475Z</time></trkpt><trkpt lat="43.4660935" lon="11.149798"><ele>109.5</ele><time>2026-04-11T07:08:46.484Z</time></trkpt><trkpt lat="43.4661376" lon="11.1497343"><ele>110.0</ele><time>2026-04-11T07:08:47.483Z</time></trkpt><trkpt lat="43.4662246" lon="11.1496152"><ele>110.5</ele><time>2026-04-11T07:08:49.457Z</time></trkpt><trkpt lat="43.4662695" lon="11.1495522"><ele>111.0</ele><time>2026-04-11T07:08:50.482Z</time></trkpt><trkpt lat="43.466358" lon="11.1494094"><ele>111.0</ele><time>2026-04-11T07:08:52.5Z</time></trkpt><trkpt lat="43.4664016" lon="11.1493132"><ele>111.0</ele><time>2026-04-11T07:08:53.49Z</time></trkpt><trkpt lat="43.466446" lon="11.1492297"><ele>111.0</ele><time>2026-04-11T07:08:54.493Z</time></trkpt><trkpt lat="43.4664891" lon="11.1491538"><ele>111.0</ele><time>2026-04-11T07:08:55.494Z</time></trkpt><trkpt lat="43.466531" lon="11.1490796"><ele>111.0</ele><time>2026-04-11T07:08:56.493Z</time></trkpt><trkpt lat="43.46657" lon="11.1490104"><ele>111.0</ele><time>2026-04-11T07:08:57.493Z</time></trkpt><trkpt lat="43.4666385" lon="11.1488788"><ele>111.0</ele><time>2026-04-11T07:08:59.502Z</time></trkpt><trkpt lat="43.4667122" lon="11.1487574"><ele>111.0</ele><time>2026-04-11T07:09:01.491Z</time></trkpt><trkpt lat="43.4667821" lon="11.148642"><ele>111.0</ele><time>2026-04-11T07:09:03.502Z</time></trkpt><trkpt lat="43.4668511" lon="11.1485352"><ele>111.0</ele><time>2026-04-11T07:09:05.495Z</time></trkpt><trkpt lat="43.46693" lon="11.1484272"><ele>111.0</ele><time>2026-04-11T07:09:07.502Z</time></trkpt><trkpt lat="43.4669923" lon="11.1483168"><ele>111.0</ele><time>2026-04-11T07:09:09.493Z</time></trkpt><trkpt lat="43.4670521" lon="11.1482117"><ele>111.0</ele><time>2026-04-11T07:09:11.505Z</time></trkpt><trkpt lat="43.4671043" lon="11.1481191"><ele>111.0</ele><time>2026-04-11T07:09:13.503Z</time></trkpt><trkpt lat="43.4671654" lon="11.1480436"><ele>111.0</ele><time>2026-04-11T07:09:15.495Z</time></trkpt><trkpt lat="43.4672406" lon="11.1480301"><ele>111.0</ele><time>2026-04-11T07:09:17.496Z</time></trkpt><trkpt lat="43.4673289" lon="11.1480135"><ele>111.0</ele><time>2026-04-11T07:09:19.507Z</time></trkpt><trkpt lat="43.4674205" lon="11.147995"><ele>110.71428571428571</ele><time>2026-04-11T07:09:21.497Z</time></trkpt><trkpt lat="43.4675094" lon="11.1479649"><ele>110.42857142857143</ele><time>2026-04-11T07:09:23.506Z</time></trkpt><trkpt lat="43.4675912" lon="11.1479406"><ele>110.14285714285714</ele><time>2026-04-11T07:09:25.5Z</time></trkpt><trkpt lat="43.4676582" lon="11.1479356"><ele>109.85714285714286</ele><time>2026-04-11T07:09:27.513Z</time></trkpt><trkpt lat="43.4677306" lon="11.1479253"><ele>109.57142857142858</ele><time>2026-04-11T07:09:31.491Z</time></trkpt><trkpt lat="43.4676659" lon="11.1479348"><ele>109.28571428571429</ele><time>2026-04-11T07:11:17.5Z</time></trkpt><trkpt lat="43.4676396" lon="11.1480139"><ele>109.0</ele><time>2026-04-11T07:11:37.485Z</time></trkpt><trkpt lat="43.4676968" lon="11.1479676"><ele>109.0</ele><time>2026-04-11T07:12:12.485Z</time></trkpt><trkpt lat="43.4677674" lon="11.1479234"><ele>109.0</ele><time>2026-04-11T07:13:23.492Z</time></trkpt><trkpt lat="43.4678278" lon="11.147866"><ele>109.0</ele><time>2026-04-11T07:13:46.564Z</time></trkpt><trkpt lat="43.4676315" lon="11.1480338"><ele>109.0</ele><time>2026-04-11T07:13:59.472Z</time></trkpt><trkpt lat="43.4676973" lon="11.1479435"><ele>109.0</ele><time>2026-04-11T07:14:28.487Z</time></trkpt><trkpt lat="43.4677714" lon="11.1479358"><ele>109.0</ele><time>2026-04-11T07:15:10.569Z</time></trkpt><trkpt lat="43.4678325" lon="11.1479661"><ele>109.0</ele><time>2026-04-11T07:15:18.491Z</time></trkpt><trkpt lat="43.4677664" lon="11.1478883"><ele>109.0</ele><time>2026-04-11T07:16:50.563Z</time></trkpt><trkpt lat="43.4678268" lon="11.1478396"><ele>109.0</ele><time>2026-04-11T07:16:52.504Z</time></trkpt><trkpt lat="43.4677741" lon="11.1478891"><ele>109.0</ele><time>2026-04-11T07:17:07.475Z</time></trkpt><trkpt lat="43.4677545" lon="11.1479858"><ele>109.0</ele><time>2026-04-11T07:17:49.469Z</time></trkpt><trkpt lat="43.4675575" lon="11.1480835"><ele>109.00000000000001</ele><time>2026-04-11T07:18:29.46Z</time></trkpt><trkpt lat="43.4676319" lon="11.1480766"><ele>109.0</ele><time>2026-04-11T07:18:47.479Z</time></trkpt><trkpt lat="43.4676438" lon="11.1479747"><ele>109.0</ele><time>2026-04-11T07:19:32.472Z</time></trkpt><trkpt lat="43.467763" lon="11.1479476"><ele>109.0</ele><time>2026-04-11T07:19:56.564Z</time></trkpt><trkpt lat="43.4677044" lon="11.1479069"><ele>109.00000000000001</ele><time>2026-04-11T07:20:26.569Z</time></trkpt><trkpt lat="43.4676898" lon="11.1480292"><ele>109.0</ele><time>2026-04-11T07:20:54.489Z</time></trkpt><trkpt lat="43.4677337" lon="11.1479494"><ele>109.0</ele><time>2026-04-11T07:21:16.568Z</time></trkpt><trkpt lat="43.4677998" lon="11.1478967"><ele>109.0</ele><time>2026-04-11T07:21:22.471Z</time></trkpt><trkpt lat="43.4677371" lon="11.1478686"><ele>109.0</ele><time>2026-04-11T07:21:47.499Z</time></trkpt><trkpt lat="43.4676816" lon="11.1479166"><ele>109.0</ele><time>2026-04-11T07:21:58.49Z</time></trkpt><trkpt lat="43.467751" lon="11.1479263"><ele>109.0</ele><time>2026-04-11T07:22:52.488Z</time></trkpt><trkpt lat="43.4677346" lon="11.1478351"><ele>109.0</ele><time>2026-04-11T07:23:10.562Z</time></trkpt><trkpt lat="43.4677257" lon="11.1479307"><ele>109.0</ele><time>2026-04-11T07:23:19.5Z</time></trkpt><trkpt lat="43.4677983" lon="11.1479733"><ele>109.0</ele><time>2026-04-11T07:23:32.474Z</time></trkpt><trkpt lat="43.4677414" lon="11.1480128"><ele>109.0</ele><time>2026-04-11T07:23:46.559Z</time></trkpt><trkpt lat="43.4676913" lon="11.1479537"><ele>109.0</ele><time>2026-04-11T07:24:44.498Z</time></trkpt><trkpt lat="43.4676467" lon="11.1480245"><ele>109.0</ele><time>2026-04-11T07:24:50.499Z</time></trkpt><trkpt lat="43.4675749" lon="11.1480343"><ele>109.0</ele><time>2026-04-11T07:25:11.476Z</time></trkpt><trkpt lat="43.4675188" lon="11.1481077"><ele>109.0</ele><time>2026-04-11T07:25:31.491Z</time></trkpt><trkpt lat="43.4675664" lon="11.1480426"><ele>109.0</ele><time>2026-04-11T07:25:47.49Z</time></trkpt><trkpt lat="43.4676451" lon="11.1479545"><ele>109.0</ele><time>2026-04-11T07:25:51.5Z</time></trkpt><trkpt lat="43.4677024" lon="11.1478844"><ele>109.0</ele><time>2026-04-11T07:25:55.49Z</time></trkpt><trkpt lat="43.467795" lon="11.1478313"><ele>109.0</ele><time>2026-04-11T07:25:58.487Z</time></trkpt><trkpt lat="43.4678803" lon="11.1478013"><ele>109.0</ele><time>2026-04-11T07:26:00.49Z</time></trkpt><trkpt lat="43.4679909" lon="11.1477733"><ele>109.0</ele><time>2026-04-11T07:26:02.476Z</time></trkpt><trkpt lat="43.4681082" lon="11.1477391"><ele>108.50000000000001</ele><time>2026-04-11T07:26:04.507Z</time></trkpt><trkpt lat="43.4681713" lon="11.1477213"><ele>108.0</ele><time>2026-04-11T07:26:05.494Z</time></trkpt><trkpt lat="43.4682347" lon="11.1476939"><ele>107.5</ele><time>2026-04-11T07:26:06.511Z</time></trkpt><trkpt lat="43.4682965" lon="11.1476703"><ele>107.0</ele><time>2026-04-11T07:26:07.502Z</time></trkpt><trkpt lat="43.4684054" lon="11.147639"><ele>106.50000000000001</ele><time>2026-04-11T07:26:09.486Z</time></trkpt><trkpt lat="43.4685046" lon="11.1476035"><ele>106.0</ele><time>2026-04-11T07:26:12.571Z</time></trkpt><trkpt lat="43.4685747" lon="11.1475757"><ele>106.0</ele><time>2026-04-11T07:26:14.507Z</time></trkpt><trkpt lat="43.4686577" lon="11.1475363"><ele>106.0</ele><time>2026-04-11T07:26:16.49Z</time></trkpt><trkpt lat="43.4687471" lon="11.1474996"><ele>106.0</ele><time>2026-04-11T07:26:18.495Z</time></trkpt><trkpt lat="43.4688413" lon="11.1474459"><ele>106.0</ele><time>2026-04-11T07:26:20.483Z</time></trkpt><trkpt lat="43.4689524" lon="11.1473911"><ele>106.0</ele><time>2026-04-11T07:26:22.558Z</time></trkpt><trkpt lat="43.4690644" lon="11.1473354"><ele>105.66666666666667</ele><time>2026-04-11T07:26:24.487Z</time></trkpt><trkpt lat="43.4691296" lon="11.147296"><ele>105.33333333333334</ele><time>2026-04-11T07:26:25.482Z</time></trkpt><trkpt lat="43.4692041" lon="11.1472478"><ele>105.0</ele><time>2026-04-11T07:26:26.494Z</time></trkpt><trkpt lat="43.469273" lon="11.1471869"><ele>104.66666666666666</ele><time>2026-04-11T07:26:27.489Z</time></trkpt><trkpt lat="43.4693373" lon="11.147127"><ele>104.33333333333333</ele><time>2026-04-11T07:26:28.485Z</time></trkpt><trkpt lat="43.4694027" lon="11.1470608"><ele>104.0</ele><time>2026-04-11T07:26:29.497Z</time></trkpt><trkpt lat="43.469465" lon="11.1469886"><ele>103.99999999999999</ele><time>2026-04-11T07:26:30.487Z</time></trkpt><trkpt lat="43.4695273" lon="11.1469134"><ele>104.0</ele><time>2026-04-11T07:26:31.557Z</time></trkpt><trkpt lat="43.4695897" lon="11.1468444"><ele>104.0</ele><time>2026-04-11T07:26:32.555Z</time></trkpt><trkpt lat="43.4696538" lon="11.1467673"><ele>104.0</ele><time>2026-04-11T07:26:33.493Z</time></trkpt><trkpt lat="43.4697135" lon="11.1466834"><ele>103.99999999999999</ele><time>2026-04-11T07:26:34.503Z</time></trkpt><trkpt lat="43.4697604" lon="11.1466238"><ele>104.0</ele><time>2026-04-11T07:26:35.502Z</time></trkpt><trkpt lat="43.4698481" lon="11.1465106"><ele>103.83333333333333</ele><time>2026-04-11T07:26:37.493Z</time></trkpt><trkpt lat="43.4698882" lon="11.1464375"><ele>103.66666666666666</ele><time>2026-04-11T07:26:38.491Z</time></trkpt><trkpt lat="43.4699306" lon="11.1463663"><ele>103.5</ele><time>2026-04-11T07:26:39.494Z</time></trkpt><trkpt lat="43.4699722" lon="11.1462927"><ele>103.33333333333334</ele><time>2026-04-11T07:26:40.572Z</time></trkpt><trkpt lat="43.4700112" lon="11.1462211"><ele>103.16666666666667</ele><time>2026-04-11T07:26:41.561Z</time></trkpt><trkpt lat="43.4700522" lon="11.1461433"><ele>103.0</ele><time>2026-04-11T07:26:42.573Z</time></trkpt><trkpt lat="43.4701074" lon="11.1459922"><ele>103.00000000000001</ele><time>2026-04-11T07:26:44.507Z</time></trkpt><trkpt lat="43.4701138" lon="11.1458052"><ele>103.0</ele><time>2026-04-11T07:26:46.49Z</time></trkpt><trkpt lat="43.4701228" lon="11.1457082"><ele>103.0</ele><time>2026-04-11T07:26:47.49Z</time></trkpt><trkpt lat="43.4701418" lon="11.1456145"><ele>103.0</ele><time>2026-04-11T07:26:48.487Z</time></trkpt><trkpt lat="43.4701564" lon="11.14552"><ele>103.00000000000001</ele><time>2026-04-11T07:26:49.498Z</time></trkpt><trkpt lat="43.4701731" lon="11.1454285"><ele>103.0</ele><time>2026-04-11T07:26:50.473Z</time></trkpt><trkpt lat="43.4701956" lon="11.1453371"><ele>103.00000000000001</ele><time>2026-04-11T07:26:51.496Z</time></trkpt><trkpt lat="43.4702203" lon="11.1452495"><ele>103.0</ele><time>2026-04-11T07:26:52.513Z</time></trkpt><trkpt lat="43.4702792" lon="11.1451005"><ele>103.0</ele><time>2026-04-11T07:26:54.5Z</time></trkpt><trkpt lat="43.4703413" lon="11.1449548"><ele>103.0</ele><time>2026-04-11T07:26:56.506Z</time></trkpt><trkpt lat="43.4703763" lon="11.1448803"><ele>103.00000000000001</ele><time>2026-04-11T07:26:57.49Z</time></trkpt><trkpt lat="43.4704133" lon="11.1448034"><ele>103.0</ele><time>2026-04-11T07:26:58.505Z</time></trkpt><trkpt lat="43.4704489" lon="11.1447291"><ele>103.0</ele><time>2026-04-11T07:26:59.501Z</time></trkpt><trkpt lat="43.4705168" lon="11.1445803"><ele>103.0</ele><time>2026-04-11T07:27:01.492Z</time></trkpt><trkpt lat="43.4705787" lon="11.1444366"><ele>103.0</ele><time>2026-04-11T07:27:03.497Z</time></trkpt><trkpt lat="43.470643" lon="11.1442997"><ele>103.0</ele><time>2026-04-11T07:27:05.495Z</time></trkpt><trkpt lat="43.4707161" lon="11.1441721"><ele>103.60000000000001</ele><time>2026-04-11T07:27:07.495Z</time></trkpt><trkpt lat="43.470778" lon="11.1440392"><ele>104.2</ele><time>2026-04-11T07:27:09.496Z</time></trkpt><trkpt lat="43.4708277" lon="11.1439025"><ele>104.8</ele><time>2026-04-11T07:27:11.487Z</time></trkpt><trkpt lat="43.4708635" lon="11.1437787"><ele>105.4</ele><time>2026-04-11T07:27:13.509Z</time></trkpt><trkpt lat="43.4709101" lon="11.1436657"><ele>106.0</ele><time>2026-04-11T07:27:15.487Z</time></trkpt><trkpt lat="43.470966" lon="11.1435668"><ele>106.00000000000001</ele><time>2026-04-11T07:27:17.491Z</time></trkpt><trkpt lat="43.471013" lon="11.1434637"><ele>106.0</ele><time>2026-04-11T07:27:19.493Z</time></trkpt><trkpt lat="43.4710629" lon="11.1433624"><ele>106.0</ele><time>2026-04-11T07:27:21.489Z</time></trkpt><trkpt lat="43.4711086" lon="11.1432807"><ele>106.0</ele><time>2026-04-11T07:27:23.494Z</time></trkpt><trkpt lat="43.4711624" lon="11.1431952"><ele>106.00000000000001</ele><time>2026-04-11T07:27:26.492Z</time></trkpt><trkpt lat="43.4712017" lon="11.1431157"><ele>106.0</ele><time>2026-04-11T07:27:29.491Z</time></trkpt><trkpt lat="43.4712223" lon="11.1430219"><ele>106.14285714285715</ele><time>2026-04-11T07:27:32.502Z</time></trkpt><trkpt lat="43.4712758" lon="11.1429373"><ele>106.28571428571428</ele><time>2026-04-11T07:27:36.502Z</time></trkpt><trkpt lat="43.471332" lon="11.1428555"><ele>106.42857142857143</ele><time>2026-04-11T07:27:39.491Z</time></trkpt><trkpt lat="43.4713755" lon="11.1427764"><ele>106.57142857142858</ele><time>2026-04-11T07:27:41.493Z</time></trkpt><trkpt lat="43.4714161" lon="11.1426994"><ele>106.71428571428572</ele><time>2026-04-11T07:27:43.494Z</time></trkpt><trkpt lat="43.4714485" lon="11.1426225"><ele>106.85714285714286</ele><time>2026-04-11T07:27:45.503Z</time></trkpt><trkpt lat="43.4714471" lon="11.1425193"><ele>107.0</ele><time>2026-04-11T07:29:57.487Z</time></trkpt><trkpt lat="43.4715306" lon="11.1424897"><ele>106.99999999999999</ele><time>2026-04-11T07:32:07.555Z</time></trkpt><trkpt lat="43.4715839" lon="11.1424034"><ele>107.0</ele><time>2026-04-11T07:32:10.495Z</time></trkpt><trkpt lat="43.4716471" lon="11.1423218"><ele>107.0</ele><time>2026-04-11T07:32:13.5Z</time></trkpt><trkpt lat="43.4716942" lon="11.1422152"><ele>107.0</ele><time>2026-04-11T07:32:16.498Z</time></trkpt><trkpt lat="43.4717222" lon="11.1421254"><ele>106.99999999999999</ele><time>2026-04-11T07:32:18.491Z</time></trkpt><trkpt lat="43.4716928" lon="11.142028"><ele>107.0</ele><time>2026-04-11T07:32:20.491Z</time></trkpt><trkpt lat="43.4716588" lon="11.1419514"><ele>106.57142857142858</ele><time>2026-04-11T07:32:22.501Z</time></trkpt><trkpt lat="43.4716179" lon="11.1418804"><ele>106.14285714285714</ele><time>2026-04-11T07:32:24.508Z</time></trkpt><trkpt lat="43.4715786" lon="11.1418056"><ele>105.71428571428572</ele><time>2026-04-11T07:32:26.559Z</time></trkpt><trkpt lat="43.4715054" lon="11.1417615"><ele>105.28571428571429</ele><time>2026-04-11T07:32:28.49Z</time></trkpt><trkpt lat="43.4714752" lon="11.1416704"><ele>104.85714285714286</ele><time>2026-04-11T07:32:30.509Z</time></trkpt><trkpt lat="43.471447" lon="11.1415785"><ele>104.42857142857143</ele><time>2026-04-11T07:32:32.502Z</time></trkpt><trkpt lat="43.471407" lon="11.141489"><ele>104.0</ele><time>2026-04-11T07:32:34.492Z</time></trkpt><trkpt lat="43.4713777" lon="11.1413737"><ele>103.83333333333333</ele><time>2026-04-11T07:32:36.557Z</time></trkpt><trkpt lat="43.4713981" lon="11.1412814"><ele>103.66666666666666</ele><time>2026-04-11T07:32:38.487Z</time></trkpt><trkpt lat="43.4714603" lon="11.1412117"><ele>103.5</ele><time>2026-04-11T07:32:40.483Z</time></trkpt><trkpt lat="43.4715204" lon="11.1411537"><ele>103.33333333333334</ele><time>2026-04-11T07:32:42.558Z</time></trkpt><trkpt lat="43.471581" lon="11.1411057"><ele>103.16666666666667</ele><time>2026-04-11T07:32:44.493Z</time></trkpt><trkpt lat="43.4716402" lon="11.1410114"><ele>103.0</ele><time>2026-04-11T07:32:46.577Z</time></trkpt><trkpt lat="43.4716984" lon="11.1409122"><ele>103.0</ele><time>2026-04-11T07:32:48.487Z</time></trkpt><trkpt lat="43.4716655" lon="11.1407783"><ele>103.0</ele><time>2026-04-11T07:32:50.473Z</time></trkpt><trkpt lat="43.4716106" lon="11.1406739"><ele>103.0</ele><time>2026-04-11T07:32:52.496Z</time></trkpt><trkpt lat="43.4715443" lon="11.1405587"><ele>103.0</ele><time>2026-04-11T07:32:54.5Z</time></trkpt><trkpt lat="43.4714693" lon="11.1404247"><ele>103.0</ele><time>2026-04-11T07:32:56.496Z</time></trkpt><trkpt lat="43.4713935" lon="11.1402917"><ele>102.66666666666667</ele><time>2026-04-11T07:32:58.48Z</time></trkpt><trkpt lat="43.4713414" lon="11.1402257"><ele>102.33333333333334</ele><time>2026-04-11T07:32:59.493Z</time></trkpt><trkpt lat="43.4712761" lon="11.1400996"><ele>102.0</ele><time>2026-04-11T07:33:01.497Z</time></trkpt><trkpt lat="43.4712169" lon="11.1400002"><ele>101.66666666666666</ele><time>2026-04-11T07:33:03.49Z</time></trkpt><trkpt lat="43.4711961" lon="11.1399113"><ele>101.33333333333333</ele><time>2026-04-11T07:33:05.496Z</time></trkpt><trkpt lat="43.4712323" lon="11.1398209"><ele>101.0</ele><time>2026-04-11T07:33:07.494Z</time></trkpt><trkpt lat="43.4713066" lon="11.1397396"><ele>100.4</ele><time>2026-04-11T07:33:09.499Z</time></trkpt><trkpt lat="43.4713843" lon="11.139663"><ele>99.8</ele><time>2026-04-11T07:33:11.493Z</time></trkpt><trkpt lat="43.4714449" lon="11.1395848"><ele>99.2</ele><time>2026-04-11T07:33:13.49Z</time></trkpt><trkpt lat="43.4714865" lon="11.1395054"><ele>98.60000000000001</ele><time>2026-04-11T07:33:15.495Z</time></trkpt><trkpt lat="43.4715722" lon="11.1394054"><ele>98.0</ele><time>2026-04-11T07:33:17.496Z</time></trkpt><trkpt lat="43.4716532" lon="11.1393283"><ele>97.99999999999999</ele><time>2026-04-11T07:33:19.505Z</time></trkpt><trkpt lat="43.4717218" lon="11.1392547"><ele>98.0</ele><time>2026-04-11T07:33:21.558Z</time></trkpt><trkpt lat="43.4717782" lon="11.1391968"><ele>98.0</ele><time>2026-04-11T07:33:23.478Z</time></trkpt><trkpt lat="43.4718421" lon="11.1391384"><ele>98.0</ele><time>2026-04-11T07:33:25.511Z</time></trkpt><trkpt lat="43.4719038" lon="11.1390624"><ele>97.99999999999999</ele><time>2026-04-11T07:33:27.486Z</time></trkpt><trkpt lat="43.4719552" lon="11.1390014"><ele>98.0</ele><time>2026-04-11T07:33:29.52Z</time></trkpt><trkpt lat="43.4720126" lon="11.1389212"><ele>98.0</ele><time>2026-04-11T07:33:31.476Z</time></trkpt><trkpt lat="43.4720994" lon="11.138799"><ele>98.0</ele><time>2026-04-11T07:33:34.497Z</time></trkpt><trkpt lat="43.4721987" lon="11.1387219"><ele>98.0</ele><time>2026-04-11T07:33:36.571Z</time></trkpt><trkpt lat="43.4722802" lon="11.1386258"><ele>98.0</ele><time>2026-04-11T07:33:38.495Z</time></trkpt><trkpt lat="43.4723697" lon="11.1385302"><ele>97.66666666666666</ele><time>2026-04-11T07:33:40.501Z</time></trkpt><trkpt lat="43.4724335" lon="11.1384388"><ele>97.33333333333333</ele><time>2026-04-11T07:33:42.571Z</time></trkpt><trkpt lat="43.4724828" lon="11.1383465"><ele>97.0</ele><time>2026-04-11T07:33:44.507Z</time></trkpt><trkpt lat="43.4725325" lon="11.1382775"><ele>96.66666666666666</ele><time>2026-04-11T07:33:46.499Z</time></trkpt><trkpt lat="43.4725368" lon="11.1381782"><ele>96.33333333333333</ele><time>2026-04-11T07:33:49.485Z</time></trkpt><trkpt lat="43.4725157" lon="11.1380934"><ele>96.0</ele><time>2026-04-11T07:33:51.489Z</time></trkpt><trkpt lat="43.4724821" lon="11.1380016"><ele>95.8</ele><time>2026-04-11T07:33:53.504Z</time></trkpt><trkpt lat="43.4724251" lon="11.137935"><ele>95.6</ele><time>2026-04-11T07:33:55.504Z</time></trkpt><trkpt lat="43.4723416" lon="11.1378628"><ele>95.4</ele><time>2026-04-11T07:33:57.502Z</time></trkpt><trkpt lat="43.4722567" lon="11.137764"><ele>95.2</ele><time>2026-04-11T07:33:59.499Z</time></trkpt><trkpt lat="43.4721533" lon="11.1377201"><ele>95.0</ele><time>2026-04-11T07:34:01.492Z</time></trkpt><trkpt lat="43.4720428" lon="11.1377048"><ele>95.4</ele><time>2026-04-11T07:34:03.495Z</time></trkpt><trkpt lat="43.4719273" lon="11.1377051"><ele>95.8</ele><time>2026-04-11T07:34:05.474Z</time></trkpt><trkpt lat="43.4718149" lon="11.1377449"><ele>96.19999999999999</ele><time>2026-04-11T07:34:07.563Z</time></trkpt><trkpt lat="43.4717644" lon="11.1377973"><ele>96.6</ele><time>2026-04-11T07:34:08.502Z</time></trkpt><trkpt lat="43.4716876" lon="11.1379216"><ele>97.0</ele><time>2026-04-11T07:34:10.477Z</time></trkpt><trkpt lat="43.471613" lon="11.138051"><ele>97.0</ele><time>2026-04-11T07:34:12.573Z</time></trkpt><trkpt lat="43.4715362" lon="11.1381667"><ele>97.0</ele><time>2026-04-11T07:34:14.504Z</time></trkpt><trkpt lat="43.4714653" lon="11.138272"><ele>97.0</ele><time>2026-04-11T07:34:16.478Z</time></trkpt><trkpt lat="43.4713982" lon="11.1383676"><ele>97.0</ele><time>2026-04-11T07:34:18.487Z</time></trkpt><trkpt lat="43.4713323" lon="11.1384745"><ele>97.0</ele><time>2026-04-11T07:34:20.501Z</time></trkpt><trkpt lat="43.4712612" lon="11.1385824"><ele>97.0</ele><time>2026-04-11T07:34:22.562Z</time></trkpt><trkpt lat="43.4711895" lon="11.1386934"><ele>97.0</ele><time>2026-04-11T07:34:24.501Z</time></trkpt><trkpt lat="43.4711143" lon="11.1387922"><ele>97.0</ele><time>2026-04-11T07:34:26.558Z</time></trkpt><trkpt lat="43.471028" lon="11.1388874"><ele>97.0</ele><time>2026-04-11T07:34:28.496Z</time></trkpt><trkpt lat="43.4709477" lon="11.1390066"><ele>97.0</ele><time>2026-04-11T07:34:30.494Z</time></trkpt><trkpt lat="43.4708831" lon="11.1391164"><ele>97.0</ele><time>2026-04-11T07:34:32.5Z</time></trkpt><trkpt lat="43.4708096" lon="11.1392154"><ele>97.0</ele><time>2026-04-11T07:34:34.492Z</time></trkpt><trkpt lat="43.4707291" lon="11.1393211"><ele>97.0</ele><time>2026-04-11T07:34:36.571Z</time></trkpt><trkpt lat="43.4706515" lon="11.1394212"><ele>97.0</ele><time>2026-04-11T07:34:38.499Z</time></trkpt><trkpt lat="43.4705796" lon="11.1395351"><ele>97.0</ele><time>2026-04-11T07:34:40.499Z</time></trkpt><trkpt lat="43.4705413" lon="11.1396652"><ele>97.0</ele><time>2026-04-11T07:34:42.494Z</time></trkpt><trkpt lat="43.4705061" lon="11.1397834"><ele>97.0</ele><time>2026-04-11T07:34:44.496Z</time></trkpt><trkpt lat="43.4704783" lon="11.1399122"><ele>97.0</ele><time>2026-04-11T07:34:46.495Z</time></trkpt><trkpt lat="43.4704473" lon="11.1400264"><ele>97.0</ele><time>2026-04-11T07:34:48.493Z</time></trkpt><trkpt lat="43.4704179" lon="11.140148"><ele>97.0</ele><time>2026-04-11T07:34:50.495Z</time></trkpt><trkpt lat="43.4703903" lon="11.1402661"><ele>97.00000000000001</ele><time>2026-04-11T07:34:52.507Z</time></trkpt><trkpt lat="43.4703634" lon="11.1403705"><ele>97.0</ele><time>2026-04-11T07:34:54.505Z</time></trkpt><trkpt lat="43.4703295" lon="11.1404744"><ele>97.0</ele><time>2026-04-11T07:34:56.504Z</time></trkpt><trkpt lat="43.4702975" lon="11.1405822"><ele>97.0</ele><time>2026-04-11T07:34:58.483Z</time></trkpt><trkpt lat="43.4702598" lon="11.1406887"><ele>97.00000000000001</ele><time>2026-04-11T07:35:00.51Z</time></trkpt><trkpt lat="43.470219" lon="11.1407856"><ele>97.0</ele><time>2026-04-11T07:35:02.476Z</time></trkpt><trkpt lat="43.4701837" lon="11.1408935"><ele>97.19999999999999</ele><time>2026-04-11T07:35:04.493Z</time></trkpt><trkpt lat="43.4701466" lon="11.1409976"><ele>97.4</ele><time>2026-04-11T07:35:06.501Z</time></trkpt><trkpt lat="43.4700805" lon="11.1410815"><ele>97.6</ele><time>2026-04-11T07:35:08.497Z</time></trkpt><trkpt lat="43.4699917" lon="11.1410974"><ele>97.80000000000001</ele><time>2026-04-11T07:35:10.516Z</time></trkpt><trkpt lat="43.4699079" lon="11.1410293"><ele>98.0</ele><time>2026-04-11T07:35:12.496Z</time></trkpt><trkpt lat="43.4698113" lon="11.1409614"><ele>98.0</ele><time>2026-04-11T07:35:14.5Z</time></trkpt><trkpt lat="43.4697152" lon="11.1408985"><ele>98.0</ele><time>2026-04-11T07:35:16.496Z</time></trkpt><trkpt lat="43.4696151" lon="11.1408434"><ele>98.0</ele><time>2026-04-11T07:35:18.497Z</time></trkpt><trkpt lat="43.4695113" lon="11.1407962"><ele>98.0</ele><time>2026-04-11T07:35:20.498Z</time></trkpt><trkpt lat="43.469411" lon="11.1407419"><ele>98.0</ele><time>2026-04-11T07:35:22.556Z</time></trkpt><trkpt lat="43.4693509" lon="11.1407068"><ele>97.4</ele><time>2026-04-11T07:35:23.493Z</time></trkpt><trkpt lat="43.4692865" lon="11.1406851"><ele>96.80000000000001</ele><time>2026-04-11T07:35:24.499Z</time></trkpt><trkpt lat="43.4691897" lon="11.1406392"><ele>96.2</ele><time>2026-04-11T07:35:26.494Z</time></trkpt><trkpt lat="43.4690907" lon="11.1406101"><ele>95.6</ele><time>2026-04-11T07:35:28.508Z</time></trkpt><trkpt lat="43.4689792" lon="11.1405973"><ele>95.0</ele><time>2026-04-11T07:35:30.496Z</time></trkpt><trkpt lat="43.4688643" lon="11.1406008"><ele>94.5</ele><time>2026-04-11T07:35:32.507Z</time></trkpt><trkpt lat="43.4687384" lon="11.1406203"><ele>94.0</ele><time>2026-04-11T07:35:34.494Z</time></trkpt><trkpt lat="43.4686745" lon="11.1406296"><ele>93.5</ele><time>2026-04-11T07:35:35.502Z</time></trkpt><trkpt lat="43.4686089" lon="11.1406396"><ele>93.0</ele><time>2026-04-11T07:35:36.493Z</time></trkpt><trkpt lat="43.4685436" lon="11.1406479"><ele>92.5</ele><time>2026-04-11T07:35:37.5Z</time></trkpt><trkpt lat="43.4684799" lon="11.1406539"><ele>92.0</ele><time>2026-04-11T07:35:38.502Z</time></trkpt><trkpt lat="43.4683532" lon="11.1406705"><ele>92.0</ele><time>2026-04-11T07:35:40.515Z</time></trkpt><trkpt lat="43.4682257" lon="11.1406846"><ele>92.0</ele><time>2026-04-11T07:35:42.499Z</time></trkpt><trkpt lat="43.4681626" lon="11.1406914"><ele>92.0</ele><time>2026-04-11T07:35:43.491Z</time></trkpt><trkpt lat="43.4680378" lon="11.1407075"><ele>92.0</ele><time>2026-04-11T07:35:45.5Z</time></trkpt><trkpt lat="43.467915" lon="11.1407111"><ele>92.0</ele><time>2026-04-11T07:35:47.493Z</time></trkpt><trkpt lat="43.4677947" lon="11.1407175"><ele>93.0</ele><time>2026-04-11T07:35:49.501Z</time></trkpt><trkpt lat="43.4676766" lon="11.1407296"><ele>94.0</ele><time>2026-04-11T07:35:51.496Z</time></trkpt><trkpt lat="43.4675586" lon="11.1407405"><ele>95.0</ele><time>2026-04-11T07:35:53.517Z</time></trkpt><trkpt lat="43.4674458" lon="11.1407523"><ele>96.0</ele><time>2026-04-11T07:35:55.5Z</time></trkpt><trkpt lat="43.4673338" lon="11.14076"><ele>96.0</ele><time>2026-04-11T07:35:57.512Z</time></trkpt><trkpt lat="43.4672193" lon="11.1407323"><ele>96.0</ele><time>2026-04-11T07:35:59.508Z</time></trkpt><trkpt lat="43.4671004" lon="11.1406871"><ele>96.0</ele><time>2026-04-11T07:36:01.525Z</time></trkpt><trkpt lat="43.4669861" lon="11.1406477"><ele>96.0</ele><time>2026-04-11T07:36:03.493Z</time></trkpt><trkpt lat="43.4668966" lon="11.1405892"><ele>96.4</ele><time>2026-04-11T07:36:05.508Z</time></trkpt><trkpt lat="43.4668466" lon="11.1404786"><ele>96.8</ele><time>2026-04-11T07:36:07.492Z</time></trkpt><trkpt lat="43.4667977" lon="11.1403616"><ele>97.2</ele><time>2026-04-11T07:36:09.511Z</time></trkpt><trkpt lat="43.4667419" lon="11.1402474"><ele>97.60000000000001</ele><time>2026-04-11T07:36:11.491Z</time></trkpt><trkpt lat="43.4666784" lon="11.1401281"><ele>98.0</ele><time>2026-04-11T07:36:13.494Z</time></trkpt><trkpt lat="43.4666122" lon="11.1400019"><ele>97.80000000000001</ele><time>2026-04-11T07:36:15.496Z</time></trkpt><trkpt lat="43.4665514" lon="11.1398748"><ele>97.6</ele><time>2026-04-11T07:36:17.515Z</time></trkpt><trkpt lat="43.466491" lon="11.1397519"><ele>97.4</ele><time>2026-04-11T07:36:19.494Z</time></trkpt><trkpt lat="43.4664256" lon="11.1396387"><ele>97.19999999999999</ele><time>2026-04-11T07:36:21.506Z</time></trkpt><trkpt lat="43.4663444" lon="11.1395746"><ele>97.0</ele><time>2026-04-11T07:36:23.496Z</time></trkpt><trkpt lat="43.4662437" lon="11.1395464"><ele>98.0</ele><time>2026-04-11T07:36:25.507Z</time></trkpt><trkpt lat="43.4661419" lon="11.139573"><ele>99.0</ele><time>2026-04-11T07:36:27.495Z</time></trkpt><trkpt lat="43.4660537" lon="11.1396506"><ele>100.0</ele><time>2026-04-11T07:36:29.495Z</time></trkpt><trkpt lat="43.4659715" lon="11.1397736"><ele>101.0</ele><time>2026-04-11T07:36:31.506Z</time></trkpt><trkpt lat="43.465897" lon="11.1399045"><ele>101.0</ele><time>2026-04-11T07:36:33.495Z</time></trkpt><trkpt lat="43.4658285" lon="11.1400335"><ele>101.0</ele><time>2026-04-11T07:36:35.512Z</time></trkpt><trkpt lat="43.4657663" lon="11.1401472"><ele>101.0</ele><time>2026-04-11T07:36:37.504Z</time></trkpt><trkpt lat="43.4657073" lon="11.1402668"><ele>101.0</ele><time>2026-04-11T07:36:39.488Z</time></trkpt><trkpt lat="43.4656526" lon="11.140391"><ele>101.0</ele><time>2026-04-11T07:36:41.496Z</time></trkpt><trkpt lat="43.4655887" lon="11.1405179"><ele>101.0</ele><time>2026-04-11T07:36:43.492Z</time></trkpt><trkpt lat="43.4655255" lon="11.1406298"><ele>101.0</ele><time>2026-04-11T07:36:45.502Z</time></trkpt><trkpt lat="43.4654503" lon="11.1407416"><ele>101.0</ele><time>2026-04-11T07:36:47.495Z</time></trkpt><trkpt lat="43.4653641" lon="11.1408168"><ele>101.0</ele><time>2026-04-11T07:36:49.506Z</time></trkpt><trkpt lat="43.4652653" lon="11.1408909"><ele>101.0</ele><time>2026-04-11T07:36:51.501Z</time></trkpt><trkpt lat="43.4651795" lon="11.1409361"><ele>101.0</ele><time>2026-04-11T07:36:53.498Z</time></trkpt><trkpt lat="43.4651036" lon="11.1409563"><ele>101.0</ele><time>2026-04-11T07:36:55.492Z</time></trkpt><trkpt lat="43.4650272" lon="11.1409819"><ele>101.0</ele><time>2026-04-11T07:36:57.495Z</time></trkpt><trkpt lat="43.4649254" lon="11.1410031"><ele>101.0</ele><time>2026-04-11T07:36:59.498Z</time></trkpt><trkpt lat="43.4648116" lon="11.1410182"><ele>101.0</ele><time>2026-04-11T07:37:01.503Z</time></trkpt><trkpt lat="43.4646962" lon="11.1410028"><ele>100.0</ele><time>2026-04-11T07:37:03.489Z</time></trkpt><trkpt lat="43.4645973" lon="11.1409079"><ele>99.0</ele><time>2026-04-11T07:37:05.502Z</time></trkpt><trkpt lat="43.4645208" lon="11.1407732"><ele>98.0</ele><time>2026-04-11T07:37:07.499Z</time></trkpt><trkpt lat="43.4644268" lon="11.1406643"><ele>97.0</ele><time>2026-04-11T07:37:09.501Z</time></trkpt><trkpt lat="43.4643325" lon="11.140575"><ele>99.5</ele><time>2026-04-11T07:37:11.496Z</time></trkpt><trkpt lat="43.4642374" lon="11.1404877"><ele>102.0</ele><time>2026-04-11T07:37:13.488Z</time></trkpt><trkpt lat="43.4641344" lon="11.1404139"><ele>104.5</ele><time>2026-04-11T07:37:15.497Z</time></trkpt><trkpt lat="43.4640367" lon="11.1403293"><ele>107.0</ele><time>2026-04-11T07:37:17.494Z</time></trkpt><trkpt lat="43.463948" lon="11.1402404"><ele>107.00000000000001</ele><time>2026-04-11T07:37:19.509Z</time></trkpt><trkpt lat="43.4638758" lon="11.1401637"><ele>107.0</ele><time>2026-04-11T07:37:21.508Z</time></trkpt><trkpt lat="43.4638083" lon="11.1400988"><ele>107.0</ele><time>2026-04-11T07:37:23.492Z</time></trkpt><trkpt lat="43.4637485" lon="11.1400355"><ele>107.0</ele><time>2026-04-11T07:37:25.519Z</time></trkpt><trkpt lat="43.4636973" lon="11.139973"><ele>107.0</ele><time>2026-04-11T07:37:27.495Z</time></trkpt><trkpt lat="43.4636472" lon="11.1399103"><ele>107.00000000000001</ele><time>2026-04-11T07:37:29.51Z</time></trkpt><trkpt lat="43.4636037" lon="11.1398459"><ele>107.0</ele><time>2026-04-11T07:37:31.495Z</time></trkpt><trkpt lat="43.4635448" lon="11.1397485"><ele>107.16666666666666</ele><time>2026-04-11T07:37:34.493Z</time></trkpt><trkpt lat="43.4635224" lon="11.1396411"><ele>107.33333333333333</ele><time>2026-04-11T07:37:37.501Z</time></trkpt><trkpt lat="43.4635421" lon="11.1395128"><ele>107.5</ele><time>2026-04-11T07:37:40.495Z</time></trkpt><trkpt lat="43.4635501" lon="11.1394124"><ele>107.66666666666666</ele><time>2026-04-11T07:37:42.492Z</time></trkpt><trkpt lat="43.4635365" lon="11.1393035"><ele>107.83333333333333</ele><time>2026-04-11T07:37:44.505Z</time></trkpt><trkpt lat="43.4635243" lon="11.1392105"><ele>108.0</ele><time>2026-04-11T07:37:46.488Z</time></trkpt><trkpt lat="43.4635109" lon="11.1391233"><ele>108.85714285714286</ele><time>2026-04-11T07:37:48.506Z</time></trkpt><trkpt lat="43.4634933" lon="11.1390324"><ele>109.71428571428571</ele><time>2026-04-11T07:37:50.504Z</time></trkpt><trkpt lat="43.4634748" lon="11.1389448"><ele>110.57142857142857</ele><time>2026-04-11T07:37:52.528Z</time></trkpt><trkpt lat="43.4634562" lon="11.1388594"><ele>111.42857142857142</ele><time>2026-04-11T07:37:54.49Z</time></trkpt><trkpt lat="43.4634322" lon="11.1387777"><ele>112.28571428571428</ele><time>2026-04-11T07:37:56.502Z</time></trkpt><trkpt lat="43.4634054" lon="11.1386671"><ele>113.14285714285714</ele><time>2026-04-11T07:37:59.49Z</time></trkpt><trkpt lat="43.4633934" lon="11.1385456"><ele>114.0</ele><time>2026-04-11T07:38:02.504Z</time></trkpt><trkpt lat="43.4633949" lon="11.138427"><ele>114.0</ele><time>2026-04-11T07:38:05.493Z</time></trkpt><trkpt lat="43.463411" lon="11.1383301"><ele>114.0</ele><time>2026-04-11T07:38:07.498Z</time></trkpt><trkpt lat="43.4634142" lon="11.1382085"><ele>114.0</ele><time>2026-04-11T07:38:09.48Z</time></trkpt><trkpt lat="43.4633853" lon="11.1380906"><ele>114.0</ele><time>2026-04-11T07:38:11.497Z</time></trkpt><trkpt lat="43.4633358" lon="11.1379741"><ele>114.0</ele><time>2026-04-11T07:38:13.488Z</time></trkpt><trkpt lat="43.463279" lon="11.1378686"><ele>114.0</ele><time>2026-04-11T07:38:15.494Z</time></trkpt><trkpt lat="43.4632188" lon="11.1377615"><ele>116.5</ele><time>2026-04-11T07:38:17.497Z</time></trkpt><trkpt lat="43.4631696" lon="11.1376612"><ele>119.0</ele><time>2026-04-11T07:38:19.493Z</time></trkpt><trkpt lat="43.4631229" lon="11.1375625"><ele>121.5</ele><time>2026-04-11T07:38:21.495Z</time></trkpt><trkpt lat="43.4630767" lon="11.1374718"><ele>124.0</ele><time>2026-04-11T07:38:23.489Z</time></trkpt><trkpt lat="43.4630352" lon="11.1373964"><ele>126.5</ele><time>2026-04-11T07:38:25.498Z</time></trkpt><trkpt lat="43.4629888" lon="11.1373213"><ele>129.0</ele><time>2026-04-11T07:38:29.493Z</time></trkpt><trkpt lat="43.4629496" lon="11.137244"><ele>129.42857142857142</ele><time>2026-04-11T07:38:34.49Z</time></trkpt><trkpt lat="43.4628931" lon="11.1371673"><ele>129.85714285714286</ele><time>2026-04-11T07:38:39.491Z</time></trkpt><trkpt lat="43.4628463" lon="11.1370811"><ele>130.28571428571428</ele><time>2026-04-11T07:38:44.506Z</time></trkpt><trkpt lat="43.4627962" lon="11.1370179"><ele>130.71428571428572</ele><time>2026-04-11T07:38:48.505Z</time></trkpt><trkpt lat="43.4627549" lon="11.1369451"><ele>131.14285714285714</ele><time>2026-04-11T07:38:52.495Z</time></trkpt><trkpt lat="43.462703" lon="11.1368769"><ele>131.57142857142856</ele><time>2026-04-11T07:38:56.496Z</time></trkpt><trkpt lat="43.4627057" lon="11.1367887"><ele>132.0</ele><time>2026-04-11T07:39:00.488Z</time></trkpt><trkpt lat="43.4627666" lon="11.1367453"><ele>132.0</ele><time>2026-04-11T07:39:04.496Z</time></trkpt><trkpt lat="43.4628308" lon="11.1367863"><ele>132.0</ele><time>2026-04-11T07:39:08.505Z</time></trkpt><trkpt lat="43.4628759" lon="11.1368689"><ele>132.0</ele><time>2026-04-11T07:39:13.503Z</time></trkpt><trkpt lat="43.4629384" lon="11.1368871"><ele>132.0</ele><time>2026-04-11T07:39:17.473Z</time></trkpt><trkpt lat="43.4629965" lon="11.1369411"><ele>132.0</ele><time>2026-04-11T07:39:21.488Z</time></trkpt><trkpt lat="43.463065" lon="11.137"><ele>132.0</ele><time>2026-04-11T07:39:25.498Z</time></trkpt><trkpt lat="43.4631164" lon="11.1370709"><ele>132.0</ele><time>2026-04-11T07:39:29.49Z</time></trkpt><trkpt lat="43.4631636" lon="11.1371445"><ele>131.57142857142856</ele><time>2026-04-11T07:39:33.475Z</time></trkpt><trkpt lat="43.4632311" lon="11.1372103"><ele>131.14285714285714</ele><time>2026-04-11T07:39:37.501Z</time></trkpt><trkpt lat="43.463296" lon="11.1372548"><ele>130.71428571428572</ele><time>2026-04-11T07:39:41.497Z</time></trkpt><trkpt lat="43.4633482" lon="11.1373227"><ele>130.28571428571428</ele><time>2026-04-11T07:39:45.501Z</time></trkpt><trkpt lat="43.4634027" lon="11.1373906"><ele>129.85714285714286</ele><time>2026-04-11T07:39:49.496Z</time></trkpt><trkpt lat="43.4634466" lon="11.1374652"><ele>129.42857142857142</ele><time>2026-04-11T07:39:53.495Z</time></trkpt><trkpt lat="43.4634959" lon="11.1375393"><ele>129.0</ele><time>2026-04-11T07:39:58.493Z</time></trkpt><trkpt lat="43.4635804" lon="11.1375814"><ele>128.99999999999997</ele><time>2026-04-11T07:40:16.5Z</time></trkpt><trkpt lat="43.4636456" lon="11.137547"><ele>129.0</ele><time>2026-04-11T07:40:23.489Z</time></trkpt><trkpt lat="43.4637321" lon="11.137513"><ele>129.0</ele><time>2026-04-11T07:40:33.496Z</time></trkpt><trkpt lat="43.4636719" lon="11.1375674"><ele>129.0</ele><time>2026-04-11T07:42:11.494Z</time></trkpt><trkpt lat="43.4636069" lon="11.1375896"><ele>129.0</ele><time>2026-04-11T07:42:18.489Z</time></trkpt><trkpt lat="43.4635429" lon="11.1376143"><ele>128.99999999999997</ele><time>2026-04-11T07:42:26.501Z</time></trkpt><trkpt lat="43.4635007" lon="11.1375183"><ele>129.0</ele><time>2026-04-11T07:42:59.497Z</time></trkpt><trkpt lat="43.4634485" lon="11.1374153"><ele>135.8</ele><time>2026-04-11T07:43:02.506Z</time></trkpt><trkpt lat="43.4633854" lon="11.1373309"><ele>142.60000000000002</ele><time>2026-04-11T07:43:04.491Z</time></trkpt><trkpt lat="43.4633044" lon="11.1372396"><ele>149.4</ele><time>2026-04-11T07:43:06.493Z</time></trkpt><trkpt lat="43.4632095" lon="11.1371551"><ele>156.20000000000002</ele><time>2026-04-11T07:43:08.499Z</time></trkpt><trkpt lat="43.4631015" lon="11.1370689"><ele>163.0</ele><time>2026-04-11T07:43:10.501Z</time></trkpt><trkpt lat="43.4630447" lon="11.1370172"><ele>163.0</ele><time>2026-04-11T07:43:11.496Z</time></trkpt><trkpt lat="43.4629852" lon="11.1369617"><ele>163.0</ele><time>2026-04-11T07:43:12.502Z</time></trkpt><trkpt lat="43.4629296" lon="11.1369044"><ele>163.0</ele><time>2026-04-11T07:43:13.497Z</time></trkpt><trkpt lat="43.4628738" lon="11.1368507"><ele>163.0</ele><time>2026-04-11T07:43:14.504Z</time></trkpt><trkpt lat="43.4628169" lon="11.1368003"><ele>163.0</ele><time>2026-04-11T07:43:15.503Z</time></trkpt><trkpt lat="43.4627047" lon="11.1367605"><ele>163.0</ele><time>2026-04-11T07:43:17.497Z</time></trkpt><trkpt lat="43.4626608" lon="11.1368417"><ele>157.83333333333334</ele><time>2026-04-11T07:43:19.489Z</time></trkpt><trkpt lat="43.4626742" lon="11.1369338"><ele>152.66666666666669</ele><time>2026-04-11T07:43:20.489Z</time></trkpt><trkpt lat="43.4627088" lon="11.1370199"><ele>147.5</ele><time>2026-04-11T07:43:21.492Z</time></trkpt><trkpt lat="43.4627603" lon="11.1371031"><ele>142.33333333333334</ele><time>2026-04-11T07:43:22.576Z</time></trkpt><trkpt lat="43.4628205" lon="11.1371843"><ele>137.16666666666666</ele><time>2026-04-11T07:43:23.497Z</time></trkpt><trkpt lat="43.4628848" lon="11.1372732"><ele>132.0</ele><time>2026-04-11T07:43:24.499Z</time></trkpt><trkpt lat="43.4629387" lon="11.1373555"><ele>131.5</ele><time>2026-04-11T07:43:25.49Z</time></trkpt><trkpt lat="43.4629929" lon="11.1374254"><ele>131.0</ele><time>2026-04-11T07:43:26.484Z</time></trkpt><trkpt lat="43.4630566" lon="11.1374812"><ele>130.5</ele><time>2026-04-11T07:43:27.563Z</time></trkpt><trkpt lat="43.4631093" lon="11.137544"><ele>130.0</ele><time>2026-04-11T07:43:28.487Z</time></trkpt><trkpt lat="43.4631479" lon="11.1376382"><ele>129.5</ele><time>2026-04-11T07:43:30.499Z</time></trkpt><trkpt lat="43.4630656" lon="11.1376476"><ele>129.0</ele><time>2026-04-11T07:43:34.491Z</time></trkpt><trkpt lat="43.463001" lon="11.1375524"><ele>129.6</ele><time>2026-04-11T07:43:36.474Z</time></trkpt><trkpt lat="43.4629291" lon="11.1374687"><ele>130.2</ele><time>2026-04-11T07:43:38.504Z</time></trkpt><trkpt lat="43.4628417" lon="11.1373733"><ele>130.79999999999998</ele><time>2026-04-11T07:43:40.502Z</time></trkpt><trkpt lat="43.4627533" lon="11.1372685"><ele>131.4</ele><time>2026-04-11T07:43:42.497Z</time></trkpt><trkpt lat="43.4626664" lon="11.1371755"><ele>132.0</ele><time>2026-04-11T07:43:44.497Z</time></trkpt><trkpt lat="43.462588" lon="11.1370808"><ele>132.0</ele><time>2026-04-11T07:43:46.469Z</time></trkpt><trkpt lat="43.4625146" lon="11.1369936"><ele>132.0</ele><time>2026-04-11T07:43:48.494Z</time></trkpt><trkpt lat="43.4624316" lon="11.1369113"><ele>132.0</ele><time>2026-04-11T07:43:50.503Z</time></trkpt><trkpt lat="43.4623428" lon="11.1368172"><ele>132.0</ele><time>2026-04-11T07:43:52.556Z</time></trkpt><trkpt lat="43.4622553" lon="11.136725"><ele>132.0</ele><time>2026-04-11T07:43:54.491Z</time></trkpt><trkpt lat="43.4621802" lon="11.1366748"><ele>132.0</ele><time>2026-04-11T07:43:56.558Z</time></trkpt><trkpt lat="43.4621319" lon="11.1366188"><ele>132.0</ele><time>2026-04-11T07:43:58.487Z</time></trkpt><trkpt lat="43.4620693" lon="11.1365612"><ele>132.0</ele><time>2026-04-11T07:44:00.5Z</time></trkpt><trkpt lat="43.4620086" lon="11.136524"><ele>132.0</ele><time>2026-04-11T07:44:02.559Z</time></trkpt><trkpt lat="43.4619482" lon="11.136495"><ele>132.0</ele><time>2026-04-11T07:44:04.503Z</time></trkpt><trkpt lat="43.4618831" lon="11.1364644"><ele>132.0</ele><time>2026-04-11T07:44:06.494Z</time></trkpt><trkpt lat="43.4618171" lon="11.1364357"><ele>132.0</ele><time>2026-04-11T07:44:08.504Z</time></trkpt><trkpt lat="43.4617564" lon="11.1364032"><ele>133.16666666666666</ele><time>2026-04-11T07:44:10.495Z</time></trkpt><trkpt lat="43.4616853" lon="11.136374"><ele>134.33333333333334</ele><time>2026-04-11T07:44:12.57Z</time></trkpt><trkpt lat="43.4616089" lon="11.1363614"><ele>135.5</ele><time>2026-04-11T07:44:14.486Z</time></trkpt><trkpt lat="43.4615307" lon="11.1363447"><ele>136.66666666666669</ele><time>2026-04-11T07:44:16.506Z</time></trkpt><trkpt lat="43.4614273" lon="11.1363377"><ele>137.83333333333334</ele><time>2026-04-11T07:44:18.499Z</time></trkpt><trkpt lat="43.4613198" lon="11.136353"><ele>139.0</ele><time>2026-04-11T07:44:20.492Z</time></trkpt><trkpt lat="43.4612234" lon="11.1363797"><ele>135.8</ele><time>2026-04-11T07:44:22.468Z</time></trkpt><trkpt lat="43.4611184" lon="11.1364012"><ele>132.60000000000002</ele><time>2026-04-11T07:44:24.485Z</time></trkpt><trkpt lat="43.4610199" lon="11.1364238"><ele>129.4</ele><time>2026-04-11T07:44:26.491Z</time></trkpt><trkpt lat="43.4609315" lon="11.1364531"><ele>126.2</ele><time>2026-04-11T07:44:28.495Z</time></trkpt><trkpt lat="43.4608378" lon="11.136493"><ele>123.0</ele><time>2026-04-11T07:44:30.484Z</time></trkpt><trkpt lat="43.460716" lon="11.1365264"><ele>123.0</ele><time>2026-04-11T07:44:32.578Z</time></trkpt><trkpt lat="43.4606528" lon="11.1365238"><ele>123.0</ele><time>2026-04-11T07:44:33.481Z</time></trkpt><trkpt lat="43.4605831" lon="11.1365136"><ele>123.0</ele><time>2026-04-11T07:44:34.505Z</time></trkpt><trkpt lat="43.4605172" lon="11.1364938"><ele>123.0</ele><time>2026-04-11T07:44:35.506Z</time></trkpt><trkpt lat="43.4604008" lon="11.1364214"><ele>123.0</ele><time>2026-04-11T07:44:37.496Z</time></trkpt><trkpt lat="43.4602896" lon="11.136365"><ele>123.0</ele><time>2026-04-11T07:44:39.481Z</time></trkpt><trkpt lat="43.4601879" lon="11.1363145"><ele>122.33333333333333</ele><time>2026-04-11T07:44:41.491Z</time></trkpt><trkpt lat="43.4600825" lon="11.1362482"><ele>121.66666666666666</ele><time>2026-04-11T07:44:43.493Z</time></trkpt><trkpt lat="43.4600148" lon="11.1362317"><ele>121.0</ele><time>2026-04-11T07:44:45.493Z</time></trkpt><trkpt lat="43.4599479" lon="11.1361984"><ele>120.33333333333333</ele><time>2026-04-11T07:44:49.488Z</time></trkpt><trkpt lat="43.4598902" lon="11.1361291"><ele>119.66666666666666</ele><time>2026-04-11T07:44:53.5Z</time></trkpt><trkpt lat="43.4598458" lon="11.1360399"><ele>119.0</ele><time>2026-04-11T07:44:57.489Z</time></trkpt><trkpt lat="43.4598071" lon="11.13596"><ele>119.0</ele><time>2026-04-11T07:45:01.51Z</time></trkpt><trkpt lat="43.4597651" lon="11.1358762"><ele>119.0</ele><time>2026-04-11T07:45:05.507Z</time></trkpt><trkpt lat="43.4597243" lon="11.1358049"><ele>119.0</ele><time>2026-04-11T07:45:09.515Z</time></trkpt><trkpt lat="43.4596977" lon="11.1357119"><ele>119.0</ele><time>2026-04-11T07:45:15.567Z</time></trkpt><trkpt lat="43.4596579" lon="11.1356382"><ele>119.0</ele><time>2026-04-11T07:45:19.504Z</time></trkpt><trkpt lat="43.4596154" lon="11.1355569"><ele>119.0</ele><time>2026-04-11T07:45:22.57Z</time></trkpt><trkpt lat="43.4595852" lon="11.1354781"><ele>119.0</ele><time>2026-04-11T07:45:26.541Z</time></trkpt><trkpt lat="43.4595424" lon="11.1353901"><ele>120.28571428571428</ele><time>2026-04-11T07:45:31.488Z</time></trkpt><trkpt lat="43.4595131" lon="11.1352994"><ele>121.57142857142857</ele><time>2026-04-11T07:45:36.499Z</time></trkpt><trkpt lat="43.4594537" lon="11.1352398"><ele>122.85714285714286</ele><time>2026-04-11T07:45:41.572Z</time></trkpt><trkpt lat="43.4593999" lon="11.1351868"><ele>124.14285714285714</ele><time>2026-04-11T07:45:45.495Z</time></trkpt><trkpt lat="43.4593514" lon="11.1351308"><ele>125.42857142857142</ele><time>2026-04-11T07:45:50.495Z</time></trkpt><trkpt lat="43.4592932" lon="11.1350629"><ele>126.71428571428571</ele><time>2026-04-11T07:45:56.487Z</time></trkpt><trkpt lat="43.4592285" lon="11.1350138"><ele>128.0</ele><time>2026-04-11T07:46:01.473Z</time></trkpt><trkpt lat="43.459187" lon="11.1349233"><ele>130.42857142857142</ele><time>2026-04-11T07:46:07.566Z</time></trkpt><trkpt lat="43.4591458" lon="11.1348463"><ele>132.85714285714283</ele><time>2026-04-11T07:46:12.49Z</time></trkpt><trkpt lat="43.4590821" lon="11.1347793"><ele>135.28571428571428</ele><time>2026-04-11T07:46:19.493Z</time></trkpt><trkpt lat="43.4590676" lon="11.1346886"><ele>137.71428571428572</ele><time>2026-04-11T07:46:23.507Z</time></trkpt><trkpt lat="43.4590475" lon="11.1345928"><ele>140.14285714285717</ele><time>2026-04-11T07:46:34.483Z</time></trkpt><trkpt lat="43.4590231" lon="11.1344916"><ele>142.57142857142858</ele><time>2026-04-11T07:46:41.499Z</time></trkpt><trkpt lat="43.4590157" lon="11.1343936"><ele>145.0</ele><time>2026-04-11T07:46:49.495Z</time></trkpt><trkpt lat="43.4589831" lon="11.1343051"><ele>145.0</ele><time>2026-04-11T07:46:56.565Z</time></trkpt><trkpt lat="43.4589495" lon="11.1342092"><ele>145.0</ele><time>2026-04-11T07:47:06.559Z</time></trkpt><trkpt lat="43.4589624" lon="11.1341063"><ele>145.0</ele><time>2026-04-11T07:47:09.486Z</time></trkpt><trkpt lat="43.4589068" lon="11.1340559"><ele>145.0</ele><time>2026-04-11T07:47:17.502Z</time></trkpt><trkpt lat="43.4588695" lon="11.1339848"><ele>145.0</ele><time>2026-04-11T07:47:28.5Z</time></trkpt><trkpt lat="43.4588437" lon="11.1338643"><ele>145.0</ele><time>2026-04-11T07:47:48.495Z</time></trkpt><trkpt lat="43.4588284" lon="11.133769"><ele>145.0</ele><time>2026-04-11T07:47:50.489Z</time></trkpt><trkpt lat="43.4587558" lon="11.1336708"><ele>145.5</ele><time>2026-04-11T07:48:12.493Z</time></trkpt><trkpt lat="43.4586943" lon="11.1335545"><ele>146.0</ele><time>2026-04-11T07:48:18.494Z</time></trkpt><trkpt lat="43.458655" lon="11.1334691"><ele>146.5</ele><time>2026-04-11T07:48:23.475Z</time></trkpt><trkpt lat="43.458643" lon="11.1333541"><ele>147.0</ele><time>2026-04-11T07:48:28.494Z</time></trkpt><trkpt lat="43.4585779" lon="11.1333113"><ele>147.5</ele><time>2026-04-11T07:48:34.489Z</time></trkpt><trkpt lat="43.4585248" lon="11.1332569"><ele>148.0</ele><time>2026-04-11T07:48:42.471Z</time></trkpt><trkpt lat="43.4584857" lon="11.1331882"><ele>152.5</ele><time>2026-04-11T07:48:54.488Z</time></trkpt><trkpt lat="43.4584381" lon="11.133097"><ele>157.0</ele><time>2026-04-11T07:49:03.493Z</time></trkpt><trkpt lat="43.4584517" lon="11.1329753"><ele>161.5</ele><time>2026-04-11T07:49:08.477Z</time></trkpt><trkpt lat="43.4583821" lon="11.132923"><ele>166.0</ele><time>2026-04-11T07:49:13.493Z</time></trkpt><trkpt lat="43.4583386" lon="11.1328558"><ele>170.5</ele><time>2026-04-11T07:49:17.561Z</time></trkpt><trkpt lat="43.4582794" lon="11.1327961"><ele>175.0</ele><time>2026-04-11T07:49:23.485Z</time></trkpt><trkpt lat="43.458243" lon="11.1327121"><ele>175.0</ele><time>2026-04-11T07:49:38.479Z</time></trkpt><trkpt lat="43.4581967" lon="11.132627"><ele>175.0</ele><time>2026-04-11T07:49:43.505Z</time></trkpt><trkpt lat="43.4581946" lon="11.1325183"><ele>175.0</ele><time>2026-04-11T07:49:50.494Z</time></trkpt><trkpt lat="43.4581856" lon="11.1324275"><ele>175.0</ele><time>2026-04-11T07:50:04.492Z</time></trkpt><trkpt lat="43.458147" lon="11.1323498"><ele>175.0</ele><time>2026-04-11T07:50:07.501Z</time></trkpt><trkpt lat="43.4581083" lon="11.1322736"><ele>175.0</ele><time>2026-04-11T07:50:15.486Z</time></trkpt><trkpt lat="43.4581089" lon="11.1321838"><ele>175.0</ele><time>2026-04-11T07:50:20.483Z</time></trkpt><trkpt lat="43.4580676" lon="11.1321058"><ele>176.5</ele><time>2026-04-11T07:50:26.477Z</time></trkpt><trkpt lat="43.4580099" lon="11.1320182"><ele>178.0</ele><time>2026-04-11T07:50:33.494Z</time></trkpt><trkpt lat="43.4579542" lon="11.1319182"><ele>179.5</ele><time>2026-04-11T07:50:41.487Z</time></trkpt><trkpt lat="43.4579073" lon="11.1318484"><ele>181.0</ele><time>2026-04-11T07:50:55.497Z</time></trkpt><trkpt lat="43.4578884" lon="11.13176"><ele>182.5</ele><time>2026-04-11T07:50:58.489Z</time></trkpt><trkpt lat="43.457877" lon="11.1316553"><ele>184.0</ele><time>2026-04-11T07:51:12.499Z</time></trkpt><trkpt lat="43.4578511" lon="11.1315397"><ele>184.85714285714286</ele><time>2026-04-11T07:51:19.485Z</time></trkpt><trkpt lat="43.4578308" lon="11.1314457"><ele>185.7142857142857</ele><time>2026-04-11T07:51:25.489Z</time></trkpt><trkpt lat="43.4577739" lon="11.1313998"><ele>186.57142857142856</ele><time>2026-04-11T07:51:28.518Z</time></trkpt><trkpt lat="43.4578052" lon="11.1312945"><ele>187.42857142857144</ele><time>2026-04-11T07:51:33.471Z</time></trkpt><trkpt lat="43.4577675" lon="11.1312242"><ele>188.28571428571428</ele><time>2026-04-11T07:51:39.5Z</time></trkpt><trkpt lat="43.4577442" lon="11.1311421"><ele>189.14285714285714</ele><time>2026-04-11T07:51:44.506Z</time></trkpt><trkpt lat="43.4577336" lon="11.1310543"><ele>190.0</ele><time>2026-04-11T07:51:48.504Z</time></trkpt><trkpt lat="43.4576756" lon="11.131003"><ele>190.0</ele><time>2026-04-11T07:51:53.501Z</time></trkpt><trkpt lat="43.4576283" lon="11.1309443"><ele>190.0</ele><time>2026-04-11T07:51:57.478Z</time></trkpt><trkpt lat="43.457571" lon="11.1308864"><ele>190.0</ele><time>2026-04-11T07:52:02.554Z</time></trkpt><trkpt lat="43.457522" lon="11.1308247"><ele>190.0</ele><time>2026-04-11T07:52:06.495Z</time></trkpt><trkpt lat="43.457476" lon="11.1307594"><ele>190.0</ele><time>2026-04-11T07:52:11.508Z</time></trkpt><trkpt lat="43.4574144" lon="11.1306761"><ele>190.0</ele><time>2026-04-11T07:52:17.496Z</time></trkpt><trkpt lat="43.4573591" lon="11.1306149"><ele>190.0</ele><time>2026-04-11T07:52:22.569Z</time></trkpt><trkpt lat="43.4573074" lon="11.1305602"><ele>190.28571428571428</ele><time>2026-04-11T07:52:27.564Z</time></trkpt><trkpt lat="43.4572658" lon="11.1304877"><ele>190.57142857142858</ele><time>2026-04-11T07:52:32.559Z</time></trkpt><trkpt lat="43.4572215" lon="11.1304258"><ele>190.85714285714283</ele><time>2026-04-11T07:52:36.562Z</time></trkpt><trkpt lat="43.4571626" lon="11.1303563"><ele>191.14285714285714</ele><time>2026-04-11T07:52:41.556Z</time></trkpt><trkpt lat="43.457112" lon="11.1302842"><ele>191.42857142857142</ele><time>2026-04-11T07:52:46.495Z</time></trkpt><trkpt lat="43.4570554" lon="11.1302285"><ele>191.7142857142857</ele><time>2026-04-11T07:52:50.482Z</time></trkpt><trkpt lat="43.4570005" lon="11.1301592"><ele>192.0</ele><time>2026-04-11T07:52:56.497Z</time></trkpt><trkpt lat="43.4569463" lon="11.1300986"><ele>192.85714285714283</ele><time>2026-04-11T07:53:02.566Z</time></trkpt><trkpt lat="43.4568945" lon="11.1300231"><ele>193.71428571428572</ele><time>2026-04-11T07:53:07.568Z</time></trkpt><trkpt lat="43.4568419" lon="11.1299407"><ele>194.57142857142856</ele><time>2026-04-11T07:53:12.561Z</time></trkpt><trkpt lat="43.4567883" lon="11.12988"><ele>195.42857142857142</ele><time>2026-04-11T07:53:15.491Z</time></trkpt><trkpt lat="43.4567445" lon="11.1297966"><ele>196.28571428571428</ele><time>2026-04-11T07:53:25.49Z</time></trkpt><trkpt lat="43.4566882" lon="11.1297256"><ele>197.14285714285714</ele><time>2026-04-11T07:53:30.496Z</time></trkpt><trkpt lat="43.4566325" lon="11.1296629"><ele>198.0</ele><time>2026-04-11T07:53:35.496Z</time></trkpt><trkpt lat="43.45658" lon="11.1295924"><ele>198.0</ele><time>2026-04-11T07:53:40.479Z</time></trkpt><trkpt lat="43.4565323" lon="11.1295317"><ele>198.0</ele><time>2026-04-11T07:53:44.499Z</time></trkpt><trkpt lat="43.4564751" lon="11.129471"><ele>198.0</ele><time>2026-04-11T07:53:49.503Z</time></trkpt><trkpt lat="43.4564131" lon="11.1293994"><ele>198.0</ele><time>2026-04-11T07:53:54.495Z</time></trkpt><trkpt lat="43.4563627" lon="11.1293346"><ele>198.0</ele><time>2026-04-11T07:53:58.492Z</time></trkpt><trkpt lat="43.4562991" lon="11.1292605"><ele>198.0</ele><time>2026-04-11T07:54:02.568Z</time></trkpt><trkpt lat="43.4562428" lon="11.1292093"><ele>198.0</ele><time>2026-04-11T07:54:04.496Z</time></trkpt><trkpt lat="43.4561974" lon="11.1291452"><ele>197.57142857142858</ele><time>2026-04-11T07:54:08.499Z</time></trkpt><trkpt lat="43.4561574" lon="11.1290604"><ele>197.14285714285714</ele><time>2026-04-11T07:54:13.495Z</time></trkpt><trkpt lat="43.4561217" lon="11.1289669"><ele>196.71428571428572</ele><time>2026-04-11T07:54:18.492Z</time></trkpt><trkpt lat="43.4560881" lon="11.1288894"><ele>196.28571428571428</ele><time>2026-04-11T07:54:22.487Z</time></trkpt><trkpt lat="43.4560637" lon="11.1288086"><ele>195.85714285714283</ele><time>2026-04-11T07:54:26.495Z</time></trkpt><trkpt lat="43.4560396" lon="11.1287248"><ele>195.42857142857142</ele><time>2026-04-11T07:54:30.487Z</time></trkpt><trkpt lat="43.4560214" lon="11.1286305"><ele>195.0</ele><time>2026-04-11T07:54:34.493Z</time></trkpt><trkpt lat="43.4560108" lon="11.1285034"><ele>196.0</ele><time>2026-04-11T07:54:38.485Z</time></trkpt><trkpt lat="43.4559866" lon="11.1284003"><ele>197.0</ele><time>2026-04-11T07:54:42.565Z</time></trkpt><trkpt lat="43.4559918" lon="11.1283065"><ele>198.0</ele><time>2026-04-11T07:54:46.499Z</time></trkpt><trkpt lat="43.4559834" lon="11.1282205"><ele>199.0</ele><time>2026-04-11T07:54:50.503Z</time></trkpt><trkpt lat="43.4559772" lon="11.1281169"><ele>200.0</ele><time>2026-04-11T07:54:54.502Z</time></trkpt><trkpt lat="43.4559828" lon="11.1280058"><ele>201.0</ele><time>2026-04-11T07:54:58.489Z</time></trkpt><trkpt lat="43.4559718" lon="11.1279087"><ele>202.0</ele><time>2026-04-11T07:55:01.5Z</time></trkpt><trkpt lat="43.4559599" lon="11.1278233"><ele>203.16666666666666</ele><time>2026-04-11T07:55:04.498Z</time></trkpt><trkpt lat="43.4559868" lon="11.1277334"><ele>204.33333333333331</ele><time>2026-04-11T07:55:10.483Z</time></trkpt><trkpt lat="43.4560446" lon="11.1276528"><ele>205.5</ele><time>2026-04-11T07:55:14.491Z</time></trkpt><trkpt lat="43.4561165" lon="11.1275732"><ele>206.66666666666669</ele><time>2026-04-11T07:55:17.495Z</time></trkpt><trkpt lat="43.4561777" lon="11.1275038"><ele>207.83333333333334</ele><time>2026-04-11T07:55:19.496Z</time></trkpt><trkpt lat="43.456254" lon="11.1274381"><ele>209.0</ele><time>2026-04-11T07:55:21.489Z</time></trkpt><trkpt lat="43.4563207" lon="11.1273487"><ele>209.0</ele><time>2026-04-11T07:55:23.499Z</time></trkpt><trkpt lat="43.4563828" lon="11.1272487"><ele>209.0</ele><time>2026-04-11T07:55:25.499Z</time></trkpt><trkpt lat="43.4564442" lon="11.1271408"><ele>209.0</ele><time>2026-04-11T07:55:27.504Z</time></trkpt><trkpt lat="43.4564989" lon="11.127039"><ele>209.0</ele><time>2026-04-11T07:55:29.496Z</time></trkpt><trkpt lat="43.456555" lon="11.1269351"><ele>209.0</ele><time>2026-04-11T07:55:31.491Z</time></trkpt><trkpt lat="43.4566071" lon="11.1268532"><ele>209.00000000000003</ele><time>2026-04-11T07:55:33.502Z</time></trkpt><trkpt lat="43.4566508" lon="11.1267833"><ele>209.0</ele><time>2026-04-11T07:55:36.496Z</time></trkpt><trkpt lat="43.4566015" lon="11.1268803"><ele>209.0</ele><time>2026-04-11T07:55:44.5Z</time></trkpt><trkpt lat="43.4565513" lon="11.1269801"><ele>209.0</ele><time>2026-04-11T07:55:47.494Z</time></trkpt><trkpt lat="43.4564914" lon="11.1270712"><ele>209.00000000000003</ele><time>2026-04-11T07:55:50.499Z</time></trkpt><trkpt lat="43.4564512" lon="11.1271458"><ele>209.0</ele><time>2026-04-11T07:55:52.493Z</time></trkpt><trkpt lat="43.456408" lon="11.127223"><ele>209.00000000000003</ele><time>2026-04-11T07:55:54.503Z</time></trkpt><trkpt lat="43.4563621" lon="11.1272891"><ele>209.0</ele><time>2026-04-11T07:55:56.495Z</time></trkpt><trkpt lat="43.4562937" lon="11.1273844"><ele>209.0</ele><time>2026-04-11T07:55:59.505Z</time></trkpt><trkpt lat="43.4562453" lon="11.1274486"><ele>209.0</ele><time>2026-04-11T07:56:01.502Z</time></trkpt><trkpt lat="43.4561915" lon="11.1275073"><ele>209.00000000000003</ele><time>2026-04-11T07:56:03.504Z</time></trkpt><trkpt lat="43.4561372" lon="11.1275548"><ele>209.0</ele><time>2026-04-11T07:56:05.513Z</time></trkpt><trkpt lat="43.456063" lon="11.1276258"><ele>209.16666666666669</ele><time>2026-04-11T07:56:08.502Z</time></trkpt><trkpt lat="43.4560075" lon="11.1277045"><ele>209.33333333333334</ele><time>2026-04-11T07:56:11.506Z</time></trkpt><trkpt lat="43.4559475" lon="11.1277517"><ele>209.5</ele><time>2026-04-11T07:56:14.501Z</time></trkpt><trkpt lat="43.4558787" lon="11.1277229"><ele>209.66666666666669</ele><time>2026-04-11T07:56:16.494Z</time></trkpt><trkpt lat="43.4557832" lon="11.1276872"><ele>209.83333333333334</ele><time>2026-04-11T07:56:18.476Z</time></trkpt><trkpt lat="43.4556606" lon="11.1276516"><ele>210.0</ele><time>2026-04-11T07:56:20.497Z</time></trkpt><trkpt lat="43.4555881" lon="11.1276233"><ele>210.0</ele><time>2026-04-11T07:56:21.505Z</time></trkpt><trkpt lat="43.4555046" lon="11.1275888"><ele>210.0</ele><time>2026-04-11T07:56:22.493Z</time></trkpt><trkpt lat="43.4554194" lon="11.1275531"><ele>210.0</ele><time>2026-04-11T07:56:23.489Z</time></trkpt><trkpt lat="43.4553326" lon="11.1275117"><ele>210.0</ele><time>2026-04-11T07:56:24.504Z</time></trkpt><trkpt lat="43.4552434" lon="11.1274758"><ele>210.0</ele><time>2026-04-11T07:56:25.507Z</time></trkpt><trkpt lat="43.455151" lon="11.1274487"><ele>208.0</ele><time>2026-04-11T07:56:26.488Z</time></trkpt><trkpt lat="43.455055" lon="11.1274263"><ele>206.0</ele><time>2026-04-11T07:56:27.5Z</time></trkpt><trkpt lat="43.4549645" lon="11.1274031"><ele>204.0</ele><time>2026-04-11T07:56:28.503Z</time></trkpt><trkpt lat="43.4548786" lon="11.1273802"><ele>202.0</ele><time>2026-04-11T07:56:29.499Z</time></trkpt><trkpt lat="43.4547902" lon="11.1273532"><ele>200.0</ele><time>2026-04-11T07:56:30.494Z</time></trkpt><trkpt lat="43.4547025" lon="11.1273307"><ele>199.50000000000003</ele><time>2026-04-11T07:56:31.502Z</time></trkpt><trkpt lat="43.4546205" lon="11.1273078"><ele>199.0</ele><time>2026-04-11T07:56:32.48Z</time></trkpt><trkpt lat="43.4545391" lon="11.1272799"><ele>198.5</ele><time>2026-04-11T07:56:33.504Z</time></trkpt><trkpt lat="43.4544599" lon="11.1272547"><ele>198.0</ele><time>2026-04-11T07:56:34.494Z</time></trkpt><trkpt lat="43.4543815" lon="11.1272217"><ele>197.50000000000003</ele><time>2026-04-11T07:56:35.579Z</time></trkpt><trkpt lat="43.4543087" lon="11.1271887"><ele>197.0</ele><time>2026-04-11T07:56:36.493Z</time></trkpt><trkpt lat="43.4542318" lon="11.1271515"><ele>197.0</ele><time>2026-04-11T07:56:37.566Z</time></trkpt><trkpt lat="43.4541568" lon="11.1271264"><ele>197.0</ele><time>2026-04-11T07:56:38.543Z</time></trkpt><trkpt lat="43.4540829" lon="11.127105"><ele>197.0</ele><time>2026-04-11T07:56:39.481Z</time></trkpt><trkpt lat="43.4540109" lon="11.1270815"><ele>197.0</ele><time>2026-04-11T07:56:40.493Z</time></trkpt><trkpt lat="43.4539392" lon="11.12706"><ele>197.0</ele><time>2026-04-11T07:56:41.572Z</time></trkpt><trkpt lat="43.4538734" lon="11.1270346"><ele>197.0</ele><time>2026-04-11T07:56:42.55Z</time></trkpt><trkpt lat="43.4538063" lon="11.1269823"><ele>197.0</ele><time>2026-04-11T07:56:43.503Z</time></trkpt><trkpt lat="43.4537328" lon="11.1269281"><ele>196.14285714285714</ele><time>2026-04-11T07:56:44.491Z</time></trkpt><trkpt lat="43.4536714" lon="11.1269055"><ele>195.28571428571428</ele><time>2026-04-11T07:56:45.489Z</time></trkpt><trkpt lat="43.4535617" lon="11.1268643"><ele>194.42857142857144</ele><time>2026-04-11T07:56:47.499Z</time></trkpt><trkpt lat="43.4534951" lon="11.1268615"><ele>193.57142857142856</ele><time>2026-04-11T07:56:48.493Z</time></trkpt><trkpt lat="43.4534273" lon="11.1268666"><ele>192.7142857142857</ele><time>2026-04-11T07:56:49.505Z</time></trkpt><trkpt lat="43.4533587" lon="11.1268766"><ele>191.85714285714286</ele><time>2026-04-11T07:56:50.49Z</time></trkpt><trkpt lat="43.4532937" lon="11.1268863"><ele>191.0</ele><time>2026-04-11T07:56:51.484Z</time></trkpt><trkpt lat="43.4532309" lon="11.1269005"><ele>191.0</ele><time>2026-04-11T07:56:52.492Z</time></trkpt><trkpt lat="43.4531067" lon="11.1268996"><ele>191.0</ele><time>2026-04-11T07:56:54.495Z</time></trkpt><trkpt lat="43.45299" lon="11.126876"><ele>191.0</ele><time>2026-04-11T07:56:56.499Z</time></trkpt><trkpt lat="43.4528759" lon="11.1268496"><ele>191.0</ele><time>2026-04-11T07:56:58.486Z</time></trkpt><trkpt lat="43.4527634" lon="11.1268205"><ele>190.75</ele><time>2026-04-11T07:57:00.508Z</time></trkpt><trkpt lat="43.452651" lon="11.1267965"><ele>190.5</ele><time>2026-04-11T07:57:02.504Z</time></trkpt><trkpt lat="43.452533" lon="11.1267777"><ele>190.25</ele><time>2026-04-11T07:57:04.499Z</time></trkpt><trkpt lat="43.4524155" lon="11.1267688"><ele>190.0</ele><time>2026-04-11T07:57:06.493Z</time></trkpt><trkpt lat="43.4522896" lon="11.1267626"><ele>190.0</ele><time>2026-04-11T07:57:08.491Z</time></trkpt><trkpt lat="43.4522231" lon="11.1267558"><ele>190.0</ele><time>2026-04-11T07:57:09.499Z</time></trkpt><trkpt lat="43.4521556" lon="11.1267529"><ele>190.0</ele><time>2026-04-11T07:57:10.488Z</time></trkpt><trkpt lat="43.4520865" lon="11.1267537"><ele>190.0</ele><time>2026-04-11T07:57:11.506Z</time></trkpt><trkpt lat="43.4520189" lon="11.1267568"><ele>190.0</ele><time>2026-04-11T07:57:12.506Z</time></trkpt><trkpt lat="43.4519509" lon="11.1267648"><ele>190.0</ele><time>2026-04-11T07:57:13.5Z</time></trkpt><trkpt lat="43.4518787" lon="11.1267742"><ele>190.0</ele><time>2026-04-11T07:57:14.479Z</time></trkpt><trkpt lat="43.4518066" lon="11.1267804"><ele>189.85714285714286</ele><time>2026-04-11T07:57:15.495Z</time></trkpt><trkpt lat="43.4517372" lon="11.1267942"><ele>189.71428571428572</ele><time>2026-04-11T07:57:16.507Z</time></trkpt><trkpt lat="43.451664" lon="11.1268087"><ele>189.57142857142856</ele><time>2026-04-11T07:57:17.577Z</time></trkpt><trkpt lat="43.4515944" lon="11.1268229"><ele>189.42857142857144</ele><time>2026-04-11T07:57:18.483Z</time></trkpt><trkpt lat="43.4515261" lon="11.126833"><ele>189.28571428571428</ele><time>2026-04-11T07:57:19.498Z</time></trkpt><trkpt lat="43.4514585" lon="11.1268453"><ele>189.14285714285714</ele><time>2026-04-11T07:57:20.503Z</time></trkpt><trkpt lat="43.451396" lon="11.1268627"><ele>189.0</ele><time>2026-04-11T07:57:21.49Z</time></trkpt><trkpt lat="43.4512931" lon="11.1268987"><ele>190.79999999999998</ele><time>2026-04-11T07:57:23.495Z</time></trkpt><trkpt lat="43.4511686" lon="11.1269164"><ele>192.6</ele><time>2026-04-11T07:57:25.482Z</time></trkpt><trkpt lat="43.4511049" lon="11.126918"><ele>194.4</ele><time>2026-04-11T07:57:26.5Z</time></trkpt><trkpt lat="43.4510432" lon="11.1269418"><ele>196.2</ele><time>2026-04-11T07:57:27.478Z</time></trkpt><trkpt lat="43.4509325" lon="11.1269485"><ele>198.0</ele><time>2026-04-11T07:57:29.49Z</time></trkpt><trkpt lat="43.4508323" lon="11.1269716"><ele>198.0</ele><time>2026-04-11T07:57:31.489Z</time></trkpt><trkpt lat="43.4507374" lon="11.1269831"><ele>198.0</ele><time>2026-04-11T07:57:33.498Z</time></trkpt><trkpt lat="43.4506563" lon="11.1270267"><ele>198.0</ele><time>2026-04-11T07:57:35.496Z</time></trkpt><trkpt lat="43.4505628" lon="11.1270252"><ele>198.0</ele><time>2026-04-11T07:57:37.562Z</time></trkpt><trkpt lat="43.4504804" lon="11.1270499"><ele>198.0</ele><time>2026-04-11T07:57:39.502Z</time></trkpt><trkpt lat="43.450399" lon="11.1270661"><ele>198.0</ele><time>2026-04-11T07:57:41.479Z</time></trkpt><trkpt lat="43.450316" lon="11.127074"><ele>198.33333333333334</ele><time>2026-04-11T07:57:43.479Z</time></trkpt><trkpt lat="43.4502264" lon="11.127095"><ele>198.66666666666669</ele><time>2026-04-11T07:57:45.492Z</time></trkpt><trkpt lat="43.4501431" lon="11.1271137"><ele>199.0</ele><time>2026-04-11T07:57:47.493Z</time></trkpt><trkpt lat="43.4500627" lon="11.1271298"><ele>199.33333333333334</ele><time>2026-04-11T07:57:49.483Z</time></trkpt><trkpt lat="43.4499947" lon="11.127146"><ele>199.66666666666669</ele><time>2026-04-11T07:57:51.488Z</time></trkpt><trkpt lat="43.4499038" lon="11.1271564"><ele>200.0</ele><time>2026-04-11T07:57:54.491Z</time></trkpt><trkpt lat="43.4498248" lon="11.1271491"><ele>200.00000000000003</ele><time>2026-04-11T07:57:57.493Z</time></trkpt><trkpt lat="43.4497542" lon="11.1271273"><ele>200.0</ele><time>2026-04-11T07:58:00.497Z</time></trkpt><trkpt lat="43.4496909" lon="11.1271023"><ele>200.0</ele><time>2026-04-11T07:58:03.504Z</time></trkpt><trkpt lat="43.4496325" lon="11.1270641"><ele>200.0</ele><time>2026-04-11T07:58:05.491Z</time></trkpt><trkpt lat="43.4495653" lon="11.1270105"><ele>200.00000000000003</ele><time>2026-04-11T07:58:07.577Z</time></trkpt><trkpt lat="43.4495016" lon="11.1269383"><ele>200.0</ele><time>2026-04-11T07:58:09.506Z</time></trkpt><trkpt lat="43.4494337" lon="11.1268584"><ele>198.4</ele><time>2026-04-11T07:58:11.491Z</time></trkpt><trkpt lat="43.449355" lon="11.1268004"><ele>196.8</ele><time>2026-04-11T07:58:13.496Z</time></trkpt><trkpt lat="43.4492643" lon="11.1267535"><ele>195.2</ele><time>2026-04-11T07:58:15.493Z</time></trkpt><trkpt lat="43.4491723" lon="11.1267147"><ele>193.6</ele><time>2026-04-11T07:58:17.477Z</time></trkpt><trkpt lat="43.4490864" lon="11.1267111"><ele>192.0</ele><time>2026-04-11T07:58:19.487Z</time></trkpt><trkpt lat="43.4489973" lon="11.1267028"><ele>192.0</ele><time>2026-04-11T07:58:21.486Z</time></trkpt><trkpt lat="43.4489023" lon="11.1266709"><ele>192.0</ele><time>2026-04-11T07:58:23.498Z</time></trkpt><trkpt lat="43.4487929" lon="11.1266459"><ele>192.0</ele><time>2026-04-11T07:58:25.503Z</time></trkpt><trkpt lat="43.4486955" lon="11.12662"><ele>192.0</ele><time>2026-04-11T07:58:27.498Z</time></trkpt><trkpt lat="43.4486031" lon="11.1266109"><ele>192.0</ele><time>2026-04-11T07:58:29.494Z</time></trkpt><trkpt lat="43.4485192" lon="11.1266053"><ele>192.39999999999998</ele><time>2026-04-11T07:58:31.488Z</time></trkpt><trkpt lat="43.4484389" lon="11.1266071"><ele>192.79999999999998</ele><time>2026-04-11T07:58:33.498Z</time></trkpt><trkpt lat="43.448328" lon="11.1265539"><ele>193.2</ele><time>2026-04-11T07:58:35.499Z</time></trkpt><trkpt lat="43.4482597" lon="11.1265194"><ele>193.6</ele><time>2026-04-11T07:58:36.491Z</time></trkpt><trkpt lat="43.4481961" lon="11.1265045"><ele>194.0</ele><time>2026-04-11T07:58:37.481Z</time></trkpt><trkpt lat="43.4480822" lon="11.1264747"><ele>191.00000000000003</ele><time>2026-04-11T07:58:39.485Z</time></trkpt><trkpt lat="43.4479806" lon="11.1264611"><ele>188.0</ele><time>2026-04-11T07:58:41.496Z</time></trkpt><trkpt lat="43.4479181" lon="11.1264487"><ele>185.0</ele><time>2026-04-11T07:58:42.505Z</time></trkpt><trkpt lat="43.4478569" lon="11.1264243"><ele>182.0</ele><time>2026-04-11T07:58:43.502Z</time></trkpt><trkpt lat="43.4477445" lon="11.1263909"><ele>179.0</ele><time>2026-04-11T07:58:45.491Z</time></trkpt><trkpt lat="43.4476811" lon="11.1263751"><ele>176.0</ele><time>2026-04-11T07:58:46.487Z</time></trkpt><trkpt lat="43.4476094" lon="11.1263711"><ele>175.16666666666666</ele><time>2026-04-11T07:58:47.48Z</time></trkpt><trkpt lat="43.4475342" lon="11.1263703"><ele>174.33333333333331</ele><time>2026-04-11T07:58:48.493Z</time></trkpt><trkpt lat="43.4474621" lon="11.1263836"><ele>173.5</ele><time>2026-04-11T07:58:49.495Z</time></trkpt><trkpt lat="43.4473875" lon="11.1264047"><ele>172.66666666666666</ele><time>2026-04-11T07:58:50.487Z</time></trkpt><trkpt lat="43.447312" lon="11.1264198"><ele>171.83333333333334</ele><time>2026-04-11T07:58:51.5Z</time></trkpt><trkpt lat="43.447228" lon="11.1264228"><ele>171.0</ele><time>2026-04-11T07:58:52.559Z</time></trkpt><trkpt lat="43.4471414" lon="11.1264138"><ele>172.5</ele><time>2026-04-11T07:58:53.503Z</time></trkpt><trkpt lat="43.447058" lon="11.1263897"><ele>174.0</ele><time>2026-04-11T07:58:54.487Z</time></trkpt><trkpt lat="43.4469848" lon="11.1263528"><ele>175.5</ele><time>2026-04-11T07:58:55.495Z</time></trkpt><trkpt lat="43.4469218" lon="11.1263176"><ele>177.0</ele><time>2026-04-11T07:58:56.496Z</time></trkpt><trkpt lat="43.4468166" lon="11.1262698"><ele>178.5</ele><time>2026-04-11T07:58:58.478Z</time></trkpt><trkpt lat="43.446731" lon="11.1262204"><ele>180.0</ele><time>2026-04-11T07:59:00.51Z</time></trkpt><trkpt lat="43.4466446" lon="11.1261677"><ele>180.0</ele><time>2026-04-11T07:59:02.484Z</time></trkpt><trkpt lat="43.4465791" lon="11.1261182"><ele>180.0</ele><time>2026-04-11T07:59:04.503Z</time></trkpt><trkpt lat="43.4465162" lon="11.126074"><ele>180.0</ele><time>2026-04-11T07:59:06.499Z</time></trkpt><trkpt lat="43.4464428" lon="11.1260261"><ele>180.0</ele><time>2026-04-11T07:59:08.497Z</time></trkpt><trkpt lat="43.4463728" lon="11.1259756"><ele>180.0</ele><time>2026-04-11T07:59:10.494Z</time></trkpt><trkpt lat="43.4463089" lon="11.1259244"><ele>180.0</ele><time>2026-04-11T07:59:12.495Z</time></trkpt><trkpt lat="43.446251" lon="11.1258818"><ele>180.0</ele><time>2026-04-11T07:59:14.49Z</time></trkpt><trkpt lat="43.4461789" lon="11.1258102"><ele>179.85714285714286</ele><time>2026-04-11T07:59:17.578Z</time></trkpt><trkpt lat="43.4461161" lon="11.1257422"><ele>179.71428571428572</ele><time>2026-04-11T07:59:20.501Z</time></trkpt><trkpt lat="43.4460534" lon="11.1256892"><ele>179.57142857142858</ele><time>2026-04-11T07:59:23.506Z</time></trkpt><trkpt lat="43.4459938" lon="11.1256435"><ele>179.42857142857144</ele><time>2026-04-11T07:59:26.497Z</time></trkpt><trkpt lat="43.445924" lon="11.1256028"><ele>179.28571428571428</ele><time>2026-04-11T07:59:31.5Z</time></trkpt><trkpt lat="43.4458659" lon="11.1255676"><ele>179.14285714285717</ele><time>2026-04-11T07:59:35.498Z</time></trkpt><trkpt lat="43.4457949" lon="11.12553"><ele>179.0</ele><time>2026-04-11T07:59:40.496Z</time></trkpt><trkpt lat="43.4457305" lon="11.1255187"><ele>180.14285714285717</ele><time>2026-04-11T07:59:44.487Z</time></trkpt><trkpt lat="43.4456675" lon="11.125453"><ele>181.28571428571428</ele><time>2026-04-11T07:59:49.495Z</time></trkpt><trkpt lat="43.4456084" lon="11.1254013"><ele>182.42857142857144</ele><time>2026-04-11T07:59:55.508Z</time></trkpt><trkpt lat="43.4455382" lon="11.1253753"><ele>183.57142857142858</ele><time>2026-04-11T08:00:00.49Z</time></trkpt><trkpt lat="43.4454829" lon="11.125331"><ele>184.71428571428572</ele><time>2026-04-11T08:00:05.485Z</time></trkpt><trkpt lat="43.4454508" lon="11.1252404"><ele>185.85714285714286</ele><time>2026-04-11T08:00:11.507Z</time></trkpt><trkpt lat="43.445422" lon="11.1251567"><ele>187.0</ele><time>2026-04-11T08:00:16.471Z</time></trkpt><trkpt lat="43.4453947" lon="11.1250734"><ele>187.0</ele><time>2026-04-11T08:00:22.525Z</time></trkpt><trkpt lat="43.4453716" lon="11.1249906"><ele>187.0</ele><time>2026-04-11T08:00:26.487Z</time></trkpt><trkpt lat="43.4453402" lon="11.1249077"><ele>187.0</ele><time>2026-04-11T08:00:30.494Z</time></trkpt><trkpt lat="43.4453105" lon="11.1248304"><ele>187.0</ele><time>2026-04-11T08:00:34.487Z</time></trkpt><trkpt lat="43.4452842" lon="11.1247486"><ele>187.0</ele><time>2026-04-11T08:00:38.492Z</time></trkpt><trkpt lat="43.445258" lon="11.1246615"><ele>187.0</ele><time>2026-04-11T08:00:43.5Z</time></trkpt><trkpt lat="43.4452377" lon="11.1245634"><ele>187.0</ele><time>2026-04-11T08:00:48.483Z</time></trkpt><trkpt lat="43.4452155" lon="11.1244809"><ele>188.66666666666669</ele><time>2026-04-11T08:00:52.489Z</time></trkpt><trkpt lat="43.4451899" lon="11.1243905"><ele>190.33333333333334</ele><time>2026-04-11T08:00:56.559Z</time></trkpt><trkpt lat="43.445137" lon="11.1242686"><ele>192.0</ele><time>2026-04-11T08:01:00.484Z</time></trkpt><trkpt lat="43.44512" lon="11.124174"><ele>193.66666666666669</ele><time>2026-04-11T08:01:03.472Z</time></trkpt><trkpt lat="43.445083" lon="11.1240746"><ele>195.33333333333334</ele><time>2026-04-11T08:01:06.488Z</time></trkpt><trkpt lat="43.4450542" lon="11.1239552"><ele>197.0</ele><time>2026-04-11T08:01:09.5Z</time></trkpt><trkpt lat="43.4450289" lon="11.1238464"><ele>197.71428571428572</ele><time>2026-04-11T08:01:12.497Z</time></trkpt><trkpt lat="43.4449983" lon="11.1237704"><ele>198.42857142857144</ele><time>2026-04-11T08:01:14.494Z</time></trkpt><trkpt lat="43.444968" lon="11.1236941"><ele>199.14285714285714</ele><time>2026-04-11T08:01:16.491Z</time></trkpt><trkpt lat="43.4449347" lon="11.1236181"><ele>199.85714285714286</ele><time>2026-04-11T08:01:18.495Z</time></trkpt><trkpt lat="43.4448958" lon="11.1235092"><ele>200.57142857142856</ele><time>2026-04-11T08:01:21.49Z</time></trkpt><trkpt lat="43.4448732" lon="11.1234263"><ele>201.28571428571428</ele><time>2026-04-11T08:01:23.495Z</time></trkpt><trkpt lat="43.4448346" lon="11.1233088"><ele>202.0</ele><time>2026-04-11T08:01:26.486Z</time></trkpt><trkpt lat="43.4448064" lon="11.1232244"><ele>202.33333333333331</ele><time>2026-04-11T08:01:28.489Z</time></trkpt><trkpt lat="43.4447797" lon="11.1231395"><ele>202.66666666666666</ele><time>2026-04-11T08:01:30.496Z</time></trkpt><trkpt lat="43.4447515" lon="11.123058"><ele>203.0</ele><time>2026-04-11T08:01:32.49Z</time></trkpt><trkpt lat="43.4447228" lon="11.1229757"><ele>203.33333333333331</ele><time>2026-04-11T08:01:34.496Z</time></trkpt><trkpt lat="43.4446713" lon="11.1228661"><ele>203.66666666666666</ele><time>2026-04-11T08:01:37.493Z</time></trkpt><trkpt lat="43.444627" lon="11.1227942"><ele>204.0</ele><time>2026-04-11T08:01:39.492Z</time></trkpt><trkpt lat="43.4445518" lon="11.1227153"><ele>204.0</ele><time>2026-04-11T08:01:42.486Z</time></trkpt><trkpt lat="43.4444947" lon="11.1226757"><ele>204.0</ele><time>2026-04-11T08:01:44.501Z</time></trkpt><trkpt lat="43.4444337" lon="11.1226382"><ele>204.0</ele><time>2026-04-11T08:01:46.495Z</time></trkpt><trkpt lat="43.4443744" lon="11.1225959"><ele>204.0</ele><time>2026-04-11T08:01:48.475Z</time></trkpt><trkpt lat="43.4443134" lon="11.1225599"><ele>204.0</ele><time>2026-04-11T08:01:50.486Z</time></trkpt><trkpt lat="43.4442561" lon="11.1225234"><ele>204.0</ele><time>2026-04-11T08:01:52.576Z</time></trkpt><trkpt lat="43.4441711" lon="11.1224709"><ele>204.0</ele><time>2026-04-11T08:01:55.497Z</time></trkpt><trkpt lat="43.4440869" lon="11.1224244"><ele>204.83333333333334</ele><time>2026-04-11T08:01:58.494Z</time></trkpt><trkpt lat="43.4440041" lon="11.1223777"><ele>205.66666666666669</ele><time>2026-04-11T08:02:01.495Z</time></trkpt><trkpt lat="43.4439137" lon="11.1223382"><ele>206.5</ele><time>2026-04-11T08:02:04.504Z</time></trkpt><trkpt lat="43.4438461" lon="11.1223039"><ele>207.33333333333334</ele><time>2026-04-11T08:02:07.491Z</time></trkpt><trkpt lat="43.4437852" lon="11.1222654"><ele>208.16666666666669</ele><time>2026-04-11T08:02:10.501Z</time></trkpt><trkpt lat="43.4437125" lon="11.1222229"><ele>209.0</ele><time>2026-04-11T08:02:13.471Z</time></trkpt><trkpt lat="43.4436477" lon="11.1221839"><ele>209.0</ele><time>2026-04-11T08:02:16.487Z</time></trkpt><trkpt lat="43.4436034" lon="11.1221172"><ele>209.0</ele><time>2026-04-11T08:02:19.499Z</time></trkpt><trkpt lat="43.4435233" lon="11.1220728"><ele>209.0</ele><time>2026-04-11T08:02:22.498Z</time></trkpt><trkpt lat="43.4434808" lon="11.1220052"><ele>209.0</ele><time>2026-04-11T08:02:25.495Z</time></trkpt><trkpt lat="43.4434673" lon="11.1219089"><ele>209.0</ele><time>2026-04-11T08:02:29.494Z</time></trkpt><trkpt lat="43.4434954" lon="11.1218114"><ele>209.0</ele><time>2026-04-11T08:02:33.569Z</time></trkpt><trkpt lat="43.4435146" lon="11.1217254"><ele>209.0</ele><time>2026-04-11T08:02:38.517Z</time></trkpt><trkpt lat="43.4435241" lon="11.1216303"><ele>209.42857142857142</ele><time>2026-04-11T08:02:42.572Z</time></trkpt><trkpt lat="43.4435384" lon="11.1215451"><ele>209.85714285714283</ele><time>2026-04-11T08:02:47.495Z</time></trkpt><trkpt lat="43.4435599" lon="11.1214489"><ele>210.28571428571428</ele><time>2026-04-11T08:02:52.556Z</time></trkpt><trkpt lat="43.4435713" lon="11.1213551"><ele>210.71428571428572</ele><time>2026-04-11T08:02:57.488Z</time></trkpt><trkpt lat="43.4435804" lon="11.1212636"><ele>211.14285714285714</ele><time>2026-04-11T08:03:02.494Z</time></trkpt><trkpt lat="43.4435949" lon="11.1211685"><ele>211.57142857142858</ele><time>2026-04-11T08:03:08.487Z</time></trkpt><trkpt lat="43.4436074" lon="11.1210758"><ele>212.0</ele><time>2026-04-11T08:03:13.514Z</time></trkpt><trkpt lat="43.4436234" lon="11.1209912"><ele>212.0</ele><time>2026-04-11T08:03:18.5Z</time></trkpt><trkpt lat="43.4436368" lon="11.1208919"><ele>212.0</ele><time>2026-04-11T08:03:23.495Z</time></trkpt><trkpt lat="43.4436513" lon="11.1208"><ele>212.0</ele><time>2026-04-11T08:03:27.563Z</time></trkpt><trkpt lat="43.4436775" lon="11.1207166"><ele>212.0</ele><time>2026-04-11T08:03:31.487Z</time></trkpt><trkpt lat="43.4437032" lon="11.1206356"><ele>212.0</ele><time>2026-04-11T08:03:35.5Z</time></trkpt><trkpt lat="43.4437269" lon="11.1205456"><ele>212.0</ele><time>2026-04-11T08:03:39.481Z</time></trkpt><trkpt lat="43.4437443" lon="11.1204582"><ele>212.0</ele><time>2026-04-11T08:03:43.568Z</time></trkpt><trkpt lat="43.4437682" lon="11.1203639"><ele>213.66666666666669</ele><time>2026-04-11T08:03:47.501Z</time></trkpt><trkpt lat="43.4438012" lon="11.1202708"><ele>215.33333333333334</ele><time>2026-04-11T08:03:50.499Z</time></trkpt><trkpt lat="43.4438257" lon="11.1201547"><ele>217.0</ele><time>2026-04-11T08:03:53.474Z</time></trkpt><trkpt lat="43.4438466" lon="11.1200685"><ele>218.66666666666669</ele><time>2026-04-11T08:03:55.494Z</time></trkpt><trkpt lat="43.4438606" lon="11.1199652"><ele>220.33333333333334</ele><time>2026-04-11T08:03:57.488Z</time></trkpt><trkpt lat="43.4438713" lon="11.1198762"><ele>222.0</ele><time>2026-04-11T08:03:59.494Z</time></trkpt><trkpt lat="43.4438932" lon="11.1197565"><ele>222.0</ele><time>2026-04-11T08:04:02.496Z</time></trkpt><trkpt lat="43.4439187" lon="11.1196333"><ele>222.0</ele><time>2026-04-11T08:04:05.499Z</time></trkpt><trkpt lat="43.4439313" lon="11.1195159"><ele>222.0</ele><time>2026-04-11T08:04:08.499Z</time></trkpt><trkpt lat="43.4439319" lon="11.1196034"><ele>222.0</ele><time>2026-04-11T08:04:22.496Z</time></trkpt><trkpt lat="43.4439077" lon="11.1197144"><ele>222.0</ele><time>2026-04-11T08:04:25.496Z</time></trkpt><trkpt lat="43.4438767" lon="11.1198402"><ele>222.0</ele><time>2026-04-11T08:04:28.506Z</time></trkpt><trkpt lat="43.443853" lon="11.1199305"><ele>222.14285714285714</ele><time>2026-04-11T08:04:30.486Z</time></trkpt><trkpt lat="43.4438287" lon="11.1200235"><ele>222.2857142857143</ele><time>2026-04-11T08:04:32.499Z</time></trkpt><trkpt lat="43.4438055" lon="11.1201113"><ele>222.42857142857144</ele><time>2026-04-11T08:04:34.48Z</time></trkpt><trkpt lat="43.4437861" lon="11.1201971"><ele>222.57142857142856</ele><time>2026-04-11T08:04:36.501Z</time></trkpt><trkpt lat="43.4437586" lon="11.1202856"><ele>222.71428571428572</ele><time>2026-04-11T08:04:38.491Z</time></trkpt><trkpt lat="43.4437381" lon="11.1203769"><ele>222.85714285714286</ele><time>2026-04-11T08:04:40.484Z</time></trkpt><trkpt lat="43.4437158" lon="11.1204918"><ele>223.0</ele><time>2026-04-11T08:04:43.5Z</time></trkpt><trkpt lat="43.4436977" lon="11.1205874"><ele>221.33333333333331</ele><time>2026-04-11T08:04:45.49Z</time></trkpt><trkpt lat="43.4436776" lon="11.1206927"><ele>219.66666666666666</ele><time>2026-04-11T08:04:47.505Z</time></trkpt><trkpt lat="43.4436475" lon="11.1207943"><ele>218.0</ele><time>2026-04-11T08:04:49.497Z</time></trkpt><trkpt lat="43.4436254" lon="11.1208836"><ele>216.33333333333331</ele><time>2026-04-11T08:04:51.495Z</time></trkpt><trkpt lat="43.4436012" lon="11.1209861"><ele>214.66666666666666</ele><time>2026-04-11T08:04:53.507Z</time></trkpt><trkpt lat="43.4435826" lon="11.1210877"><ele>213.0</ele><time>2026-04-11T08:04:55.498Z</time></trkpt><trkpt lat="43.4435678" lon="11.1211944"><ele>212.83333333333334</ele><time>2026-04-11T08:04:57.5Z</time></trkpt><trkpt lat="43.4435519" lon="11.1213007"><ele>212.66666666666669</ele><time>2026-04-11T08:04:59.495Z</time></trkpt><trkpt lat="43.4435295" lon="11.1214325"><ele>212.5</ele><time>2026-04-11T08:05:01.494Z</time></trkpt><trkpt lat="43.4435105" lon="11.1215621"><ele>212.33333333333334</ele><time>2026-04-11T08:05:03.477Z</time></trkpt><trkpt lat="43.4435028" lon="11.1216611"><ele>212.16666666666669</ele><time>2026-04-11T08:05:05.502Z</time></trkpt><trkpt lat="43.4435772" lon="11.1216751"><ele>212.0</ele><time>2026-04-11T08:05:10.503Z</time></trkpt><trkpt lat="43.4436319" lon="11.1216278"><ele>212.0</ele><time>2026-04-11T08:05:13.501Z</time></trkpt><trkpt lat="43.4436785" lon="11.1215425"><ele>212.0</ele><time>2026-04-11T08:05:16.496Z</time></trkpt><trkpt lat="43.4437275" lon="11.121478"><ele>212.0</ele><time>2026-04-11T08:05:19.492Z</time></trkpt><trkpt lat="43.4437952" lon="11.1214215"><ele>212.0</ele><time>2026-04-11T08:05:23.496Z</time></trkpt><trkpt lat="43.4438491" lon="11.1213473"><ele>212.0</ele><time>2026-04-11T08:05:27.498Z</time></trkpt><trkpt lat="43.4438952" lon="11.1212706"><ele>212.0</ele><time>2026-04-11T08:05:31.49Z</time></trkpt><trkpt lat="43.4439389" lon="11.1212055"><ele>212.0</ele><time>2026-04-11T08:05:34.478Z</time></trkpt><trkpt lat="43.4439926" lon="11.1211289"><ele>212.83333333333334</ele><time>2026-04-11T08:05:38.483Z</time></trkpt><trkpt lat="43.4440464" lon="11.1210697"><ele>213.66666666666669</ele><time>2026-04-11T08:05:41.491Z</time></trkpt><trkpt lat="43.4441082" lon="11.1210026"><ele>214.5</ele><time>2026-04-11T08:05:43.476Z</time></trkpt><trkpt lat="43.4442091" lon="11.1209091"><ele>215.33333333333331</ele><time>2026-04-11T08:05:45.495Z</time></trkpt><trkpt lat="43.4442686" lon="11.1208535"><ele>216.16666666666666</ele><time>2026-04-11T08:05:46.504Z</time></trkpt><trkpt lat="43.44433" lon="11.1207943"><ele>217.0</ele><time>2026-04-11T08:05:47.501Z</time></trkpt><trkpt lat="43.4443902" lon="11.1207312"><ele>216.49999999999997</ele><time>2026-04-11T08:05:48.492Z</time></trkpt><trkpt lat="43.4444466" lon="11.1206618"><ele>216.0</ele><time>2026-04-11T08:05:49.494Z</time></trkpt><trkpt lat="43.4444985" lon="11.1205917"><ele>215.5</ele><time>2026-04-11T08:05:50.485Z</time></trkpt><trkpt lat="43.444546" lon="11.1205189"><ele>215.0</ele><time>2026-04-11T08:05:51.583Z</time></trkpt><trkpt lat="43.4445882" lon="11.1204506"><ele>214.49999999999997</ele><time>2026-04-11T08:05:52.575Z</time></trkpt><trkpt lat="43.4446662" lon="11.1202978"><ele>214.0</ele><time>2026-04-11T08:05:54.487Z</time></trkpt><trkpt lat="43.4447011" lon="11.1202097"><ele>213.99999999999997</ele><time>2026-04-11T08:05:55.49Z</time></trkpt><trkpt lat="43.4447384" lon="11.1201132"><ele>214.0</ele><time>2026-04-11T08:05:57.492Z</time></trkpt><trkpt lat="43.4447968" lon="11.1200288"><ele>214.0</ele><time>2026-04-11T08:05:59.487Z</time></trkpt><trkpt lat="43.4448569" lon="11.1199374"><ele>214.0</ele><time>2026-04-11T08:06:01.496Z</time></trkpt><trkpt lat="43.4449087" lon="11.1198399"><ele>213.99999999999997</ele><time>2026-04-11T08:06:03.485Z</time></trkpt><trkpt lat="43.4449694" lon="11.1197532"><ele>214.0</ele><time>2026-04-11T08:06:05.497Z</time></trkpt><trkpt lat="43.4450369" lon="11.1196831"><ele>214.66666666666666</ele><time>2026-04-11T08:06:07.498Z</time></trkpt><trkpt lat="43.445092" lon="11.11963"><ele>215.33333333333331</ele><time>2026-04-11T08:06:09.5Z</time></trkpt><trkpt lat="43.4451652" lon="11.1195728"><ele>216.0</ele><time>2026-04-11T08:06:12.498Z</time></trkpt><trkpt lat="43.4452395" lon="11.1195235"><ele>216.66666666666669</ele><time>2026-04-11T08:06:15.489Z</time></trkpt><trkpt lat="43.4453179" lon="11.1194607"><ele>217.33333333333334</ele><time>2026-04-11T08:06:18.488Z</time></trkpt><trkpt lat="43.4454034" lon="11.1194339"><ele>218.0</ele><time>2026-04-11T08:06:21.494Z</time></trkpt><trkpt lat="43.4454767" lon="11.1194124"><ele>218.00000000000003</ele><time>2026-04-11T08:06:24.491Z</time></trkpt><trkpt lat="43.4455405" lon="11.1193846"><ele>218.0</ele><time>2026-04-11T08:06:27.559Z</time></trkpt><trkpt lat="43.4456027" lon="11.1193599"><ele>218.0</ele><time>2026-04-11T08:06:29.486Z</time></trkpt><trkpt lat="43.4455317" lon="11.1193596"><ele>218.0</ele><time>2026-04-11T08:06:38.547Z</time></trkpt><trkpt lat="43.4454143" lon="11.1193975"><ele>218.00000000000003</ele><time>2026-04-11T08:06:40.49Z</time></trkpt><trkpt lat="43.4453068" lon="11.1194518"><ele>218.0</ele><time>2026-04-11T08:06:42.492Z</time></trkpt><trkpt lat="43.4452061" lon="11.1195165"><ele>218.00000000000003</ele><time>2026-04-11T08:06:44.478Z</time></trkpt><trkpt lat="43.4451005" lon="11.1196124"><ele>218.0</ele><time>2026-04-11T08:06:46.492Z</time></trkpt><trkpt lat="43.4450455" lon="11.1196668"><ele>218.0</ele><time>2026-04-11T08:06:47.476Z</time></trkpt><trkpt lat="43.4449899" lon="11.1197284"><ele>218.0</ele><time>2026-04-11T08:06:48.476Z</time></trkpt><trkpt lat="43.4449401" lon="11.1197967"><ele>218.00000000000003</ele><time>2026-04-11T08:06:49.494Z</time></trkpt><trkpt lat="43.4448902" lon="11.1198687"><ele>218.0</ele><time>2026-04-11T08:06:50.494Z</time></trkpt><trkpt lat="43.4448448" lon="11.119947"><ele>217.33333333333334</ele><time>2026-04-11T08:06:51.5Z</time></trkpt><trkpt lat="43.4447987" lon="11.1200291"><ele>216.66666666666669</ele><time>2026-04-11T08:06:52.502Z</time></trkpt><trkpt lat="43.4447543" lon="11.120114"><ele>216.0</ele><time>2026-04-11T08:06:53.558Z</time></trkpt><trkpt lat="43.4447087" lon="11.1201973"><ele>215.33333333333331</ele><time>2026-04-11T08:06:54.51Z</time></trkpt><trkpt lat="43.4446658" lon="11.1202818"><ele>214.66666666666666</ele><time>2026-04-11T08:06:55.506Z</time></trkpt><trkpt lat="43.4446256" lon="11.1203659"><ele>214.0</ele><time>2026-04-11T08:06:56.488Z</time></trkpt><trkpt lat="43.4445787" lon="11.1204458"><ele>214.49999999999997</ele><time>2026-04-11T08:06:57.494Z</time></trkpt><trkpt lat="43.4445306" lon="11.1205235"><ele>215.0</ele><time>2026-04-11T08:06:58.504Z</time></trkpt><trkpt lat="43.4444824" lon="11.1205925"><ele>215.5</ele><time>2026-04-11T08:06:59.494Z</time></trkpt><trkpt lat="43.4444332" lon="11.1206576"><ele>216.0</ele><time>2026-04-11T08:07:00.489Z</time></trkpt><trkpt lat="43.4443846" lon="11.1207169"><ele>216.49999999999997</ele><time>2026-04-11T08:07:01.506Z</time></trkpt><trkpt lat="43.4442903" lon="11.1208055"><ele>217.0</ele><time>2026-04-11T08:07:03.498Z</time></trkpt><trkpt lat="43.4442152" lon="11.1208751"><ele>217.0</ele><time>2026-04-11T08:07:05.503Z</time></trkpt><trkpt lat="43.4441453" lon="11.1209324"><ele>217.0</ele><time>2026-04-11T08:07:07.484Z</time></trkpt><trkpt lat="43.4440925" lon="11.1209929"><ele>217.0</ele><time>2026-04-11T08:07:09.494Z</time></trkpt><trkpt lat="43.4440299" lon="11.1210444"><ele>217.0</ele><time>2026-04-11T08:07:12.487Z</time></trkpt><trkpt lat="43.443978" lon="11.1211047"><ele>217.0</ele><time>2026-04-11T08:07:15.496Z</time></trkpt><trkpt lat="43.4439249" lon="11.1211569"><ele>217.0</ele><time>2026-04-11T08:07:18.577Z</time></trkpt><trkpt lat="43.443865" lon="11.1212115"><ele>217.0</ele><time>2026-04-11T08:07:20.504Z</time></trkpt><trkpt lat="43.4438226" lon="11.1213169"><ele>216.0</ele><time>2026-04-11T08:07:22.486Z</time></trkpt><trkpt lat="43.4437431" lon="11.1214256"><ele>215.0</ele><time>2026-04-11T08:07:24.494Z</time></trkpt><trkpt lat="43.4436561" lon="11.1215297"><ele>214.0</ele><time>2026-04-11T08:07:26.495Z</time></trkpt><trkpt lat="43.4435782" lon="11.1216523"><ele>213.0</ele><time>2026-04-11T08:07:28.502Z</time></trkpt><trkpt lat="43.4435161" lon="11.1217463"><ele>212.0</ele><time>2026-04-11T08:07:30.495Z</time></trkpt><trkpt lat="43.4434639" lon="11.121848"><ele>211.50000000000003</ele><time>2026-04-11T08:07:32.497Z</time></trkpt><trkpt lat="43.4434617" lon="11.121985"><ele>211.0</ele><time>2026-04-11T08:07:34.513Z</time></trkpt><trkpt lat="43.4434974" lon="11.1221004"><ele>210.5</ele><time>2026-04-11T08:07:36.492Z</time></trkpt><trkpt lat="43.4435541" lon="11.122174"><ele>210.0</ele><time>2026-04-11T08:07:39.509Z</time></trkpt><trkpt lat="43.4436535" lon="11.1222034"><ele>209.50000000000003</ele><time>2026-04-11T08:07:42.496Z</time></trkpt><trkpt lat="43.4437295" lon="11.1222014"><ele>209.0</ele><time>2026-04-11T08:07:44.499Z</time></trkpt><trkpt lat="43.4438221" lon="11.1222549"><ele>207.75</ele><time>2026-04-11T08:07:46.49Z</time></trkpt><trkpt lat="43.4439388" lon="11.1223089"><ele>206.5</ele><time>2026-04-11T08:07:48.518Z</time></trkpt><trkpt lat="43.4440505" lon="11.1223557"><ele>205.25</ele><time>2026-04-11T08:07:50.486Z</time></trkpt><trkpt lat="43.4441723" lon="11.1224339"><ele>204.0</ele><time>2026-04-11T08:07:52.552Z</time></trkpt><trkpt lat="43.4442452" lon="11.1224789"><ele>204.0</ele><time>2026-04-11T08:07:53.563Z</time></trkpt><trkpt lat="43.4443121" lon="11.1225244"><ele>204.0</ele><time>2026-04-11T08:07:54.477Z</time></trkpt><trkpt lat="43.4443772" lon="11.1225716"><ele>204.0</ele><time>2026-04-11T08:07:55.488Z</time></trkpt><trkpt lat="43.4444452" lon="11.1226179"><ele>204.0</ele><time>2026-04-11T08:07:56.487Z</time></trkpt><trkpt lat="43.4445119" lon="11.1226651"><ele>204.0</ele><time>2026-04-11T08:07:57.496Z</time></trkpt><trkpt lat="43.4445654" lon="11.1227165"><ele>204.0</ele><time>2026-04-11T08:07:58.574Z</time></trkpt><trkpt lat="43.4446512" lon="11.1228429"><ele>204.0</ele><time>2026-04-11T08:08:00.494Z</time></trkpt><trkpt lat="43.4446895" lon="11.1229142"><ele>204.0</ele><time>2026-04-11T08:08:01.482Z</time></trkpt><trkpt lat="43.4447244" lon="11.1229904"><ele>204.0</ele><time>2026-04-11T08:08:02.561Z</time></trkpt><trkpt lat="43.4447784" lon="11.1231255"><ele>204.0</ele><time>2026-04-11T08:08:04.487Z</time></trkpt><trkpt lat="43.4448299" lon="11.1232863"><ele>204.0</ele><time>2026-04-11T08:08:06.501Z</time></trkpt><trkpt lat="43.4448512" lon="11.1233726"><ele>204.0</ele><time>2026-04-11T08:08:07.504Z</time></trkpt><trkpt lat="43.4448742" lon="11.1234643"><ele>203.66666666666666</ele><time>2026-04-11T08:08:08.498Z</time></trkpt><trkpt lat="43.4448963" lon="11.1235539"><ele>203.33333333333331</ele><time>2026-04-11T08:08:09.513Z</time></trkpt><trkpt lat="43.44492" lon="11.1236386"><ele>203.0</ele><time>2026-04-11T08:08:10.518Z</time></trkpt><trkpt lat="43.4449485" lon="11.1237237"><ele>202.66666666666666</ele><time>2026-04-11T08:08:11.549Z</time></trkpt><trkpt lat="43.444996" lon="11.1238784"><ele>202.33333333333331</ele><time>2026-04-11T08:08:13.49Z</time></trkpt><trkpt lat="43.4450408" lon="11.1240272"><ele>202.0</ele><time>2026-04-11T08:08:15.493Z</time></trkpt><trkpt lat="43.4450871" lon="11.1241754"><ele>201.0</ele><time>2026-04-11T08:08:17.49Z</time></trkpt><trkpt lat="43.4451363" lon="11.1243179"><ele>200.0</ele><time>2026-04-11T08:08:19.486Z</time></trkpt><trkpt lat="43.4451744" lon="11.1244552"><ele>199.0</ele><time>2026-04-11T08:08:21.504Z</time></trkpt><trkpt lat="43.4452139" lon="11.1245813"><ele>198.0</ele><time>2026-04-11T08:08:23.497Z</time></trkpt><trkpt lat="43.4452509" lon="11.1247001"><ele>197.0</ele><time>2026-04-11T08:08:25.512Z</time></trkpt><trkpt lat="43.4452881" lon="11.124796"><ele>197.00000000000003</ele><time>2026-04-11T08:08:27.502Z</time></trkpt><trkpt lat="43.4453196" lon="11.1248937"><ele>197.0</ele><time>2026-04-11T08:08:29.491Z</time></trkpt><trkpt lat="43.4453423" lon="11.1249971"><ele>197.0</ele><time>2026-04-11T08:08:31.579Z</time></trkpt><trkpt lat="43.4453695" lon="11.1250975"><ele>197.0</ele><time>2026-04-11T08:08:33.564Z</time></trkpt><trkpt lat="43.4454279" lon="11.1251901"><ele>197.00000000000003</ele><time>2026-04-11T08:08:35.501Z</time></trkpt><trkpt lat="43.445468" lon="11.1252783"><ele>197.0</ele><time>2026-04-11T08:08:37.496Z</time></trkpt><trkpt lat="43.4455212" lon="11.1253625"><ele>196.66666666666669</ele><time>2026-04-11T08:08:39.497Z</time></trkpt><trkpt lat="43.4455965" lon="11.1254417"><ele>196.33333333333334</ele><time>2026-04-11T08:08:41.567Z</time></trkpt><trkpt lat="43.4456806" lon="11.1254854"><ele>196.0</ele><time>2026-04-11T08:08:43.565Z</time></trkpt><trkpt lat="43.4457785" lon="11.1255345"><ele>195.66666666666669</ele><time>2026-04-11T08:08:45.492Z</time></trkpt><trkpt lat="43.445844" lon="11.1255618"><ele>195.33333333333334</ele><time>2026-04-11T08:08:46.492Z</time></trkpt><trkpt lat="43.4459151" lon="11.1256121"><ele>195.0</ele><time>2026-04-11T08:08:47.559Z</time></trkpt><trkpt lat="43.4459943" lon="11.1256801"><ele>192.5</ele><time>2026-04-11T08:08:48.565Z</time></trkpt><trkpt lat="43.4460627" lon="11.1257475"><ele>190.0</ele><time>2026-04-11T08:08:49.475Z</time></trkpt><trkpt lat="43.4461323" lon="11.1258137"><ele>187.5</ele><time>2026-04-11T08:08:50.491Z</time></trkpt><trkpt lat="43.4461955" lon="11.125878"><ele>185.0</ele><time>2026-04-11T08:08:51.492Z</time></trkpt><trkpt lat="43.4462589" lon="11.1259385"><ele>182.5</ele><time>2026-04-11T08:08:52.502Z</time></trkpt><trkpt lat="43.4463285" lon="11.1259964"><ele>180.0</ele><time>2026-04-11T08:08:53.476Z</time></trkpt><trkpt lat="43.4464031" lon="11.1260431"><ele>180.0</ele><time>2026-04-11T08:08:54.489Z</time></trkpt><trkpt lat="43.4464755" lon="11.1260883"><ele>180.0</ele><time>2026-04-11T08:08:55.487Z</time></trkpt><trkpt lat="43.4465483" lon="11.1261335"><ele>180.0</ele><time>2026-04-11T08:08:56.497Z</time></trkpt><trkpt lat="43.4466211" lon="11.12618"><ele>180.0</ele><time>2026-04-11T08:08:57.565Z</time></trkpt><trkpt lat="43.4466935" lon="11.1262287"><ele>180.0</ele><time>2026-04-11T08:08:58.559Z</time></trkpt><trkpt lat="43.446766" lon="11.1262768"><ele>180.0</ele><time>2026-04-11T08:08:59.475Z</time></trkpt><trkpt lat="43.4468357" lon="11.1263211"><ele>180.0</ele><time>2026-04-11T08:09:00.493Z</time></trkpt><trkpt lat="43.4468989" lon="11.1263632"><ele>180.0</ele><time>2026-04-11T08:09:01.5Z</time></trkpt><trkpt lat="43.4469678" lon="11.1264092"><ele>180.0</ele><time>2026-04-11T08:09:02.49Z</time></trkpt><trkpt lat="43.4470481" lon="11.1264433"><ele>180.0</ele><time>2026-04-11T08:09:03.499Z</time></trkpt><trkpt lat="43.4471337" lon="11.12646"><ele>180.0</ele><time>2026-04-11T08:09:04.499Z</time></trkpt><trkpt lat="43.4472125" lon="11.126466"><ele>180.0</ele><time>2026-04-11T08:09:05.473Z</time></trkpt><trkpt lat="43.4472843" lon="11.1264657"><ele>178.5</ele><time>2026-04-11T08:09:06.47Z</time></trkpt><trkpt lat="43.4473507" lon="11.12646"><ele>177.0</ele><time>2026-04-11T08:09:07.561Z</time></trkpt><trkpt lat="43.4474701" lon="11.1264345"><ele>175.5</ele><time>2026-04-11T08:09:09.49Z</time></trkpt><trkpt lat="43.4475375" lon="11.1264217"><ele>174.0</ele><time>2026-04-11T08:09:10.49Z</time></trkpt><trkpt lat="43.4476454" lon="11.1264087"><ele>172.5</ele><time>2026-04-11T08:09:12.497Z</time></trkpt><trkpt lat="43.4477135" lon="11.1264199"><ele>171.0</ele><time>2026-04-11T08:09:14.47Z</time></trkpt><trkpt lat="43.4477991" lon="11.126423"><ele>170.99999999999997</ele><time>2026-04-11T08:09:17.56Z</time></trkpt><trkpt lat="43.447864" lon="11.1264336"><ele>171.0</ele><time>2026-04-11T08:09:20.512Z</time></trkpt><trkpt lat="43.4479355" lon="11.1264705"><ele>171.0</ele><time>2026-04-11T08:09:23.567Z</time></trkpt><trkpt lat="43.4480158" lon="11.1265032"><ele>171.0</ele><time>2026-04-11T08:09:26.491Z</time></trkpt><trkpt lat="43.448081" lon="11.1265598"><ele>171.0</ele><time>2026-04-11T08:09:29.479Z</time></trkpt><trkpt lat="43.4481571" lon="11.1265714"><ele>170.99999999999997</ele><time>2026-04-11T08:09:31.492Z</time></trkpt><trkpt lat="43.4482229" lon="11.1265581"><ele>171.0</ele><time>2026-04-11T08:09:33.555Z</time></trkpt><trkpt lat="43.4482882" lon="11.1265523"><ele>174.28571428571428</ele><time>2026-04-11T08:09:36.491Z</time></trkpt><trkpt lat="43.4483508" lon="11.1265739"><ele>177.57142857142856</ele><time>2026-04-11T08:09:40.482Z</time></trkpt><trkpt lat="43.4484199" lon="11.1265878"><ele>180.85714285714283</ele><time>2026-04-11T08:09:44.477Z</time></trkpt><trkpt lat="43.4484848" lon="11.1265952"><ele>184.14285714285714</ele><time>2026-04-11T08:09:47.474Z</time></trkpt><trkpt lat="43.4485633" lon="11.1266098"><ele>187.42857142857144</ele><time>2026-04-11T08:09:50.486Z</time></trkpt><trkpt lat="43.4486337" lon="11.1266321"><ele>190.7142857142857</ele><time>2026-04-11T08:09:53.496Z</time></trkpt><trkpt lat="43.448707" lon="11.1266562"><ele>194.0</ele><time>2026-04-11T08:09:56.495Z</time></trkpt><trkpt lat="43.4487727" lon="11.1266832"><ele>193.66666666666669</ele><time>2026-04-11T08:09:59.498Z</time></trkpt><trkpt lat="43.4488497" lon="11.1267016"><ele>193.33333333333334</ele><time>2026-04-11T08:10:02.48Z</time></trkpt><trkpt lat="43.4489301" lon="11.1267097"><ele>193.0</ele><time>2026-04-11T08:10:05.499Z</time></trkpt><trkpt lat="43.4490061" lon="11.1267109"><ele>192.66666666666669</ele><time>2026-04-11T08:10:08.496Z</time></trkpt><trkpt lat="43.4490765" lon="11.1267299"><ele>192.33333333333334</ele><time>2026-04-11T08:10:11.496Z</time></trkpt><trkpt lat="43.4491473" lon="11.1267518"><ele>192.0</ele><time>2026-04-11T08:10:14.501Z</time></trkpt><trkpt lat="43.4492182" lon="11.1267717"><ele>192.0</ele><time>2026-04-11T08:10:17.506Z</time></trkpt><trkpt lat="43.4492968" lon="11.1268085"><ele>192.0</ele><time>2026-04-11T08:10:20.487Z</time></trkpt><trkpt lat="43.4493744" lon="11.1268522"><ele>192.0</ele><time>2026-04-11T08:10:23.49Z</time></trkpt><trkpt lat="43.4494474" lon="11.1269247"><ele>192.0</ele><time>2026-04-11T08:10:26.493Z</time></trkpt><trkpt lat="43.4495008" lon="11.1269725"><ele>192.0</ele><time>2026-04-11T08:10:28.496Z</time></trkpt><trkpt lat="43.4495723" lon="11.1270382"><ele>192.0</ele><time>2026-04-11T08:10:31.498Z</time></trkpt><trkpt lat="43.4496245" lon="11.1270889"><ele>193.33333333333334</ele><time>2026-04-11T08:10:33.499Z</time></trkpt><trkpt lat="43.449697" lon="11.1271382"><ele>194.66666666666669</ele><time>2026-04-11T08:10:36.498Z</time></trkpt><trkpt lat="43.449779" lon="11.1271724"><ele>196.0</ele><time>2026-04-11T08:10:39.487Z</time></trkpt><trkpt lat="43.4498642" lon="11.1271923"><ele>197.33333333333334</ele><time>2026-04-11T08:10:42.505Z</time></trkpt><trkpt lat="43.4499433" lon="11.1271962"><ele>198.66666666666669</ele><time>2026-04-11T08:10:45.501Z</time></trkpt><trkpt lat="43.450026" lon="11.1271759"><ele>200.0</ele><time>2026-04-11T08:10:48.491Z</time></trkpt><trkpt lat="43.4500941" lon="11.1271525"><ele>200.0</ele><time>2026-04-11T08:10:50.5Z</time></trkpt><trkpt lat="43.4501807" lon="11.127141"><ele>200.0</ele><time>2026-04-11T08:10:52.487Z</time></trkpt><trkpt lat="43.4502796" lon="11.1271178"><ele>200.0</ele><time>2026-04-11T08:10:54.492Z</time></trkpt><trkpt lat="43.4503745" lon="11.1271023"><ele>200.0</ele><time>2026-04-11T08:10:56.564Z</time></trkpt><trkpt lat="43.4504721" lon="11.1270799"><ele>200.0</ele><time>2026-04-11T08:10:58.558Z</time></trkpt><trkpt lat="43.4505781" lon="11.1270665"><ele>199.5</ele><time>2026-04-11T08:11:00.489Z</time></trkpt><trkpt lat="43.4506769" lon="11.1270364"><ele>199.0</ele><time>2026-04-11T08:11:02.565Z</time></trkpt><trkpt lat="43.450776" lon="11.1269906"><ele>198.5</ele><time>2026-04-11T08:11:04.501Z</time></trkpt><trkpt lat="43.4508981" lon="11.1269578"><ele>198.0</ele><time>2026-04-11T08:11:06.491Z</time></trkpt><trkpt lat="43.451017" lon="11.1269296"><ele>198.0</ele><time>2026-04-11T08:11:08.502Z</time></trkpt><trkpt lat="43.4511343" lon="11.1269067"><ele>198.0</ele><time>2026-04-11T08:11:10.492Z</time></trkpt><trkpt lat="43.4512519" lon="11.1268923"><ele>198.0</ele><time>2026-04-11T08:11:12.557Z</time></trkpt><trkpt lat="43.4513672" lon="11.1268896"><ele>198.0</ele><time>2026-04-11T08:11:14.494Z</time></trkpt><trkpt lat="43.4514824" lon="11.1268789"><ele>196.2</ele><time>2026-04-11T08:11:16.498Z</time></trkpt><trkpt lat="43.4515782" lon="11.1268481"><ele>194.4</ele><time>2026-04-11T08:11:18.499Z</time></trkpt><trkpt lat="43.4516684" lon="11.1268274"><ele>192.6</ele><time>2026-04-11T08:11:20.49Z</time></trkpt><trkpt lat="43.4517545" lon="11.1267954"><ele>190.79999999999998</ele><time>2026-04-11T08:11:22.57Z</time></trkpt><trkpt lat="43.4518528" lon="11.1267606"><ele>189.0</ele><time>2026-04-11T08:11:24.493Z</time></trkpt><trkpt lat="43.4519401" lon="11.1267618"><ele>189.0</ele><time>2026-04-11T08:11:26.49Z</time></trkpt><trkpt lat="43.4520215" lon="11.1267576"><ele>189.0</ele><time>2026-04-11T08:11:28.501Z</time></trkpt><trkpt lat="43.4521046" lon="11.1267517"><ele>189.0</ele><time>2026-04-11T08:11:30.492Z</time></trkpt><trkpt lat="43.4521875" lon="11.1267596"><ele>189.0</ele><time>2026-04-11T08:11:32.489Z</time></trkpt><trkpt lat="43.4522706" lon="11.1267589"><ele>189.0</ele><time>2026-04-11T08:11:34.488Z</time></trkpt><trkpt lat="43.4523511" lon="11.1267501"><ele>189.0</ele><time>2026-04-11T08:11:36.497Z</time></trkpt><trkpt lat="43.4524366" lon="11.1267724"><ele>189.16666666666666</ele><time>2026-04-11T08:11:38.58Z</time></trkpt><trkpt lat="43.4525152" lon="11.1267947"><ele>189.33333333333334</ele><time>2026-04-11T08:11:40.5Z</time></trkpt><trkpt lat="43.4526011" lon="11.1267886"><ele>189.5</ele><time>2026-04-11T08:11:42.559Z</time></trkpt><trkpt lat="43.4526914" lon="11.1267944"><ele>189.66666666666669</ele><time>2026-04-11T08:11:44.505Z</time></trkpt><trkpt lat="43.4527784" lon="11.1268108"><ele>189.83333333333334</ele><time>2026-04-11T08:11:46.567Z</time></trkpt><trkpt lat="43.4528594" lon="11.1268314"><ele>190.0</ele><time>2026-04-11T08:11:48.559Z</time></trkpt><trkpt lat="43.4529251" lon="11.1268479"><ele>190.2</ele><time>2026-04-11T08:11:50.509Z</time></trkpt><trkpt lat="43.452995" lon="11.1268795"><ele>190.4</ele><time>2026-04-11T08:11:52.549Z</time></trkpt><trkpt lat="43.4530932" lon="11.1269005"><ele>190.60000000000002</ele><time>2026-04-11T08:11:54.503Z</time></trkpt><trkpt lat="43.4531798" lon="11.1269088"><ele>190.8</ele><time>2026-04-11T08:11:56.491Z</time></trkpt><trkpt lat="43.4532731" lon="11.1269105"><ele>191.0</ele><time>2026-04-11T08:11:58.497Z</time></trkpt><trkpt lat="43.4533685" lon="11.1268833"><ele>191.0</ele><time>2026-04-11T08:12:00.497Z</time></trkpt><trkpt lat="43.4534603" lon="11.1268733"><ele>191.0</ele><time>2026-04-11T08:12:02.475Z</time></trkpt><trkpt lat="43.4535444" lon="11.1268865"><ele>191.0</ele><time>2026-04-11T08:12:04.49Z</time></trkpt><trkpt lat="43.4536336" lon="11.1269107"><ele>191.0</ele><time>2026-04-11T08:12:06.505Z</time></trkpt><trkpt lat="43.4537241" lon="11.126952"><ele>191.0</ele><time>2026-04-11T08:12:08.569Z</time></trkpt><trkpt lat="43.4538174" lon="11.1270039"><ele>192.0</ele><time>2026-04-11T08:12:10.5Z</time></trkpt><trkpt lat="43.4538953" lon="11.1270501"><ele>193.0</ele><time>2026-04-11T08:12:12.555Z</time></trkpt><trkpt lat="43.453957" lon="11.1270677"><ele>194.0</ele><time>2026-04-11T08:12:14.493Z</time></trkpt><trkpt lat="43.454033" lon="11.1270986"><ele>195.0</ele><time>2026-04-11T08:12:16.484Z</time></trkpt><trkpt lat="43.4541116" lon="11.1271295"><ele>196.00000000000003</ele><time>2026-04-11T08:12:18.476Z</time></trkpt><trkpt lat="43.4541864" lon="11.127149"><ele>197.0</ele><time>2026-04-11T08:12:20.496Z</time></trkpt><trkpt lat="43.4542558" lon="11.1271563"><ele>197.0</ele><time>2026-04-11T08:12:22.476Z</time></trkpt><trkpt lat="43.4543194" lon="11.1271805"><ele>197.0</ele><time>2026-04-11T08:12:24.493Z</time></trkpt><trkpt lat="43.4543789" lon="11.1272158"><ele>197.0</ele><time>2026-04-11T08:12:26.479Z</time></trkpt><trkpt lat="43.4544395" lon="11.1272481"><ele>197.0</ele><time>2026-04-11T08:12:28.589Z</time></trkpt><trkpt lat="43.4545109" lon="11.1272741"><ele>197.0</ele><time>2026-04-11T08:12:30.502Z</time></trkpt><trkpt lat="43.4545873" lon="11.1273007"><ele>197.0</ele><time>2026-04-11T08:12:32.51Z</time></trkpt><trkpt lat="43.4546812" lon="11.1273398"><ele>197.0</ele><time>2026-04-11T08:12:34.501Z</time></trkpt><trkpt lat="43.454775" lon="11.1273619"><ele>197.16666666666669</ele><time>2026-04-11T08:12:36.494Z</time></trkpt><trkpt lat="43.4548603" lon="11.127385"><ele>197.33333333333334</ele><time>2026-04-11T08:12:38.48Z</time></trkpt><trkpt lat="43.4549531" lon="11.1274089"><ele>197.5</ele><time>2026-04-11T08:12:40.49Z</time></trkpt><trkpt lat="43.4550329" lon="11.1274341"><ele>197.66666666666669</ele><time>2026-04-11T08:12:42.499Z</time></trkpt><trkpt lat="43.4551151" lon="11.1274577"><ele>197.83333333333334</ele><time>2026-04-11T08:12:44.492Z</time></trkpt><trkpt lat="43.4551905" lon="11.1274786"><ele>198.0</ele><time>2026-04-11T08:12:46.559Z</time></trkpt><trkpt lat="43.4552794" lon="11.1274867"><ele>198.0</ele><time>2026-04-11T08:12:49.49Z</time></trkpt><trkpt lat="43.4553618" lon="11.127528"><ele>198.0</ele><time>2026-04-11T08:12:52.496Z</time></trkpt><trkpt lat="43.4554206" lon="11.1275611"><ele>198.0</ele><time>2026-04-11T08:12:55.51Z</time></trkpt><trkpt lat="43.4554885" lon="11.1276161"><ele>198.0</ele><time>2026-04-11T08:12:59.492Z</time></trkpt><trkpt lat="43.4555607" lon="11.1276539"><ele>198.0</ele><time>2026-04-11T08:13:02.567Z</time></trkpt><trkpt lat="43.4556287" lon="11.1276214"><ele>198.0</ele><time>2026-04-11T08:13:05.502Z</time></trkpt><trkpt lat="43.4556881" lon="11.1276509"><ele>198.0</ele><time>2026-04-11T08:13:07.489Z</time></trkpt><trkpt lat="43.4557495" lon="11.1276795"><ele>199.71428571428572</ele><time>2026-04-11T08:13:09.496Z</time></trkpt><trkpt lat="43.4558228" lon="11.1277139"><ele>201.42857142857142</ele><time>2026-04-11T08:13:12.49Z</time></trkpt><trkpt lat="43.4558839" lon="11.1277546"><ele>203.14285714285714</ele><time>2026-04-11T08:13:15.51Z</time></trkpt><trkpt lat="43.4559268" lon="11.1278239"><ele>204.85714285714286</ele><time>2026-04-11T08:13:18.565Z</time></trkpt><trkpt lat="43.4559629" lon="11.1279351"><ele>206.57142857142856</ele><time>2026-04-11T08:13:21.494Z</time></trkpt><trkpt lat="43.4559738" lon="11.1280285"><ele>208.28571428571428</ele><time>2026-04-11T08:13:23.496Z</time></trkpt><trkpt lat="43.455984" lon="11.128119"><ele>210.0</ele><time>2026-04-11T08:13:25.497Z</time></trkpt><trkpt lat="43.4559931" lon="11.128217"><ele>208.66666666666666</ele><time>2026-04-11T08:13:27.569Z</time></trkpt><trkpt lat="43.455997" lon="11.1283144"><ele>207.33333333333331</ele><time>2026-04-11T08:13:29.49Z</time></trkpt><trkpt lat="43.4559911" lon="11.1284291"><ele>206.0</ele><time>2026-04-11T08:13:31.492Z</time></trkpt><trkpt lat="43.4559995" lon="11.1285465"><ele>204.66666666666666</ele><time>2026-04-11T08:13:33.502Z</time></trkpt><trkpt lat="43.4560263" lon="11.1286657"><ele>203.33333333333331</ele><time>2026-04-11T08:13:35.486Z</time></trkpt><trkpt lat="43.4560583" lon="11.1287914"><ele>202.0</ele><time>2026-04-11T08:13:37.499Z</time></trkpt><trkpt lat="43.456112" lon="11.1289203"><ele>201.99999999999997</ele><time>2026-04-11T08:13:39.501Z</time></trkpt><trkpt lat="43.4561776" lon="11.1290544"><ele>202.0</ele><time>2026-04-11T08:13:41.494Z</time></trkpt><trkpt lat="43.4562447" lon="11.1291978"><ele>202.0</ele><time>2026-04-11T08:13:43.483Z</time></trkpt><trkpt lat="43.4562843" lon="11.1292665"><ele>202.0</ele><time>2026-04-11T08:13:44.488Z</time></trkpt><trkpt lat="43.4563287" lon="11.1293305"><ele>201.99999999999997</ele><time>2026-04-11T08:13:45.496Z</time></trkpt><trkpt lat="43.4563768" lon="11.1293924"><ele>202.0</ele><time>2026-04-11T08:13:46.492Z</time></trkpt><trkpt lat="43.4564277" lon="11.1294526"><ele>201.85714285714286</ele><time>2026-04-11T08:13:47.552Z</time></trkpt><trkpt lat="43.4564757" lon="11.1295098"><ele>201.71428571428572</ele><time>2026-04-11T08:13:48.489Z</time></trkpt><trkpt lat="43.456527" lon="11.1295708"><ele>201.57142857142856</ele><time>2026-04-11T08:13:49.507Z</time></trkpt><trkpt lat="43.4565779" lon="11.1296324"><ele>201.42857142857144</ele><time>2026-04-11T08:13:50.495Z</time></trkpt><trkpt lat="43.4566263" lon="11.1296956"><ele>201.2857142857143</ele><time>2026-04-11T08:13:51.488Z</time></trkpt><trkpt lat="43.4566771" lon="11.1297682"><ele>201.14285714285714</ele><time>2026-04-11T08:13:52.503Z</time></trkpt><trkpt lat="43.4567298" lon="11.1298375"><ele>201.0</ele><time>2026-04-11T08:13:53.502Z</time></trkpt><trkpt lat="43.4567816" lon="11.1299081"><ele>201.0</ele><time>2026-04-11T08:13:54.471Z</time></trkpt><trkpt lat="43.4568332" lon="11.1299851"><ele>201.0</ele><time>2026-04-11T08:13:55.502Z</time></trkpt><trkpt lat="43.4568867" lon="11.1300664"><ele>201.0</ele><time>2026-04-11T08:13:56.496Z</time></trkpt><trkpt lat="43.4569428" lon="11.1301467"><ele>201.0</ele><time>2026-04-11T08:13:57.473Z</time></trkpt><trkpt lat="43.4570019" lon="11.1302257"><ele>201.0</ele><time>2026-04-11T08:13:58.488Z</time></trkpt><trkpt lat="43.4570589" lon="11.1303012"><ele>201.0</ele><time>2026-04-11T08:13:59.499Z</time></trkpt><trkpt lat="43.4571159" lon="11.1303764"><ele>199.5</ele><time>2026-04-11T08:14:00.49Z</time></trkpt><trkpt lat="43.4571751" lon="11.1304477"><ele>198.0</ele><time>2026-04-11T08:14:01.495Z</time></trkpt><trkpt lat="43.4572379" lon="11.1305188"><ele>196.5</ele><time>2026-04-11T08:14:02.503Z</time></trkpt><trkpt lat="43.4573086" lon="11.1305957"><ele>195.0</ele><time>2026-04-11T08:14:03.499Z</time></trkpt><trkpt lat="43.4573717" lon="11.1306779"><ele>193.5</ele><time>2026-04-11T08:14:04.499Z</time></trkpt><trkpt lat="43.4574378" lon="11.1307581"><ele>192.0</ele><time>2026-04-11T08:14:05.5Z</time></trkpt><trkpt lat="43.4574993" lon="11.1308315"><ele>191.7142857142857</ele><time>2026-04-11T08:14:06.48Z</time></trkpt><trkpt lat="43.4575571" lon="11.130893"><ele>191.42857142857142</ele><time>2026-04-11T08:14:07.499Z</time></trkpt><trkpt lat="43.4576156" lon="11.1309521"><ele>191.14285714285714</ele><time>2026-04-11T08:14:08.492Z</time></trkpt><trkpt lat="43.4576617" lon="11.1310198"><ele>190.85714285714283</ele><time>2026-04-11T08:14:09.498Z</time></trkpt><trkpt lat="43.4576923" lon="11.1311061"><ele>190.57142857142858</ele><time>2026-04-11T08:14:10.489Z</time></trkpt><trkpt lat="43.4577109" lon="11.1311929"><ele>190.28571428571428</ele><time>2026-04-11T08:14:11.493Z</time></trkpt><trkpt lat="43.4577372" lon="11.1312931"><ele>190.0</ele><time>2026-04-11T08:14:12.503Z</time></trkpt><trkpt lat="43.4577638" lon="11.1314008"><ele>190.0</ele><time>2026-04-11T08:14:13.497Z</time></trkpt><trkpt lat="43.4577876" lon="11.1315095"><ele>190.0</ele><time>2026-04-11T08:14:14.506Z</time></trkpt><trkpt lat="43.457815" lon="11.1316288"><ele>190.0</ele><time>2026-04-11T08:14:15.496Z</time></trkpt><trkpt lat="43.4578552" lon="11.1317579"><ele>190.0</ele><time>2026-04-11T08:14:16.498Z</time></trkpt><trkpt lat="43.4578972" lon="11.131889"><ele>190.0</ele><time>2026-04-11T08:14:17.495Z</time></trkpt><trkpt lat="43.4579409" lon="11.1320261"><ele>189.4</ele><time>2026-04-11T08:14:18.505Z</time></trkpt><trkpt lat="43.4579876" lon="11.1321695"><ele>188.8</ele><time>2026-04-11T08:14:19.498Z</time></trkpt><trkpt lat="43.4580359" lon="11.1323158"><ele>188.2</ele><time>2026-04-11T08:14:20.495Z</time></trkpt><trkpt lat="43.4580854" lon="11.1324558"><ele>187.6</ele><time>2026-04-11T08:14:21.495Z</time></trkpt><trkpt lat="43.4581259" lon="11.1325858"><ele>187.0</ele><time>2026-04-11T08:14:22.491Z</time></trkpt><trkpt lat="43.4581663" lon="11.1327006"><ele>184.6</ele><time>2026-04-11T08:14:23.5Z</time></trkpt><trkpt lat="43.4582091" lon="11.1328059"><ele>182.2</ele><time>2026-04-11T08:14:24.476Z</time></trkpt><trkpt lat="43.45825" lon="11.1329203"><ele>179.8</ele><time>2026-04-11T08:14:25.509Z</time></trkpt><trkpt lat="43.4582922" lon="11.1330459"><ele>177.4</ele><time>2026-04-11T08:14:26.5Z</time></trkpt><trkpt lat="43.4583391" lon="11.1331547"><ele>175.0</ele><time>2026-04-11T08:14:27.486Z</time></trkpt><trkpt lat="43.4583978" lon="11.133269"><ele>169.6</ele><time>2026-04-11T08:14:28.486Z</time></trkpt><trkpt lat="43.4584702" lon="11.1333848"><ele>164.2</ele><time>2026-04-11T08:14:29.5Z</time></trkpt><trkpt lat="43.4585392" lon="11.1334987"><ele>158.8</ele><time>2026-04-11T08:14:30.49Z</time></trkpt><trkpt lat="43.4586027" lon="11.1336112"><ele>153.4</ele><time>2026-04-11T08:14:31.489Z</time></trkpt><trkpt lat="43.4586646" lon="11.133743"><ele>148.0</ele><time>2026-04-11T08:14:32.501Z</time></trkpt><trkpt lat="43.4587227" lon="11.1338847"><ele>148.0</ele><time>2026-04-11T08:14:33.57Z</time></trkpt><trkpt lat="43.4587729" lon="11.1340472"><ele>148.0</ele><time>2026-04-11T08:14:34.498Z</time></trkpt><trkpt lat="43.4588252" lon="11.1342142"><ele>148.0</ele><time>2026-04-11T08:14:35.486Z</time></trkpt><trkpt lat="43.4588805" lon="11.1343657"><ele>148.0</ele><time>2026-04-11T08:14:36.489Z</time></trkpt><trkpt lat="43.4589265" lon="11.1344963"><ele>147.4</ele><time>2026-04-11T08:14:37.488Z</time></trkpt><trkpt lat="43.458961" lon="11.1346194"><ele>146.8</ele><time>2026-04-11T08:14:38.493Z</time></trkpt><trkpt lat="43.4590012" lon="11.1347404"><ele>146.2</ele><time>2026-04-11T08:14:39.488Z</time></trkpt><trkpt lat="43.4590684" lon="11.1348598"><ele>145.6</ele><time>2026-04-11T08:14:40.484Z</time></trkpt><trkpt lat="43.4591586" lon="11.1349829"><ele>145.0</ele><time>2026-04-11T08:14:41.506Z</time></trkpt><trkpt lat="43.4592486" lon="11.1350958"><ele>140.75</ele><time>2026-04-11T08:14:42.489Z</time></trkpt><trkpt lat="43.4593343" lon="11.135213"><ele>136.5</ele><time>2026-04-11T08:14:43.467Z</time></trkpt><trkpt lat="43.4594235" lon="11.1353396"><ele>132.25</ele><time>2026-04-11T08:14:44.497Z</time></trkpt><trkpt lat="43.4595074" lon="11.1354739"><ele>128.0</ele><time>2026-04-11T08:14:45.49Z</time></trkpt><trkpt lat="43.4595766" lon="11.135624"><ele>126.2</ele><time>2026-04-11T08:14:46.502Z</time></trkpt><trkpt lat="43.4596403" lon="11.1357487"><ele>124.4</ele><time>2026-04-11T08:14:47.49Z</time></trkpt><trkpt lat="43.4596936" lon="11.1358571"><ele>122.60000000000001</ele><time>2026-04-11T08:14:48.487Z</time></trkpt><trkpt lat="43.4597434" lon="11.1359558"><ele>120.80000000000001</ele><time>2026-04-11T08:14:49.489Z</time></trkpt><trkpt lat="43.4597889" lon="11.1360544"><ele>119.0</ele><time>2026-04-11T08:14:50.481Z</time></trkpt><trkpt lat="43.4598435" lon="11.1361609"><ele>118.99999999999999</ele><time>2026-04-11T08:14:51.491Z</time></trkpt><trkpt lat="43.4599143" lon="11.1362455"><ele>119.0</ele><time>2026-04-11T08:14:52.495Z</time></trkpt><trkpt lat="43.4599954" lon="11.1362994"><ele>119.0</ele><time>2026-04-11T08:14:53.562Z</time></trkpt><trkpt lat="43.4600714" lon="11.1363336"><ele>119.0</ele><time>2026-04-11T08:14:54.47Z</time></trkpt><trkpt lat="43.4601352" lon="11.1363477"><ele>118.99999999999999</ele><time>2026-04-11T08:14:55.486Z</time></trkpt><trkpt lat="43.4602444" lon="11.1363727"><ele>119.0</ele><time>2026-04-11T08:14:57.553Z</time></trkpt><trkpt lat="43.4603027" lon="11.136438"><ele>118.99999999999999</ele><time>2026-04-11T08:14:59.48Z</time></trkpt><trkpt lat="43.4603094" lon="11.1365337"><ele>119.0</ele><time>2026-04-11T08:15:02.555Z</time></trkpt><trkpt lat="43.4603236" lon="11.1366517"><ele>119.0</ele><time>2026-04-11T08:15:05.495Z</time></trkpt><trkpt lat="43.46027" lon="11.1367311"><ele>119.0</ele><time>2026-04-11T08:15:08.485Z</time></trkpt><trkpt lat="43.4602063" lon="11.1367291"><ele>118.99999999999999</ele><time>2026-04-11T08:15:10.497Z</time></trkpt><trkpt lat="43.4601425" lon="11.1367199"><ele>119.0</ele><time>2026-04-11T08:15:12.566Z</time></trkpt><trkpt lat="43.4600567" lon="11.1366774"><ele>119.0</ele><time>2026-04-11T08:15:14.5Z</time></trkpt><trkpt lat="43.4599638" lon="11.1366519"><ele>119.0</ele><time>2026-04-11T08:15:16.49Z</time></trkpt><trkpt lat="43.4598749" lon="11.1366508"><ele>119.0</ele><time>2026-04-11T08:15:19.489Z</time></trkpt><trkpt lat="43.45981" lon="11.1366345"><ele>119.0</ele><time>2026-04-11T08:15:21.506Z</time></trkpt><trkpt lat="43.4597439" lon="11.136602"><ele>119.0</ele><time>2026-04-11T08:15:23.49Z</time></trkpt><trkpt lat="43.4596825" lon="11.1365809"><ele>119.0</ele><time>2026-04-11T08:15:25.5Z</time></trkpt><trkpt lat="43.4596262" lon="11.1365395"><ele>119.0</ele><time>2026-04-11T08:15:27.566Z</time></trkpt><trkpt lat="43.4595614" lon="11.1365013"><ele>119.33333333333333</ele><time>2026-04-11T08:15:29.481Z</time></trkpt><trkpt lat="43.4594937" lon="11.1364567"><ele>119.66666666666666</ele><time>2026-04-11T08:15:31.491Z</time></trkpt><trkpt lat="43.4594227" lon="11.1364122"><ele>120.0</ele><time>2026-04-11T08:15:33.563Z</time></trkpt><trkpt lat="43.4593472" lon="11.1363593"><ele>120.33333333333334</ele><time>2026-04-11T08:15:35.488Z</time></trkpt><trkpt lat="43.4592686" lon="11.1362882"><ele>120.66666666666667</ele><time>2026-04-11T08:15:38.564Z</time></trkpt><trkpt lat="43.4591648" lon="11.136229"><ele>121.0</ele><time>2026-04-11T08:15:40.492Z</time></trkpt><trkpt lat="43.4591" lon="11.1361603"><ele>121.00000000000001</ele><time>2026-04-11T08:15:42.57Z</time></trkpt><trkpt lat="43.4590454" lon="11.1360992"><ele>121.0</ele><time>2026-04-11T08:15:44.476Z</time></trkpt><trkpt lat="43.4589845" lon="11.136058"><ele>121.0</ele><time>2026-04-11T08:15:46.494Z</time></trkpt><trkpt lat="43.4589345" lon="11.1359779"><ele>121.0</ele><time>2026-04-11T08:15:48.555Z</time></trkpt><trkpt lat="43.4588864" lon="11.1358889"><ele>121.00000000000001</ele><time>2026-04-11T08:15:50.489Z</time></trkpt><trkpt lat="43.4588309" lon="11.1358135"><ele>121.0</ele><time>2026-04-11T08:15:52.484Z</time></trkpt><trkpt lat="43.4587637" lon="11.1357352"><ele>120.57142857142857</ele><time>2026-04-11T08:15:54.499Z</time></trkpt><trkpt lat="43.4587163" lon="11.1356637"><ele>120.14285714285714</ele><time>2026-04-11T08:15:56.511Z</time></trkpt><trkpt lat="43.458683" lon="11.1355886"><ele>119.71428571428571</ele><time>2026-04-11T08:15:58.479Z</time></trkpt><trkpt lat="43.4586496" lon="11.1355118"><ele>119.28571428571428</ele><time>2026-04-11T08:16:01.488Z</time></trkpt><trkpt lat="43.4586192" lon="11.1354344"><ele>118.85714285714286</ele><time>2026-04-11T08:16:04.497Z</time></trkpt><trkpt lat="43.458575" lon="11.1353394"><ele>118.42857142857142</ele><time>2026-04-11T08:16:07.475Z</time></trkpt><trkpt lat="43.4585344" lon="11.1352341"><ele>118.0</ele><time>2026-04-11T08:16:10.486Z</time></trkpt><trkpt lat="43.4584962" lon="11.1351382"><ele>118.0</ele><time>2026-04-11T08:16:13.565Z</time></trkpt><trkpt lat="43.4584545" lon="11.1350584"><ele>118.00000000000001</ele><time>2026-04-11T08:16:15.497Z</time></trkpt><trkpt lat="43.4584065" lon="11.1349821"><ele>118.00000000000001</ele><time>2026-04-11T08:16:17.564Z</time></trkpt><trkpt lat="43.4583447" lon="11.1348588"><ele>118.0</ele><time>2026-04-11T08:16:20.497Z</time></trkpt><trkpt lat="43.4582875" lon="11.1347294"><ele>118.0</ele><time>2026-04-11T08:16:22.533Z</time></trkpt><trkpt lat="43.4582372" lon="11.134622"><ele>120.0</ele><time>2026-04-11T08:16:24.505Z</time></trkpt><trkpt lat="43.4581809" lon="11.1344858"><ele>122.00000000000001</ele><time>2026-04-11T08:16:26.557Z</time></trkpt><trkpt lat="43.458132" lon="11.1343598"><ele>124.00000000000001</ele><time>2026-04-11T08:16:28.493Z</time></trkpt><trkpt lat="43.4580691" lon="11.1342504"><ele>126.0</ele><time>2026-04-11T08:16:30.497Z</time></trkpt><trkpt lat="43.4580042" lon="11.134148"><ele>128.0</ele><time>2026-04-11T08:16:32.565Z</time></trkpt><trkpt lat="43.4579609" lon="11.1340579"><ele>128.5</ele><time>2026-04-11T08:16:34.481Z</time></trkpt><trkpt lat="43.4579107" lon="11.1339177"><ele>129.0</ele><time>2026-04-11T08:16:36.493Z</time></trkpt><trkpt lat="43.4578663" lon="11.1338413"><ele>129.5</ele><time>2026-04-11T08:16:37.489Z</time></trkpt><trkpt lat="43.4578148" lon="11.1337747"><ele>130.0</ele><time>2026-04-11T08:16:38.491Z</time></trkpt><trkpt lat="43.457764" lon="11.1337149"><ele>130.5</ele><time>2026-04-11T08:16:39.487Z</time></trkpt><trkpt lat="43.4577114" lon="11.1336578"><ele>131.0</ele><time>2026-04-11T08:16:40.498Z</time></trkpt><trkpt lat="43.4576568" lon="11.1336119"><ele>131.0</ele><time>2026-04-11T08:16:41.508Z</time></trkpt><trkpt lat="43.4575898" lon="11.1335737"><ele>131.0</ele><time>2026-04-11T08:16:42.57Z</time></trkpt><trkpt lat="43.457524" lon="11.1335435"><ele>131.0</ele><time>2026-04-11T08:16:43.556Z</time></trkpt><trkpt lat="43.4574646" lon="11.133511"><ele>131.0</ele><time>2026-04-11T08:16:44.49Z</time></trkpt><trkpt lat="43.4573416" lon="11.133462"><ele>131.0</ele><time>2026-04-11T08:16:46.491Z</time></trkpt><trkpt lat="43.4572688" lon="11.1334429"><ele>131.0</ele><time>2026-04-11T08:16:47.497Z</time></trkpt><trkpt lat="43.4572012" lon="11.1334291"><ele>131.0</ele><time>2026-04-11T08:16:48.494Z</time></trkpt><trkpt lat="43.4571335" lon="11.1334203"><ele>131.0</ele><time>2026-04-11T08:16:49.501Z</time></trkpt><trkpt lat="43.4570194" lon="11.1334083"><ele>131.0</ele><time>2026-04-11T08:16:51.492Z</time></trkpt><trkpt lat="43.4569057" lon="11.1334107"><ele>131.0</ele><time>2026-04-11T08:16:53.495Z</time></trkpt><trkpt lat="43.456789" lon="11.1334201"><ele>131.0</ele><time>2026-04-11T08:16:55.498Z</time></trkpt><trkpt lat="43.4566702" lon="11.1334413"><ele>129.83333333333331</ele><time>2026-04-11T08:16:57.506Z</time></trkpt><trkpt lat="43.4566026" lon="11.133462"><ele>128.66666666666666</ele><time>2026-04-11T08:16:58.566Z</time></trkpt><trkpt lat="43.4564681" lon="11.1334883"><ele>127.5</ele><time>2026-04-11T08:17:00.503Z</time></trkpt><trkpt lat="43.4563939" lon="11.1335219"><ele>126.33333333333334</ele><time>2026-04-11T08:17:01.494Z</time></trkpt><trkpt lat="43.4563269" lon="11.1335684"><ele>125.16666666666667</ele><time>2026-04-11T08:17:02.556Z</time></trkpt><trkpt lat="43.4562652" lon="11.1335966"><ele>124.0</ele><time>2026-04-11T08:17:03.568Z</time></trkpt><trkpt lat="43.4561616" lon="11.1336849"><ele>124.00000000000001</ele><time>2026-04-11T08:17:05.495Z</time></trkpt><trkpt lat="43.4561058" lon="11.1337348"><ele>124.0</ele><time>2026-04-11T08:17:06.49Z</time></trkpt><trkpt lat="43.4560445" lon="11.1337776"><ele>124.0</ele><time>2026-04-11T08:17:07.559Z</time></trkpt><trkpt lat="43.4559343" lon="11.1338506"><ele>124.0</ele><time>2026-04-11T08:17:09.478Z</time></trkpt><trkpt lat="43.4558777" lon="11.1338903"><ele>124.00000000000001</ele><time>2026-04-11T08:17:10.494Z</time></trkpt><trkpt lat="43.4557729" lon="11.1339557"><ele>124.0</ele><time>2026-04-11T08:17:12.546Z</time></trkpt><trkpt lat="43.455659" lon="11.1339889"><ele>124.0</ele><time>2026-04-11T08:17:14.476Z</time></trkpt><trkpt lat="43.455549" lon="11.1340312"><ele>124.0</ele><time>2026-04-11T08:17:16.488Z</time></trkpt><trkpt lat="43.4554408" lon="11.1340745"><ele>124.0</ele><time>2026-04-11T08:17:18.573Z</time></trkpt><trkpt lat="43.455252" lon="11.1340605"><ele>124.0</ele><time>2026-04-11T08:17:22.49Z</time></trkpt><trkpt lat="43.4551829" lon="11.1340448"><ele>122.80000000000001</ele><time>2026-04-11T08:17:23.488Z</time></trkpt><trkpt lat="43.4550712" lon="11.1340075"><ele>121.60000000000001</ele><time>2026-04-11T08:17:25.501Z</time></trkpt><trkpt lat="43.4549606" lon="11.1339686"><ele>120.4</ele><time>2026-04-11T08:17:27.555Z</time></trkpt><trkpt lat="43.4548474" lon="11.1339065"><ele>119.2</ele><time>2026-04-11T08:17:29.467Z</time></trkpt><trkpt lat="43.4547882" lon="11.1338731"><ele>118.0</ele><time>2026-04-11T08:17:30.495Z</time></trkpt><trkpt lat="43.4547271" lon="11.1338486"><ele>114.0</ele><time>2026-04-11T08:17:31.488Z</time></trkpt><trkpt lat="43.4546145" lon="11.1338069"><ele>110.0</ele><time>2026-04-11T08:17:33.509Z</time></trkpt><trkpt lat="43.4545081" lon="11.1337543"><ele>106.0</ele><time>2026-04-11T08:17:35.478Z</time></trkpt><trkpt lat="43.4543958" lon="11.1336984"><ele>102.0</ele><time>2026-04-11T08:17:37.479Z</time></trkpt><trkpt lat="43.4542811" lon="11.1336345"><ele>102.0</ele><time>2026-04-11T08:17:39.48Z</time></trkpt><trkpt lat="43.4542205" lon="11.1336041"><ele>102.0</ele><time>2026-04-11T08:17:40.491Z</time></trkpt><trkpt lat="43.4541042" lon="11.1335409"><ele>102.0</ele><time>2026-04-11T08:17:42.557Z</time></trkpt><trkpt lat="43.4539994" lon="11.1334845"><ele>102.0</ele><time>2026-04-11T08:17:44.502Z</time></trkpt><trkpt lat="43.4538875" lon="11.1334277"><ele>102.0</ele><time>2026-04-11T08:17:46.487Z</time></trkpt><trkpt lat="43.4537808" lon="11.1333722"><ele>102.19999999999999</ele><time>2026-04-11T08:17:48.491Z</time></trkpt><trkpt lat="43.4536679" lon="11.1333211"><ele>102.4</ele><time>2026-04-11T08:17:50.504Z</time></trkpt><trkpt lat="43.4535502" lon="11.1332654"><ele>102.6</ele><time>2026-04-11T08:17:52.573Z</time></trkpt><trkpt lat="43.4534481" lon="11.1332074"><ele>102.80000000000001</ele><time>2026-04-11T08:17:54.486Z</time></trkpt><trkpt lat="43.4533858" lon="11.1331692"><ele>103.0</ele><time>2026-04-11T08:17:55.5Z</time></trkpt><trkpt lat="43.4532943" lon="11.1331175"><ele>103.0</ele><time>2026-04-11T08:17:57.552Z</time></trkpt><trkpt lat="43.4532171" lon="11.1330391"><ele>103.0</ele><time>2026-04-11T08:17:59.501Z</time></trkpt><trkpt lat="43.4531125" lon="11.1329795"><ele>103.0</ele><time>2026-04-11T08:18:01.497Z</time></trkpt><trkpt lat="43.4529992" lon="11.1329462"><ele>103.0</ele><time>2026-04-11T08:18:03.494Z</time></trkpt><trkpt lat="43.4529376" lon="11.1329253"><ele>103.0</ele><time>2026-04-11T08:18:04.471Z</time></trkpt><trkpt lat="43.4528274" lon="11.1328748"><ele>103.25</ele><time>2026-04-11T08:18:06.499Z</time></trkpt><trkpt lat="43.4527181" lon="11.1328203"><ele>103.5</ele><time>2026-04-11T08:18:08.51Z</time></trkpt><trkpt lat="43.45261" lon="11.1327681"><ele>103.75</ele><time>2026-04-11T08:18:10.503Z</time></trkpt><trkpt lat="43.4525021" lon="11.1327154"><ele>104.0</ele><time>2026-04-11T08:18:12.495Z</time></trkpt><trkpt lat="43.4523869" lon="11.1326604"><ele>104.0</ele><time>2026-04-11T08:18:14.492Z</time></trkpt><trkpt lat="43.4522824" lon="11.1326032"><ele>104.0</ele><time>2026-04-11T08:18:16.475Z</time></trkpt><trkpt lat="43.4521748" lon="11.1325479"><ele>104.0</ele><time>2026-04-11T08:18:18.566Z</time></trkpt><trkpt lat="43.4520711" lon="11.1324775"><ele>104.0</ele><time>2026-04-11T08:18:20.501Z</time></trkpt><trkpt lat="43.4519705" lon="11.1324216"><ele>103.5</ele><time>2026-04-11T08:18:22.559Z</time></trkpt><trkpt lat="43.4518687" lon="11.1323788"><ele>103.0</ele><time>2026-04-11T08:18:24.493Z</time></trkpt><trkpt lat="43.4517645" lon="11.132341"><ele>102.5</ele><time>2026-04-11T08:18:26.492Z</time></trkpt><trkpt lat="43.4516519" lon="11.1322894"><ele>102.0</ele><time>2026-04-11T08:18:28.477Z</time></trkpt><trkpt lat="43.4515384" lon="11.1322441"><ele>102.0</ele><time>2026-04-11T08:18:30.496Z</time></trkpt><trkpt lat="43.4514345" lon="11.1322019"><ele>102.0</ele><time>2026-04-11T08:18:32.567Z</time></trkpt><trkpt lat="43.4513315" lon="11.1321714"><ele>102.0</ele><time>2026-04-11T08:18:34.495Z</time></trkpt><trkpt lat="43.4512369" lon="11.1321554"><ele>102.0</ele><time>2026-04-11T08:18:36.494Z</time></trkpt><trkpt lat="43.4511317" lon="11.1321115"><ele>102.0</ele><time>2026-04-11T08:18:38.505Z</time></trkpt><trkpt lat="43.4510318" lon="11.1320823"><ele>102.6</ele><time>2026-04-11T08:18:40.501Z</time></trkpt><trkpt lat="43.4509257" lon="11.1320581"><ele>103.19999999999999</ele><time>2026-04-11T08:18:42.493Z</time></trkpt><trkpt lat="43.4508219" lon="11.132033"><ele>103.8</ele><time>2026-04-11T08:18:44.501Z</time></trkpt><trkpt lat="43.4507161" lon="11.1320136"><ele>104.4</ele><time>2026-04-11T08:18:46.494Z</time></trkpt><trkpt lat="43.4506094" lon="11.1319977"><ele>105.0</ele><time>2026-04-11T08:18:48.5Z</time></trkpt><trkpt lat="43.4505047" lon="11.1319839"><ele>105.2</ele><time>2026-04-11T08:18:50.479Z</time></trkpt><trkpt lat="43.4503959" lon="11.1319792"><ele>105.4</ele><time>2026-04-11T08:18:52.566Z</time></trkpt><trkpt lat="43.4502906" lon="11.1319703"><ele>105.6</ele><time>2026-04-11T08:18:54.506Z</time></trkpt><trkpt lat="43.4501838" lon="11.1319562"><ele>105.8</ele><time>2026-04-11T08:18:56.491Z</time></trkpt><trkpt lat="43.4500709" lon="11.1319416"><ele>106.0</ele><time>2026-04-11T08:18:58.569Z</time></trkpt><trkpt lat="43.4499677" lon="11.1319331"><ele>106.0</ele><time>2026-04-11T08:19:00.511Z</time></trkpt><trkpt lat="43.4498657" lon="11.1319258"><ele>106.0</ele><time>2026-04-11T08:19:02.554Z</time></trkpt><trkpt lat="43.4497603" lon="11.1319144"><ele>106.0</ele><time>2026-04-11T08:19:04.484Z</time></trkpt><trkpt lat="43.4496566" lon="11.1319071"><ele>106.0</ele><time>2026-04-11T08:19:06.491Z</time></trkpt><trkpt lat="43.4495539" lon="11.131898"><ele>106.0</ele><time>2026-04-11T08:19:08.498Z</time></trkpt><trkpt lat="43.4494464" lon="11.131892"><ele>106.4</ele><time>2026-04-11T08:19:10.492Z</time></trkpt><trkpt lat="43.4493412" lon="11.1318898"><ele>106.8</ele><time>2026-04-11T08:19:12.574Z</time></trkpt><trkpt lat="43.4492561" lon="11.1318782"><ele>107.20000000000002</ele><time>2026-04-11T08:19:14.499Z</time></trkpt><trkpt lat="43.4491787" lon="11.1318746"><ele>107.60000000000001</ele><time>2026-04-11T08:19:16.502Z</time></trkpt><trkpt lat="43.4490647" lon="11.1318692"><ele>108.0</ele><time>2026-04-11T08:19:18.486Z</time></trkpt><trkpt lat="43.4489422" lon="11.13186"><ele>108.0</ele><time>2026-04-11T08:19:20.488Z</time></trkpt><trkpt lat="43.4488355" lon="11.13185"><ele>108.00000000000001</ele><time>2026-04-11T08:19:22.469Z</time></trkpt><trkpt lat="43.448727" lon="11.1318439"><ele>108.00000000000001</ele><time>2026-04-11T08:19:24.489Z</time></trkpt><trkpt lat="43.448621" lon="11.13184"><ele>108.0</ele><time>2026-04-11T08:19:26.49Z</time></trkpt><trkpt lat="43.4485186" lon="11.1318407"><ele>108.0</ele><time>2026-04-11T08:19:28.476Z</time></trkpt><trkpt lat="43.4484099" lon="11.1318327"><ele>108.80000000000001</ele><time>2026-04-11T08:19:30.489Z</time></trkpt><trkpt lat="43.4483007" lon="11.1318108"><ele>109.60000000000001</ele><time>2026-04-11T08:19:32.495Z</time></trkpt><trkpt lat="43.4482039" lon="11.1317941"><ele>110.39999999999999</ele><time>2026-04-11T08:19:34.494Z</time></trkpt><trkpt lat="43.4481054" lon="11.1317845"><ele>111.19999999999999</ele><time>2026-04-11T08:19:36.543Z</time></trkpt><trkpt lat="43.4480084" lon="11.1317798"><ele>112.0</ele><time>2026-04-11T08:19:38.49Z</time></trkpt><trkpt lat="43.4478983" lon="11.1317664"><ele>112.0</ele><time>2026-04-11T08:19:40.484Z</time></trkpt><trkpt lat="43.4477907" lon="11.1317692"><ele>111.99999999999999</ele><time>2026-04-11T08:19:42.563Z</time></trkpt><trkpt lat="43.4476899" lon="11.1317598"><ele>111.99999999999999</ele><time>2026-04-11T08:19:44.487Z</time></trkpt><trkpt lat="43.4475904" lon="11.1317575"><ele>112.0</ele><time>2026-04-11T08:19:46.494Z</time></trkpt><trkpt lat="43.447499" lon="11.1317618"><ele>112.0</ele><time>2026-04-11T08:19:48.565Z</time></trkpt><trkpt lat="43.4474008" lon="11.1317754"><ele>112.0</ele><time>2026-04-11T08:19:50.498Z</time></trkpt><trkpt lat="43.4473035" lon="11.1317877"><ele>111.99999999999999</ele><time>2026-04-11T08:19:52.491Z</time></trkpt><trkpt lat="43.4472106" lon="11.1318152"><ele>111.99999999999999</ele><time>2026-04-11T08:19:54.495Z</time></trkpt><trkpt lat="43.4471185" lon="11.1318697"><ele>112.0</ele><time>2026-04-11T08:19:56.499Z</time></trkpt><trkpt lat="43.4470259" lon="11.1319178"><ele>112.0</ele><time>2026-04-11T08:19:58.561Z</time></trkpt><trkpt lat="43.4469301" lon="11.1319768"><ele>111.39999999999999</ele><time>2026-04-11T08:20:00.493Z</time></trkpt><trkpt lat="43.4468431" lon="11.1320533"><ele>110.79999999999998</ele><time>2026-04-11T08:20:02.49Z</time></trkpt><trkpt lat="43.4467533" lon="11.132123"><ele>110.2</ele><time>2026-04-11T08:20:04.488Z</time></trkpt><trkpt lat="43.4466749" lon="11.1321903"><ele>109.6</ele><time>2026-04-11T08:20:06.488Z</time></trkpt><trkpt lat="43.4466029" lon="11.1322622"><ele>109.0</ele><time>2026-04-11T08:20:08.488Z</time></trkpt><trkpt lat="43.4465249" lon="11.1323483"><ele>108.80000000000001</ele><time>2026-04-11T08:20:10.488Z</time></trkpt><trkpt lat="43.4464461" lon="11.132446"><ele>108.60000000000001</ele><time>2026-04-11T08:20:12.479Z</time></trkpt><trkpt lat="43.4463713" lon="11.1325486"><ele>108.4</ele><time>2026-04-11T08:20:14.48Z</time></trkpt><trkpt lat="43.4463017" lon="11.1326581"><ele>108.2</ele><time>2026-04-11T08:20:16.489Z</time></trkpt><trkpt lat="43.446238" lon="11.1327713"><ele>108.0</ele><time>2026-04-11T08:20:18.56Z</time></trkpt><trkpt lat="43.4461754" lon="11.1328919"><ele>108.0</ele><time>2026-04-11T08:20:20.485Z</time></trkpt><trkpt lat="43.4461146" lon="11.1330156"><ele>108.00000000000001</ele><time>2026-04-11T08:20:22.477Z</time></trkpt><trkpt lat="43.4460561" lon="11.1331429"><ele>108.00000000000001</ele><time>2026-04-11T08:20:24.484Z</time></trkpt><trkpt lat="43.4459975" lon="11.1332738"><ele>108.0</ele><time>2026-04-11T08:20:26.492Z</time></trkpt><trkpt lat="43.4459438" lon="11.1334169"><ele>108.0</ele><time>2026-04-11T08:20:28.496Z</time></trkpt><trkpt lat="43.4458871" lon="11.1335488"><ele>108.2</ele><time>2026-04-11T08:20:30.488Z</time></trkpt><trkpt lat="43.445832" lon="11.1336796"><ele>108.4</ele><time>2026-04-11T08:20:32.471Z</time></trkpt><trkpt lat="43.4457735" lon="11.1338096"><ele>108.60000000000001</ele><time>2026-04-11T08:20:34.504Z</time></trkpt><trkpt lat="43.4457118" lon="11.1339457"><ele>108.80000000000001</ele><time>2026-04-11T08:20:36.489Z</time></trkpt><trkpt lat="43.4456488" lon="11.1340724"><ele>109.0</ele><time>2026-04-11T08:20:38.496Z</time></trkpt><trkpt lat="43.4455799" lon="11.134215"><ele>109.0</ele><time>2026-04-11T08:20:40.489Z</time></trkpt><trkpt lat="43.4455122" lon="11.1343491"><ele>109.0</ele><time>2026-04-11T08:20:42.506Z</time></trkpt><trkpt lat="43.4454414" lon="11.1344704"><ele>109.0</ele><time>2026-04-11T08:20:44.491Z</time></trkpt><trkpt lat="43.44537" lon="11.1345742"><ele>109.0</ele><time>2026-04-11T08:20:46.498Z</time></trkpt><trkpt lat="43.4453017" lon="11.1346918"><ele>109.0</ele><time>2026-04-11T08:20:48.504Z</time></trkpt><trkpt lat="43.4452391" lon="11.1348102"><ele>108.6</ele><time>2026-04-11T08:20:50.494Z</time></trkpt><trkpt lat="43.4451854" lon="11.13493"><ele>108.2</ele><time>2026-04-11T08:20:52.498Z</time></trkpt><trkpt lat="43.4451159" lon="11.1350424"><ele>107.79999999999998</ele><time>2026-04-11T08:20:54.49Z</time></trkpt><trkpt lat="43.4450439" lon="11.1351539"><ele>107.39999999999999</ele><time>2026-04-11T08:20:56.501Z</time></trkpt><trkpt lat="43.4449783" lon="11.1352633"><ele>107.0</ele><time>2026-04-11T08:20:58.501Z</time></trkpt><trkpt lat="43.4449149" lon="11.1353745"><ele>107.0</ele><time>2026-04-11T08:21:00.496Z</time></trkpt><trkpt lat="43.4448507" lon="11.1354789"><ele>106.99999999999999</ele><time>2026-04-11T08:21:02.474Z</time></trkpt><trkpt lat="43.4447882" lon="11.1355808"><ele>106.99999999999999</ele><time>2026-04-11T08:21:04.493Z</time></trkpt><trkpt lat="43.4447259" lon="11.1356843"><ele>107.0</ele><time>2026-04-11T08:21:06.499Z</time></trkpt><trkpt lat="43.4446605" lon="11.1357809"><ele>107.0</ele><time>2026-04-11T08:21:08.486Z</time></trkpt><trkpt lat="43.4445841" lon="11.13587"><ele>107.39999999999999</ele><time>2026-04-11T08:21:10.499Z</time></trkpt><trkpt lat="43.4445193" lon="11.1359909"><ele>107.79999999999998</ele><time>2026-04-11T08:21:12.478Z</time></trkpt><trkpt lat="43.444457" lon="11.1361225"><ele>108.2</ele><time>2026-04-11T08:21:14.498Z</time></trkpt><trkpt lat="43.444395" lon="11.1362421"><ele>108.6</ele><time>2026-04-11T08:21:16.502Z</time></trkpt><trkpt lat="43.4443265" lon="11.1363459"><ele>109.0</ele><time>2026-04-11T08:21:18.485Z</time></trkpt><trkpt lat="43.4442651" lon="11.1364485"><ele>108.80000000000001</ele><time>2026-04-11T08:21:20.507Z</time></trkpt><trkpt lat="43.4441939" lon="11.1365676"><ele>108.60000000000001</ele><time>2026-04-11T08:21:22.493Z</time></trkpt><trkpt lat="43.4441288" lon="11.1366762"><ele>108.4</ele><time>2026-04-11T08:21:24.506Z</time></trkpt><trkpt lat="43.4440674" lon="11.1367831"><ele>108.2</ele><time>2026-04-11T08:21:26.571Z</time></trkpt><trkpt lat="43.4440088" lon="11.136889"><ele>108.0</ele><time>2026-04-11T08:21:28.503Z</time></trkpt><trkpt lat="43.4439465" lon="11.136996"><ele>108.0</ele><time>2026-04-11T08:21:30.494Z</time></trkpt><trkpt lat="43.4438843" lon="11.1370968"><ele>108.00000000000001</ele><time>2026-04-11T08:21:32.498Z</time></trkpt><trkpt lat="43.443821" lon="11.1372021"><ele>108.00000000000001</ele><time>2026-04-11T08:21:34.488Z</time></trkpt><trkpt lat="43.4437605" lon="11.1373068"><ele>108.0</ele><time>2026-04-11T08:21:36.5Z</time></trkpt><trkpt lat="43.4436971" lon="11.1374088"><ele>108.0</ele><time>2026-04-11T08:21:38.511Z</time></trkpt><trkpt lat="43.4436368" lon="11.1375125"><ele>108.60000000000001</ele><time>2026-04-11T08:21:40.497Z</time></trkpt><trkpt lat="43.4435759" lon="11.1376167"><ele>109.20000000000002</ele><time>2026-04-11T08:21:42.495Z</time></trkpt><trkpt lat="43.4435143" lon="11.1377246"><ele>109.8</ele><time>2026-04-11T08:21:44.508Z</time></trkpt><trkpt lat="43.4434528" lon="11.1378302"><ele>110.4</ele><time>2026-04-11T08:21:46.484Z</time></trkpt><trkpt lat="43.443388" lon="11.137938"><ele>111.0</ele><time>2026-04-11T08:21:48.562Z</time></trkpt><trkpt lat="43.4433254" lon="11.1380499"><ele>111.0</ele><time>2026-04-11T08:21:50.513Z</time></trkpt><trkpt lat="43.4432621" lon="11.1381601"><ele>111.0</ele><time>2026-04-11T08:21:52.501Z</time></trkpt><trkpt lat="43.4431999" lon="11.1382695"><ele>111.0</ele><time>2026-04-11T08:21:54.48Z</time></trkpt><trkpt lat="43.4431385" lon="11.1383797"><ele>111.0</ele><time>2026-04-11T08:21:56.502Z</time></trkpt><trkpt lat="43.4430677" lon="11.1384731"><ele>111.0</ele><time>2026-04-11T08:21:58.489Z</time></trkpt><trkpt lat="43.443004" lon="11.1385904"><ele>110.6</ele><time>2026-04-11T08:22:00.497Z</time></trkpt><trkpt lat="43.4429331" lon="11.1387184"><ele>110.19999999999999</ele><time>2026-04-11T08:22:02.556Z</time></trkpt><trkpt lat="43.4428285" lon="11.1388163"><ele>109.80000000000001</ele><time>2026-04-11T08:22:04.486Z</time></trkpt><trkpt lat="43.4427822" lon="11.1389289"><ele>109.4</ele><time>2026-04-11T08:22:06.491Z</time></trkpt><trkpt lat="43.4427211" lon="11.1390404"><ele>109.0</ele><time>2026-04-11T08:22:08.494Z</time></trkpt><trkpt lat="43.4426542" lon="11.1391468"><ele>109.80000000000001</ele><time>2026-04-11T08:22:10.505Z</time></trkpt><trkpt lat="43.4425908" lon="11.1392477"><ele>110.60000000000001</ele><time>2026-04-11T08:22:12.51Z</time></trkpt><trkpt lat="43.4425201" lon="11.1393418"><ele>111.4</ele><time>2026-04-11T08:22:14.499Z</time></trkpt><trkpt lat="43.4424503" lon="11.1394238"><ele>112.2</ele><time>2026-04-11T08:22:16.493Z</time></trkpt><trkpt lat="43.4423785" lon="11.1394952"><ele>113.0</ele><time>2026-04-11T08:22:18.494Z</time></trkpt><trkpt lat="43.442299" lon="11.1395628"><ele>113.0</ele><time>2026-04-11T08:22:20.487Z</time></trkpt><trkpt lat="43.4422211" lon="11.1396386"><ele>113.00000000000001</ele><time>2026-04-11T08:22:22.562Z</time></trkpt><trkpt lat="43.4421313" lon="11.1397187"><ele>113.00000000000001</ele><time>2026-04-11T08:22:24.492Z</time></trkpt><trkpt lat="43.4420326" lon="11.1397774"><ele>113.0</ele><time>2026-04-11T08:22:26.498Z</time></trkpt><trkpt lat="43.4419327" lon="11.1398392"><ele>113.0</ele><time>2026-04-11T08:22:28.497Z</time></trkpt><trkpt lat="43.4418252" lon="11.1398721"><ele>112.75</ele><time>2026-04-11T08:22:30.495Z</time></trkpt><trkpt lat="43.4417203" lon="11.1399095"><ele>112.5</ele><time>2026-04-11T08:22:32.566Z</time></trkpt><trkpt lat="43.4415374" lon="11.13997"><ele>112.25</ele><time>2026-04-11T08:22:36.467Z</time></trkpt><trkpt lat="43.4414695" lon="11.1399875"><ele>112.0</ele><time>2026-04-11T08:22:37.473Z</time></trkpt><trkpt lat="43.4413553" lon="11.1400144"><ele>112.19999999999999</ele><time>2026-04-11T08:22:39.498Z</time></trkpt><trkpt lat="43.4412673" lon="11.1400735"><ele>112.39999999999999</ele><time>2026-04-11T08:22:41.504Z</time></trkpt><trkpt lat="43.4411656" lon="11.1401144"><ele>112.60000000000001</ele><time>2026-04-11T08:22:43.563Z</time></trkpt><trkpt lat="43.4410686" lon="11.1401675"><ele>112.80000000000001</ele><time>2026-04-11T08:22:45.505Z</time></trkpt><trkpt lat="43.4409898" lon="11.1402273"><ele>113.0</ele><time>2026-04-11T08:22:47.5Z</time></trkpt><trkpt lat="43.4409063" lon="11.1402932"><ele>113.0</ele><time>2026-04-11T08:22:49.51Z</time></trkpt><trkpt lat="43.4408293" lon="11.1403543"><ele>113.00000000000001</ele><time>2026-04-11T08:22:51.492Z</time></trkpt><trkpt lat="43.4407479" lon="11.1404224"><ele>113.00000000000001</ele><time>2026-04-11T08:22:53.488Z</time></trkpt><trkpt lat="43.4406785" lon="11.1404916"><ele>113.0</ele><time>2026-04-11T08:22:55.495Z</time></trkpt><trkpt lat="43.4406085" lon="11.1405682"><ele>113.0</ele><time>2026-04-11T08:22:57.491Z</time></trkpt><trkpt lat="43.440539" lon="11.1406478"><ele>113.4</ele><time>2026-04-11T08:22:59.473Z</time></trkpt><trkpt lat="43.4404758" lon="11.1407333"><ele>113.80000000000001</ele><time>2026-04-11T08:23:01.487Z</time></trkpt><trkpt lat="43.4404196" lon="11.1408209"><ele>114.2</ele><time>2026-04-11T08:23:03.556Z</time></trkpt><trkpt lat="43.4403539" lon="11.140904"><ele>114.6</ele><time>2026-04-11T08:23:05.504Z</time></trkpt><trkpt lat="43.440294" lon="11.141011"><ele>115.0</ele><time>2026-04-11T08:23:07.563Z</time></trkpt><trkpt lat="43.4402383" lon="11.1411075"><ele>115.00000000000001</ele><time>2026-04-11T08:23:09.485Z</time></trkpt><trkpt lat="43.4401907" lon="11.141208"><ele>115.0</ele><time>2026-04-11T08:23:11.5Z</time></trkpt><trkpt lat="43.4401512" lon="11.1413002"><ele>115.0</ele><time>2026-04-11T08:23:13.566Z</time></trkpt><trkpt lat="43.4401014" lon="11.1413749"><ele>115.0</ele><time>2026-04-11T08:23:15.495Z</time></trkpt><trkpt lat="43.4400418" lon="11.1414893"><ele>115.00000000000001</ele><time>2026-04-11T08:23:17.571Z</time></trkpt><trkpt lat="43.4399947" lon="11.1416019"><ele>115.0</ele><time>2026-04-11T08:23:19.48Z</time></trkpt><trkpt lat="43.4399354" lon="11.1417141"><ele>114.6</ele><time>2026-04-11T08:23:21.502Z</time></trkpt><trkpt lat="43.439867" lon="11.1418169"><ele>114.2</ele><time>2026-04-11T08:23:23.489Z</time></trkpt><trkpt lat="43.4398016" lon="11.141921"><ele>113.80000000000001</ele><time>2026-04-11T08:23:25.477Z</time></trkpt><trkpt lat="43.4397388" lon="11.14203"><ele>113.4</ele><time>2026-04-11T08:23:27.563Z</time></trkpt><trkpt lat="43.4396727" lon="11.1421293"><ele>113.0</ele><time>2026-04-11T08:23:29.495Z</time></trkpt><trkpt lat="43.4395994" lon="11.1422232"><ele>113.0</ele><time>2026-04-11T08:23:31.51Z</time></trkpt><trkpt lat="43.4395348" lon="11.1423189"><ele>113.00000000000001</ele><time>2026-04-11T08:23:33.498Z</time></trkpt><trkpt lat="43.4394654" lon="11.1424101"><ele>113.00000000000001</ele><time>2026-04-11T08:23:35.476Z</time></trkpt><trkpt lat="43.4393911" lon="11.1425023"><ele>113.0</ele><time>2026-04-11T08:23:37.563Z</time></trkpt><trkpt lat="43.4393289" lon="11.1425894"><ele>113.0</ele><time>2026-04-11T08:23:39.486Z</time></trkpt><trkpt lat="43.4392755" lon="11.1426758"><ele>114.2</ele><time>2026-04-11T08:23:41.495Z</time></trkpt><trkpt lat="43.4391971" lon="11.1427476"><ele>115.4</ele><time>2026-04-11T08:23:43.563Z</time></trkpt><trkpt lat="43.4391041" lon="11.1428213"><ele>116.60000000000001</ele><time>2026-04-11T08:23:45.5Z</time></trkpt><trkpt lat="43.4390283" lon="11.1429283"><ele>117.80000000000001</ele><time>2026-04-11T08:23:47.557Z</time></trkpt><trkpt lat="43.4389434" lon="11.143021"><ele>119.0</ele><time>2026-04-11T08:23:49.472Z</time></trkpt><trkpt lat="43.438855" lon="11.1430979"><ele>118.6</ele><time>2026-04-11T08:23:51.485Z</time></trkpt><trkpt lat="43.4387513" lon="11.1431691"><ele>118.2</ele><time>2026-04-11T08:23:53.557Z</time></trkpt><trkpt lat="43.4386483" lon="11.143216"><ele>117.79999999999998</ele><time>2026-04-11T08:23:55.492Z</time></trkpt><trkpt lat="43.4385417" lon="11.143255"><ele>117.39999999999999</ele><time>2026-04-11T08:23:57.559Z</time></trkpt><trkpt lat="43.4384383" lon="11.1432815"><ele>117.0</ele><time>2026-04-11T08:23:59.475Z</time></trkpt><trkpt lat="43.4383212" lon="11.1433071"><ele>117.0</ele><time>2026-04-11T08:24:01.5Z</time></trkpt><trkpt lat="43.4382041" lon="11.1433182"><ele>116.99999999999999</ele><time>2026-04-11T08:24:03.488Z</time></trkpt><trkpt lat="43.4380946" lon="11.1433221"><ele>116.99999999999999</ele><time>2026-04-11T08:24:05.493Z</time></trkpt><trkpt lat="43.4379893" lon="11.143312"><ele>117.0</ele><time>2026-04-11T08:24:07.499Z</time></trkpt><trkpt lat="43.4378864" lon="11.1432853"><ele>117.0</ele><time>2026-04-11T08:24:09.503Z</time></trkpt><trkpt lat="43.4377948" lon="11.1432512"><ele>116.19999999999999</ele><time>2026-04-11T08:24:11.495Z</time></trkpt><trkpt lat="43.43771" lon="11.1432059"><ele>115.39999999999999</ele><time>2026-04-11T08:24:13.484Z</time></trkpt><trkpt lat="43.4375608" lon="11.1431128"><ele>114.60000000000001</ele><time>2026-04-11T08:24:17.475Z</time></trkpt><trkpt lat="43.4374918" lon="11.1430598"><ele>113.80000000000001</ele><time>2026-04-11T08:24:19.482Z</time></trkpt><trkpt lat="43.4374203" lon="11.1429869"><ele>113.0</ele><time>2026-04-11T08:24:21.509Z</time></trkpt><trkpt lat="43.4373496" lon="11.1429047"><ele>113.0</ele><time>2026-04-11T08:24:23.502Z</time></trkpt><trkpt lat="43.4372749" lon="11.1428295"><ele>113.00000000000001</ele><time>2026-04-11T08:24:25.484Z</time></trkpt><trkpt lat="43.4371996" lon="11.1427488"><ele>113.00000000000001</ele><time>2026-04-11T08:24:27.482Z</time></trkpt><trkpt lat="43.4371247" lon="11.1426652"><ele>113.0</ele><time>2026-04-11T08:24:29.491Z</time></trkpt><trkpt lat="43.4370455" lon="11.1425901"><ele>113.0</ele><time>2026-04-11T08:24:31.49Z</time></trkpt><trkpt lat="43.4369654" lon="11.1425056"><ele>113.0</ele><time>2026-04-11T08:24:33.485Z</time></trkpt><trkpt lat="43.4368862" lon="11.142425"><ele>113.00000000000001</ele><time>2026-04-11T08:24:35.49Z</time></trkpt><trkpt lat="43.4368042" lon="11.1423401"><ele>113.00000000000001</ele><time>2026-04-11T08:24:37.479Z</time></trkpt><trkpt lat="43.4367289" lon="11.1422584"><ele>113.0</ele><time>2026-04-11T08:24:39.484Z</time></trkpt><trkpt lat="43.4366512" lon="11.1421777"><ele>113.0</ele><time>2026-04-11T08:24:41.489Z</time></trkpt><trkpt lat="43.4365749" lon="11.1421022"><ele>114.2</ele><time>2026-04-11T08:24:43.504Z</time></trkpt><trkpt lat="43.4365008" lon="11.1420247"><ele>115.4</ele><time>2026-04-11T08:24:45.497Z</time></trkpt><trkpt lat="43.4364253" lon="11.1419529"><ele>116.60000000000001</ele><time>2026-04-11T08:24:47.477Z</time></trkpt><trkpt lat="43.4363401" lon="11.141885"><ele>117.80000000000001</ele><time>2026-04-11T08:24:49.495Z</time></trkpt><trkpt lat="43.4362575" lon="11.1418151"><ele>119.0</ele><time>2026-04-11T08:24:51.47Z</time></trkpt><trkpt lat="43.4361786" lon="11.1417531"><ele>119.0</ele><time>2026-04-11T08:24:53.49Z</time></trkpt><trkpt lat="43.4360934" lon="11.1416888"><ele>119.0</ele><time>2026-04-11T08:24:55.492Z</time></trkpt><trkpt lat="43.4360063" lon="11.1416377"><ele>119.0</ele><time>2026-04-11T08:24:57.483Z</time></trkpt><trkpt lat="43.4359112" lon="11.1416122"><ele>119.0</ele><time>2026-04-11T08:24:59.486Z</time></trkpt><trkpt lat="43.4358202" lon="11.141557"><ele>119.0</ele><time>2026-04-11T08:25:01.503Z</time></trkpt><trkpt lat="43.4357287" lon="11.1414954"><ele>121.6</ele><time>2026-04-11T08:25:03.486Z</time></trkpt><trkpt lat="43.4356247" lon="11.1414307"><ele>124.2</ele><time>2026-04-11T08:25:05.496Z</time></trkpt><trkpt lat="43.4355216" lon="11.141367"><ele>126.79999999999998</ele><time>2026-04-11T08:25:07.49Z</time></trkpt><trkpt lat="43.4354163" lon="11.1413158"><ele>129.4</ele><time>2026-04-11T08:25:09.482Z</time></trkpt><trkpt lat="43.4353158" lon="11.1412671"><ele>132.0</ele><time>2026-04-11T08:25:11.48Z</time></trkpt><trkpt lat="43.4352198" lon="11.1412228"><ele>132.0</ele><time>2026-04-11T08:25:13.483Z</time></trkpt><trkpt lat="43.435129" lon="11.1411819"><ele>132.0</ele><time>2026-04-11T08:25:15.477Z</time></trkpt><trkpt lat="43.4350318" lon="11.141131"><ele>132.0</ele><time>2026-04-11T08:25:17.502Z</time></trkpt><trkpt lat="43.4349384" lon="11.1410776"><ele>132.0</ele><time>2026-04-11T08:25:19.499Z</time></trkpt><trkpt lat="43.4348497" lon="11.1410257"><ele>132.0</ele><time>2026-04-11T08:25:21.483Z</time></trkpt><trkpt lat="43.434765" lon="11.1409712"><ele>132.0</ele><time>2026-04-11T08:25:23.49Z</time></trkpt><trkpt lat="43.4346809" lon="11.1409134"><ele>132.0</ele><time>2026-04-11T08:25:25.489Z</time></trkpt><trkpt lat="43.4345988" lon="11.1408585"><ele>132.0</ele><time>2026-04-11T08:25:27.483Z</time></trkpt><trkpt lat="43.4345235" lon="11.1407913"><ele>132.0</ele><time>2026-04-11T08:25:29.493Z</time></trkpt><trkpt lat="43.4344484" lon="11.1407296"><ele>132.0</ele><time>2026-04-11T08:25:31.487Z</time></trkpt><trkpt lat="43.4343881" lon="11.1406499"><ele>132.0</ele><time>2026-04-11T08:25:33.485Z</time></trkpt><trkpt lat="43.4343243" lon="11.1405848"><ele>133.0</ele><time>2026-04-11T08:25:35.484Z</time></trkpt><trkpt lat="43.4342515" lon="11.1405184"><ele>134.0</ele><time>2026-04-11T08:25:37.487Z</time></trkpt><trkpt lat="43.4341768" lon="11.1404551"><ele>135.0</ele><time>2026-04-11T08:25:39.476Z</time></trkpt><trkpt lat="43.4341049" lon="11.140399"><ele>136.0</ele><time>2026-04-11T08:25:41.483Z</time></trkpt><trkpt lat="43.4340374" lon="11.1403354"><ele>137.0</ele><time>2026-04-11T08:25:43.496Z</time></trkpt><trkpt lat="43.4339631" lon="11.1402925"><ele>138.0</ele><time>2026-04-11T08:25:45.493Z</time></trkpt><trkpt lat="43.4338847" lon="11.1402353"><ele>138.0</ele><time>2026-04-11T08:25:47.485Z</time></trkpt><trkpt lat="43.4338117" lon="11.140173"><ele>138.0</ele><time>2026-04-11T08:25:49.483Z</time></trkpt><trkpt lat="43.4337429" lon="11.1401307"><ele>138.0</ele><time>2026-04-11T08:25:51.485Z</time></trkpt><trkpt lat="43.4336767" lon="11.1400711"><ele>138.0</ele><time>2026-04-11T08:25:53.493Z</time></trkpt><trkpt lat="43.4336275" lon="11.1400103"><ele>138.0</ele><time>2026-04-11T08:25:55.477Z</time></trkpt><trkpt lat="43.4335512" lon="11.1399506"><ele>138.0</ele><time>2026-04-11T08:25:58.483Z</time></trkpt><trkpt lat="43.4334897" lon="11.1399112"><ele>138.71428571428572</ele><time>2026-04-11T08:26:00.486Z</time></trkpt><trkpt lat="43.4334375" lon="11.1398464"><ele>139.42857142857144</ele><time>2026-04-11T08:26:02.486Z</time></trkpt><trkpt lat="43.4333767" lon="11.1398015"><ele>140.14285714285714</ele><time>2026-04-11T08:26:04.482Z</time></trkpt><trkpt lat="43.4333159" lon="11.1397698"><ele>140.85714285714286</ele><time>2026-04-11T08:26:06.478Z</time></trkpt><trkpt lat="43.4332391" lon="11.1396985"><ele>141.57142857142856</ele><time>2026-04-11T08:26:09.475Z</time></trkpt><trkpt lat="43.4331718" lon="11.1396585"><ele>142.28571428571428</ele><time>2026-04-11T08:26:11.488Z</time></trkpt><trkpt lat="43.4331137" lon="11.1396198"><ele>143.0</ele><time>2026-04-11T08:26:13.508Z</time></trkpt><trkpt lat="43.4330325" lon="11.1396558"><ele>143.0</ele><time>2026-04-11T08:26:16.484Z</time></trkpt><trkpt lat="43.4330149" lon="11.1397631"><ele>143.0</ele><time>2026-04-11T08:26:18.481Z</time></trkpt><trkpt lat="43.4330059" lon="11.1398757"><ele>143.0</ele><time>2026-04-11T08:26:20.493Z</time></trkpt><trkpt lat="43.4329689" lon="11.1399834"><ele>143.0</ele><time>2026-04-11T08:26:22.494Z</time></trkpt><trkpt lat="43.4329336" lon="11.1400904"><ele>143.0</ele><time>2026-04-11T08:26:24.493Z</time></trkpt><trkpt lat="43.4328937" lon="11.1402017"><ele>143.0</ele><time>2026-04-11T08:26:26.483Z</time></trkpt><trkpt lat="43.4328548" lon="11.1403191"><ele>140.5</ele><time>2026-04-11T08:26:28.486Z</time></trkpt><trkpt lat="43.4328175" lon="11.1404351"><ele>138.0</ele><time>2026-04-11T08:26:30.485Z</time></trkpt><trkpt lat="43.4327897" lon="11.1405577"><ele>135.5</ele><time>2026-04-11T08:26:32.485Z</time></trkpt><trkpt lat="43.4327898" lon="11.1406731"><ele>133.0</ele><time>2026-04-11T08:26:34.484Z</time></trkpt><trkpt lat="43.4328151" lon="11.14078"><ele>130.5</ele><time>2026-04-11T08:26:36.494Z</time></trkpt><trkpt lat="43.4328639" lon="11.1408871"><ele>128.0</ele><time>2026-04-11T08:26:38.479Z</time></trkpt><trkpt lat="43.4329302" lon="11.1409931"><ele>126.60000000000001</ele><time>2026-04-11T08:26:40.479Z</time></trkpt><trkpt lat="43.4329994" lon="11.1410825"><ele>125.20000000000002</ele><time>2026-04-11T08:26:42.495Z</time></trkpt><trkpt lat="43.4330636" lon="11.1411733"><ele>123.8</ele><time>2026-04-11T08:26:44.494Z</time></trkpt><trkpt lat="43.4331204" lon="11.1412712"><ele>122.4</ele><time>2026-04-11T08:26:46.498Z</time></trkpt><trkpt lat="43.433183" lon="11.1413606"><ele>121.0</ele><time>2026-04-11T08:26:48.483Z</time></trkpt><trkpt lat="43.4332517" lon="11.1414549"><ele>121.0</ele><time>2026-04-11T08:26:50.488Z</time></trkpt><trkpt lat="43.4333147" lon="11.141548"><ele>121.0</ele><time>2026-04-11T08:26:52.49Z</time></trkpt><trkpt lat="43.4333828" lon="11.1416414"><ele>121.0</ele><time>2026-04-11T08:26:54.479Z</time></trkpt><trkpt lat="43.4334408" lon="11.141731"><ele>121.0</ele><time>2026-04-11T08:26:56.496Z</time></trkpt><trkpt lat="43.4335001" lon="11.1418274"><ele>121.0</ele><time>2026-04-11T08:26:58.476Z</time></trkpt><trkpt lat="43.4335588" lon="11.1419167"><ele>121.83333333333334</ele><time>2026-04-11T08:27:00.481Z</time></trkpt><trkpt lat="43.4336085" lon="11.1420141"><ele>122.66666666666667</ele><time>2026-04-11T08:27:02.487Z</time></trkpt><trkpt lat="43.4336599" lon="11.1421021"><ele>123.5</ele><time>2026-04-11T08:27:04.486Z</time></trkpt><trkpt lat="43.4337012" lon="11.1421819"><ele>124.33333333333334</ele><time>2026-04-11T08:27:06.494Z</time></trkpt><trkpt lat="43.4337066" lon="11.1423067"><ele>125.16666666666667</ele><time>2026-04-11T08:27:09.493Z</time></trkpt><trkpt lat="43.4336697" lon="11.1424017"><ele>126.0</ele><time>2026-04-11T08:27:13.48Z</time></trkpt><trkpt lat="43.4336202" lon="11.1424558"><ele>126.0</ele><time>2026-04-11T08:27:17.489Z</time></trkpt><trkpt lat="43.4335539" lon="11.1424598"><ele>126.0</ele><time>2026-04-11T08:27:22.488Z</time></trkpt><trkpt lat="43.4334794" lon="11.1424371"><ele>126.0</ele><time>2026-04-11T08:27:27.493Z</time></trkpt><trkpt lat="43.4334062" lon="11.1424125"><ele>126.0</ele><time>2026-04-11T08:27:32.502Z</time></trkpt><trkpt lat="43.4333401" lon="11.1423669"><ele>126.0</ele><time>2026-04-11T08:27:37.479Z</time></trkpt><trkpt lat="43.4332835" lon="11.1423242"><ele>126.0</ele><time>2026-04-11T08:27:42.476Z</time></trkpt><trkpt lat="43.4332126" lon="11.1422724"><ele>126.0</ele><time>2026-04-11T08:27:47.486Z</time></trkpt><trkpt lat="43.4331461" lon="11.1422144"><ele>126.0</ele><time>2026-04-11T08:27:52.483Z</time></trkpt><trkpt lat="43.4330853" lon="11.1421454"><ele>126.0</ele><time>2026-04-11T08:27:57.474Z</time></trkpt><trkpt lat="43.4330318" lon="11.1420746"><ele>126.0</ele><time>2026-04-11T08:28:02.48Z</time></trkpt><trkpt lat="43.4329787" lon="11.1420076"><ele>126.0</ele><time>2026-04-11T08:28:08.48Z</time></trkpt><trkpt lat="43.4329352" lon="11.1419329"><ele>126.0</ele><time>2026-04-11T08:28:14.491Z</time></trkpt><trkpt lat="43.432893" lon="11.1418679"><ele>126.0</ele><time>2026-04-11T08:28:18.486Z</time></trkpt><trkpt lat="43.4328363" lon="11.1417916"><ele>126.0</ele><time>2026-04-11T08:28:22.486Z</time></trkpt><trkpt lat="43.4327736" lon="11.1417247"><ele>126.28571428571428</ele><time>2026-04-11T08:28:27.468Z</time></trkpt><trkpt lat="43.4326935" lon="11.141687"><ele>126.57142857142857</ele><time>2026-04-11T08:28:31.485Z</time></trkpt><trkpt lat="43.4326257" lon="11.141653"><ele>126.85714285714286</ele><time>2026-04-11T08:28:35.473Z</time></trkpt><trkpt lat="43.4325568" lon="11.1416167"><ele>127.14285714285714</ele><time>2026-04-11T08:28:40.47Z</time></trkpt><trkpt lat="43.4324873" lon="11.141585"><ele>127.42857142857142</ele><time>2026-04-11T08:28:45.489Z</time></trkpt><trkpt lat="43.4324206" lon="11.1415606"><ele>127.71428571428571</ele><time>2026-04-11T08:28:49.477Z</time></trkpt><trkpt lat="43.4323497" lon="11.1415457"><ele>128.0</ele><time>2026-04-11T08:28:53.479Z</time></trkpt><trkpt lat="43.4322767" lon="11.1415221"><ele>128.0</ele><time>2026-04-11T08:28:57.489Z</time></trkpt><trkpt lat="43.4322084" lon="11.1414865"><ele>127.99999999999999</ele><time>2026-04-11T08:29:01.484Z</time></trkpt><trkpt lat="43.4321501" lon="11.1414413"><ele>128.0</ele><time>2026-04-11T08:29:05.484Z</time></trkpt><trkpt lat="43.4320936" lon="11.1413958"><ele>128.0</ele><time>2026-04-11T08:29:09.486Z</time></trkpt><trkpt lat="43.4320412" lon="11.1413391"><ele>127.99999999999999</ele><time>2026-04-11T08:29:13.49Z</time></trkpt><trkpt lat="43.4319935" lon="11.1412641"><ele>128.0</ele><time>2026-04-11T08:29:17.491Z</time></trkpt><trkpt lat="43.431947" lon="11.1411869"><ele>128.0</ele><time>2026-04-11T08:29:22.497Z</time></trkpt><trkpt lat="43.4319036" lon="11.1411042"><ele>130.57142857142856</ele><time>2026-04-11T08:29:27.499Z</time></trkpt><trkpt lat="43.4318504" lon="11.1410356"><ele>133.14285714285714</ele><time>2026-04-11T08:29:32.486Z</time></trkpt><trkpt lat="43.4318069" lon="11.1409727"><ele>135.71428571428572</ele><time>2026-04-11T08:29:36.492Z</time></trkpt><trkpt lat="43.4317536" lon="11.1409243"><ele>138.28571428571428</ele><time>2026-04-11T08:29:40.489Z</time></trkpt><trkpt lat="43.4316966" lon="11.1408874"><ele>140.85714285714286</ele><time>2026-04-11T08:29:44.484Z</time></trkpt><trkpt lat="43.431627" lon="11.140854"><ele>143.42857142857142</ele><time>2026-04-11T08:29:48.484Z</time></trkpt><trkpt lat="43.4315621" lon="11.1408299"><ele>146.0</ele><time>2026-04-11T08:29:52.494Z</time></trkpt><trkpt lat="43.4314998" lon="11.140801"><ele>146.0</ele><time>2026-04-11T08:29:56.482Z</time></trkpt><trkpt lat="43.4314218" lon="11.1407778"><ele>146.0</ele><time>2026-04-11T08:30:01.473Z</time></trkpt><trkpt lat="43.4313501" lon="11.1407701"><ele>146.0</ele><time>2026-04-11T08:30:05.49Z</time></trkpt><trkpt lat="43.4312819" lon="11.1407464"><ele>146.0</ele><time>2026-04-11T08:30:09.488Z</time></trkpt><trkpt lat="43.4312174" lon="11.140729"><ele>146.0</ele><time>2026-04-11T08:30:13.483Z</time></trkpt><trkpt lat="43.4311515" lon="11.1407204"><ele>146.0</ele><time>2026-04-11T08:30:17.49Z</time></trkpt><trkpt lat="43.4310867" lon="11.1407015"><ele>146.0</ele><time>2026-04-11T08:30:21.506Z</time></trkpt><trkpt lat="43.4310191" lon="11.1406895"><ele>147.42857142857142</ele><time>2026-04-11T08:30:25.489Z</time></trkpt><trkpt lat="43.4309417" lon="11.1406831"><ele>148.85714285714286</ele><time>2026-04-11T08:30:30.475Z</time></trkpt><trkpt lat="43.4308769" lon="11.1406763"><ele>150.28571428571428</ele><time>2026-04-11T08:30:34.488Z</time></trkpt><trkpt lat="43.4308145" lon="11.1406583"><ele>151.71428571428572</ele><time>2026-04-11T08:30:38.484Z</time></trkpt><trkpt lat="43.430748" lon="11.1406393"><ele>153.14285714285714</ele><time>2026-04-11T08:30:42.495Z</time></trkpt><trkpt lat="43.4306781" lon="11.1406173"><ele>154.57142857142858</ele><time>2026-04-11T08:30:46.484Z</time></trkpt><trkpt lat="43.4306046" lon="11.1405909"><ele>156.0</ele><time>2026-04-11T08:30:50.508Z</time></trkpt><trkpt lat="43.4305433" lon="11.1405658"><ele>157.5</ele><time>2026-04-11T08:30:54.494Z</time></trkpt><trkpt lat="43.4304741" lon="11.1405263"><ele>159.0</ele><time>2026-04-11T08:30:58.489Z</time></trkpt><trkpt lat="43.4304064" lon="11.1404851"><ele>160.5</ele><time>2026-04-11T08:31:02.495Z</time></trkpt><trkpt lat="43.4303274" lon="11.1404525"><ele>162.0</ele><time>2026-04-11T08:31:06.488Z</time></trkpt><trkpt lat="43.4302544" lon="11.1404259"><ele>163.5</ele><time>2026-04-11T08:31:09.477Z</time></trkpt><trkpt lat="43.4301653" lon="11.140379"><ele>165.0</ele><time>2026-04-11T08:31:12.503Z</time></trkpt><trkpt lat="43.4301026" lon="11.1403443"><ele>165.00000000000003</ele><time>2026-04-11T08:31:14.486Z</time></trkpt><trkpt lat="43.4300374" lon="11.1403098"><ele>165.0</ele><time>2026-04-11T08:31:16.483Z</time></trkpt><trkpt lat="43.4299727" lon="11.1402761"><ele>165.0</ele><time>2026-04-11T08:31:18.5Z</time></trkpt><trkpt lat="43.4299078" lon="11.1402418"><ele>165.0</ele><time>2026-04-11T08:31:20.49Z</time></trkpt><trkpt lat="43.4298436" lon="11.1402013"><ele>165.0</ele><time>2026-04-11T08:31:22.495Z</time></trkpt><trkpt lat="43.429775" lon="11.1401663"><ele>165.00000000000003</ele><time>2026-04-11T08:31:24.484Z</time></trkpt><trkpt lat="43.4297131" lon="11.140121"><ele>165.0</ele><time>2026-04-11T08:31:26.494Z</time></trkpt><trkpt lat="43.4296495" lon="11.1400684"><ele>165.33333333333334</ele><time>2026-04-11T08:31:28.493Z</time></trkpt><trkpt lat="43.4295825" lon="11.1400093"><ele>165.66666666666666</ele><time>2026-04-11T08:31:30.485Z</time></trkpt><trkpt lat="43.4295235" lon="11.1399532"><ele>166.0</ele><time>2026-04-11T08:31:32.491Z</time></trkpt><trkpt lat="43.429463" lon="11.1398984"><ele>166.33333333333331</ele><time>2026-04-11T08:31:34.506Z</time></trkpt><trkpt lat="43.429397" lon="11.1398433"><ele>166.66666666666666</ele><time>2026-04-11T08:31:36.495Z</time></trkpt><trkpt lat="43.4293321" lon="11.13978"><ele>167.0</ele><time>2026-04-11T08:31:38.5Z</time></trkpt><trkpt lat="43.4292667" lon="11.1397212"><ele>166.33333333333331</ele><time>2026-04-11T08:31:40.478Z</time></trkpt><trkpt lat="43.4292054" lon="11.1396586"><ele>165.66666666666666</ele><time>2026-04-11T08:31:42.481Z</time></trkpt><trkpt lat="43.4291432" lon="11.1396036"><ele>165.0</ele><time>2026-04-11T08:31:44.505Z</time></trkpt><trkpt lat="43.4290842" lon="11.1395483"><ele>164.33333333333334</ele><time>2026-04-11T08:31:46.486Z</time></trkpt><trkpt lat="43.4290163" lon="11.1394884"><ele>163.66666666666669</ele><time>2026-04-11T08:31:48.49Z</time></trkpt><trkpt lat="43.4289482" lon="11.1394268"><ele>163.0</ele><time>2026-04-11T08:31:50.489Z</time></trkpt><trkpt lat="43.4288816" lon="11.1393636"><ele>163.0</ele><time>2026-04-11T08:31:52.49Z</time></trkpt><trkpt lat="43.4288132" lon="11.1392996"><ele>163.0</ele><time>2026-04-11T08:31:54.475Z</time></trkpt><trkpt lat="43.4287374" lon="11.1392443"><ele>163.0</ele><time>2026-04-11T08:31:56.486Z</time></trkpt><trkpt lat="43.4286667" lon="11.1391886"><ele>163.0</ele><time>2026-04-11T08:31:58.492Z</time></trkpt><trkpt lat="43.4285991" lon="11.1391308"><ele>163.0</ele><time>2026-04-11T08:32:00.498Z</time></trkpt><trkpt lat="43.4285205" lon="11.1390741"><ele>163.0</ele><time>2026-04-11T08:32:02.491Z</time></trkpt><trkpt lat="43.4284429" lon="11.1390107"><ele>163.2</ele><time>2026-04-11T08:32:04.491Z</time></trkpt><trkpt lat="43.4283551" lon="11.1389485"><ele>163.4</ele><time>2026-04-11T08:32:06.476Z</time></trkpt><trkpt lat="43.4282669" lon="11.1388834"><ele>163.6</ele><time>2026-04-11T08:32:08.486Z</time></trkpt><trkpt lat="43.4281818" lon="11.1388131"><ele>163.79999999999998</ele><time>2026-04-11T08:32:10.491Z</time></trkpt><trkpt lat="43.4280967" lon="11.1387369"><ele>164.0</ele><time>2026-04-11T08:32:12.496Z</time></trkpt><trkpt lat="43.4279988" lon="11.1386563"><ele>164.0</ele><time>2026-04-11T08:32:14.489Z</time></trkpt><trkpt lat="43.4279073" lon="11.1385778"><ele>164.0</ele><time>2026-04-11T08:32:16.492Z</time></trkpt><trkpt lat="43.4278147" lon="11.1385"><ele>164.0</ele><time>2026-04-11T08:32:18.495Z</time></trkpt><trkpt lat="43.4277274" lon="11.1384197"><ele>164.0</ele><time>2026-04-11T08:32:20.489Z</time></trkpt><trkpt lat="43.4276419" lon="11.1383374"><ele>164.0</ele><time>2026-04-11T08:32:22.482Z</time></trkpt><trkpt lat="43.4275545" lon="11.1382585"><ele>163.79999999999998</ele><time>2026-04-11T08:32:24.496Z</time></trkpt><trkpt lat="43.4274758" lon="11.1381758"><ele>163.6</ele><time>2026-04-11T08:32:26.495Z</time></trkpt><trkpt lat="43.4273952" lon="11.1380952"><ele>163.4</ele><time>2026-04-11T08:32:28.498Z</time></trkpt><trkpt lat="43.4273161" lon="11.1380158"><ele>163.2</ele><time>2026-04-11T08:32:30.474Z</time></trkpt><trkpt lat="43.4272375" lon="11.137925"><ele>163.0</ele><time>2026-04-11T08:32:32.493Z</time></trkpt><trkpt lat="43.427162" lon="11.1378318"><ele>163.2</ele><time>2026-04-11T08:32:34.498Z</time></trkpt><trkpt lat="43.4270885" lon="11.1377371"><ele>163.4</ele><time>2026-04-11T08:32:36.483Z</time></trkpt><trkpt lat="43.4270165" lon="11.1376367"><ele>163.6</ele><time>2026-04-11T08:32:38.476Z</time></trkpt><trkpt lat="43.4269399" lon="11.1375418"><ele>163.79999999999998</ele><time>2026-04-11T08:32:40.507Z</time></trkpt><trkpt lat="43.426865" lon="11.1374458"><ele>164.0</ele><time>2026-04-11T08:32:42.48Z</time></trkpt><trkpt lat="43.4267863" lon="11.137357"><ele>163.39999999999998</ele><time>2026-04-11T08:32:44.485Z</time></trkpt><trkpt lat="43.4267185" lon="11.13726"><ele>162.8</ele><time>2026-04-11T08:32:46.498Z</time></trkpt><trkpt lat="43.4266464" lon="11.1371587"><ele>162.2</ele><time>2026-04-11T08:32:48.498Z</time></trkpt><trkpt lat="43.426566" lon="11.1370658"><ele>161.60000000000002</ele><time>2026-04-11T08:32:50.484Z</time></trkpt><trkpt lat="43.4264922" lon="11.1369674"><ele>161.0</ele><time>2026-04-11T08:32:52.503Z</time></trkpt><trkpt lat="43.4264154" lon="11.1368781"><ele>161.0</ele><time>2026-04-11T08:32:54.48Z</time></trkpt><trkpt lat="43.4263393" lon="11.136787"><ele>161.0</ele><time>2026-04-11T08:32:56.486Z</time></trkpt><trkpt lat="43.4262678" lon="11.1366883"><ele>161.0</ele><time>2026-04-11T08:32:58.488Z</time></trkpt><trkpt lat="43.4261923" lon="11.1366039"><ele>161.0</ele><time>2026-04-11T08:33:00.491Z</time></trkpt><trkpt lat="43.4261222" lon="11.1365147"><ele>161.0</ele><time>2026-04-11T08:33:02.49Z</time></trkpt><trkpt lat="43.4260526" lon="11.136431"><ele>161.4</ele><time>2026-04-11T08:33:04.487Z</time></trkpt><trkpt lat="43.4259828" lon="11.1363445"><ele>161.8</ele><time>2026-04-11T08:33:06.487Z</time></trkpt><trkpt lat="43.4259145" lon="11.1362538"><ele>162.20000000000002</ele><time>2026-04-11T08:33:08.482Z</time></trkpt><trkpt lat="43.4258472" lon="11.1361614"><ele>162.60000000000002</ele><time>2026-04-11T08:33:10.477Z</time></trkpt><trkpt lat="43.4257739" lon="11.1360766"><ele>163.0</ele><time>2026-04-11T08:33:12.485Z</time></trkpt><trkpt lat="43.4256998" lon="11.1359974"><ele>163.0</ele><time>2026-04-11T08:33:14.488Z</time></trkpt><trkpt lat="43.4256283" lon="11.1359098"><ele>163.0</ele><time>2026-04-11T08:33:16.486Z</time></trkpt><trkpt lat="43.4255461" lon="11.1358457"><ele>163.0</ele><time>2026-04-11T08:33:18.488Z</time></trkpt><trkpt lat="43.4254539" lon="11.1358374"><ele>163.0</ele><time>2026-04-11T08:33:20.493Z</time></trkpt><trkpt lat="43.4253533" lon="11.1358899"><ele>163.0</ele><time>2026-04-11T08:33:22.495Z</time></trkpt><trkpt lat="43.4252506" lon="11.1359424"><ele>163.60000000000002</ele><time>2026-04-11T08:33:24.496Z</time></trkpt><trkpt lat="43.4251408" lon="11.1359593"><ele>164.20000000000002</ele><time>2026-04-11T08:33:26.507Z</time></trkpt><trkpt lat="43.4250377" lon="11.1359409"><ele>164.8</ele><time>2026-04-11T08:33:28.479Z</time></trkpt><trkpt lat="43.4249328" lon="11.1359177"><ele>165.4</ele><time>2026-04-11T08:33:30.483Z</time></trkpt><trkpt lat="43.4248239" lon="11.1358972"><ele>166.0</ele><time>2026-04-11T08:33:32.494Z</time></trkpt><trkpt lat="43.4247168" lon="11.135856"><ele>166.0</ele><time>2026-04-11T08:33:34.49Z</time></trkpt><trkpt lat="43.4246119" lon="11.1358034"><ele>166.0</ele><time>2026-04-11T08:33:36.5Z</time></trkpt><trkpt lat="43.4245087" lon="11.1357545"><ele>166.0</ele><time>2026-04-11T08:33:38.484Z</time></trkpt><trkpt lat="43.4244095" lon="11.1357049"><ele>166.0</ele><time>2026-04-11T08:33:40.497Z</time></trkpt><trkpt lat="43.4243067" lon="11.1356715"><ele>166.0</ele><time>2026-04-11T08:33:42.481Z</time></trkpt><trkpt lat="43.4242025" lon="11.1356472"><ele>166.0</ele><time>2026-04-11T08:33:44.494Z</time></trkpt><trkpt lat="43.4240964" lon="11.1356231"><ele>166.0</ele><time>2026-04-11T08:33:46.498Z</time></trkpt><trkpt lat="43.4239913" lon="11.1356017"><ele>166.0</ele><time>2026-04-11T08:33:48.483Z</time></trkpt><trkpt lat="43.4239002" lon="11.1355548"><ele>166.0</ele><time>2026-04-11T08:33:50.492Z</time></trkpt><trkpt lat="43.4238063" lon="11.1355213"><ele>166.0</ele><time>2026-04-11T08:33:52.504Z</time></trkpt><trkpt lat="43.4237096" lon="11.1355154"><ele>166.33333333333334</ele><time>2026-04-11T08:33:54.479Z</time></trkpt><trkpt lat="43.4236139" lon="11.1354972"><ele>166.66666666666669</ele><time>2026-04-11T08:33:56.481Z</time></trkpt><trkpt lat="43.4235165" lon="11.1354845"><ele>167.0</ele><time>2026-04-11T08:33:58.491Z</time></trkpt><trkpt lat="43.4234312" lon="11.1354933"><ele>167.33333333333334</ele><time>2026-04-11T08:34:00.491Z</time></trkpt><trkpt lat="43.4233839" lon="11.1355787"><ele>167.66666666666666</ele><time>2026-04-11T08:34:02.481Z</time></trkpt><trkpt lat="43.4233702" lon="11.1356899"><ele>168.0</ele><time>2026-04-11T08:34:04.494Z</time></trkpt><trkpt lat="43.4233568" lon="11.1358169"><ele>168.0</ele><time>2026-04-11T08:34:06.479Z</time></trkpt><trkpt lat="43.4233473" lon="11.1359427"><ele>168.0</ele><time>2026-04-11T08:34:08.488Z</time></trkpt><trkpt lat="43.4233372" lon="11.1360529"><ele>168.0</ele><time>2026-04-11T08:34:10.492Z</time></trkpt><trkpt lat="43.4233246" lon="11.1361684"><ele>168.0</ele><time>2026-04-11T08:34:12.491Z</time></trkpt><trkpt lat="43.4233297" lon="11.1362874"><ele>168.0</ele><time>2026-04-11T08:34:14.483Z</time></trkpt><trkpt lat="43.4233526" lon="11.1364154"><ele>168.0</ele><time>2026-04-11T08:34:16.475Z</time></trkpt><trkpt lat="43.4233738" lon="11.1365469"><ele>168.16666666666666</ele><time>2026-04-11T08:34:18.477Z</time></trkpt><trkpt lat="43.4233894" lon="11.1366694"><ele>168.33333333333334</ele><time>2026-04-11T08:34:20.487Z</time></trkpt><trkpt lat="43.4233977" lon="11.1367854"><ele>168.5</ele><time>2026-04-11T08:34:22.485Z</time></trkpt><trkpt lat="43.423414" lon="11.1369026"><ele>168.66666666666669</ele><time>2026-04-11T08:34:24.481Z</time></trkpt><trkpt lat="43.4234403" lon="11.1370185"><ele>168.83333333333334</ele><time>2026-04-11T08:34:26.496Z</time></trkpt><trkpt lat="43.4234485" lon="11.1371399"><ele>169.0</ele><time>2026-04-11T08:34:28.481Z</time></trkpt><trkpt lat="43.4234456" lon="11.137256"><ele>169.0</ele><time>2026-04-11T08:34:30.485Z</time></trkpt><trkpt lat="43.4234529" lon="11.1373757"><ele>169.0</ele><time>2026-04-11T08:34:32.476Z</time></trkpt><trkpt lat="43.423447" lon="11.1374959"><ele>169.0</ele><time>2026-04-11T08:34:34.502Z</time></trkpt><trkpt lat="43.4234596" lon="11.1376183"><ele>169.0</ele><time>2026-04-11T08:34:36.479Z</time></trkpt><trkpt lat="43.4234808" lon="11.1377356"><ele>169.0</ele><time>2026-04-11T08:34:38.499Z</time></trkpt><trkpt lat="43.4235037" lon="11.1378468"><ele>169.0</ele><time>2026-04-11T08:34:40.489Z</time></trkpt><trkpt lat="43.4235103" lon="11.1379518"><ele>169.0</ele><time>2026-04-11T08:34:42.486Z</time></trkpt><trkpt lat="43.4234978" lon="11.1380602"><ele>169.0</ele><time>2026-04-11T08:34:44.491Z</time></trkpt><trkpt lat="43.4234499" lon="11.1381504"><ele>169.0</ele><time>2026-04-11T08:34:46.502Z</time></trkpt><trkpt lat="43.4233723" lon="11.1381879"><ele>169.0</ele><time>2026-04-11T08:34:48.481Z</time></trkpt><trkpt lat="43.423297" lon="11.1382147"><ele>169.0</ele><time>2026-04-11T08:34:50.49Z</time></trkpt><trkpt lat="43.4232304" lon="11.1382369"><ele>169.0</ele><time>2026-04-11T08:34:52.506Z</time></trkpt><trkpt lat="43.4231572" lon="11.1382574"><ele>169.16666666666669</ele><time>2026-04-11T08:34:54.49Z</time></trkpt><trkpt lat="43.423089" lon="11.1382865"><ele>169.33333333333334</ele><time>2026-04-11T08:34:56.489Z</time></trkpt><trkpt lat="43.4230171" lon="11.138322"><ele>169.5</ele><time>2026-04-11T08:34:58.487Z</time></trkpt><trkpt lat="43.422949" lon="11.1383593"><ele>169.66666666666666</ele><time>2026-04-11T08:35:00.489Z</time></trkpt><trkpt lat="43.4228797" lon="11.1383869"><ele>169.83333333333331</ele><time>2026-04-11T08:35:02.494Z</time></trkpt><trkpt lat="43.4228049" lon="11.1384178"><ele>170.0</ele><time>2026-04-11T08:35:04.484Z</time></trkpt><trkpt lat="43.4227312" lon="11.138455"><ele>170.5</ele><time>2026-04-11T08:35:06.487Z</time></trkpt><trkpt lat="43.4226694" lon="11.1384852"><ele>171.0</ele><time>2026-04-11T08:35:08.506Z</time></trkpt><trkpt lat="43.4225854" lon="11.138528"><ele>171.5</ele><time>2026-04-11T08:35:11.478Z</time></trkpt><trkpt lat="43.4225145" lon="11.1385603"><ele>172.0</ele><time>2026-04-11T08:35:13.487Z</time></trkpt><trkpt lat="43.4224437" lon="11.1385901"><ele>172.5</ele><time>2026-04-11T08:35:15.495Z</time></trkpt><trkpt lat="43.4223719" lon="11.1386261"><ele>173.0</ele><time>2026-04-11T08:35:17.487Z</time></trkpt><trkpt lat="43.4222932" lon="11.1386545"><ele>173.0</ele><time>2026-04-11T08:35:19.481Z</time></trkpt><trkpt lat="43.4222151" lon="11.1386808"><ele>173.0</ele><time>2026-04-11T08:35:21.485Z</time></trkpt><trkpt lat="43.422131" lon="11.1387147"><ele>173.0</ele><time>2026-04-11T08:35:23.484Z</time></trkpt><trkpt lat="43.4220509" lon="11.1387451"><ele>173.0</ele><time>2026-04-11T08:35:25.497Z</time></trkpt><trkpt lat="43.4219761" lon="11.1387576"><ele>173.0</ele><time>2026-04-11T08:35:27.491Z</time></trkpt><trkpt lat="43.4218977" lon="11.13877"><ele>173.0</ele><time>2026-04-11T08:35:29.493Z</time></trkpt><trkpt lat="43.4218177" lon="11.1387875"><ele>173.33333333333331</ele><time>2026-04-11T08:35:31.488Z</time></trkpt><trkpt lat="43.4217386" lon="11.1387887"><ele>173.66666666666666</ele><time>2026-04-11T08:35:33.478Z</time></trkpt><trkpt lat="43.421654" lon="11.1387814"><ele>174.0</ele><time>2026-04-11T08:35:35.488Z</time></trkpt><trkpt lat="43.4215737" lon="11.1387702"><ele>174.33333333333334</ele><time>2026-04-11T08:35:37.498Z</time></trkpt><trkpt lat="43.4214989" lon="11.1387511"><ele>174.66666666666669</ele><time>2026-04-11T08:35:39.502Z</time></trkpt><trkpt lat="43.4214203" lon="11.1387444"><ele>175.0</ele><time>2026-04-11T08:35:41.486Z</time></trkpt><trkpt lat="43.4213474" lon="11.1387373"><ele>175.16666666666669</ele><time>2026-04-11T08:35:43.49Z</time></trkpt><trkpt lat="43.4212655" lon="11.138729"><ele>175.33333333333334</ele><time>2026-04-11T08:35:45.477Z</time></trkpt><trkpt lat="43.42119" lon="11.1387102"><ele>175.5</ele><time>2026-04-11T08:35:47.484Z</time></trkpt><trkpt lat="43.4211088" lon="11.1386874"><ele>175.66666666666666</ele><time>2026-04-11T08:35:49.48Z</time></trkpt><trkpt lat="43.4210316" lon="11.1386581"><ele>175.83333333333331</ele><time>2026-04-11T08:35:51.482Z</time></trkpt><trkpt lat="43.4209524" lon="11.1386279"><ele>176.0</ele><time>2026-04-11T08:35:53.492Z</time></trkpt><trkpt lat="43.4208761" lon="11.1385993"><ele>176.0</ele><time>2026-04-11T08:35:55.485Z</time></trkpt><trkpt lat="43.420798" lon="11.1385622"><ele>176.0</ele><time>2026-04-11T08:35:57.476Z</time></trkpt><trkpt lat="43.4207231" lon="11.1385242"><ele>176.0</ele><time>2026-04-11T08:35:59.484Z</time></trkpt><trkpt lat="43.4206432" lon="11.1385026"><ele>176.0</ele><time>2026-04-11T08:36:01.474Z</time></trkpt><trkpt lat="43.4205661" lon="11.1384803"><ele>176.0</ele><time>2026-04-11T08:36:03.479Z</time></trkpt><trkpt lat="43.4204912" lon="11.1384558"><ele>176.0</ele><time>2026-04-11T08:36:05.493Z</time></trkpt><trkpt lat="43.4204113" lon="11.1384359"><ele>176.0</ele><time>2026-04-11T08:36:07.489Z</time></trkpt><trkpt lat="43.420337" lon="11.1384103"><ele>176.0</ele><time>2026-04-11T08:36:09.471Z</time></trkpt><trkpt lat="43.4202655" lon="11.1383847"><ele>176.0</ele><time>2026-04-11T08:36:11.49Z</time></trkpt><trkpt lat="43.4202032" lon="11.1383543"><ele>176.0</ele><time>2026-04-11T08:36:13.493Z</time></trkpt><trkpt lat="43.4201365" lon="11.1383336"><ele>176.0</ele><time>2026-04-11T08:36:15.5Z</time></trkpt><trkpt lat="43.4200446" lon="11.1383017"><ele>176.0</ele><time>2026-04-11T08:36:18.498Z</time></trkpt><trkpt lat="43.4199753" lon="11.1382686"><ele>176.0</ele><time>2026-04-11T08:36:20.47Z</time></trkpt><trkpt lat="43.4199013" lon="11.1382037"><ele>176.0</ele><time>2026-04-11T08:36:22.496Z</time></trkpt><trkpt lat="43.4198192" lon="11.1381371"><ele>176.0</ele><time>2026-04-11T08:36:24.498Z</time></trkpt><trkpt lat="43.4197324" lon="11.1381049"><ele>176.0</ele><time>2026-04-11T08:36:26.473Z</time></trkpt><trkpt lat="43.4196381" lon="11.1381372"><ele>176.0</ele><time>2026-04-11T08:36:28.49Z</time></trkpt><trkpt lat="43.4195838" lon="11.1382517"><ele>176.0</ele><time>2026-04-11T08:36:30.48Z</time></trkpt><trkpt lat="43.4195714" lon="11.1383846"><ele>176.0</ele><time>2026-04-11T08:36:32.483Z</time></trkpt><trkpt lat="43.419578" lon="11.138516"><ele>176.0</ele><time>2026-04-11T08:36:34.489Z</time></trkpt><trkpt lat="43.4195654" lon="11.1386299"><ele>176.0</ele><time>2026-04-11T08:36:36.488Z</time></trkpt><trkpt lat="43.4195374" lon="11.1387351"><ele>176.0</ele><time>2026-04-11T08:36:38.472Z</time></trkpt><trkpt lat="43.4195107" lon="11.1388414"><ele>176.0</ele><time>2026-04-11T08:36:40.487Z</time></trkpt><trkpt lat="43.4194801" lon="11.138947"><ele>176.83333333333331</ele><time>2026-04-11T08:36:42.49Z</time></trkpt><trkpt lat="43.419448" lon="11.1390588"><ele>177.66666666666666</ele><time>2026-04-11T08:36:44.49Z</time></trkpt><trkpt lat="43.4194233" lon="11.1391754"><ele>178.5</ele><time>2026-04-11T08:36:46.484Z</time></trkpt><trkpt lat="43.419391" lon="11.1392917"><ele>179.33333333333334</ele><time>2026-04-11T08:36:48.491Z</time></trkpt><trkpt lat="43.4193562" lon="11.1394123"><ele>180.16666666666669</ele><time>2026-04-11T08:36:50.484Z</time></trkpt><trkpt lat="43.4193273" lon="11.1395211"><ele>181.0</ele><time>2026-04-11T08:36:52.51Z</time></trkpt><trkpt lat="43.4193058" lon="11.1396229"><ele>181.0</ele><time>2026-04-11T08:36:54.493Z</time></trkpt><trkpt lat="43.4192811" lon="11.1397321"><ele>181.0</ele><time>2026-04-11T08:36:56.481Z</time></trkpt><trkpt lat="43.4192537" lon="11.139846"><ele>181.0</ele><time>2026-04-11T08:36:58.487Z</time></trkpt><trkpt lat="43.4192251" lon="11.1399613"><ele>181.0</ele><time>2026-04-11T08:37:00.484Z</time></trkpt><trkpt lat="43.4191914" lon="11.1400752"><ele>181.0</ele><time>2026-04-11T08:37:02.484Z</time></trkpt><trkpt lat="43.419159" lon="11.1401898"><ele>181.0</ele><time>2026-04-11T08:37:04.486Z</time></trkpt><trkpt lat="43.4191246" lon="11.1403278"><ele>181.4</ele><time>2026-04-11T08:37:06.488Z</time></trkpt><trkpt lat="43.4190893" lon="11.1404607"><ele>181.8</ele><time>2026-04-11T08:37:08.495Z</time></trkpt><trkpt lat="43.4190583" lon="11.1405807"><ele>182.20000000000002</ele><time>2026-04-11T08:37:10.511Z</time></trkpt><trkpt lat="43.4190218" lon="11.1407115"><ele>182.60000000000002</ele><time>2026-04-11T08:37:12.493Z</time></trkpt><trkpt lat="43.418992" lon="11.1408424"><ele>183.0</ele><time>2026-04-11T08:37:14.495Z</time></trkpt><trkpt lat="43.4189609" lon="11.1409793"><ele>183.0</ele><time>2026-04-11T08:37:16.481Z</time></trkpt><trkpt lat="43.4189298" lon="11.1411111"><ele>183.0</ele><time>2026-04-11T08:37:18.474Z</time></trkpt><trkpt lat="43.4188981" lon="11.1412409"><ele>183.0</ele><time>2026-04-11T08:37:20.492Z</time></trkpt><trkpt lat="43.4188671" lon="11.1413748"><ele>183.0</ele><time>2026-04-11T08:37:22.498Z</time></trkpt><trkpt lat="43.4188334" lon="11.1415049"><ele>183.0</ele><time>2026-04-11T08:37:24.492Z</time></trkpt><trkpt lat="43.4188021" lon="11.1416413"><ele>183.0</ele><time>2026-04-11T08:37:26.481Z</time></trkpt><trkpt lat="43.4187752" lon="11.1417724"><ele>183.0</ele><time>2026-04-11T08:37:28.487Z</time></trkpt><trkpt lat="43.4187422" lon="11.1418986"><ele>183.0</ele><time>2026-04-11T08:37:30.489Z</time></trkpt><trkpt lat="43.4187097" lon="11.1420288"><ele>183.0</ele><time>2026-04-11T08:37:32.489Z</time></trkpt><trkpt lat="43.4186781" lon="11.1421554"><ele>183.0</ele><time>2026-04-11T08:37:34.481Z</time></trkpt><trkpt lat="43.4186515" lon="11.1422765"><ele>183.28571428571428</ele><time>2026-04-11T08:37:36.487Z</time></trkpt><trkpt lat="43.4186245" lon="11.1423825"><ele>183.57142857142858</ele><time>2026-04-11T08:37:38.485Z</time></trkpt><trkpt lat="43.4185923" lon="11.1424765"><ele>183.85714285714283</ele><time>2026-04-11T08:37:40.49Z</time></trkpt><trkpt lat="43.4185638" lon="11.1425684"><ele>184.14285714285714</ele><time>2026-04-11T08:37:42.483Z</time></trkpt><trkpt lat="43.4185421" lon="11.1426576"><ele>184.42857142857142</ele><time>2026-04-11T08:37:44.487Z</time></trkpt><trkpt lat="43.4185235" lon="11.1427418"><ele>184.7142857142857</ele><time>2026-04-11T08:37:46.491Z</time></trkpt><trkpt lat="43.4185052" lon="11.1428252"><ele>185.0</ele><time>2026-04-11T08:37:48.49Z</time></trkpt><trkpt lat="43.4184783" lon="11.1429363"><ele>184.99999999999997</ele><time>2026-04-11T08:37:51.486Z</time></trkpt><trkpt lat="43.418453" lon="11.1430419"><ele>185.0</ele><time>2026-04-11T08:37:54.487Z</time></trkpt><trkpt lat="43.4184328" lon="11.1431404"><ele>185.0</ele><time>2026-04-11T08:37:57.496Z</time></trkpt><trkpt lat="43.4184122" lon="11.1432368"><ele>185.0</ele><time>2026-04-11T08:38:00.493Z</time></trkpt><trkpt lat="43.4183872" lon="11.1433309"><ele>185.0</ele><time>2026-04-11T08:38:03.474Z</time></trkpt><trkpt lat="43.4183557" lon="11.1434295"><ele>184.99999999999997</ele><time>2026-04-11T08:38:06.496Z</time></trkpt><trkpt lat="43.4183158" lon="11.1435075"><ele>185.0</ele><time>2026-04-11T08:38:09.487Z</time></trkpt><trkpt lat="43.4182679" lon="11.1435901"><ele>185.42857142857142</ele><time>2026-04-11T08:38:12.49Z</time></trkpt><trkpt lat="43.4182198" lon="11.1436633"><ele>185.85714285714286</ele><time>2026-04-11T08:38:15.499Z</time></trkpt><trkpt lat="43.418155" lon="11.143719"><ele>186.28571428571428</ele><time>2026-04-11T08:38:18.492Z</time></trkpt><trkpt lat="43.4180893" lon="11.1437612"><ele>186.71428571428572</ele><time>2026-04-11T08:38:21.487Z</time></trkpt><trkpt lat="43.4180209" lon="11.1437809"><ele>187.14285714285714</ele><time>2026-04-11T08:38:24.485Z</time></trkpt><trkpt lat="43.4179458" lon="11.1437868"><ele>187.57142857142856</ele><time>2026-04-11T08:38:27.482Z</time></trkpt><trkpt lat="43.4178703" lon="11.1437814"><ele>188.0</ele><time>2026-04-11T08:38:30.483Z</time></trkpt><trkpt lat="43.4177913" lon="11.1437713"><ele>188.16666666666666</ele><time>2026-04-11T08:38:33.498Z</time></trkpt><trkpt lat="43.4177178" lon="11.1437634"><ele>188.33333333333331</ele><time>2026-04-11T08:38:36.482Z</time></trkpt><trkpt lat="43.4176407" lon="11.1437596"><ele>188.5</ele><time>2026-04-11T08:38:39.492Z</time></trkpt><trkpt lat="43.417565" lon="11.1437535"><ele>188.66666666666666</ele><time>2026-04-11T08:38:42.488Z</time></trkpt><trkpt lat="43.4174858" lon="11.1437513"><ele>188.83333333333334</ele><time>2026-04-11T08:38:45.502Z</time></trkpt><trkpt lat="43.4174126" lon="11.1437477"><ele>189.0</ele><time>2026-04-11T08:38:48.481Z</time></trkpt><trkpt lat="43.4173415" lon="11.1437458"><ele>189.0</ele><time>2026-04-11T08:38:51.489Z</time></trkpt><trkpt lat="43.4172772" lon="11.1437451"><ele>189.0</ele><time>2026-04-11T08:38:54.488Z</time></trkpt><trkpt lat="43.4171958" lon="11.1437369"><ele>189.0</ele><time>2026-04-11T08:38:58.486Z</time></trkpt><trkpt lat="43.4171255" lon="11.1437372"><ele>189.0</ele><time>2026-04-11T08:39:01.478Z</time></trkpt><trkpt lat="43.4170563" lon="11.1437318"><ele>189.0</ele><time>2026-04-11T08:39:04.491Z</time></trkpt><trkpt lat="43.4169903" lon="11.1437346"><ele>189.0</ele><time>2026-04-11T08:39:07.485Z</time></trkpt><trkpt lat="43.4169244" lon="11.1437332"><ele>189.0</ele><time>2026-04-11T08:39:10.48Z</time></trkpt><trkpt lat="43.4168567" lon="11.1437387"><ele>190.0</ele><time>2026-04-11T08:39:13.496Z</time></trkpt><trkpt lat="43.4167798" lon="11.1437448"><ele>191.0</ele><time>2026-04-11T08:39:16.482Z</time></trkpt><trkpt lat="43.4166997" lon="11.143748"><ele>192.0</ele><time>2026-04-11T08:39:19.492Z</time></trkpt><trkpt lat="43.4166266" lon="11.1437406"><ele>193.0</ele><time>2026-04-11T08:39:22.479Z</time></trkpt><trkpt lat="43.4165567" lon="11.1437277"><ele>194.0</ele><time>2026-04-11T08:39:25.485Z</time></trkpt><trkpt lat="43.4164911" lon="11.1437313"><ele>195.0</ele><time>2026-04-11T08:39:28.485Z</time></trkpt><trkpt lat="43.416419" lon="11.1437642"><ele>196.0</ele><time>2026-04-11T08:39:31.482Z</time></trkpt><trkpt lat="43.4163504" lon="11.1438098"><ele>196.83333333333331</ele><time>2026-04-11T08:39:34.487Z</time></trkpt><trkpt lat="43.4162878" lon="11.1438589"><ele>197.66666666666666</ele><time>2026-04-11T08:39:37.486Z</time></trkpt><trkpt lat="43.4162312" lon="11.1439216"><ele>198.5</ele><time>2026-04-11T08:39:40.489Z</time></trkpt><trkpt lat="43.4161754" lon="11.1439983"><ele>199.33333333333331</ele><time>2026-04-11T08:39:43.482Z</time></trkpt><trkpt lat="43.416125" lon="11.1440846"><ele>200.16666666666666</ele><time>2026-04-11T08:39:46.466Z</time></trkpt><trkpt lat="43.4161003" lon="11.1441816"><ele>201.0</ele><time>2026-04-11T08:39:49.492Z</time></trkpt><trkpt lat="43.4160902" lon="11.1442986"><ele>201.0</ele><time>2026-04-11T08:39:52.498Z</time></trkpt><trkpt lat="43.4160915" lon="11.1444061"><ele>201.0</ele><time>2026-04-11T08:39:55.488Z</time></trkpt><trkpt lat="43.4161065" lon="11.1445082"><ele>201.0</ele><time>2026-04-11T08:39:58.484Z</time></trkpt><trkpt lat="43.4161448" lon="11.1446086"><ele>201.0</ele><time>2026-04-11T08:40:01.493Z</time></trkpt><trkpt lat="43.4161844" lon="11.1447033"><ele>201.0</ele><time>2026-04-11T08:40:04.488Z</time></trkpt><trkpt lat="43.4162249" lon="11.1447987"><ele>201.0</ele><time>2026-04-11T08:40:07.48Z</time></trkpt><trkpt lat="43.4162606" lon="11.1449003"><ele>201.16666666666666</ele><time>2026-04-11T08:40:10.484Z</time></trkpt><trkpt lat="43.4162863" lon="11.1449968"><ele>201.33333333333331</ele><time>2026-04-11T08:40:13.492Z</time></trkpt><trkpt lat="43.4163008" lon="11.1450952"><ele>201.5</ele><time>2026-04-11T08:40:16.498Z</time></trkpt><trkpt lat="43.4163145" lon="11.1451954"><ele>201.66666666666666</ele><time>2026-04-11T08:40:19.493Z</time></trkpt><trkpt lat="43.4163273" lon="11.1453123"><ele>201.83333333333331</ele><time>2026-04-11T08:40:22.486Z</time></trkpt><trkpt lat="43.4163304" lon="11.1454156"><ele>202.0</ele><time>2026-04-11T08:40:25.483Z</time></trkpt><trkpt lat="43.4163291" lon="11.1455213"><ele>202.99999999999997</ele><time>2026-04-11T08:40:28.488Z</time></trkpt><trkpt lat="43.4163246" lon="11.1456323"><ele>204.0</ele><time>2026-04-11T08:40:31.476Z</time></trkpt><trkpt lat="43.4163079" lon="11.1457296"><ele>205.0</ele><time>2026-04-11T08:40:34.478Z</time></trkpt><trkpt lat="43.4162878" lon="11.1458431"><ele>206.0</ele><time>2026-04-11T08:40:37.484Z</time></trkpt><trkpt lat="43.4162781" lon="11.1459557"><ele>206.99999999999997</ele><time>2026-04-11T08:40:40.491Z</time></trkpt><trkpt lat="43.4162773" lon="11.1460633"><ele>208.0</ele><time>2026-04-11T08:40:43.479Z</time></trkpt><trkpt lat="43.4162762" lon="11.1461666"><ele>207.99999999999997</ele><time>2026-04-11T08:40:46.478Z</time></trkpt><trkpt lat="43.416285" lon="11.146271"><ele>208.0</ele><time>2026-04-11T08:40:49.481Z</time></trkpt><trkpt lat="43.4163084" lon="11.146375"><ele>208.0</ele><time>2026-04-11T08:40:52.485Z</time></trkpt><trkpt lat="43.4163373" lon="11.1464827"><ele>208.0</ele><time>2026-04-11T08:40:55.484Z</time></trkpt><trkpt lat="43.4163604" lon="11.1465763"><ele>207.99999999999997</ele><time>2026-04-11T08:40:58.482Z</time></trkpt><trkpt lat="43.4163916" lon="11.1466805"><ele>208.0</ele><time>2026-04-11T08:41:01.489Z</time></trkpt><trkpt lat="43.4164162" lon="11.146784"><ele>209.66666666666666</ele><time>2026-04-11T08:41:04.494Z</time></trkpt><trkpt lat="43.4164436" lon="11.1468864"><ele>211.33333333333331</ele><time>2026-04-11T08:41:07.485Z</time></trkpt><trkpt lat="43.4164711" lon="11.1469883"><ele>213.0</ele><time>2026-04-11T08:41:10.499Z</time></trkpt><trkpt lat="43.4164966" lon="11.1470984"><ele>214.66666666666669</ele><time>2026-04-11T08:41:13.499Z</time></trkpt><trkpt lat="43.4165186" lon="11.1472051"><ele>216.33333333333334</ele><time>2026-04-11T08:41:16.489Z</time></trkpt><trkpt lat="43.4165414" lon="11.1472869"><ele>218.0</ele><time>2026-04-11T08:41:18.498Z</time></trkpt><trkpt lat="43.4165725" lon="11.147396"><ele>218.16666666666669</ele><time>2026-04-11T08:41:21.482Z</time></trkpt><trkpt lat="43.4166121" lon="11.1475058"><ele>218.33333333333334</ele><time>2026-04-11T08:41:24.481Z</time></trkpt><trkpt lat="43.4166439" lon="11.1476267"><ele>218.5</ele><time>2026-04-11T08:41:27.486Z</time></trkpt><trkpt lat="43.4166674" lon="11.1477172"><ele>218.66666666666669</ele><time>2026-04-11T08:41:29.501Z</time></trkpt><trkpt lat="43.4166899" lon="11.1478016"><ele>218.83333333333334</ele><time>2026-04-11T08:41:31.491Z</time></trkpt><trkpt lat="43.4167169" lon="11.1478847"><ele>219.0</ele><time>2026-04-11T08:41:33.49Z</time></trkpt><trkpt lat="43.416748" lon="11.1479798"><ele>219.0</ele><time>2026-04-11T08:41:35.483Z</time></trkpt><trkpt lat="43.4167686" lon="11.1480778"><ele>219.0</ele><time>2026-04-11T08:41:37.489Z</time></trkpt><trkpt lat="43.4167939" lon="11.1481698"><ele>219.0</ele><time>2026-04-11T08:41:39.493Z</time></trkpt><trkpt lat="43.4168172" lon="11.1482664"><ele>219.0</ele><time>2026-04-11T08:41:41.486Z</time></trkpt><trkpt lat="43.4168397" lon="11.1483643"><ele>219.0</ele><time>2026-04-11T08:41:43.48Z</time></trkpt><trkpt lat="43.4168603" lon="11.1484688"><ele>219.0</ele><time>2026-04-11T08:41:45.492Z</time></trkpt><trkpt lat="43.4168745" lon="11.1485723"><ele>219.0</ele><time>2026-04-11T08:41:47.49Z</time></trkpt><trkpt lat="43.4168871" lon="11.1486766"><ele>218.66666666666666</ele><time>2026-04-11T08:41:49.495Z</time></trkpt><trkpt lat="43.4168985" lon="11.1487797"><ele>218.33333333333331</ele><time>2026-04-11T08:41:51.484Z</time></trkpt><trkpt lat="43.4168972" lon="11.1488875"><ele>218.0</ele><time>2026-04-11T08:41:53.482Z</time></trkpt><trkpt lat="43.4168911" lon="11.1489871"><ele>217.66666666666666</ele><time>2026-04-11T08:41:55.475Z</time></trkpt><trkpt lat="43.416882" lon="11.149093"><ele>217.33333333333331</ele><time>2026-04-11T08:41:57.49Z</time></trkpt><trkpt lat="43.4168675" lon="11.1492014"><ele>217.0</ele><time>2026-04-11T08:41:59.483Z</time></trkpt><trkpt lat="43.4168492" lon="11.1493091"><ele>217.66666666666666</ele><time>2026-04-11T08:42:01.496Z</time></trkpt><trkpt lat="43.4168339" lon="11.1494129"><ele>218.33333333333331</ele><time>2026-04-11T08:42:03.495Z</time></trkpt><trkpt lat="43.4168167" lon="11.1495092"><ele>219.0</ele><time>2026-04-11T08:42:05.48Z</time></trkpt><trkpt lat="43.416791" lon="11.1496043"><ele>219.66666666666669</ele><time>2026-04-11T08:42:07.493Z</time></trkpt><trkpt lat="43.4167649" lon="11.1497101"><ele>220.33333333333334</ele><time>2026-04-11T08:42:09.486Z</time></trkpt><trkpt lat="43.4167401" lon="11.1498122"><ele>221.0</ele><time>2026-04-11T08:42:11.496Z</time></trkpt><trkpt lat="43.4167116" lon="11.1499135"><ele>221.66666666666669</ele><time>2026-04-11T08:42:13.48Z</time></trkpt><trkpt lat="43.4166862" lon="11.1500187"><ele>222.33333333333334</ele><time>2026-04-11T08:42:15.486Z</time></trkpt><trkpt lat="43.416669" lon="11.1501218"><ele>223.0</ele><time>2026-04-11T08:42:17.496Z</time></trkpt><trkpt lat="43.4166439" lon="11.1502196"><ele>223.66666666666669</ele><time>2026-04-11T08:42:19.473Z</time></trkpt><trkpt lat="43.4166191" lon="11.1503192"><ele>224.33333333333334</ele><time>2026-04-11T08:42:21.479Z</time></trkpt><trkpt lat="43.4165948" lon="11.1504234"><ele>225.0</ele><time>2026-04-11T08:42:23.477Z</time></trkpt><trkpt lat="43.4165749" lon="11.1505175"><ele>225.0</ele><time>2026-04-11T08:42:25.483Z</time></trkpt><trkpt lat="43.4165504" lon="11.1506221"><ele>225.0</ele><time>2026-04-11T08:42:27.489Z</time></trkpt><trkpt lat="43.4165235" lon="11.1507374"><ele>225.0</ele><time>2026-04-11T08:42:29.486Z</time></trkpt><trkpt lat="43.4164957" lon="11.1508569"><ele>225.0</ele><time>2026-04-11T08:42:31.486Z</time></trkpt><trkpt lat="43.4164663" lon="11.1509888"><ele>225.0</ele><time>2026-04-11T08:42:33.487Z</time></trkpt><trkpt lat="43.4164369" lon="11.1511176"><ele>225.0</ele><time>2026-04-11T08:42:35.485Z</time></trkpt><trkpt lat="43.416408" lon="11.1512401"><ele>225.0</ele><time>2026-04-11T08:42:37.485Z</time></trkpt><trkpt lat="43.4163791" lon="11.1513577"><ele>225.0</ele><time>2026-04-11T08:42:39.485Z</time></trkpt><trkpt lat="43.4163424" lon="11.151472"><ele>225.0</ele><time>2026-04-11T08:42:41.496Z</time></trkpt><trkpt lat="43.4163078" lon="11.1515962"><ele>225.0</ele><time>2026-04-11T08:42:43.482Z</time></trkpt><trkpt lat="43.416281" lon="11.1517266"><ele>225.2</ele><time>2026-04-11T08:42:45.501Z</time></trkpt><trkpt lat="43.4162466" lon="11.1518516"><ele>225.4</ele><time>2026-04-11T08:42:47.482Z</time></trkpt><trkpt lat="43.4162174" lon="11.1519829"><ele>225.60000000000002</ele><time>2026-04-11T08:42:49.479Z</time></trkpt><trkpt lat="43.4161871" lon="11.1521162"><ele>225.8</ele><time>2026-04-11T08:42:51.494Z</time></trkpt><trkpt lat="43.4161528" lon="11.1522507"><ele>226.0</ele><time>2026-04-11T08:42:53.475Z</time></trkpt><trkpt lat="43.4161193" lon="11.1523846"><ele>226.0</ele><time>2026-04-11T08:42:55.487Z</time></trkpt><trkpt lat="43.4160839" lon="11.1525214"><ele>226.00000000000003</ele><time>2026-04-11T08:42:57.497Z</time></trkpt><trkpt lat="43.4160543" lon="11.152654"><ele>226.00000000000003</ele><time>2026-04-11T08:42:59.487Z</time></trkpt><trkpt lat="43.4160241" lon="11.1527877"><ele>226.0</ele><time>2026-04-11T08:43:01.491Z</time></trkpt><trkpt lat="43.4159933" lon="11.152919"><ele>226.0</ele><time>2026-04-11T08:43:03.488Z</time></trkpt><trkpt lat="43.4159648" lon="11.1530422"><ele>226.0</ele><time>2026-04-11T08:43:05.48Z</time></trkpt><trkpt lat="43.4159331" lon="11.1531681"><ele>226.00000000000003</ele><time>2026-04-11T08:43:07.48Z</time></trkpt><trkpt lat="43.4159082" lon="11.1533007"><ele>226.00000000000003</ele><time>2026-04-11T08:43:09.49Z</time></trkpt><trkpt lat="43.4158809" lon="11.1534355"><ele>226.0</ele><time>2026-04-11T08:43:11.495Z</time></trkpt><trkpt lat="43.4158454" lon="11.1535609"><ele>226.0</ele><time>2026-04-11T08:43:13.483Z</time></trkpt><trkpt lat="43.415813" lon="11.1536866"><ele>226.4</ele><time>2026-04-11T08:43:15.489Z</time></trkpt><trkpt lat="43.415785" lon="11.1538044"><ele>226.8</ele><time>2026-04-11T08:43:17.487Z</time></trkpt><trkpt lat="43.4157577" lon="11.1539224"><ele>227.20000000000002</ele><time>2026-04-11T08:43:19.475Z</time></trkpt><trkpt lat="43.4157284" lon="11.1540453"><ele>227.60000000000002</ele><time>2026-04-11T08:43:21.485Z</time></trkpt><trkpt lat="43.4157015" lon="11.1541719"><ele>228.0</ele><time>2026-04-11T08:43:23.5Z</time></trkpt><trkpt lat="43.4156715" lon="11.1542928"><ele>228.2</ele><time>2026-04-11T08:43:25.475Z</time></trkpt><trkpt lat="43.4156415" lon="11.154416"><ele>228.4</ele><time>2026-04-11T08:43:27.482Z</time></trkpt><trkpt lat="43.4156071" lon="11.1545364"><ele>228.59999999999997</ele><time>2026-04-11T08:43:29.491Z</time></trkpt><trkpt lat="43.4155727" lon="11.1546687"><ele>228.79999999999998</ele><time>2026-04-11T08:43:31.492Z</time></trkpt><trkpt lat="43.4155409" lon="11.1547974"><ele>229.0</ele><time>2026-04-11T08:43:33.488Z</time></trkpt><trkpt lat="43.4155069" lon="11.154923"><ele>229.0</ele><time>2026-04-11T08:43:35.487Z</time></trkpt><trkpt lat="43.4154693" lon="11.1550433"><ele>228.99999999999997</ele><time>2026-04-11T08:43:37.489Z</time></trkpt><trkpt lat="43.4154271" lon="11.1551571"><ele>228.99999999999997</ele><time>2026-04-11T08:43:39.486Z</time></trkpt><trkpt lat="43.415379" lon="11.1552738"><ele>229.0</ele><time>2026-04-11T08:43:41.487Z</time></trkpt><trkpt lat="43.415333" lon="11.1553917"><ele>229.0</ele><time>2026-04-11T08:43:43.486Z</time></trkpt><trkpt lat="43.4152812" lon="11.1555109"><ele>229.0</ele><time>2026-04-11T08:43:45.482Z</time></trkpt><trkpt lat="43.4152333" lon="11.1556246"><ele>228.99999999999997</ele><time>2026-04-11T08:43:47.481Z</time></trkpt><trkpt lat="43.4151827" lon="11.1557405"><ele>228.99999999999997</ele><time>2026-04-11T08:43:49.476Z</time></trkpt><trkpt lat="43.415136" lon="11.1558506"><ele>229.0</ele><time>2026-04-11T08:43:51.488Z</time></trkpt><trkpt lat="43.415088" lon="11.1559607"><ele>229.0</ele><time>2026-04-11T08:43:53.481Z</time></trkpt><trkpt lat="43.4150356" lon="11.1560746"><ele>229.79999999999998</ele><time>2026-04-11T08:43:55.481Z</time></trkpt><trkpt lat="43.4149848" lon="11.1561906"><ele>230.59999999999997</ele><time>2026-04-11T08:43:57.481Z</time></trkpt><trkpt lat="43.4149366" lon="11.1563058"><ele>231.4</ele><time>2026-04-11T08:43:59.487Z</time></trkpt><trkpt lat="43.4148861" lon="11.1564258"><ele>232.2</ele><time>2026-04-11T08:44:01.476Z</time></trkpt><trkpt lat="43.4148285" lon="11.1565425"><ele>233.0</ele><time>2026-04-11T08:44:03.477Z</time></trkpt><trkpt lat="43.4147732" lon="11.1566731"><ele>233.25</ele><time>2026-04-11T08:44:05.481Z</time></trkpt><trkpt lat="43.4147196" lon="11.1568105"><ele>233.5</ele><time>2026-04-11T08:44:07.48Z</time></trkpt><trkpt lat="43.4146562" lon="11.1569414"><ele>233.75</ele><time>2026-04-11T08:44:09.481Z</time></trkpt><trkpt lat="43.4145931" lon="11.1570864"><ele>234.0</ele><time>2026-04-11T08:44:11.476Z</time></trkpt><trkpt lat="43.4145203" lon="11.157225"><ele>233.0</ele><time>2026-04-11T08:44:13.479Z</time></trkpt><trkpt lat="43.4144339" lon="11.1573474"><ele>231.99999999999997</ele><time>2026-04-11T08:44:15.479Z</time></trkpt><trkpt lat="43.4143876" lon="11.1574085"><ele>230.99999999999997</ele><time>2026-04-11T08:44:16.487Z</time></trkpt><trkpt lat="43.4142952" lon="11.1575239"><ele>230.0</ele><time>2026-04-11T08:44:18.49Z</time></trkpt><trkpt lat="43.414201" lon="11.1576399"><ele>229.0</ele><time>2026-04-11T08:44:20.489Z</time></trkpt><trkpt lat="43.4141033" lon="11.1577471"><ele>229.0</ele><time>2026-04-11T08:44:22.483Z</time></trkpt><trkpt lat="43.4140004" lon="11.1578416"><ele>228.99999999999997</ele><time>2026-04-11T08:44:24.483Z</time></trkpt><trkpt lat="43.4139031" lon="11.1579372"><ele>228.99999999999997</ele><time>2026-04-11T08:44:26.485Z</time></trkpt><trkpt lat="43.4138142" lon="11.1580514"><ele>229.0</ele><time>2026-04-11T08:44:28.475Z</time></trkpt><trkpt lat="43.4137652" lon="11.1581093"><ele>229.0</ele><time>2026-04-11T08:44:29.486Z</time></trkpt><trkpt lat="43.4136708" lon="11.1582104"><ele>228.25</ele><time>2026-04-11T08:44:31.488Z</time></trkpt><trkpt lat="43.4135638" lon="11.1582718"><ele>227.5</ele><time>2026-04-11T08:44:33.476Z</time></trkpt><trkpt lat="43.4134553" lon="11.1582789"><ele>226.75</ele><time>2026-04-11T08:44:35.477Z</time></trkpt><trkpt lat="43.413341" lon="11.1582763"><ele>226.0</ele><time>2026-04-11T08:44:37.487Z</time></trkpt><trkpt lat="43.4132287" lon="11.1582984"><ele>226.0</ele><time>2026-04-11T08:44:39.475Z</time></trkpt><trkpt lat="43.4131302" lon="11.1583951"><ele>226.0</ele><time>2026-04-11T08:44:41.486Z</time></trkpt><trkpt lat="43.413073" lon="11.1585417"><ele>226.0</ele><time>2026-04-11T08:44:43.486Z</time></trkpt><trkpt lat="43.4130599" lon="11.1587107"><ele>226.0</ele><time>2026-04-11T08:44:45.5Z</time></trkpt><trkpt lat="43.413044" lon="11.1588765"><ele>226.33333333333331</ele><time>2026-04-11T08:44:47.477Z</time></trkpt><trkpt lat="43.4129724" lon="11.1590162"><ele>226.66666666666666</ele><time>2026-04-11T08:44:49.479Z</time></trkpt><trkpt lat="43.4128742" lon="11.1591275"><ele>227.0</ele><time>2026-04-11T08:44:51.484Z</time></trkpt><trkpt lat="43.4128248" lon="11.1591855"><ele>227.33333333333331</ele><time>2026-04-11T08:44:52.483Z</time></trkpt><trkpt lat="43.4127755" lon="11.1592436"><ele>227.66666666666666</ele><time>2026-04-11T08:44:53.501Z</time></trkpt><trkpt lat="43.4127265" lon="11.1593011"><ele>228.0</ele><time>2026-04-11T08:44:54.476Z</time></trkpt><trkpt lat="43.4126776" lon="11.1593606"><ele>228.0</ele><time>2026-04-11T08:44:55.487Z</time></trkpt><trkpt lat="43.4125786" lon="11.1594665"><ele>228.0</ele><time>2026-04-11T08:44:57.485Z</time></trkpt><trkpt lat="43.4125309" lon="11.1595237"><ele>228.0</ele><time>2026-04-11T08:44:58.48Z</time></trkpt><trkpt lat="43.4124438" lon="11.159624"><ele>228.0</ele><time>2026-04-11T08:45:00.475Z</time></trkpt><trkpt lat="43.4123524" lon="11.1597163"><ele>228.0</ele><time>2026-04-11T08:45:02.485Z</time></trkpt><trkpt lat="43.4122565" lon="11.1598274"><ele>228.0</ele><time>2026-04-11T08:45:04.481Z</time></trkpt><trkpt lat="43.4122076" lon="11.1598842"><ele>228.0</ele><time>2026-04-11T08:45:05.5Z</time></trkpt><trkpt lat="43.4121144" lon="11.1599886"><ele>228.0</ele><time>2026-04-11T08:45:07.477Z</time></trkpt><trkpt lat="43.412021" lon="11.1600921"><ele>228.0</ele><time>2026-04-11T08:45:09.482Z</time></trkpt><trkpt lat="43.4119367" lon="11.1602011"><ele>228.0</ele><time>2026-04-11T08:45:11.485Z</time></trkpt><trkpt lat="43.4118425" lon="11.1603107"><ele>228.2</ele><time>2026-04-11T08:45:13.482Z</time></trkpt><trkpt lat="43.4117948" lon="11.1603692"><ele>228.4</ele><time>2026-04-11T08:45:14.497Z</time></trkpt><trkpt lat="43.4117473" lon="11.160428"><ele>228.59999999999997</ele><time>2026-04-11T08:45:15.482Z</time></trkpt><trkpt lat="43.4116606" lon="11.1605307"><ele>228.79999999999998</ele><time>2026-04-11T08:45:17.489Z</time></trkpt><trkpt lat="43.411571" lon="11.1606437"><ele>229.0</ele><time>2026-04-11T08:45:19.495Z</time></trkpt><trkpt lat="43.411483" lon="11.1607554"><ele>229.0</ele><time>2026-04-11T08:45:21.487Z</time></trkpt><trkpt lat="43.4113985" lon="11.1608649"><ele>229.0</ele><time>2026-04-11T08:45:23.488Z</time></trkpt><trkpt lat="43.4113108" lon="11.1609758"><ele>229.0</ele><time>2026-04-11T08:45:25.504Z</time></trkpt><trkpt lat="43.4112261" lon="11.1610818"><ele>229.0</ele><time>2026-04-11T08:45:27.479Z</time></trkpt><trkpt lat="43.4111419" lon="11.1611905"><ele>229.0</ele><time>2026-04-11T08:45:29.488Z</time></trkpt><trkpt lat="43.4110622" lon="11.1613025"><ele>229.0</ele><time>2026-04-11T08:45:31.476Z</time></trkpt><trkpt lat="43.4109791" lon="11.161416"><ele>229.0</ele><time>2026-04-11T08:45:33.476Z</time></trkpt><trkpt lat="43.4108964" lon="11.1615291"><ele>229.0</ele><time>2026-04-11T08:45:35.488Z</time></trkpt><trkpt lat="43.4108146" lon="11.1616438"><ele>229.0</ele><time>2026-04-11T08:45:37.481Z</time></trkpt><trkpt lat="43.4107351" lon="11.1617546"><ele>229.0</ele><time>2026-04-11T08:45:39.477Z</time></trkpt><trkpt lat="43.4106602" lon="11.1618709"><ele>229.0</ele><time>2026-04-11T08:45:41.482Z</time></trkpt><trkpt lat="43.4105784" lon="11.1619844"><ele>229.0</ele><time>2026-04-11T08:45:43.496Z</time></trkpt><trkpt lat="43.410498" lon="11.1620972"><ele>229.39999999999998</ele><time>2026-04-11T08:45:45.475Z</time></trkpt><trkpt lat="43.4104162" lon="11.1622074"><ele>229.79999999999998</ele><time>2026-04-11T08:45:47.487Z</time></trkpt><trkpt lat="43.4103393" lon="11.162318"><ele>230.20000000000002</ele><time>2026-04-11T08:45:49.481Z</time></trkpt><trkpt lat="43.4102615" lon="11.1624307"><ele>230.60000000000002</ele><time>2026-04-11T08:45:51.48Z</time></trkpt><trkpt lat="43.4101888" lon="11.1625295"><ele>231.0</ele><time>2026-04-11T08:45:53.472Z</time></trkpt><trkpt lat="43.4101188" lon="11.1626287"><ele>231.0</ele><time>2026-04-11T08:45:55.48Z</time></trkpt><trkpt lat="43.4100402" lon="11.1627457"><ele>231.0</ele><time>2026-04-11T08:45:57.495Z</time></trkpt><trkpt lat="43.4099575" lon="11.1628729"><ele>231.0</ele><time>2026-04-11T08:45:59.494Z</time></trkpt><trkpt lat="43.409878" lon="11.1629991"><ele>231.0</ele><time>2026-04-11T08:46:01.48Z</time></trkpt><trkpt lat="43.409798" lon="11.1631237"><ele>231.0</ele><time>2026-04-11T08:46:03.481Z</time></trkpt><trkpt lat="43.4097195" lon="11.1632337"><ele>231.0</ele><time>2026-04-11T08:46:05.476Z</time></trkpt><trkpt lat="43.4096446" lon="11.1633488"><ele>231.0</ele><time>2026-04-11T08:46:07.473Z</time></trkpt><trkpt lat="43.4095642" lon="11.1634664"><ele>231.0</ele><time>2026-04-11T08:46:09.492Z</time></trkpt><trkpt lat="43.4094835" lon="11.1635848"><ele>231.60000000000002</ele><time>2026-04-11T08:46:11.492Z</time></trkpt><trkpt lat="43.4094067" lon="11.1637006"><ele>232.20000000000002</ele><time>2026-04-11T08:46:13.49Z</time></trkpt><trkpt lat="43.4093282" lon="11.1638168"><ele>232.79999999999998</ele><time>2026-04-11T08:46:15.478Z</time></trkpt><trkpt lat="43.4092487" lon="11.163936"><ele>233.39999999999998</ele><time>2026-04-11T08:46:17.485Z</time></trkpt><trkpt lat="43.409207" lon="11.1640032"><ele>234.0</ele><time>2026-04-11T08:46:18.503Z</time></trkpt><trkpt lat="43.4091662" lon="11.1640694"><ele>234.0</ele><time>2026-04-11T08:46:19.479Z</time></trkpt><trkpt lat="43.4090776" lon="11.1641911"><ele>234.0</ele><time>2026-04-11T08:46:21.483Z</time></trkpt><trkpt lat="43.4089927" lon="11.1643067"><ele>234.0</ele><time>2026-04-11T08:46:23.485Z</time></trkpt><trkpt lat="43.4089082" lon="11.1644227"><ele>234.0</ele><time>2026-04-11T08:46:25.474Z</time></trkpt><trkpt lat="43.4088282" lon="11.16454"><ele>234.16666666666666</ele><time>2026-04-11T08:46:27.475Z</time></trkpt><trkpt lat="43.4087409" lon="11.1646548"><ele>234.33333333333331</ele><time>2026-04-11T08:46:29.486Z</time></trkpt><trkpt lat="43.4086515" lon="11.164769"><ele>234.5</ele><time>2026-04-11T08:46:31.493Z</time></trkpt><trkpt lat="43.4086057" lon="11.1648318"><ele>234.66666666666666</ele><time>2026-04-11T08:46:32.487Z</time></trkpt><trkpt lat="43.4085615" lon="11.1648997"><ele>234.83333333333331</ele><time>2026-04-11T08:46:33.492Z</time></trkpt><trkpt lat="43.4085163" lon="11.1649708"><ele>235.0</ele><time>2026-04-11T08:46:34.487Z</time></trkpt><trkpt lat="43.4084297" lon="11.1650903"><ele>235.0</ele><time>2026-04-11T08:46:36.479Z</time></trkpt><trkpt lat="43.4083431" lon="11.1652011"><ele>234.99999999999997</ele><time>2026-04-11T08:46:38.477Z</time></trkpt><trkpt lat="43.4082966" lon="11.1652625"><ele>235.0</ele><time>2026-04-11T08:46:39.495Z</time></trkpt><trkpt lat="43.4082515" lon="11.1653233"><ele>235.0</ele><time>2026-04-11T08:46:40.479Z</time></trkpt><trkpt lat="43.4082027" lon="11.1653877"><ele>234.99999999999997</ele><time>2026-04-11T08:46:41.489Z</time></trkpt><trkpt lat="43.4081552" lon="11.1654473"><ele>235.0</ele><time>2026-04-11T08:46:42.494Z</time></trkpt><trkpt lat="43.408104" lon="11.1655059"><ele>235.0</ele><time>2026-04-11T08:46:43.503Z</time></trkpt><trkpt lat="43.4080566" lon="11.165567"><ele>235.0</ele><time>2026-04-11T08:46:44.48Z</time></trkpt><trkpt lat="43.4080073" lon="11.1656326"><ele>234.99999999999997</ele><time>2026-04-11T08:46:45.473Z</time></trkpt><trkpt lat="43.4079619" lon="11.1656979"><ele>235.0</ele><time>2026-04-11T08:46:46.488Z</time></trkpt><trkpt lat="43.4079174" lon="11.1657647"><ele>235.0</ele><time>2026-04-11T08:46:47.474Z</time></trkpt><trkpt lat="43.4078709" lon="11.165831"><ele>234.99999999999997</ele><time>2026-04-11T08:46:48.488Z</time></trkpt><trkpt lat="43.4078239" lon="11.1658944"><ele>235.0</ele><time>2026-04-11T08:46:49.48Z</time></trkpt><trkpt lat="43.4077779" lon="11.1659544"><ele>235.0</ele><time>2026-04-11T08:46:50.487Z</time></trkpt><trkpt lat="43.4076842" lon="11.1660731"><ele>234.7142857142857</ele><time>2026-04-11T08:46:52.483Z</time></trkpt><trkpt lat="43.4076358" lon="11.1661346"><ele>234.4285714285714</ele><time>2026-04-11T08:46:53.479Z</time></trkpt><trkpt lat="43.407586" lon="11.1661938"><ele>234.14285714285714</ele><time>2026-04-11T08:46:54.49Z</time></trkpt><trkpt lat="43.4075341" lon="11.1662502"><ele>233.85714285714283</ele><time>2026-04-11T08:46:55.493Z</time></trkpt><trkpt lat="43.4074827" lon="11.1663083"><ele>233.57142857142856</ele><time>2026-04-11T08:46:56.48Z</time></trkpt><trkpt lat="43.4074309" lon="11.1663719"><ele>233.28571428571428</ele><time>2026-04-11T08:46:57.496Z</time></trkpt><trkpt lat="43.4073814" lon="11.1664338"><ele>233.0</ele><time>2026-04-11T08:46:58.476Z</time></trkpt><trkpt lat="43.407331" lon="11.166492"><ele>232.16666666666669</ele><time>2026-04-11T08:46:59.485Z</time></trkpt><trkpt lat="43.4072776" lon="11.1665505"><ele>231.33333333333334</ele><time>2026-04-11T08:47:00.476Z</time></trkpt><trkpt lat="43.4072173" lon="11.1666115"><ele>230.5</ele><time>2026-04-11T08:47:01.483Z</time></trkpt><trkpt lat="43.4071535" lon="11.1666737"><ele>229.66666666666669</ele><time>2026-04-11T08:47:02.482Z</time></trkpt><trkpt lat="43.4070889" lon="11.1667325"><ele>228.83333333333334</ele><time>2026-04-11T08:47:03.488Z</time></trkpt><trkpt lat="43.4070197" lon="11.1667889"><ele>228.0</ele><time>2026-04-11T08:47:04.491Z</time></trkpt><trkpt lat="43.406948" lon="11.1668395"><ele>228.0</ele><time>2026-04-11T08:47:05.504Z</time></trkpt><trkpt lat="43.4068731" lon="11.1668831"><ele>228.0</ele><time>2026-04-11T08:47:06.491Z</time></trkpt><trkpt lat="43.4067989" lon="11.1669224"><ele>228.0</ele><time>2026-04-11T08:47:07.475Z</time></trkpt><trkpt lat="43.4067319" lon="11.1669731"><ele>228.0</ele><time>2026-04-11T08:47:08.488Z</time></trkpt><trkpt lat="43.4066741" lon="11.1670432"><ele>228.0</ele><time>2026-04-11T08:47:09.485Z</time></trkpt><trkpt lat="43.4066303" lon="11.1671338"><ele>228.0</ele><time>2026-04-11T08:47:10.493Z</time></trkpt><trkpt lat="43.4065975" lon="11.1672298"><ele>228.0</ele><time>2026-04-11T08:47:11.49Z</time></trkpt><trkpt lat="43.4065591" lon="11.1673186"><ele>227.99999999999997</ele><time>2026-04-11T08:47:12.475Z</time></trkpt><trkpt lat="43.4065147" lon="11.1673985"><ele>228.0</ele><time>2026-04-11T08:47:13.478Z</time></trkpt><trkpt lat="43.4064633" lon="11.1674631"><ele>228.0</ele><time>2026-04-11T08:47:14.483Z</time></trkpt><trkpt lat="43.4064103" lon="11.1675158"><ele>227.99999999999997</ele><time>2026-04-11T08:47:15.495Z</time></trkpt><trkpt lat="43.4063562" lon="11.1675701"><ele>228.0</ele><time>2026-04-11T08:47:16.488Z</time></trkpt><trkpt lat="43.4063037" lon="11.1676248"><ele>228.0</ele><time>2026-04-11T08:47:17.502Z</time></trkpt><trkpt lat="43.4062519" lon="11.1676794"><ele>227.57142857142856</ele><time>2026-04-11T08:47:18.483Z</time></trkpt><trkpt lat="43.4062" lon="11.1677347"><ele>227.1428571428571</ele><time>2026-04-11T08:47:19.494Z</time></trkpt><trkpt lat="43.406148" lon="11.1677916"><ele>226.71428571428572</ele><time>2026-04-11T08:47:20.497Z</time></trkpt><trkpt lat="43.4060962" lon="11.1678495"><ele>226.28571428571428</ele><time>2026-04-11T08:47:21.474Z</time></trkpt><trkpt lat="43.406048" lon="11.167906"><ele>225.85714285714286</ele><time>2026-04-11T08:47:22.494Z</time></trkpt><trkpt lat="43.4059497" lon="11.1680102"><ele>225.42857142857144</ele><time>2026-04-11T08:47:24.496Z</time></trkpt><trkpt lat="43.4059006" lon="11.1680646"><ele>225.00000000000003</ele><time>2026-04-11T08:47:25.491Z</time></trkpt><trkpt lat="43.4058485" lon="11.1681218"><ele>225.00000000000003</ele><time>2026-04-11T08:47:26.484Z</time></trkpt><trkpt lat="43.4057978" lon="11.1681808"><ele>225.0</ele><time>2026-04-11T08:47:27.482Z</time></trkpt><trkpt lat="43.4057453" lon="11.1682399"><ele>225.00000000000003</ele><time>2026-04-11T08:47:28.504Z</time></trkpt><trkpt lat="43.4056964" lon="11.1683021"><ele>225.00000000000003</ele><time>2026-04-11T08:47:29.484Z</time></trkpt><trkpt lat="43.4056452" lon="11.1683611"><ele>225.0</ele><time>2026-04-11T08:47:30.476Z</time></trkpt><trkpt lat="43.4055953" lon="11.1684196"><ele>225.00000000000003</ele><time>2026-04-11T08:47:31.482Z</time></trkpt><trkpt lat="43.4055466" lon="11.1684786"><ele>225.00000000000003</ele><time>2026-04-11T08:47:32.484Z</time></trkpt><trkpt lat="43.4054964" lon="11.168533"><ele>225.14285714285717</ele><time>2026-04-11T08:47:33.481Z</time></trkpt><trkpt lat="43.4054459" lon="11.1685882"><ele>225.28571428571428</ele><time>2026-04-11T08:47:34.497Z</time></trkpt><trkpt lat="43.4053962" lon="11.1686445"><ele>225.42857142857144</ele><time>2026-04-11T08:47:35.492Z</time></trkpt><trkpt lat="43.405344" lon="11.1687023"><ele>225.57142857142858</ele><time>2026-04-11T08:47:36.492Z</time></trkpt><trkpt lat="43.4052883" lon="11.1687607"><ele>225.71428571428572</ele><time>2026-04-11T08:47:37.485Z</time></trkpt><trkpt lat="43.4052349" lon="11.1688192"><ele>225.85714285714286</ele><time>2026-04-11T08:47:38.477Z</time></trkpt><trkpt lat="43.4051809" lon="11.1688809"><ele>226.0</ele><time>2026-04-11T08:47:39.489Z</time></trkpt><trkpt lat="43.40512" lon="11.1689413"><ele>225.99999999999997</ele><time>2026-04-11T08:47:40.494Z</time></trkpt><trkpt lat="43.4050566" lon="11.1689997"><ele>226.0</ele><time>2026-04-11T08:47:41.5Z</time></trkpt><trkpt lat="43.4049934" lon="11.1690564"><ele>226.0</ele><time>2026-04-11T08:47:42.496Z</time></trkpt><trkpt lat="43.4049329" lon="11.1691182"><ele>226.0</ele><time>2026-04-11T08:47:43.487Z</time></trkpt><trkpt lat="43.4048713" lon="11.1691816"><ele>225.99999999999997</ele><time>2026-04-11T08:47:44.483Z</time></trkpt><trkpt lat="43.4048087" lon="11.169245"><ele>226.0</ele><time>2026-04-11T08:47:45.487Z</time></trkpt><trkpt lat="43.4047464" lon="11.1693078"><ele>225.83333333333331</ele><time>2026-04-11T08:47:46.489Z</time></trkpt><trkpt lat="43.4046855" lon="11.1693711"><ele>225.66666666666666</ele><time>2026-04-11T08:47:47.486Z</time></trkpt><trkpt lat="43.4046239" lon="11.1694333"><ele>225.5</ele><time>2026-04-11T08:47:48.498Z</time></trkpt><trkpt lat="43.4045595" lon="11.1694901"><ele>225.33333333333331</ele><time>2026-04-11T08:47:49.493Z</time></trkpt><trkpt lat="43.4044967" lon="11.1695423"><ele>225.16666666666666</ele><time>2026-04-11T08:47:50.485Z</time></trkpt><trkpt lat="43.4044317" lon="11.1695948"><ele>225.0</ele><time>2026-04-11T08:47:51.49Z</time></trkpt><trkpt lat="43.4043659" lon="11.1696447"><ele>224.8571428571429</ele><time>2026-04-11T08:47:52.472Z</time></trkpt><trkpt lat="43.4042994" lon="11.1696945"><ele>224.71428571428572</ele><time>2026-04-11T08:47:53.483Z</time></trkpt><trkpt lat="43.4042363" lon="11.1697452"><ele>224.57142857142858</ele><time>2026-04-11T08:47:54.486Z</time></trkpt><trkpt lat="43.404177" lon="11.169799"><ele>224.42857142857144</ele><time>2026-04-11T08:47:55.481Z</time></trkpt><trkpt lat="43.404121" lon="11.169857"><ele>224.28571428571428</ele><time>2026-04-11T08:47:56.514Z</time></trkpt><trkpt lat="43.4040676" lon="11.1699162"><ele>224.14285714285714</ele><time>2026-04-11T08:47:57.486Z</time></trkpt><trkpt lat="43.4040169" lon="11.1699778"><ele>224.0</ele><time>2026-04-11T08:47:58.473Z</time></trkpt><trkpt lat="43.4039653" lon="11.1700346"><ele>224.0</ele><time>2026-04-11T08:47:59.488Z</time></trkpt><trkpt lat="43.4039111" lon="11.1700881"><ele>224.0</ele><time>2026-04-11T08:48:00.484Z</time></trkpt><trkpt lat="43.4038582" lon="11.1701406"><ele>224.0</ele><time>2026-04-11T08:48:01.493Z</time></trkpt><trkpt lat="43.4038072" lon="11.1701984"><ele>224.0</ele><time>2026-04-11T08:48:02.478Z</time></trkpt><trkpt lat="43.4037553" lon="11.1702536"><ele>224.0</ele><time>2026-04-11T08:48:03.495Z</time></trkpt><trkpt lat="43.4036985" lon="11.1702992"><ele>224.0</ele><time>2026-04-11T08:48:04.502Z</time></trkpt><trkpt lat="43.4036427" lon="11.1703492"><ele>224.0</ele><time>2026-04-11T08:48:05.485Z</time></trkpt><trkpt lat="43.4035878" lon="11.1704077"><ele>223.71428571428572</ele><time>2026-04-11T08:48:06.504Z</time></trkpt><trkpt lat="43.4035389" lon="11.1704661"><ele>223.42857142857144</ele><time>2026-04-11T08:48:07.484Z</time></trkpt><trkpt lat="43.4034877" lon="11.1705273"><ele>223.14285714285714</ele><time>2026-04-11T08:48:08.489Z</time></trkpt><trkpt lat="43.4034361" lon="11.1705905"><ele>222.85714285714286</ele><time>2026-04-11T08:48:09.49Z</time></trkpt><trkpt lat="43.4033858" lon="11.1706512"><ele>222.57142857142858</ele><time>2026-04-11T08:48:10.483Z</time></trkpt><trkpt lat="43.4033351" lon="11.1707166"><ele>222.28571428571428</ele><time>2026-04-11T08:48:11.482Z</time></trkpt><trkpt lat="43.4032851" lon="11.1707813"><ele>222.0</ele><time>2026-04-11T08:48:12.494Z</time></trkpt><trkpt lat="43.4032383" lon="11.1708479"><ele>221.85714285714286</ele><time>2026-04-11T08:48:13.498Z</time></trkpt><trkpt lat="43.403197" lon="11.1709196"><ele>221.71428571428572</ele><time>2026-04-11T08:48:14.486Z</time></trkpt><trkpt lat="43.4031544" lon="11.170994"><ele>221.57142857142858</ele><time>2026-04-11T08:48:15.501Z</time></trkpt><trkpt lat="43.4031142" lon="11.1710663"><ele>221.42857142857144</ele><time>2026-04-11T08:48:16.485Z</time></trkpt><trkpt lat="43.4030736" lon="11.1711393"><ele>221.28571428571428</ele><time>2026-04-11T08:48:17.478Z</time></trkpt><trkpt lat="43.4030341" lon="11.1712137"><ele>221.14285714285717</ele><time>2026-04-11T08:48:18.476Z</time></trkpt><trkpt lat="43.4029909" lon="11.1712871"><ele>221.0</ele><time>2026-04-11T08:48:19.479Z</time></trkpt><trkpt lat="43.4029469" lon="11.1713612"><ele>220.85714285714286</ele><time>2026-04-11T08:48:20.478Z</time></trkpt><trkpt lat="43.4029011" lon="11.1714415"><ele>220.71428571428572</ele><time>2026-04-11T08:48:21.474Z</time></trkpt><trkpt lat="43.4028541" lon="11.1715225"><ele>220.57142857142856</ele><time>2026-04-11T08:48:22.48Z</time></trkpt><trkpt lat="43.402809" lon="11.1716032"><ele>220.42857142857144</ele><time>2026-04-11T08:48:23.472Z</time></trkpt><trkpt lat="43.4027628" lon="11.1716833"><ele>220.28571428571428</ele><time>2026-04-11T08:48:24.492Z</time></trkpt><trkpt lat="43.4027178" lon="11.1717618"><ele>220.14285714285714</ele><time>2026-04-11T08:48:25.476Z</time></trkpt><trkpt lat="43.4026712" lon="11.1718382"><ele>220.0</ele><time>2026-04-11T08:48:26.479Z</time></trkpt><trkpt lat="43.4026244" lon="11.1719148"><ele>219.85714285714283</ele><time>2026-04-11T08:48:27.49Z</time></trkpt><trkpt lat="43.4025793" lon="11.1719928"><ele>219.71428571428572</ele><time>2026-04-11T08:48:28.483Z</time></trkpt><trkpt lat="43.4025347" lon="11.1720712"><ele>219.57142857142856</ele><time>2026-04-11T08:48:29.498Z</time></trkpt><trkpt lat="43.4024895" lon="11.17215"><ele>219.42857142857142</ele><time>2026-04-11T08:48:30.478Z</time></trkpt><trkpt lat="43.4024434" lon="11.1722327"><ele>219.28571428571428</ele><time>2026-04-11T08:48:31.479Z</time></trkpt><trkpt lat="43.4023992" lon="11.1723135"><ele>219.14285714285714</ele><time>2026-04-11T08:48:32.495Z</time></trkpt><trkpt lat="43.4023559" lon="11.1723904"><ele>219.0</ele><time>2026-04-11T08:48:33.489Z</time></trkpt><trkpt lat="43.4023117" lon="11.1724728"><ele>219.0</ele><time>2026-04-11T08:48:34.505Z</time></trkpt><trkpt lat="43.4022684" lon="11.1725557"><ele>219.0</ele><time>2026-04-11T08:48:35.498Z</time></trkpt><trkpt lat="43.402223" lon="11.1726404"><ele>219.0</ele><time>2026-04-11T08:48:36.514Z</time></trkpt><trkpt lat="43.4021802" lon="11.1727252"><ele>219.0</ele><time>2026-04-11T08:48:37.497Z</time></trkpt><trkpt lat="43.4021413" lon="11.1728141"><ele>219.0</ele><time>2026-04-11T08:48:38.493Z</time></trkpt><trkpt lat="43.4021042" lon="11.172905"><ele>219.0</ele><time>2026-04-11T08:48:39.484Z</time></trkpt><trkpt lat="43.4020663" lon="11.1729937"><ele>219.0</ele><time>2026-04-11T08:48:40.489Z</time></trkpt><trkpt lat="43.4020281" lon="11.1730817"><ele>219.0</ele><time>2026-04-11T08:48:41.479Z</time></trkpt><trkpt lat="43.4019897" lon="11.1731674"><ele>219.0</ele><time>2026-04-11T08:48:42.473Z</time></trkpt><trkpt lat="43.4019527" lon="11.1732573"><ele>219.0</ele><time>2026-04-11T08:48:43.478Z</time></trkpt><trkpt lat="43.4019198" lon="11.1733497"><ele>219.0</ele><time>2026-04-11T08:48:44.472Z</time></trkpt><trkpt lat="43.4018886" lon="11.1734426"><ele>219.0</ele><time>2026-04-11T08:48:45.497Z</time></trkpt><trkpt lat="43.4018606" lon="11.1735321"><ele>219.0</ele><time>2026-04-11T08:48:46.5Z</time></trkpt><trkpt lat="43.4018319" lon="11.1736216"><ele>218.85714285714286</ele><time>2026-04-11T08:48:47.478Z</time></trkpt><trkpt lat="43.401802" lon="11.1737114"><ele>218.7142857142857</ele><time>2026-04-11T08:48:48.498Z</time></trkpt><trkpt lat="43.4017698" lon="11.1737991"><ele>218.57142857142856</ele><time>2026-04-11T08:48:49.486Z</time></trkpt><trkpt lat="43.4017388" lon="11.1738918"><ele>218.42857142857144</ele><time>2026-04-11T08:48:50.494Z</time></trkpt><trkpt lat="43.4017039" lon="11.1739821"><ele>218.28571428571428</ele><time>2026-04-11T08:48:51.48Z</time></trkpt><trkpt lat="43.401663" lon="11.1740732"><ele>218.14285714285714</ele><time>2026-04-11T08:48:52.483Z</time></trkpt><trkpt lat="43.4016172" lon="11.1741618"><ele>218.0</ele><time>2026-04-11T08:48:53.494Z</time></trkpt><trkpt lat="43.4015649" lon="11.1742439"><ele>217.83333333333334</ele><time>2026-04-11T08:48:54.486Z</time></trkpt><trkpt lat="43.4015091" lon="11.1743131"><ele>217.66666666666669</ele><time>2026-04-11T08:48:55.487Z</time></trkpt><trkpt lat="43.4014462" lon="11.174377"><ele>217.5</ele><time>2026-04-11T08:48:56.486Z</time></trkpt><trkpt lat="43.4013806" lon="11.1744357"><ele>217.33333333333331</ele><time>2026-04-11T08:48:57.476Z</time></trkpt><trkpt lat="43.401319" lon="11.1744951"><ele>217.16666666666666</ele><time>2026-04-11T08:48:58.499Z</time></trkpt><trkpt lat="43.4012584" lon="11.1745504"><ele>217.0</ele><time>2026-04-11T08:48:59.483Z</time></trkpt><trkpt lat="43.4011989" lon="11.1746072"><ele>216.99999999999997</ele><time>2026-04-11T08:49:00.498Z</time></trkpt><trkpt lat="43.4011423" lon="11.1746614"><ele>217.0</ele><time>2026-04-11T08:49:01.476Z</time></trkpt><trkpt lat="43.4010869" lon="11.1747142"><ele>217.0</ele><time>2026-04-11T08:49:02.475Z</time></trkpt><trkpt lat="43.4010317" lon="11.1747663"><ele>217.0</ele><time>2026-04-11T08:49:03.485Z</time></trkpt><trkpt lat="43.4009777" lon="11.1748187"><ele>216.99999999999997</ele><time>2026-04-11T08:49:04.479Z</time></trkpt><trkpt lat="43.4009246" lon="11.1748673"><ele>217.0</ele><time>2026-04-11T08:49:05.487Z</time></trkpt><trkpt lat="43.4008283" lon="11.1749687"><ele>217.0</ele><time>2026-04-11T08:49:07.478Z</time></trkpt><trkpt lat="43.4007297" lon="11.1750525"><ele>217.0</ele><time>2026-04-11T08:49:09.497Z</time></trkpt><trkpt lat="43.4006356" lon="11.1751358"><ele>217.0</ele><time>2026-04-11T08:49:11.492Z</time></trkpt><trkpt lat="43.4005376" lon="11.1752168"><ele>217.0</ele><time>2026-04-11T08:49:13.473Z</time></trkpt><trkpt lat="43.4004849" lon="11.1752648"><ele>217.0</ele><time>2026-04-11T08:49:14.498Z</time></trkpt><trkpt lat="43.4004322" lon="11.1753181"><ele>216.99999999999997</ele><time>2026-04-11T08:49:15.481Z</time></trkpt><trkpt lat="43.4003791" lon="11.175368"><ele>217.0</ele><time>2026-04-11T08:49:16.51Z</time></trkpt><trkpt lat="43.4002765" lon="11.1754685"><ele>217.0</ele><time>2026-04-11T08:49:18.487Z</time></trkpt><trkpt lat="43.4002254" lon="11.175524"><ele>217.0</ele><time>2026-04-11T08:49:19.501Z</time></trkpt><trkpt lat="43.400173" lon="11.1755768"><ele>216.99999999999997</ele><time>2026-04-11T08:49:20.473Z</time></trkpt><trkpt lat="43.4001192" lon="11.1756279"><ele>217.0</ele><time>2026-04-11T08:49:21.473Z</time></trkpt><trkpt lat="43.4000179" lon="11.175727"><ele>217.0</ele><time>2026-04-11T08:49:23.478Z</time></trkpt><trkpt lat="43.3999641" lon="11.1757821"><ele>217.0</ele><time>2026-04-11T08:49:24.496Z</time></trkpt><trkpt lat="43.3999096" lon="11.1758328"><ele>217.0</ele><time>2026-04-11T08:49:25.475Z</time></trkpt><trkpt lat="43.3998516" lon="11.1758872"><ele>217.0</ele><time>2026-04-11T08:49:26.484Z</time></trkpt><trkpt lat="43.3997949" lon="11.1759382"><ele>217.0</ele><time>2026-04-11T08:49:27.472Z</time></trkpt><trkpt lat="43.3997388" lon="11.1759863"><ele>217.0</ele><time>2026-04-11T08:49:28.477Z</time></trkpt><trkpt lat="43.399684" lon="11.1760387"><ele>217.0</ele><time>2026-04-11T08:49:29.477Z</time></trkpt><trkpt lat="43.3996327" lon="11.1760952"><ele>217.16666666666666</ele><time>2026-04-11T08:49:30.505Z</time></trkpt><trkpt lat="43.3995821" lon="11.1761488"><ele>217.33333333333331</ele><time>2026-04-11T08:49:31.482Z</time></trkpt><trkpt lat="43.3994767" lon="11.1762511"><ele>217.5</ele><time>2026-04-11T08:49:33.493Z</time></trkpt><trkpt lat="43.3994236" lon="11.1762999"><ele>217.66666666666669</ele><time>2026-04-11T08:49:34.483Z</time></trkpt><trkpt lat="43.3993689" lon="11.1763456"><ele>217.83333333333334</ele><time>2026-04-11T08:49:35.492Z</time></trkpt><trkpt lat="43.3992644" lon="11.1764362"><ele>218.0</ele><time>2026-04-11T08:49:37.48Z</time></trkpt><trkpt lat="43.3991653" lon="11.1765358"><ele>218.0</ele><time>2026-04-11T08:49:39.507Z</time></trkpt><trkpt lat="43.3990657" lon="11.1766401"><ele>218.0</ele><time>2026-04-11T08:49:41.485Z</time></trkpt><trkpt lat="43.3989665" lon="11.1767376"><ele>218.0</ele><time>2026-04-11T08:49:43.48Z</time></trkpt><trkpt lat="43.3988667" lon="11.1768275"><ele>218.0</ele><time>2026-04-11T08:49:45.477Z</time></trkpt><trkpt lat="43.3987721" lon="11.1769173"><ele>218.0</ele><time>2026-04-11T08:49:47.477Z</time></trkpt><trkpt lat="43.3986781" lon="11.1770047"><ele>218.0</ele><time>2026-04-11T08:49:49.477Z</time></trkpt><trkpt lat="43.3985959" lon="11.1770788"><ele>218.0</ele><time>2026-04-11T08:49:51.479Z</time></trkpt><trkpt lat="43.3985145" lon="11.1771613"><ele>218.0</ele><time>2026-04-11T08:49:53.482Z</time></trkpt><trkpt lat="43.3984283" lon="11.1772437"><ele>218.0</ele><time>2026-04-11T08:49:55.488Z</time></trkpt><trkpt lat="43.398342" lon="11.1773357"><ele>218.0</ele><time>2026-04-11T08:49:57.47Z</time></trkpt><trkpt lat="43.3982569" lon="11.1774226"><ele>218.0</ele><time>2026-04-11T08:49:59.476Z</time></trkpt><trkpt lat="43.3981726" lon="11.1775068"><ele>218.0</ele><time>2026-04-11T08:50:01.489Z</time></trkpt><trkpt lat="43.3980864" lon="11.1775915"><ele>218.0</ele><time>2026-04-11T08:50:03.483Z</time></trkpt><trkpt lat="43.3979974" lon="11.1776813"><ele>218.0</ele><time>2026-04-11T08:50:05.484Z</time></trkpt><trkpt lat="43.3979066" lon="11.1777617"><ele>218.0</ele><time>2026-04-11T08:50:07.488Z</time></trkpt><trkpt lat="43.3978205" lon="11.1778465"><ele>218.0</ele><time>2026-04-11T08:50:09.487Z</time></trkpt><trkpt lat="43.3977358" lon="11.1779284"><ele>218.0</ele><time>2026-04-11T08:50:11.479Z</time></trkpt><trkpt lat="43.3976517" lon="11.1780092"><ele>218.0</ele><time>2026-04-11T08:50:13.475Z</time></trkpt><trkpt lat="43.3975688" lon="11.178091"><ele>218.0</ele><time>2026-04-11T08:50:15.487Z</time></trkpt><trkpt lat="43.3974833" lon="11.1781659"><ele>218.50000000000003</ele><time>2026-04-11T08:50:17.507Z</time></trkpt><trkpt lat="43.3974045" lon="11.1782333"><ele>219.0</ele><time>2026-04-11T08:50:19.474Z</time></trkpt><trkpt lat="43.3973327" lon="11.178303"><ele>219.5</ele><time>2026-04-11T08:50:21.486Z</time></trkpt><trkpt lat="43.3972647" lon="11.1783756"><ele>220.0</ele><time>2026-04-11T08:50:23.479Z</time></trkpt><trkpt lat="43.3971889" lon="11.178447"><ele>220.50000000000003</ele><time>2026-04-11T08:50:25.478Z</time></trkpt><trkpt lat="43.3971176" lon="11.1785236"><ele>221.0</ele><time>2026-04-11T08:50:27.493Z</time></trkpt><trkpt lat="43.3970508" lon="11.1786045"><ele>221.33333333333334</ele><time>2026-04-11T08:50:29.489Z</time></trkpt><trkpt lat="43.3969882" lon="11.1786798"><ele>221.66666666666669</ele><time>2026-04-11T08:50:31.494Z</time></trkpt><trkpt lat="43.3969284" lon="11.1787668"><ele>222.0</ele><time>2026-04-11T08:50:33.483Z</time></trkpt><trkpt lat="43.3968697" lon="11.1788529"><ele>222.33333333333331</ele><time>2026-04-11T08:50:35.483Z</time></trkpt><trkpt lat="43.3968145" lon="11.1789419"><ele>222.66666666666666</ele><time>2026-04-11T08:50:37.492Z</time></trkpt><trkpt lat="43.3967599" lon="11.1790412"><ele>223.0</ele><time>2026-04-11T08:50:39.49Z</time></trkpt><trkpt lat="43.3967096" lon="11.1791375"><ele>223.0</ele><time>2026-04-11T08:50:41.496Z</time></trkpt><trkpt lat="43.3966584" lon="11.1792514"><ele>223.0</ele><time>2026-04-11T08:50:43.49Z</time></trkpt><trkpt lat="43.3966017" lon="11.179364"><ele>223.0</ele><time>2026-04-11T08:50:45.49Z</time></trkpt><trkpt lat="43.3965462" lon="11.1794785"><ele>223.0</ele><time>2026-04-11T08:50:47.483Z</time></trkpt><trkpt lat="43.3964953" lon="11.179601"><ele>223.0</ele><time>2026-04-11T08:50:49.484Z</time></trkpt><trkpt lat="43.3964348" lon="11.1797378"><ele>223.33333333333331</ele><time>2026-04-11T08:50:51.497Z</time></trkpt><trkpt lat="43.3963709" lon="11.1798779"><ele>223.66666666666666</ele><time>2026-04-11T08:50:53.485Z</time></trkpt><trkpt lat="43.3963399" lon="11.1799584"><ele>224.0</ele><time>2026-04-11T08:50:54.47Z</time></trkpt><trkpt lat="43.3963069" lon="11.1800426"><ele>224.33333333333331</ele><time>2026-04-11T08:50:55.488Z</time></trkpt><trkpt lat="43.3962732" lon="11.180125"><ele>224.66666666666666</ele><time>2026-04-11T08:50:56.491Z</time></trkpt><trkpt lat="43.39624" lon="11.1802072"><ele>225.0</ele><time>2026-04-11T08:50:57.49Z</time></trkpt><trkpt lat="43.3962049" lon="11.1802901"><ele>224.42857142857147</ele><time>2026-04-11T08:50:58.478Z</time></trkpt><trkpt lat="43.39617" lon="11.1803741"><ele>223.85714285714286</ele><time>2026-04-11T08:50:59.481Z</time></trkpt><trkpt lat="43.3961346" lon="11.1804596"><ele>223.2857142857143</ele><time>2026-04-11T08:51:00.509Z</time></trkpt><trkpt lat="43.3961012" lon="11.1805421"><ele>222.71428571428572</ele><time>2026-04-11T08:51:01.486Z</time></trkpt><trkpt lat="43.396068" lon="11.180627"><ele>222.14285714285717</ele><time>2026-04-11T08:51:02.487Z</time></trkpt><trkpt lat="43.3960352" lon="11.1807124"><ele>221.57142857142858</ele><time>2026-04-11T08:51:03.487Z</time></trkpt><trkpt lat="43.3960015" lon="11.1807954"><ele>221.0</ele><time>2026-04-11T08:51:04.475Z</time></trkpt><trkpt lat="43.3959704" lon="11.1808767"><ele>221.00000000000003</ele><time>2026-04-11T08:51:05.492Z</time></trkpt><trkpt lat="43.3959395" lon="11.1809584"><ele>221.0</ele><time>2026-04-11T08:51:06.486Z</time></trkpt><trkpt lat="43.3959066" lon="11.181047"><ele>221.0</ele><time>2026-04-11T08:51:07.487Z</time></trkpt><trkpt lat="43.3958742" lon="11.18113"><ele>221.0</ele><time>2026-04-11T08:51:08.49Z</time></trkpt><trkpt lat="43.3958403" lon="11.1812106"><ele>221.0</ele><time>2026-04-11T08:51:09.483Z</time></trkpt><trkpt lat="43.3958065" lon="11.1812937"><ele>221.00000000000003</ele><time>2026-04-11T08:51:10.489Z</time></trkpt><trkpt lat="43.3957734" lon="11.1813756"><ele>221.0</ele><time>2026-04-11T08:51:11.482Z</time></trkpt><trkpt lat="43.3957402" lon="11.1814574"><ele>221.00000000000003</ele><time>2026-04-11T08:51:12.494Z</time></trkpt><trkpt lat="43.395711" lon="11.1815348"><ele>221.0</ele><time>2026-04-11T08:51:13.502Z</time></trkpt><trkpt lat="43.3956495" lon="11.1816849"><ele>221.0</ele><time>2026-04-11T08:51:15.489Z</time></trkpt><trkpt lat="43.3956174" lon="11.1817598"><ele>221.0</ele><time>2026-04-11T08:51:16.495Z</time></trkpt><trkpt lat="43.3955548" lon="11.181912"><ele>221.00000000000003</ele><time>2026-04-11T08:51:18.486Z</time></trkpt><trkpt lat="43.3955242" lon="11.1819924"><ele>221.0</ele><time>2026-04-11T08:51:19.477Z</time></trkpt><trkpt lat="43.3954935" lon="11.1820723"><ele>221.14285714285717</ele><time>2026-04-11T08:51:20.496Z</time></trkpt><trkpt lat="43.3954637" lon="11.1821513"><ele>221.28571428571428</ele><time>2026-04-11T08:51:21.499Z</time></trkpt><trkpt lat="43.3954314" lon="11.1822308"><ele>221.42857142857144</ele><time>2026-04-11T08:51:22.469Z</time></trkpt><trkpt lat="43.3953981" lon="11.1823121"><ele>221.57142857142858</ele><time>2026-04-11T08:51:23.493Z</time></trkpt><trkpt lat="43.3953671" lon="11.1823944"><ele>221.71428571428572</ele><time>2026-04-11T08:51:24.489Z</time></trkpt><trkpt lat="43.3953364" lon="11.1824742"><ele>221.85714285714286</ele><time>2026-04-11T08:51:25.488Z</time></trkpt><trkpt lat="43.3953054" lon="11.1825546"><ele>222.0</ele><time>2026-04-11T08:51:26.488Z</time></trkpt><trkpt lat="43.3952747" lon="11.1826325"><ele>222.2</ele><time>2026-04-11T08:51:27.511Z</time></trkpt><trkpt lat="43.3952133" lon="11.1827874"><ele>222.39999999999998</ele><time>2026-04-11T08:51:29.49Z</time></trkpt><trkpt lat="43.3951811" lon="11.1828654"><ele>222.60000000000002</ele><time>2026-04-11T08:51:30.483Z</time></trkpt><trkpt lat="43.3951496" lon="11.1829434"><ele>222.8</ele><time>2026-04-11T08:51:31.506Z</time></trkpt><trkpt lat="43.3950876" lon="11.1830957"><ele>223.0</ele><time>2026-04-11T08:51:33.472Z</time></trkpt><trkpt lat="43.3950548" lon="11.1831771"><ele>223.0</ele><time>2026-04-11T08:51:34.495Z</time></trkpt><trkpt lat="43.3950229" lon="11.1832579"><ele>223.0</ele><time>2026-04-11T08:51:35.472Z</time></trkpt><trkpt lat="43.3949908" lon="11.1833399"><ele>223.0</ele><time>2026-04-11T08:51:36.493Z</time></trkpt><trkpt lat="43.3949564" lon="11.1834187"><ele>223.0</ele><time>2026-04-11T08:51:37.478Z</time></trkpt><trkpt lat="43.3949235" lon="11.1834977"><ele>223.0</ele><time>2026-04-11T08:51:38.477Z</time></trkpt><trkpt lat="43.3948911" lon="11.1835739"><ele>223.0</ele><time>2026-04-11T08:51:39.492Z</time></trkpt><trkpt lat="43.3948606" lon="11.1836521"><ele>223.0</ele><time>2026-04-11T08:51:40.481Z</time></trkpt><trkpt lat="43.3948291" lon="11.1837326"><ele>223.0</ele><time>2026-04-11T08:51:41.481Z</time></trkpt><trkpt lat="43.3947981" lon="11.1838134"><ele>223.0</ele><time>2026-04-11T08:51:42.493Z</time></trkpt><trkpt lat="43.3947676" lon="11.1838892"><ele>223.0</ele><time>2026-04-11T08:51:43.486Z</time></trkpt><trkpt lat="43.39471" lon="11.1840443"><ele>223.0</ele><time>2026-04-11T08:51:45.481Z</time></trkpt><trkpt lat="43.3946817" lon="11.1841239"><ele>223.0</ele><time>2026-04-11T08:51:46.487Z</time></trkpt><trkpt lat="43.3946503" lon="11.1841996"><ele>223.0</ele><time>2026-04-11T08:51:47.49Z</time></trkpt><trkpt lat="43.3946162" lon="11.1842749"><ele>223.0</ele><time>2026-04-11T08:51:48.485Z</time></trkpt><trkpt lat="43.3945813" lon="11.1843528"><ele>223.49999999999997</ele><time>2026-04-11T08:51:49.488Z</time></trkpt><trkpt lat="43.3945461" lon="11.1844294"><ele>224.0</ele><time>2026-04-11T08:51:50.497Z</time></trkpt><trkpt lat="43.3945146" lon="11.1845051"><ele>224.5</ele><time>2026-04-11T08:51:51.489Z</time></trkpt><trkpt lat="43.3944555" lon="11.1846519"><ele>225.0</ele><time>2026-04-11T08:51:53.487Z</time></trkpt><trkpt lat="43.3944243" lon="11.1847322"><ele>225.49999999999997</ele><time>2026-04-11T08:51:54.499Z</time></trkpt><trkpt lat="43.3943683" lon="11.1848775"><ele>226.0</ele><time>2026-04-11T08:51:56.5Z</time></trkpt><trkpt lat="43.3943407" lon="11.1849556"><ele>226.25</ele><time>2026-04-11T08:51:57.486Z</time></trkpt><trkpt lat="43.3942931" lon="11.185108"><ele>226.5</ele><time>2026-04-11T08:51:59.489Z</time></trkpt><trkpt lat="43.3942403" lon="11.1852527"><ele>226.75</ele><time>2026-04-11T08:52:01.485Z</time></trkpt><trkpt lat="43.3941761" lon="11.1853957"><ele>227.0</ele><time>2026-04-11T08:52:03.489Z</time></trkpt><trkpt lat="43.3941086" lon="11.1855418"><ele>227.0</ele><time>2026-04-11T08:52:05.477Z</time></trkpt><trkpt lat="43.3940725" lon="11.1856166"><ele>227.00000000000003</ele><time>2026-04-11T08:52:06.487Z</time></trkpt><trkpt lat="43.3940402" lon="11.1856957"><ele>227.0</ele><time>2026-04-11T08:52:07.488Z</time></trkpt><trkpt lat="43.3940082" lon="11.1857878"><ele>227.0</ele><time>2026-04-11T08:52:08.477Z</time></trkpt><trkpt lat="43.3939765" lon="11.1858817"><ele>227.00000000000003</ele><time>2026-04-11T08:52:09.492Z</time></trkpt><trkpt lat="43.3939451" lon="11.185982"><ele>227.0</ele><time>2026-04-11T08:52:10.481Z</time></trkpt><trkpt lat="43.3939101" lon="11.1860827"><ele>227.0</ele><time>2026-04-11T08:52:11.499Z</time></trkpt><trkpt lat="43.3938655" lon="11.1861775"><ele>225.8</ele><time>2026-04-11T08:52:12.495Z</time></trkpt><trkpt lat="43.3938141" lon="11.1862749"><ele>224.6</ele><time>2026-04-11T08:52:13.489Z</time></trkpt><trkpt lat="43.393762" lon="11.1863854"><ele>223.40000000000003</ele><time>2026-04-11T08:52:14.472Z</time></trkpt><trkpt lat="43.3937088" lon="11.186506"><ele>222.20000000000002</ele><time>2026-04-11T08:52:15.48Z</time></trkpt><trkpt lat="43.3936585" lon="11.1866263"><ele>221.0</ele><time>2026-04-11T08:52:16.489Z</time></trkpt><trkpt lat="43.3936146" lon="11.186749"><ele>220.0</ele><time>2026-04-11T08:52:17.492Z</time></trkpt><trkpt lat="43.3935771" lon="11.1868708"><ele>219.00000000000003</ele><time>2026-04-11T08:52:18.481Z</time></trkpt><trkpt lat="43.3935415" lon="11.1870032"><ele>218.00000000000003</ele><time>2026-04-11T08:52:19.479Z</time></trkpt><trkpt lat="43.3935041" lon="11.1871398"><ele>217.0</ele><time>2026-04-11T08:52:20.483Z</time></trkpt><trkpt lat="43.3934667" lon="11.1872837"><ele>216.0</ele><time>2026-04-11T08:52:21.491Z</time></trkpt><trkpt lat="43.3934224" lon="11.1874226"><ele>215.4</ele><time>2026-04-11T08:52:22.494Z</time></trkpt><trkpt lat="43.3933847" lon="11.1875663"><ele>214.8</ele><time>2026-04-11T08:52:23.483Z</time></trkpt><trkpt lat="43.3933501" lon="11.1877104"><ele>214.20000000000002</ele><time>2026-04-11T08:52:24.484Z</time></trkpt><trkpt lat="43.3933189" lon="11.1878589"><ele>213.60000000000002</ele><time>2026-04-11T08:52:25.492Z</time></trkpt><trkpt lat="43.3932941" lon="11.1880095"><ele>213.0</ele><time>2026-04-11T08:52:26.487Z</time></trkpt><trkpt lat="43.3932802" lon="11.1881659"><ele>212.60000000000002</ele><time>2026-04-11T08:52:27.478Z</time></trkpt><trkpt lat="43.3932647" lon="11.1883133"><ele>212.20000000000002</ele><time>2026-04-11T08:52:28.497Z</time></trkpt><trkpt lat="43.3932459" lon="11.18846"><ele>211.8</ele><time>2026-04-11T08:52:29.486Z</time></trkpt><trkpt lat="43.3932311" lon="11.1886096"><ele>211.4</ele><time>2026-04-11T08:52:30.484Z</time></trkpt><trkpt lat="43.3932294" lon="11.188758"><ele>211.0</ele><time>2026-04-11T08:52:31.483Z</time></trkpt><trkpt lat="43.3932269" lon="11.1889068"><ele>210.60000000000002</ele><time>2026-04-11T08:52:32.466Z</time></trkpt><trkpt lat="43.3932254" lon="11.1890559"><ele>210.2</ele><time>2026-04-11T08:52:33.47Z</time></trkpt><trkpt lat="43.3932226" lon="11.1892066"><ele>209.8</ele><time>2026-04-11T08:52:34.485Z</time></trkpt><trkpt lat="43.3932164" lon="11.189355"><ele>209.39999999999998</ele><time>2026-04-11T08:52:35.483Z</time></trkpt><trkpt lat="43.3932128" lon="11.1895042"><ele>209.0</ele><time>2026-04-11T08:52:36.481Z</time></trkpt><trkpt lat="43.3932088" lon="11.1896537"><ele>209.0</ele><time>2026-04-11T08:52:37.48Z</time></trkpt><trkpt lat="43.3932066" lon="11.1897981"><ele>209.0</ele><time>2026-04-11T08:52:38.47Z</time></trkpt><trkpt lat="43.3932045" lon="11.1899406"><ele>209.0</ele><time>2026-04-11T08:52:39.516Z</time></trkpt><trkpt lat="43.3931972" lon="11.1900929"><ele>209.0</ele><time>2026-04-11T08:52:40.475Z</time></trkpt><trkpt lat="43.3931925" lon="11.1902442"><ele>209.0</ele><time>2026-04-11T08:52:41.484Z</time></trkpt><trkpt lat="43.393191" lon="11.1903976"><ele>208.6</ele><time>2026-04-11T08:52:42.477Z</time></trkpt><trkpt lat="43.393196" lon="11.1905437"><ele>208.2</ele><time>2026-04-11T08:52:43.47Z</time></trkpt><trkpt lat="43.3931916" lon="11.190681"><ele>207.79999999999998</ele><time>2026-04-11T08:52:44.487Z</time></trkpt><trkpt lat="43.3931643" lon="11.1907917"><ele>207.39999999999998</ele><time>2026-04-11T08:52:45.48Z</time></trkpt><trkpt lat="43.3931127" lon="11.1908758"><ele>207.0</ele><time>2026-04-11T08:52:46.482Z</time></trkpt><trkpt lat="43.3930542" lon="11.1909495"><ele>206.83333333333334</ele><time>2026-04-11T08:52:47.485Z</time></trkpt><trkpt lat="43.393003" lon="11.1910379"><ele>206.66666666666669</ele><time>2026-04-11T08:52:48.495Z</time></trkpt><trkpt lat="43.3929777" lon="11.1911474"><ele>206.5</ele><time>2026-04-11T08:52:49.483Z</time></trkpt><trkpt lat="43.3929806" lon="11.1912608"><ele>206.33333333333334</ele><time>2026-04-11T08:52:50.469Z</time></trkpt><trkpt lat="43.3930041" lon="11.1913604"><ele>206.16666666666669</ele><time>2026-04-11T08:52:51.497Z</time></trkpt><trkpt lat="43.393032" lon="11.1914473"><ele>206.0</ele><time>2026-04-11T08:52:52.49Z</time></trkpt><trkpt lat="43.3930759" lon="11.1915288"><ele>205.57142857142856</ele><time>2026-04-11T08:52:53.484Z</time></trkpt><trkpt lat="43.3931261" lon="11.1916045"><ele>205.14285714285714</ele><time>2026-04-11T08:52:54.489Z</time></trkpt><trkpt lat="43.3931577" lon="11.1916989"><ele>204.71428571428572</ele><time>2026-04-11T08:52:55.483Z</time></trkpt><trkpt lat="43.393173" lon="11.1917903"><ele>204.28571428571428</ele><time>2026-04-11T08:52:56.487Z</time></trkpt><trkpt lat="43.3931745" lon="11.191893"><ele>203.85714285714286</ele><time>2026-04-11T08:52:57.491Z</time></trkpt><trkpt lat="43.3931664" lon="11.191996"><ele>203.42857142857142</ele><time>2026-04-11T08:52:58.493Z</time></trkpt><trkpt lat="43.393161" lon="11.1920979"><ele>203.0</ele><time>2026-04-11T08:52:59.486Z</time></trkpt><trkpt lat="43.3931577" lon="11.1921998"><ele>203.0</ele><time>2026-04-11T08:53:00.5Z</time></trkpt><trkpt lat="43.3931561" lon="11.1923013"><ele>203.0</ele><time>2026-04-11T08:53:01.475Z</time></trkpt><trkpt lat="43.3931537" lon="11.1924025"><ele>203.0</ele><time>2026-04-11T08:53:02.475Z</time></trkpt><trkpt lat="43.3931502" lon="11.1925008"><ele>203.0</ele><time>2026-04-11T08:53:03.484Z</time></trkpt><trkpt lat="43.3931486" lon="11.1925968"><ele>203.0</ele><time>2026-04-11T08:53:04.476Z</time></trkpt><trkpt lat="43.3931458" lon="11.1926916"><ele>203.0</ele><time>2026-04-11T08:53:05.476Z</time></trkpt><trkpt lat="43.3931409" lon="11.1927865"><ele>203.0</ele><time>2026-04-11T08:53:06.478Z</time></trkpt><trkpt lat="43.3931356" lon="11.1928818"><ele>203.14285714285714</ele><time>2026-04-11T08:53:07.476Z</time></trkpt><trkpt lat="43.3931341" lon="11.1929764"><ele>203.28571428571428</ele><time>2026-04-11T08:53:08.471Z</time></trkpt><trkpt lat="43.3931348" lon="11.1930721"><ele>203.42857142857144</ele><time>2026-04-11T08:53:09.477Z</time></trkpt><trkpt lat="43.3931385" lon="11.1931707"><ele>203.57142857142856</ele><time>2026-04-11T08:53:10.481Z</time></trkpt><trkpt lat="43.3931409" lon="11.193264"><ele>203.71428571428572</ele><time>2026-04-11T08:53:11.476Z</time></trkpt><trkpt lat="43.3931421" lon="11.1933572"><ele>203.85714285714286</ele><time>2026-04-11T08:53:12.478Z</time></trkpt><trkpt lat="43.3931404" lon="11.1934507"><ele>204.0</ele><time>2026-04-11T08:53:13.486Z</time></trkpt><trkpt lat="43.39314" lon="11.1935453"><ele>204.0</ele><time>2026-04-11T08:53:14.478Z</time></trkpt><trkpt lat="43.3931376" lon="11.1936412"><ele>204.0</ele><time>2026-04-11T08:53:15.491Z</time></trkpt><trkpt lat="43.3931358" lon="11.1937362"><ele>204.0</ele><time>2026-04-11T08:53:16.479Z</time></trkpt><trkpt lat="43.3931324" lon="11.1938348"><ele>204.0</ele><time>2026-04-11T08:53:17.49Z</time></trkpt><trkpt lat="43.3931299" lon="11.1939302"><ele>204.0</ele><time>2026-04-11T08:53:18.478Z</time></trkpt><trkpt lat="43.3931256" lon="11.1940237"><ele>204.0</ele><time>2026-04-11T08:53:19.488Z</time></trkpt><trkpt lat="43.3931203" lon="11.1941173"><ele>204.0</ele><time>2026-04-11T08:53:20.491Z</time></trkpt><trkpt lat="43.3931146" lon="11.1942138"><ele>203.71428571428572</ele><time>2026-04-11T08:53:21.475Z</time></trkpt><trkpt lat="43.3931124" lon="11.1943128"><ele>203.42857142857144</ele><time>2026-04-11T08:53:22.477Z</time></trkpt><trkpt lat="43.3931126" lon="11.1944113"><ele>203.14285714285714</ele><time>2026-04-11T08:53:23.48Z</time></trkpt><trkpt lat="43.3931116" lon="11.1945078"><ele>202.85714285714286</ele><time>2026-04-11T08:53:24.487Z</time></trkpt><trkpt lat="43.3931086" lon="11.1946029"><ele>202.57142857142856</ele><time>2026-04-11T08:53:25.478Z</time></trkpt><trkpt lat="43.3931049" lon="11.1947008"><ele>202.28571428571428</ele><time>2026-04-11T08:53:26.493Z</time></trkpt><trkpt lat="43.3931023" lon="11.1948"><ele>202.0</ele><time>2026-04-11T08:53:27.467Z</time></trkpt><trkpt lat="43.3931009" lon="11.1949009"><ele>201.85714285714286</ele><time>2026-04-11T08:53:28.486Z</time></trkpt><trkpt lat="43.3930992" lon="11.1949999"><ele>201.71428571428572</ele><time>2026-04-11T08:53:29.494Z</time></trkpt><trkpt lat="43.3930965" lon="11.1950996"><ele>201.57142857142856</ele><time>2026-04-11T08:53:30.484Z</time></trkpt><trkpt lat="43.3930919" lon="11.195202"><ele>201.42857142857144</ele><time>2026-04-11T08:53:31.482Z</time></trkpt><trkpt lat="43.3930879" lon="11.1953024"><ele>201.2857142857143</ele><time>2026-04-11T08:53:32.474Z</time></trkpt><trkpt lat="43.3930852" lon="11.1954043"><ele>201.14285714285714</ele><time>2026-04-11T08:53:33.503Z</time></trkpt><trkpt lat="43.3930822" lon="11.1955046"><ele>201.0</ele><time>2026-04-11T08:53:34.488Z</time></trkpt><trkpt lat="43.393081" lon="11.1956071"><ele>200.83333333333334</ele><time>2026-04-11T08:53:35.483Z</time></trkpt><trkpt lat="43.3930795" lon="11.195712"><ele>200.66666666666669</ele><time>2026-04-11T08:53:36.486Z</time></trkpt><trkpt lat="43.393076" lon="11.1958218"><ele>200.5</ele><time>2026-04-11T08:53:37.473Z</time></trkpt><trkpt lat="43.3930724" lon="11.1959335"><ele>200.33333333333334</ele><time>2026-04-11T08:53:38.481Z</time></trkpt><trkpt lat="43.3930718" lon="11.1960438"><ele>200.16666666666669</ele><time>2026-04-11T08:53:39.485Z</time></trkpt><trkpt lat="43.3930724" lon="11.1961529"><ele>200.0</ele><time>2026-04-11T08:53:40.484Z</time></trkpt><trkpt lat="43.3930745" lon="11.1962634"><ele>200.00000000000003</ele><time>2026-04-11T08:53:41.486Z</time></trkpt><trkpt lat="43.3930749" lon="11.1963713"><ele>200.0</ele><time>2026-04-11T08:53:42.493Z</time></trkpt><trkpt lat="43.3930738" lon="11.1964766"><ele>200.0</ele><time>2026-04-11T08:53:43.486Z</time></trkpt><trkpt lat="43.3930719" lon="11.1965832"><ele>200.0</ele><time>2026-04-11T08:53:44.483Z</time></trkpt><trkpt lat="43.3930679" lon="11.1966872"><ele>200.00000000000003</ele><time>2026-04-11T08:53:45.485Z</time></trkpt><trkpt lat="43.3930625" lon="11.1967902"><ele>200.0</ele><time>2026-04-11T08:53:46.488Z</time></trkpt><trkpt lat="43.3930583" lon="11.1968959"><ele>199.83333333333334</ele><time>2026-04-11T08:53:47.483Z</time></trkpt><trkpt lat="43.3930544" lon="11.1969994"><ele>199.66666666666669</ele><time>2026-04-11T08:53:48.478Z</time></trkpt><trkpt lat="43.3930511" lon="11.1971028"><ele>199.5</ele><time>2026-04-11T08:53:49.492Z</time></trkpt><trkpt lat="43.3930522" lon="11.1972089"><ele>199.33333333333331</ele><time>2026-04-11T08:53:50.481Z</time></trkpt><trkpt lat="43.3930508" lon="11.1973169"><ele>199.16666666666666</ele><time>2026-04-11T08:53:51.472Z</time></trkpt><trkpt lat="43.393048" lon="11.1974255"><ele>199.0</ele><time>2026-04-11T08:53:52.48Z</time></trkpt><trkpt lat="43.3930434" lon="11.1975285"><ele>198.85714285714283</ele><time>2026-04-11T08:53:53.472Z</time></trkpt><trkpt lat="43.3930383" lon="11.1976277"><ele>198.71428571428572</ele><time>2026-04-11T08:53:54.474Z</time></trkpt><trkpt lat="43.3930359" lon="11.197727"><ele>198.57142857142856</ele><time>2026-04-11T08:53:55.471Z</time></trkpt><trkpt lat="43.3930334" lon="11.197826"><ele>198.42857142857142</ele><time>2026-04-11T08:53:56.502Z</time></trkpt><trkpt lat="43.3930328" lon="11.1979236"><ele>198.28571428571428</ele><time>2026-04-11T08:53:57.492Z</time></trkpt><trkpt lat="43.3930332" lon="11.1980246"><ele>198.14285714285714</ele><time>2026-04-11T08:53:58.486Z</time></trkpt><trkpt lat="43.3930327" lon="11.1981285"><ele>198.0</ele><time>2026-04-11T08:53:59.484Z</time></trkpt><trkpt lat="43.3930323" lon="11.1982344"><ele>198.0</ele><time>2026-04-11T08:54:00.479Z</time></trkpt><trkpt lat="43.39303" lon="11.1983399"><ele>198.0</ele><time>2026-04-11T08:54:01.48Z</time></trkpt><trkpt lat="43.3930292" lon="11.1984439"><ele>198.0</ele><time>2026-04-11T08:54:02.483Z</time></trkpt><trkpt lat="43.3930272" lon="11.1985508"><ele>198.0</ele><time>2026-04-11T08:54:03.497Z</time></trkpt><trkpt lat="43.3930254" lon="11.1986579"><ele>198.0</ele><time>2026-04-11T08:54:04.488Z</time></trkpt><trkpt lat="43.3930221" lon="11.1987628"><ele>198.0</ele><time>2026-04-11T08:54:05.481Z</time></trkpt><trkpt lat="43.3930196" lon="11.1988658"><ele>198.0</ele><time>2026-04-11T08:54:06.507Z</time></trkpt><trkpt lat="43.3930177" lon="11.1989682"><ele>198.0</ele><time>2026-04-11T08:54:07.485Z</time></trkpt><trkpt lat="43.3930166" lon="11.1990708"><ele>198.0</ele><time>2026-04-11T08:54:08.478Z</time></trkpt><trkpt lat="43.3930143" lon="11.1991732"><ele>198.0</ele><time>2026-04-11T08:54:09.477Z</time></trkpt><trkpt lat="43.3930128" lon="11.1992729"><ele>198.0</ele><time>2026-04-11T08:54:10.479Z</time></trkpt><trkpt lat="43.3930121" lon="11.199376"><ele>198.0</ele><time>2026-04-11T08:54:11.477Z</time></trkpt><trkpt lat="43.3930102" lon="11.1994788"><ele>198.0</ele><time>2026-04-11T08:54:12.481Z</time></trkpt><trkpt lat="43.3930076" lon="11.1995797"><ele>198.0</ele><time>2026-04-11T08:54:13.493Z</time></trkpt><trkpt lat="43.3930071" lon="11.1996763"><ele>198.0</ele><time>2026-04-11T08:54:14.476Z</time></trkpt><trkpt lat="43.393009" lon="11.1997756"><ele>198.0</ele><time>2026-04-11T08:54:15.475Z</time></trkpt><trkpt lat="43.3930066" lon="11.1998754"><ele>198.0</ele><time>2026-04-11T08:54:16.477Z</time></trkpt><trkpt lat="43.393" lon="11.1999741"><ele>198.0</ele><time>2026-04-11T08:54:17.48Z</time></trkpt><trkpt lat="43.3929936" lon="11.2000757"><ele>198.0</ele><time>2026-04-11T08:54:18.497Z</time></trkpt><trkpt lat="43.3929906" lon="11.2001724"><ele>198.0</ele><time>2026-04-11T08:54:19.472Z</time></trkpt><trkpt lat="43.3929896" lon="11.2002669"><ele>198.0</ele><time>2026-04-11T08:54:20.476Z</time></trkpt><trkpt lat="43.3929896" lon="11.2003601"><ele>198.0</ele><time>2026-04-11T08:54:21.476Z</time></trkpt><trkpt lat="43.39299" lon="11.2004574"><ele>198.0</ele><time>2026-04-11T08:54:22.484Z</time></trkpt><trkpt lat="43.392988" lon="11.2005525"><ele>198.0</ele><time>2026-04-11T08:54:23.484Z</time></trkpt><trkpt lat="43.3929877" lon="11.2006487"><ele>198.0</ele><time>2026-04-11T08:54:24.468Z</time></trkpt><trkpt lat="43.3929869" lon="11.2007461"><ele>198.0</ele><time>2026-04-11T08:54:25.488Z</time></trkpt><trkpt lat="43.392985" lon="11.2008411"><ele>198.0</ele><time>2026-04-11T08:54:26.47Z</time></trkpt><trkpt lat="43.3929818" lon="11.2009389"><ele>197.85714285714286</ele><time>2026-04-11T08:54:27.477Z</time></trkpt><trkpt lat="43.39298" lon="11.2010377"><ele>197.7142857142857</ele><time>2026-04-11T08:54:28.48Z</time></trkpt><trkpt lat="43.3929752" lon="11.2011391"><ele>197.57142857142856</ele><time>2026-04-11T08:54:29.486Z</time></trkpt><trkpt lat="43.3929698" lon="11.2012404"><ele>197.42857142857144</ele><time>2026-04-11T08:54:30.49Z</time></trkpt><trkpt lat="43.3929684" lon="11.2013401"><ele>197.28571428571428</ele><time>2026-04-11T08:54:31.475Z</time></trkpt><trkpt lat="43.3929652" lon="11.2014451"><ele>197.14285714285714</ele><time>2026-04-11T08:54:32.493Z</time></trkpt><trkpt lat="43.3929621" lon="11.2015468"><ele>197.0</ele><time>2026-04-11T08:54:33.497Z</time></trkpt><trkpt lat="43.3929604" lon="11.2016501"><ele>197.0</ele><time>2026-04-11T08:54:34.487Z</time></trkpt><trkpt lat="43.3929576" lon="11.2017539"><ele>197.0</ele><time>2026-04-11T08:54:35.481Z</time></trkpt><trkpt lat="43.3929536" lon="11.2018592"><ele>197.0</ele><time>2026-04-11T08:54:36.493Z</time></trkpt><trkpt lat="43.3929511" lon="11.2019582"><ele>197.0</ele><time>2026-04-11T08:54:37.479Z</time></trkpt><trkpt lat="43.3929496" lon="11.2020633"><ele>197.0</ele><time>2026-04-11T08:54:38.483Z</time></trkpt><trkpt lat="43.3929474" lon="11.2021661"><ele>197.0</ele><time>2026-04-11T08:54:39.489Z</time></trkpt><trkpt lat="43.3929422" lon="11.2022679"><ele>197.0</ele><time>2026-04-11T08:54:40.489Z</time></trkpt><trkpt lat="43.3929399" lon="11.2023712"><ele>196.85714285714286</ele><time>2026-04-11T08:54:41.475Z</time></trkpt><trkpt lat="43.3929379" lon="11.2024715"><ele>196.71428571428572</ele><time>2026-04-11T08:54:42.479Z</time></trkpt><trkpt lat="43.3929366" lon="11.2025704"><ele>196.57142857142856</ele><time>2026-04-11T08:54:43.489Z</time></trkpt><trkpt lat="43.3929354" lon="11.2026701"><ele>196.42857142857144</ele><time>2026-04-11T08:54:44.475Z</time></trkpt><trkpt lat="43.3929357" lon="11.2027686"><ele>196.28571428571428</ele><time>2026-04-11T08:54:45.468Z</time></trkpt><trkpt lat="43.3929342" lon="11.2028683"><ele>196.14285714285714</ele><time>2026-04-11T08:54:46.488Z</time></trkpt><trkpt lat="43.3929314" lon="11.2029682"><ele>196.0</ele><time>2026-04-11T08:54:47.474Z</time></trkpt><trkpt lat="43.3929281" lon="11.2030696"><ele>196.0</ele><time>2026-04-11T08:54:48.469Z</time></trkpt><trkpt lat="43.3929273" lon="11.203173"><ele>196.0</ele><time>2026-04-11T08:54:49.487Z</time></trkpt><trkpt lat="43.3929292" lon="11.2032728"><ele>196.0</ele><time>2026-04-11T08:54:50.483Z</time></trkpt><trkpt lat="43.3929281" lon="11.2033766"><ele>196.0</ele><time>2026-04-11T08:54:51.468Z</time></trkpt><trkpt lat="43.3929215" lon="11.2034794"><ele>196.0</ele><time>2026-04-11T08:54:52.476Z</time></trkpt><trkpt lat="43.3929185" lon="11.2035848"><ele>196.0</ele><time>2026-04-11T08:54:53.502Z</time></trkpt><trkpt lat="43.3929205" lon="11.2036875"><ele>196.0</ele><time>2026-04-11T08:54:54.482Z</time></trkpt><trkpt lat="43.3929218" lon="11.2037925"><ele>195.99999999999997</ele><time>2026-04-11T08:54:55.492Z</time></trkpt><trkpt lat="43.3929227" lon="11.2038949"><ele>196.0</ele><time>2026-04-11T08:54:56.476Z</time></trkpt><trkpt lat="43.3929224" lon="11.2039969"><ele>196.0</ele><time>2026-04-11T08:54:57.492Z</time></trkpt><trkpt lat="43.3929229" lon="11.2041023"><ele>196.0</ele><time>2026-04-11T08:54:58.472Z</time></trkpt><trkpt lat="43.3929246" lon="11.2042133"><ele>195.99999999999997</ele><time>2026-04-11T08:54:59.494Z</time></trkpt><trkpt lat="43.3929207" lon="11.2043206"><ele>196.0</ele><time>2026-04-11T08:55:00.472Z</time></trkpt><trkpt lat="43.392917" lon="11.2044288"><ele>196.16666666666666</ele><time>2026-04-11T08:55:01.473Z</time></trkpt><trkpt lat="43.3929114" lon="11.204538"><ele>196.33333333333331</ele><time>2026-04-11T08:55:02.495Z</time></trkpt><trkpt lat="43.3929071" lon="11.2046437"><ele>196.5</ele><time>2026-04-11T08:55:03.476Z</time></trkpt><trkpt lat="43.3929017" lon="11.2047522"><ele>196.66666666666669</ele><time>2026-04-11T08:55:04.506Z</time></trkpt><trkpt lat="43.3928939" lon="11.2048532"><ele>196.83333333333334</ele><time>2026-04-11T08:55:05.476Z</time></trkpt><trkpt lat="43.3928857" lon="11.2049497"><ele>197.0</ele><time>2026-04-11T08:55:06.473Z</time></trkpt><trkpt lat="43.3928815" lon="11.2050465"><ele>197.0</ele><time>2026-04-11T08:55:07.479Z</time></trkpt><trkpt lat="43.3928792" lon="11.2051452"><ele>197.0</ele><time>2026-04-11T08:55:08.479Z</time></trkpt><trkpt lat="43.3928765" lon="11.2052491"><ele>197.0</ele><time>2026-04-11T08:55:09.476Z</time></trkpt><trkpt lat="43.3928762" lon="11.2053542"><ele>197.0</ele><time>2026-04-11T08:55:10.484Z</time></trkpt><trkpt lat="43.3928779" lon="11.2054561"><ele>197.0</ele><time>2026-04-11T08:55:11.492Z</time></trkpt><trkpt lat="43.3928812" lon="11.205557"><ele>197.0</ele><time>2026-04-11T08:55:12.489Z</time></trkpt><trkpt lat="43.3928806" lon="11.2056588"><ele>197.0</ele><time>2026-04-11T08:55:13.482Z</time></trkpt><trkpt lat="43.3928785" lon="11.2057584"><ele>196.71428571428572</ele><time>2026-04-11T08:55:14.477Z</time></trkpt><trkpt lat="43.392876" lon="11.2058617"><ele>196.42857142857144</ele><time>2026-04-11T08:55:15.494Z</time></trkpt><trkpt lat="43.3928749" lon="11.2059673"><ele>196.14285714285714</ele><time>2026-04-11T08:55:16.484Z</time></trkpt><trkpt lat="43.3928738" lon="11.2060726"><ele>195.85714285714286</ele><time>2026-04-11T08:55:17.496Z</time></trkpt><trkpt lat="43.3928738" lon="11.2061697"><ele>195.57142857142856</ele><time>2026-04-11T08:55:18.482Z</time></trkpt><trkpt lat="43.3928715" lon="11.206268"><ele>195.28571428571428</ele><time>2026-04-11T08:55:19.477Z</time></trkpt><trkpt lat="43.3928669" lon="11.2063661"><ele>195.0</ele><time>2026-04-11T08:55:20.487Z</time></trkpt><trkpt lat="43.3928674" lon="11.2064639"><ele>195.0</ele><time>2026-04-11T08:55:21.481Z</time></trkpt><trkpt lat="43.3928684" lon="11.2065639"><ele>195.0</ele><time>2026-04-11T08:55:22.48Z</time></trkpt><trkpt lat="43.3928678" lon="11.2066618"><ele>195.0</ele><time>2026-04-11T08:55:23.493Z</time></trkpt><trkpt lat="43.3928652" lon="11.206758"><ele>195.0</ele><time>2026-04-11T08:55:24.478Z</time></trkpt><trkpt lat="43.3928622" lon="11.2068559"><ele>195.0</ele><time>2026-04-11T08:55:25.485Z</time></trkpt><trkpt lat="43.392859" lon="11.2069493"><ele>195.0</ele><time>2026-04-11T08:55:26.489Z</time></trkpt><trkpt lat="43.3928569" lon="11.2070519"><ele>195.0</ele><time>2026-04-11T08:55:27.475Z</time></trkpt><trkpt lat="43.3928519" lon="11.2071592"><ele>195.0</ele><time>2026-04-11T08:55:28.467Z</time></trkpt><trkpt lat="43.392849" lon="11.2072659"><ele>195.0</ele><time>2026-04-11T08:55:29.483Z</time></trkpt><trkpt lat="43.3928488" lon="11.207368"><ele>195.0</ele><time>2026-04-11T08:55:30.5Z</time></trkpt><trkpt lat="43.3928478" lon="11.2074665"><ele>195.0</ele><time>2026-04-11T08:55:31.478Z</time></trkpt><trkpt lat="43.3928464" lon="11.2075709"><ele>195.0</ele><time>2026-04-11T08:55:32.479Z</time></trkpt><trkpt lat="43.3928436" lon="11.2076769"><ele>195.0</ele><time>2026-04-11T08:55:33.471Z</time></trkpt><trkpt lat="43.3928404" lon="11.20778"><ele>194.71428571428572</ele><time>2026-04-11T08:55:34.488Z</time></trkpt><trkpt lat="43.3928375" lon="11.2078825"><ele>194.42857142857142</ele><time>2026-04-11T08:55:35.485Z</time></trkpt><trkpt lat="43.3928332" lon="11.2079838"><ele>194.14285714285717</ele><time>2026-04-11T08:55:36.479Z</time></trkpt><trkpt lat="43.3928331" lon="11.2080862"><ele>193.85714285714286</ele><time>2026-04-11T08:55:37.52Z</time></trkpt><trkpt lat="43.3928322" lon="11.2081872"><ele>193.57142857142858</ele><time>2026-04-11T08:55:38.503Z</time></trkpt><trkpt lat="43.3928307" lon="11.2082906"><ele>193.2857142857143</ele><time>2026-04-11T08:55:39.487Z</time></trkpt><trkpt lat="43.3928302" lon="11.2083913"><ele>193.0</ele><time>2026-04-11T08:55:40.483Z</time></trkpt><trkpt lat="43.392826" lon="11.2084897"><ele>192.83333333333331</ele><time>2026-04-11T08:55:41.468Z</time></trkpt><trkpt lat="43.3928221" lon="11.2085935"><ele>192.66666666666666</ele><time>2026-04-11T08:55:42.483Z</time></trkpt><trkpt lat="43.3928165" lon="11.2086998"><ele>192.5</ele><time>2026-04-11T08:55:43.475Z</time></trkpt><trkpt lat="43.3928143" lon="11.208806"><ele>192.33333333333331</ele><time>2026-04-11T08:55:44.486Z</time></trkpt><trkpt lat="43.3928134" lon="11.2089108"><ele>192.16666666666666</ele><time>2026-04-11T08:55:45.477Z</time></trkpt><trkpt lat="43.3928111" lon="11.2090129"><ele>192.0</ele><time>2026-04-11T08:55:46.489Z</time></trkpt><trkpt lat="43.3928087" lon="11.2091147"><ele>192.0</ele><time>2026-04-11T08:55:47.469Z</time></trkpt><trkpt lat="43.3928083" lon="11.2092204"><ele>192.0</ele><time>2026-04-11T08:55:48.486Z</time></trkpt><trkpt lat="43.3928068" lon="11.209326"><ele>192.0</ele><time>2026-04-11T08:55:49.474Z</time></trkpt><trkpt lat="43.3928079" lon="11.2094326"><ele>192.0</ele><time>2026-04-11T08:55:50.469Z</time></trkpt><trkpt lat="43.3928067" lon="11.2095401"><ele>192.0</ele><time>2026-04-11T08:55:51.483Z</time></trkpt><trkpt lat="43.3928048" lon="11.2096464"><ele>192.0</ele><time>2026-04-11T08:55:52.485Z</time></trkpt><trkpt lat="43.392804" lon="11.2097497"><ele>191.83333333333334</ele><time>2026-04-11T08:55:53.477Z</time></trkpt><trkpt lat="43.3928023" lon="11.2098533"><ele>191.66666666666666</ele><time>2026-04-11T08:55:54.489Z</time></trkpt><trkpt lat="43.3928013" lon="11.2099601"><ele>191.5</ele><time>2026-04-11T08:55:55.499Z</time></trkpt><trkpt lat="43.3927973" lon="11.2100662"><ele>191.33333333333331</ele><time>2026-04-11T08:55:56.479Z</time></trkpt><trkpt lat="43.3927908" lon="11.2101708"><ele>191.16666666666666</ele><time>2026-04-11T08:55:57.47Z</time></trkpt><trkpt lat="43.3927878" lon="11.2102727"><ele>191.0</ele><time>2026-04-11T08:55:58.476Z</time></trkpt><trkpt lat="43.3927863" lon="11.2103752"><ele>191.0</ele><time>2026-04-11T08:55:59.48Z</time></trkpt><trkpt lat="43.3927845" lon="11.2104787"><ele>191.0</ele><time>2026-04-11T08:56:00.498Z</time></trkpt><trkpt lat="43.3927841" lon="11.2105797"><ele>191.0</ele><time>2026-04-11T08:56:01.479Z</time></trkpt><trkpt lat="43.3927824" lon="11.2106817"><ele>191.0</ele><time>2026-04-11T08:56:02.488Z</time></trkpt><trkpt lat="43.3927807" lon="11.210783"><ele>191.0</ele><time>2026-04-11T08:56:03.492Z</time></trkpt><trkpt lat="43.39278" lon="11.2108824"><ele>191.0</ele><time>2026-04-11T08:56:04.474Z</time></trkpt><trkpt lat="43.392778" lon="11.2109848"><ele>191.0</ele><time>2026-04-11T08:56:05.481Z</time></trkpt><trkpt lat="43.3927772" lon="11.2110864"><ele>191.14285714285714</ele><time>2026-04-11T08:56:06.476Z</time></trkpt><trkpt lat="43.3927769" lon="11.2111847"><ele>191.28571428571428</ele><time>2026-04-11T08:56:07.479Z</time></trkpt><trkpt lat="43.3927751" lon="11.2112819"><ele>191.42857142857142</ele><time>2026-04-11T08:56:08.474Z</time></trkpt><trkpt lat="43.3927687" lon="11.2113799"><ele>191.57142857142856</ele><time>2026-04-11T08:56:09.479Z</time></trkpt><trkpt lat="43.3927639" lon="11.211479"><ele>191.71428571428572</ele><time>2026-04-11T08:56:10.498Z</time></trkpt><trkpt lat="43.392762" lon="11.2115772"><ele>191.85714285714283</ele><time>2026-04-11T08:56:11.473Z</time></trkpt><trkpt lat="43.3927587" lon="11.2116778"><ele>192.0</ele><time>2026-04-11T08:56:12.482Z</time></trkpt><trkpt lat="43.3927553" lon="11.2117767"><ele>192.14285714285714</ele><time>2026-04-11T08:56:13.479Z</time></trkpt><trkpt lat="43.3927531" lon="11.2118747"><ele>192.28571428571428</ele><time>2026-04-11T08:56:14.479Z</time></trkpt><trkpt lat="43.3927503" lon="11.2119704"><ele>192.42857142857144</ele><time>2026-04-11T08:56:15.465Z</time></trkpt><trkpt lat="43.392745" lon="11.2120668"><ele>192.57142857142856</ele><time>2026-04-11T08:56:16.478Z</time></trkpt><trkpt lat="43.3927405" lon="11.2121645"><ele>192.71428571428572</ele><time>2026-04-11T08:56:17.482Z</time></trkpt><trkpt lat="43.3927388" lon="11.2122596"><ele>192.85714285714286</ele><time>2026-04-11T08:56:18.505Z</time></trkpt><trkpt lat="43.3927367" lon="11.2123527"><ele>193.0</ele><time>2026-04-11T08:56:19.48Z</time></trkpt><trkpt lat="43.392735" lon="11.2124477"><ele>193.00000000000003</ele><time>2026-04-11T08:56:20.482Z</time></trkpt><trkpt lat="43.3927327" lon="11.2125422"><ele>193.0</ele><time>2026-04-11T08:56:21.476Z</time></trkpt><trkpt lat="43.3927326" lon="11.2126393"><ele>193.0</ele><time>2026-04-11T08:56:22.477Z</time></trkpt><trkpt lat="43.3927322" lon="11.2127368"><ele>193.0</ele><time>2026-04-11T08:56:23.483Z</time></trkpt><trkpt lat="43.3927284" lon="11.2128362"><ele>193.0</ele><time>2026-04-11T08:56:24.486Z</time></trkpt><trkpt lat="43.3927253" lon="11.2129373"><ele>193.00000000000003</ele><time>2026-04-11T08:56:25.479Z</time></trkpt><trkpt lat="43.3927241" lon="11.2130332"><ele>193.0</ele><time>2026-04-11T08:56:26.478Z</time></trkpt><trkpt lat="43.392725" lon="11.2131241"><ele>192.57142857142858</ele><time>2026-04-11T08:56:27.481Z</time></trkpt><trkpt lat="43.392728" lon="11.2132147"><ele>192.14285714285714</ele><time>2026-04-11T08:56:28.486Z</time></trkpt><trkpt lat="43.3927289" lon="11.2133115"><ele>191.71428571428572</ele><time>2026-04-11T08:56:29.496Z</time></trkpt><trkpt lat="43.3927255" lon="11.2134106"><ele>191.28571428571428</ele><time>2026-04-11T08:56:30.483Z</time></trkpt><trkpt lat="43.3927227" lon="11.2135114"><ele>190.85714285714286</ele><time>2026-04-11T08:56:31.485Z</time></trkpt><trkpt lat="43.3927194" lon="11.2136098"><ele>190.42857142857144</ele><time>2026-04-11T08:56:32.48Z</time></trkpt><trkpt lat="43.3927194" lon="11.2137043"><ele>190.0</ele><time>2026-04-11T08:56:33.472Z</time></trkpt><trkpt lat="43.3927175" lon="11.2137992"><ele>190.0</ele><time>2026-04-11T08:56:34.478Z</time></trkpt><trkpt lat="43.3927135" lon="11.2138947"><ele>190.0</ele><time>2026-04-11T08:56:35.486Z</time></trkpt><trkpt lat="43.3927112" lon="11.2139892"><ele>190.0</ele><time>2026-04-11T08:56:36.472Z</time></trkpt><trkpt lat="43.3927087" lon="11.2140815"><ele>190.0</ele><time>2026-04-11T08:56:37.487Z</time></trkpt><trkpt lat="43.3927084" lon="11.2141712"><ele>190.0</ele><time>2026-04-11T08:56:38.485Z</time></trkpt><trkpt lat="43.3927091" lon="11.2142604"><ele>190.0</ele><time>2026-04-11T08:56:39.504Z</time></trkpt><trkpt lat="43.3927083" lon="11.2143504"><ele>190.0</ele><time>2026-04-11T08:56:40.484Z</time></trkpt><trkpt lat="43.3927062" lon="11.2144455"><ele>190.14285714285714</ele><time>2026-04-11T08:56:41.478Z</time></trkpt><trkpt lat="43.3927047" lon="11.2145386"><ele>190.28571428571428</ele><time>2026-04-11T08:56:42.473Z</time></trkpt><trkpt lat="43.3927015" lon="11.2146255"><ele>190.42857142857144</ele><time>2026-04-11T08:56:43.479Z</time></trkpt><trkpt lat="43.3926992" lon="11.2147164"><ele>190.57142857142856</ele><time>2026-04-11T08:56:44.494Z</time></trkpt><trkpt lat="43.3926954" lon="11.2148072"><ele>190.7142857142857</ele><time>2026-04-11T08:56:45.474Z</time></trkpt><trkpt lat="43.3926928" lon="11.2149011"><ele>190.85714285714286</ele><time>2026-04-11T08:56:46.475Z</time></trkpt><trkpt lat="43.3926908" lon="11.2149911"><ele>191.0</ele><time>2026-04-11T08:56:47.472Z</time></trkpt><trkpt lat="43.3926892" lon="11.2150821"><ele>191.0</ele><time>2026-04-11T08:56:48.484Z</time></trkpt><trkpt lat="43.3926863" lon="11.2151707"><ele>191.0</ele><time>2026-04-11T08:56:49.477Z</time></trkpt><trkpt lat="43.3926821" lon="11.2152608"><ele>191.0</ele><time>2026-04-11T08:56:50.486Z</time></trkpt><trkpt lat="43.392681" lon="11.2153519"><ele>191.0</ele><time>2026-04-11T08:56:51.489Z</time></trkpt><trkpt lat="43.3926808" lon="11.2155269"><ele>191.0</ele><time>2026-04-11T08:56:53.476Z</time></trkpt><trkpt lat="43.3926795" lon="11.2156166"><ele>191.0</ele><time>2026-04-11T08:56:54.476Z</time></trkpt><trkpt lat="43.3926773" lon="11.2157047"><ele>191.20000000000002</ele><time>2026-04-11T08:56:55.489Z</time></trkpt><trkpt lat="43.3926764" lon="11.2158741"><ele>191.4</ele><time>2026-04-11T08:56:57.477Z</time></trkpt><trkpt lat="43.3926679" lon="11.2160336"><ele>191.6</ele><time>2026-04-11T08:56:59.493Z</time></trkpt><trkpt lat="43.3926639" lon="11.216175"><ele>191.8</ele><time>2026-04-11T08:57:01.467Z</time></trkpt><trkpt lat="43.3926598" lon="11.2163049"><ele>192.0</ele><time>2026-04-11T08:57:03.477Z</time></trkpt><trkpt lat="43.3926581" lon="11.2164355"><ele>192.5</ele><time>2026-04-11T08:57:05.491Z</time></trkpt><trkpt lat="43.3926519" lon="11.2165607"><ele>193.0</ele><time>2026-04-11T08:57:07.475Z</time></trkpt><trkpt lat="43.3926508" lon="11.2166886"><ele>193.5</ele><time>2026-04-11T08:57:09.474Z</time></trkpt><trkpt lat="43.3926489" lon="11.2168041"><ele>194.0</ele><time>2026-04-11T08:57:11.476Z</time></trkpt><trkpt lat="43.3926517" lon="11.2169249"><ele>194.5</ele><time>2026-04-11T08:57:13.479Z</time></trkpt><trkpt lat="43.3926623" lon="11.2170391"><ele>195.0</ele><time>2026-04-11T08:57:15.496Z</time></trkpt><trkpt lat="43.3926782" lon="11.2171414"><ele>195.0</ele><time>2026-04-11T08:57:17.475Z</time></trkpt><trkpt lat="43.3926818" lon="11.2172357"><ele>195.0</ele><time>2026-04-11T08:57:19.487Z</time></trkpt><trkpt lat="43.3926548" lon="11.2173317"><ele>195.0</ele><time>2026-04-11T08:57:21.488Z</time></trkpt><trkpt lat="43.3926332" lon="11.2174386"><ele>195.0</ele><time>2026-04-11T08:57:23.478Z</time></trkpt><trkpt lat="43.3926312" lon="11.2175457"><ele>195.0</ele><time>2026-04-11T08:57:25.49Z</time></trkpt><trkpt lat="43.3926299" lon="11.2176518"><ele>195.0</ele><time>2026-04-11T08:57:27.48Z</time></trkpt><trkpt lat="43.3926286" lon="11.2177543"><ele>195.5</ele><time>2026-04-11T08:57:29.486Z</time></trkpt><trkpt lat="43.3926296" lon="11.2178577"><ele>196.0</ele><time>2026-04-11T08:57:31.473Z</time></trkpt><trkpt lat="43.3926418" lon="11.2179485"><ele>196.5</ele><time>2026-04-11T08:57:33.482Z</time></trkpt><trkpt lat="43.3926561" lon="11.2180684"><ele>197.0</ele><time>2026-04-11T08:57:36.476Z</time></trkpt><trkpt lat="43.3926529" lon="11.2181769"><ele>197.5</ele><time>2026-04-11T08:57:39.473Z</time></trkpt><trkpt lat="43.3926405" lon="11.2182717"><ele>198.0</ele><time>2026-04-11T08:57:42.49Z</time></trkpt><trkpt lat="43.392635" lon="11.2183693"><ele>199.33333333333334</ele><time>2026-04-11T08:57:45.483Z</time></trkpt><trkpt lat="43.3926206" lon="11.218472"><ele>200.66666666666669</ele><time>2026-04-11T08:57:48.488Z</time></trkpt><trkpt lat="43.3926047" lon="11.2185778"><ele>202.0</ele><time>2026-04-11T08:57:51.51Z</time></trkpt><trkpt lat="43.3925967" lon="11.218697"><ele>203.33333333333334</ele><time>2026-04-11T08:57:54.504Z</time></trkpt><trkpt lat="43.3926087" lon="11.218822"><ele>204.66666666666669</ele><time>2026-04-11T08:57:57.48Z</time></trkpt><trkpt lat="43.3926047" lon="11.2189271"><ele>206.0</ele><time>2026-04-11T08:58:00.469Z</time></trkpt><trkpt lat="43.3926" lon="11.2190181"><ele>206.33333333333334</ele><time>2026-04-11T08:58:03.484Z</time></trkpt><trkpt lat="43.3925807" lon="11.2191204"><ele>206.66666666666669</ele><time>2026-04-11T08:58:07.476Z</time></trkpt><trkpt lat="43.3926252" lon="11.2191818"><ele>207.0</ele><time>2026-04-11T08:58:10.479Z</time></trkpt><trkpt lat="43.3927001" lon="11.2192691"><ele>207.33333333333331</ele><time>2026-04-11T08:58:13.478Z</time></trkpt><trkpt lat="43.3927926" lon="11.219356"><ele>207.66666666666666</ele><time>2026-04-11T08:58:15.469Z</time></trkpt><trkpt lat="43.3928481" lon="11.2194002"><ele>208.0</ele><time>2026-04-11T08:58:16.483Z</time></trkpt><trkpt lat="43.3929625" lon="11.2194419"><ele>207.33333333333331</ele><time>2026-04-11T08:58:18.489Z</time></trkpt><trkpt lat="43.3930864" lon="11.2194778"><ele>206.66666666666666</ele><time>2026-04-11T08:58:20.482Z</time></trkpt><trkpt lat="43.3931476" lon="11.219509"><ele>206.0</ele><time>2026-04-11T08:58:21.486Z</time></trkpt><trkpt lat="43.3932105" lon="11.2195394"><ele>205.33333333333331</ele><time>2026-04-11T08:58:22.481Z</time></trkpt><trkpt lat="43.3932742" lon="11.2195648"><ele>204.66666666666666</ele><time>2026-04-11T08:58:23.49Z</time></trkpt><trkpt lat="43.3933451" lon="11.2195891"><ele>204.0</ele><time>2026-04-11T08:58:24.48Z</time></trkpt><trkpt lat="43.3934197" lon="11.2196128"><ele>204.0</ele><time>2026-04-11T08:58:25.469Z</time></trkpt><trkpt lat="43.3934963" lon="11.2196295"><ele>204.0</ele><time>2026-04-11T08:58:26.481Z</time></trkpt><trkpt lat="43.39357" lon="11.2196399"><ele>204.0</ele><time>2026-04-11T08:58:27.473Z</time></trkpt><trkpt lat="43.3936432" lon="11.2196457"><ele>204.0</ele><time>2026-04-11T08:58:28.481Z</time></trkpt><trkpt lat="43.3937105" lon="11.2196521"><ele>204.0</ele><time>2026-04-11T08:58:29.471Z</time></trkpt><trkpt lat="43.3938802" lon="11.2197051"><ele>203.33333333333334</ele><time>2026-04-11T08:58:32.501Z</time></trkpt><trkpt lat="43.3939433" lon="11.2197139"><ele>202.66666666666669</ele><time>2026-04-11T08:58:33.47Z</time></trkpt><trkpt lat="43.3940066" lon="11.2196908"><ele>202.0</ele><time>2026-04-11T08:58:34.467Z</time></trkpt><trkpt lat="43.3940956" lon="11.2195901"><ele>201.33333333333334</ele><time>2026-04-11T08:58:36.483Z</time></trkpt><trkpt lat="43.3941135" lon="11.2194715"><ele>200.66666666666669</ele><time>2026-04-11T08:58:38.472Z</time></trkpt><trkpt lat="43.3941268" lon="11.2193588"><ele>200.0</ele><time>2026-04-11T08:58:40.474Z</time></trkpt><trkpt lat="43.3941579" lon="11.2192375"><ele>200.0</ele><time>2026-04-11T08:58:42.481Z</time></trkpt><trkpt lat="43.3942065" lon="11.2191239"><ele>200.0</ele><time>2026-04-11T08:58:44.478Z</time></trkpt><trkpt lat="43.3942596" lon="11.2190325"><ele>200.0</ele><time>2026-04-11T08:58:46.489Z</time></trkpt><trkpt lat="43.3943298" lon="11.2189365"><ele>200.0</ele><time>2026-04-11T08:58:48.469Z</time></trkpt><trkpt lat="43.3944115" lon="11.2188412"><ele>200.0</ele><time>2026-04-11T08:58:50.5Z</time></trkpt><trkpt lat="43.3945467" lon="11.2187201"><ele>199.83333333333334</ele><time>2026-04-11T08:58:53.481Z</time></trkpt><trkpt lat="43.3946449" lon="11.2186405"><ele>199.66666666666669</ele><time>2026-04-11T08:58:55.479Z</time></trkpt><trkpt lat="43.3947457" lon="11.2185444"><ele>199.5</ele><time>2026-04-11T08:58:57.46Z</time></trkpt><trkpt lat="43.394798" lon="11.2184959"><ele>199.33333333333331</ele><time>2026-04-11T08:58:58.47Z</time></trkpt><trkpt lat="43.3948509" lon="11.2184437"><ele>199.16666666666666</ele><time>2026-04-11T08:58:59.469Z</time></trkpt><trkpt lat="43.3949008" lon="11.2183883"><ele>199.0</ele><time>2026-04-11T08:59:00.485Z</time></trkpt><trkpt lat="43.3949572" lon="11.2183333"><ele>198.42857142857142</ele><time>2026-04-11T08:59:01.496Z</time></trkpt><trkpt lat="43.395015" lon="11.2182781"><ele>197.85714285714286</ele><time>2026-04-11T08:59:02.486Z</time></trkpt><trkpt lat="43.3950773" lon="11.2182258"><ele>197.28571428571428</ele><time>2026-04-11T08:59:03.475Z</time></trkpt><trkpt lat="43.3951405" lon="11.2181732"><ele>196.71428571428572</ele><time>2026-04-11T08:59:04.486Z</time></trkpt><trkpt lat="43.3952031" lon="11.2181212"><ele>196.14285714285714</ele><time>2026-04-11T08:59:05.489Z</time></trkpt><trkpt lat="43.3952674" lon="11.2180664"><ele>195.57142857142856</ele><time>2026-04-11T08:59:06.493Z</time></trkpt><trkpt lat="43.395337" lon="11.218012"><ele>195.0</ele><time>2026-04-11T08:59:07.492Z</time></trkpt><trkpt lat="43.3954053" lon="11.2179606"><ele>195.0</ele><time>2026-04-11T08:59:08.474Z</time></trkpt><trkpt lat="43.3954682" lon="11.2178973"><ele>195.0</ele><time>2026-04-11T08:59:09.482Z</time></trkpt><trkpt lat="43.3955186" lon="11.2178227"><ele>195.0</ele><time>2026-04-11T08:59:10.484Z</time></trkpt><trkpt lat="43.3955515" lon="11.2177368"><ele>195.0</ele><time>2026-04-11T08:59:11.465Z</time></trkpt><trkpt lat="43.3955806" lon="11.2176418"><ele>195.0</ele><time>2026-04-11T08:59:12.51Z</time></trkpt><trkpt lat="43.3956053" lon="11.2175521"><ele>195.0</ele><time>2026-04-11T08:59:13.479Z</time></trkpt><trkpt lat="43.3956255" lon="11.2174653"><ele>195.0</ele><time>2026-04-11T08:59:14.503Z</time></trkpt><trkpt lat="43.3956496" lon="11.2173007"><ele>194.8</ele><time>2026-04-11T08:59:16.465Z</time></trkpt><trkpt lat="43.3956704" lon="11.2171586"><ele>194.6</ele><time>2026-04-11T08:59:18.508Z</time></trkpt><trkpt lat="43.3957106" lon="11.2170343"><ele>194.39999999999998</ele><time>2026-04-11T08:59:20.48Z</time></trkpt><trkpt lat="43.3957838" lon="11.2169471"><ele>194.2</ele><time>2026-04-11T08:59:22.47Z</time></trkpt><trkpt lat="43.3958692" lon="11.2168718"><ele>194.0</ele><time>2026-04-11T08:59:24.464Z</time></trkpt><trkpt lat="43.3959684" lon="11.2168057"><ele>194.0</ele><time>2026-04-11T08:59:26.481Z</time></trkpt><trkpt lat="43.3960328" lon="11.2167927"><ele>194.0</ele><time>2026-04-11T08:59:27.492Z</time></trkpt><trkpt lat="43.3960987" lon="11.2167844"><ele>194.0</ele><time>2026-04-11T08:59:28.472Z</time></trkpt><trkpt lat="43.3961672" lon="11.2167694"><ele>194.0</ele><time>2026-04-11T08:59:29.483Z</time></trkpt><trkpt lat="43.3962358" lon="11.2167556"><ele>194.0</ele><time>2026-04-11T08:59:30.474Z</time></trkpt><trkpt lat="43.3963111" lon="11.216742"><ele>194.0</ele><time>2026-04-11T08:59:31.487Z</time></trkpt><trkpt lat="43.3963887" lon="11.2167257"><ele>194.0</ele><time>2026-04-11T08:59:32.466Z</time></trkpt><trkpt lat="43.3964667" lon="11.2167059"><ele>193.66666666666669</ele><time>2026-04-11T08:59:33.479Z</time></trkpt><trkpt lat="43.396546" lon="11.2166874"><ele>193.33333333333334</ele><time>2026-04-11T08:59:34.462Z</time></trkpt><trkpt lat="43.3966285" lon="11.2166661"><ele>193.0</ele><time>2026-04-11T08:59:35.484Z</time></trkpt><trkpt lat="43.3967106" lon="11.2166457"><ele>192.66666666666669</ele><time>2026-04-11T08:59:36.47Z</time></trkpt><trkpt lat="43.3967963" lon="11.2166293"><ele>192.33333333333334</ele><time>2026-04-11T08:59:37.488Z</time></trkpt><trkpt lat="43.3968783" lon="11.2166102"><ele>192.0</ele><time>2026-04-11T08:59:38.478Z</time></trkpt><trkpt lat="43.3969586" lon="11.2165912"><ele>192.0</ele><time>2026-04-11T08:59:39.489Z</time></trkpt><trkpt lat="43.3970369" lon="11.2165731"><ele>192.0</ele><time>2026-04-11T08:59:40.466Z</time></trkpt><trkpt lat="43.397117" lon="11.2165533"><ele>192.0</ele><time>2026-04-11T08:59:41.476Z</time></trkpt><trkpt lat="43.3971953" lon="11.2165371"><ele>192.0</ele><time>2026-04-11T08:59:42.488Z</time></trkpt><trkpt lat="43.3972701" lon="11.2165199"><ele>192.0</ele><time>2026-04-11T08:59:43.479Z</time></trkpt><trkpt lat="43.397342" lon="11.2165054"><ele>192.0</ele><time>2026-04-11T08:59:44.477Z</time></trkpt><trkpt lat="43.3974156" lon="11.2164858"><ele>192.14285714285714</ele><time>2026-04-11T08:59:45.492Z</time></trkpt><trkpt lat="43.3974863" lon="11.2164638"><ele>192.28571428571428</ele><time>2026-04-11T08:59:46.499Z</time></trkpt><trkpt lat="43.3975577" lon="11.2164399"><ele>192.42857142857144</ele><time>2026-04-11T08:59:47.475Z</time></trkpt><trkpt lat="43.3976282" lon="11.2164166"><ele>192.57142857142856</ele><time>2026-04-11T08:59:48.498Z</time></trkpt><trkpt lat="43.3976967" lon="11.2163972"><ele>192.71428571428572</ele><time>2026-04-11T08:59:49.477Z</time></trkpt><trkpt lat="43.3977637" lon="11.2163879"><ele>192.85714285714286</ele><time>2026-04-11T08:59:50.475Z</time></trkpt><trkpt lat="43.3978287" lon="11.2163842"><ele>193.0</ele><time>2026-04-11T08:59:51.488Z</time></trkpt><trkpt lat="43.3978919" lon="11.2163807"><ele>192.99999999999997</ele><time>2026-04-11T08:59:52.475Z</time></trkpt><trkpt lat="43.3979563" lon="11.2163658"><ele>193.0</ele><time>2026-04-11T08:59:53.488Z</time></trkpt><trkpt lat="43.3980196" lon="11.216344"><ele>193.0</ele><time>2026-04-11T08:59:54.479Z</time></trkpt><trkpt lat="43.3980811" lon="11.2163248"><ele>193.0</ele><time>2026-04-11T08:59:55.478Z</time></trkpt><trkpt lat="43.3981967" lon="11.2162864"><ele>192.99999999999997</ele><time>2026-04-11T08:59:57.488Z</time></trkpt><trkpt lat="43.3983189" lon="11.2162471"><ele>193.0</ele><time>2026-04-11T08:59:59.488Z</time></trkpt><trkpt lat="43.3984416" lon="11.2162235"><ele>193.16666666666666</ele><time>2026-04-11T09:00:01.48Z</time></trkpt><trkpt lat="43.3985042" lon="11.2162041"><ele>193.33333333333331</ele><time>2026-04-11T09:00:02.479Z</time></trkpt><trkpt lat="43.3985651" lon="11.2161787"><ele>193.5</ele><time>2026-04-11T09:00:03.472Z</time></trkpt><trkpt lat="43.3986703" lon="11.2161082"><ele>193.66666666666669</ele><time>2026-04-11T09:00:05.476Z</time></trkpt><trkpt lat="43.3987239" lon="11.2160608"><ele>193.83333333333334</ele><time>2026-04-11T09:00:06.482Z</time></trkpt><trkpt lat="43.3988335" lon="11.2159688"><ele>194.0</ele><time>2026-04-11T09:00:08.482Z</time></trkpt><trkpt lat="43.3988888" lon="11.2159254"><ele>194.00000000000003</ele><time>2026-04-11T09:00:09.473Z</time></trkpt><trkpt lat="43.3989583" lon="11.2158942"><ele>194.0</ele><time>2026-04-11T09:00:10.478Z</time></trkpt><trkpt lat="43.3990314" lon="11.2158827"><ele>194.0</ele><time>2026-04-11T09:00:11.479Z</time></trkpt><trkpt lat="43.3990946" lon="11.215875"><ele>194.0</ele><time>2026-04-11T09:00:12.477Z</time></trkpt><trkpt lat="43.3992038" lon="11.2158587"><ele>194.00000000000003</ele><time>2026-04-11T09:00:14.465Z</time></trkpt><trkpt lat="43.3993101" lon="11.2158473"><ele>194.0</ele><time>2026-04-11T09:00:16.478Z</time></trkpt><trkpt lat="43.3994085" lon="11.2158421"><ele>194.00000000000003</ele><time>2026-04-11T09:00:18.478Z</time></trkpt><trkpt lat="43.3994942" lon="11.2158545"><ele>194.0</ele><time>2026-04-11T09:00:20.486Z</time></trkpt><trkpt lat="43.3995578" lon="11.2158844"><ele>194.0</ele><time>2026-04-11T09:00:22.47Z</time></trkpt><trkpt lat="43.3996306" lon="11.2159191"><ele>194.0</ele><time>2026-04-11T09:00:26.468Z</time></trkpt><trkpt lat="43.3997179" lon="11.2159206"><ele>194.00000000000003</ele><time>2026-04-11T09:00:30.464Z</time></trkpt><trkpt lat="43.399782" lon="11.2159013"><ele>194.0</ele><time>2026-04-11T09:00:32.488Z</time></trkpt><trkpt lat="43.3998525" lon="11.2158931"><ele>194.39999999999998</ele><time>2026-04-11T09:00:34.481Z</time></trkpt><trkpt lat="43.3999258" lon="11.215854"><ele>194.8</ele><time>2026-04-11T09:00:36.488Z</time></trkpt><trkpt lat="43.4000188" lon="11.2157848"><ele>195.2</ele><time>2026-04-11T09:00:38.489Z</time></trkpt><trkpt lat="43.4001227" lon="11.2157303"><ele>195.60000000000002</ele><time>2026-04-11T09:00:40.5Z</time></trkpt><trkpt lat="43.400231" lon="11.2156664"><ele>196.0</ele><time>2026-04-11T09:00:42.477Z</time></trkpt><trkpt lat="43.4002896" lon="11.215628"><ele>197.33333333333331</ele><time>2026-04-11T09:00:43.48Z</time></trkpt><trkpt lat="43.4004048" lon="11.2155546"><ele>198.66666666666666</ele><time>2026-04-11T09:00:45.474Z</time></trkpt><trkpt lat="43.4004641" lon="11.2155147"><ele>200.0</ele><time>2026-04-11T09:00:46.492Z</time></trkpt><trkpt lat="43.4005246" lon="11.2154784"><ele>201.33333333333331</ele><time>2026-04-11T09:00:47.485Z</time></trkpt><trkpt lat="43.4006384" lon="11.2154089"><ele>202.66666666666666</ele><time>2026-04-11T09:00:49.481Z</time></trkpt><trkpt lat="43.400698" lon="11.2153741"><ele>204.0</ele><time>2026-04-11T09:00:50.48Z</time></trkpt><trkpt lat="43.4007563" lon="11.2153381"><ele>204.0</ele><time>2026-04-11T09:00:51.487Z</time></trkpt><trkpt lat="43.4008158" lon="11.2153077"><ele>204.0</ele><time>2026-04-11T09:00:52.473Z</time></trkpt><trkpt lat="43.4008801" lon="11.2152756"><ele>204.0</ele><time>2026-04-11T09:00:53.48Z</time></trkpt><trkpt lat="43.4009446" lon="11.2152434"><ele>204.0</ele><time>2026-04-11T09:00:54.478Z</time></trkpt><trkpt lat="43.4010094" lon="11.2152136"><ele>204.0</ele><time>2026-04-11T09:00:55.48Z</time></trkpt><trkpt lat="43.4010753" lon="11.2151842"><ele>204.0</ele><time>2026-04-11T09:00:56.474Z</time></trkpt><trkpt lat="43.4011448" lon="11.215154"><ele>204.0</ele><time>2026-04-11T09:00:57.467Z</time></trkpt><trkpt lat="43.4012136" lon="11.2151212"><ele>204.0</ele><time>2026-04-11T09:00:58.463Z</time></trkpt><trkpt lat="43.4012787" lon="11.2150904"><ele>204.0</ele><time>2026-04-11T09:00:59.471Z</time></trkpt><trkpt lat="43.4013419" lon="11.2150555"><ele>204.0</ele><time>2026-04-11T09:01:00.484Z</time></trkpt><trkpt lat="43.4014006" lon="11.2150183"><ele>204.0</ele><time>2026-04-11T09:01:01.469Z</time></trkpt><trkpt lat="43.401461" lon="11.2149749"><ele>204.0</ele><time>2026-04-11T09:01:02.463Z</time></trkpt><trkpt lat="43.4015224" lon="11.2149298"><ele>204.0</ele><time>2026-04-11T09:01:03.475Z</time></trkpt><trkpt lat="43.4015818" lon="11.2148869"><ele>204.0</ele><time>2026-04-11T09:01:04.465Z</time></trkpt><trkpt lat="43.4016415" lon="11.2148433"><ele>205.79999999999998</ele><time>2026-04-11T09:01:05.489Z</time></trkpt><trkpt lat="43.4017016" lon="11.2148053"><ele>207.6</ele><time>2026-04-11T09:01:06.471Z</time></trkpt><trkpt lat="43.4018165" lon="11.2147509"><ele>209.4</ele><time>2026-04-11T09:01:08.479Z</time></trkpt><trkpt lat="43.4019346" lon="11.2147126"><ele>211.2</ele><time>2026-04-11T09:01:10.471Z</time></trkpt><trkpt lat="43.4020596" lon="11.2146633"><ele>213.0</ele><time>2026-04-11T09:01:12.478Z</time></trkpt><trkpt lat="43.4021247" lon="11.214632"><ele>210.0</ele><time>2026-04-11T09:01:13.47Z</time></trkpt><trkpt lat="43.4021887" lon="11.2146009"><ele>207.0</ele><time>2026-04-11T09:01:14.471Z</time></trkpt><trkpt lat="43.4022517" lon="11.2145721"><ele>204.0</ele><time>2026-04-11T09:01:15.484Z</time></trkpt><trkpt lat="43.4023127" lon="11.2145445"><ele>201.0</ele><time>2026-04-11T09:01:16.478Z</time></trkpt><trkpt lat="43.4023743" lon="11.2145125"><ele>198.0</ele><time>2026-04-11T09:01:17.481Z</time></trkpt><trkpt lat="43.4024324" lon="11.2144779"><ele>195.0</ele><time>2026-04-11T09:01:18.484Z</time></trkpt><trkpt lat="43.4025429" lon="11.2143892"><ele>195.0</ele><time>2026-04-11T09:01:20.479Z</time></trkpt><trkpt lat="43.4026574" lon="11.2143141"><ele>195.0</ele><time>2026-04-11T09:01:22.467Z</time></trkpt><trkpt lat="43.4027176" lon="11.2142761"><ele>195.0</ele><time>2026-04-11T09:01:23.471Z</time></trkpt><trkpt lat="43.4027785" lon="11.2142392"><ele>195.0</ele><time>2026-04-11T09:01:24.483Z</time></trkpt><trkpt lat="43.4028383" lon="11.2142064"><ele>195.0</ele><time>2026-04-11T09:01:25.47Z</time></trkpt><trkpt lat="43.4029015" lon="11.2141733"><ele>195.0</ele><time>2026-04-11T09:01:26.48Z</time></trkpt><trkpt lat="43.4029634" lon="11.2141426"><ele>194.33333333333334</ele><time>2026-04-11T09:01:27.488Z</time></trkpt><trkpt lat="43.4030245" lon="11.2141054"><ele>193.66666666666666</ele><time>2026-04-11T09:01:28.472Z</time></trkpt><trkpt lat="43.4030897" lon="11.2140643"><ele>193.0</ele><time>2026-04-11T09:01:29.481Z</time></trkpt><trkpt lat="43.4031495" lon="11.2140266"><ele>192.33333333333331</ele><time>2026-04-11T09:01:30.478Z</time></trkpt><trkpt lat="43.4032122" lon="11.2139892"><ele>191.66666666666666</ele><time>2026-04-11T09:01:31.476Z</time></trkpt><trkpt lat="43.4032727" lon="11.2139532"><ele>191.0</ele><time>2026-04-11T09:01:32.47Z</time></trkpt><trkpt lat="43.4033869" lon="11.2138729"><ele>191.0</ele><time>2026-04-11T09:01:34.479Z</time></trkpt><trkpt lat="43.4034469" lon="11.2138331"><ele>191.0</ele><time>2026-04-11T09:01:35.488Z</time></trkpt><trkpt lat="43.4035056" lon="11.2137966"><ele>191.0</ele><time>2026-04-11T09:01:36.488Z</time></trkpt><trkpt lat="43.4035649" lon="11.213762"><ele>191.0</ele><time>2026-04-11T09:01:37.468Z</time></trkpt><trkpt lat="43.4036806" lon="11.2136933"><ele>191.0</ele><time>2026-04-11T09:01:39.491Z</time></trkpt><trkpt lat="43.4037375" lon="11.2136561"><ele>191.0</ele><time>2026-04-11T09:01:40.477Z</time></trkpt><trkpt lat="43.403799" lon="11.2136238"><ele>190.8</ele><time>2026-04-11T09:01:41.484Z</time></trkpt><trkpt lat="43.4039174" lon="11.2136047"><ele>190.60000000000002</ele><time>2026-04-11T09:01:43.481Z</time></trkpt><trkpt lat="43.4040406" lon="11.2136156"><ele>190.4</ele><time>2026-04-11T09:01:45.475Z</time></trkpt><trkpt lat="43.4041676" lon="11.213595"><ele>190.2</ele><time>2026-04-11T09:01:47.477Z</time></trkpt><trkpt lat="43.4042383" lon="11.2135828"><ele>190.0</ele><time>2026-04-11T09:01:48.474Z</time></trkpt><trkpt lat="43.404306" lon="11.2135724"><ele>190.0</ele><time>2026-04-11T09:01:49.487Z</time></trkpt><trkpt lat="43.4043744" lon="11.2135677"><ele>190.0</ele><time>2026-04-11T09:01:50.478Z</time></trkpt><trkpt lat="43.4044378" lon="11.213567"><ele>190.0</ele><time>2026-04-11T09:01:51.474Z</time></trkpt><trkpt lat="43.4045625" lon="11.2135683"><ele>190.0</ele><time>2026-04-11T09:01:53.468Z</time></trkpt><trkpt lat="43.4046281" lon="11.2135628"><ele>190.0</ele><time>2026-04-11T09:01:54.476Z</time></trkpt><trkpt lat="43.4046942" lon="11.2135534"><ele>190.0</ele><time>2026-04-11T09:01:55.474Z</time></trkpt><trkpt lat="43.4047614" lon="11.2135439"><ele>190.0</ele><time>2026-04-11T09:01:56.478Z</time></trkpt><trkpt lat="43.4048273" lon="11.2135356"><ele>190.0</ele><time>2026-04-11T09:01:57.474Z</time></trkpt><trkpt lat="43.4048915" lon="11.2135262"><ele>190.0</ele><time>2026-04-11T09:01:58.469Z</time></trkpt><trkpt lat="43.4049567" lon="11.2135149"><ele>190.0</ele><time>2026-04-11T09:01:59.479Z</time></trkpt><trkpt lat="43.4050851" lon="11.213503"><ele>190.0</ele><time>2026-04-11T09:02:01.479Z</time></trkpt><trkpt lat="43.4051511" lon="11.2135088"><ele>190.0</ele><time>2026-04-11T09:02:02.479Z</time></trkpt><trkpt lat="43.4052134" lon="11.2135363"><ele>190.0</ele><time>2026-04-11T09:02:03.478Z</time></trkpt><trkpt lat="43.4052701" lon="11.2135808"><ele>190.0</ele><time>2026-04-11T09:02:04.481Z</time></trkpt><trkpt lat="43.4053752" lon="11.2136347"><ele>190.0</ele><time>2026-04-11T09:02:06.471Z</time></trkpt><trkpt lat="43.4054958" lon="11.213594"><ele>190.0</ele><time>2026-04-11T09:02:08.483Z</time></trkpt><trkpt lat="43.4055602" lon="11.2135605"><ele>190.0</ele><time>2026-04-11T09:02:09.485Z</time></trkpt><trkpt lat="43.4056242" lon="11.2135277"><ele>190.0</ele><time>2026-04-11T09:02:10.5Z</time></trkpt><trkpt lat="43.4056897" lon="11.2134991"><ele>189.5</ele><time>2026-04-11T09:02:11.487Z</time></trkpt><trkpt lat="43.4057556" lon="11.2134715"><ele>189.0</ele><time>2026-04-11T09:02:12.473Z</time></trkpt><trkpt lat="43.4058224" lon="11.2134474"><ele>188.5</ele><time>2026-04-11T09:02:13.478Z</time></trkpt><trkpt lat="43.4058871" lon="11.2134264"><ele>188.0</ele><time>2026-04-11T09:02:14.481Z</time></trkpt><trkpt lat="43.4059965" lon="11.2133904"><ele>187.5</ele><time>2026-04-11T09:02:16.481Z</time></trkpt><trkpt lat="43.4060751" lon="11.2133713"><ele>187.0</ele><time>2026-04-11T09:02:18.478Z</time></trkpt><trkpt lat="43.4061485" lon="11.2133433"><ele>187.0</ele><time>2026-04-11T09:02:20.478Z</time></trkpt><trkpt lat="43.4062394" lon="11.2133087"><ele>187.0</ele><time>2026-04-11T09:02:22.475Z</time></trkpt><trkpt lat="43.406341" lon="11.2132694"><ele>187.0</ele><time>2026-04-11T09:02:24.485Z</time></trkpt><trkpt lat="43.4064321" lon="11.2131789"><ele>187.0</ele><time>2026-04-11T09:02:26.487Z</time></trkpt><trkpt lat="43.4065529" lon="11.2131041"><ele>187.0</ele><time>2026-04-11T09:02:28.478Z</time></trkpt><trkpt lat="43.4066214" lon="11.2130789"><ele>187.25</ele><time>2026-04-11T09:02:29.481Z</time></trkpt><trkpt lat="43.4067334" lon="11.2130312"><ele>187.5</ele><time>2026-04-11T09:02:31.489Z</time></trkpt><trkpt lat="43.4068402" lon="11.2129786"><ele>187.75</ele><time>2026-04-11T09:02:33.48Z</time></trkpt><trkpt lat="43.4069561" lon="11.2129221"><ele>188.0</ele><time>2026-04-11T09:02:35.472Z</time></trkpt><trkpt lat="43.4070748" lon="11.2128817"><ele>188.0</ele><time>2026-04-11T09:02:37.491Z</time></trkpt><trkpt lat="43.4071885" lon="11.2128324"><ele>188.0</ele><time>2026-04-11T09:02:39.474Z</time></trkpt><trkpt lat="43.4072986" lon="11.2127805"><ele>188.0</ele><time>2026-04-11T09:02:41.483Z</time></trkpt><trkpt lat="43.4074065" lon="11.2127244"><ele>188.0</ele><time>2026-04-11T09:02:43.487Z</time></trkpt><trkpt lat="43.4075171" lon="11.2126695"><ele>188.0</ele><time>2026-04-11T09:02:45.478Z</time></trkpt><trkpt lat="43.4076246" lon="11.2125979"><ele>188.0</ele><time>2026-04-11T09:02:47.487Z</time></trkpt><trkpt lat="43.4077055" lon="11.2124738"><ele>188.0</ele><time>2026-04-11T09:02:49.497Z</time></trkpt><trkpt lat="43.4077642" lon="11.2123366"><ele>188.0</ele><time>2026-04-11T09:02:51.498Z</time></trkpt><trkpt lat="43.4078354" lon="11.2122257"><ele>188.2</ele><time>2026-04-11T09:02:53.474Z</time></trkpt><trkpt lat="43.4079248" lon="11.2121712"><ele>188.4</ele><time>2026-04-11T09:02:55.478Z</time></trkpt><trkpt lat="43.4080184" lon="11.2121312"><ele>188.6</ele><time>2026-04-11T09:02:57.471Z</time></trkpt><trkpt lat="43.4081214" lon="11.2120819"><ele>188.79999999999998</ele><time>2026-04-11T09:02:59.476Z</time></trkpt><trkpt lat="43.4082189" lon="11.2120298"><ele>189.0</ele><time>2026-04-11T09:03:01.476Z</time></trkpt><trkpt lat="43.4083114" lon="11.211997"><ele>189.2</ele><time>2026-04-11T09:03:03.477Z</time></trkpt><trkpt lat="43.4083893" lon="11.2119582"><ele>189.39999999999998</ele><time>2026-04-11T09:03:05.474Z</time></trkpt><trkpt lat="43.4084107" lon="11.2118384"><ele>189.6</ele><time>2026-04-11T09:03:07.484Z</time></trkpt><trkpt lat="43.4084467" lon="11.2117257"><ele>189.8</ele><time>2026-04-11T09:03:09.478Z</time></trkpt><trkpt lat="43.408532" lon="11.2116711"><ele>190.0</ele><time>2026-04-11T09:03:11.483Z</time></trkpt><trkpt lat="43.4086104" lon="11.2115821"><ele>190.0</ele><time>2026-04-11T09:03:13.478Z</time></trkpt><trkpt lat="43.4086742" lon="11.2114764"><ele>190.0</ele><time>2026-04-11T09:03:15.488Z</time></trkpt><trkpt lat="43.4087274" lon="11.2113609"><ele>190.0</ele><time>2026-04-11T09:03:17.475Z</time></trkpt><trkpt lat="43.4087583" lon="11.2112332"><ele>190.0</ele><time>2026-04-11T09:03:19.487Z</time></trkpt><trkpt lat="43.4087987" lon="11.2111023"><ele>190.0</ele><time>2026-04-11T09:03:21.487Z</time></trkpt><trkpt lat="43.4088747" lon="11.21101"><ele>190.2</ele><time>2026-04-11T09:03:23.499Z</time></trkpt><trkpt lat="43.4089631" lon="11.2109393"><ele>190.4</ele><time>2026-04-11T09:03:25.491Z</time></trkpt><trkpt lat="43.409071" lon="11.2109069"><ele>190.60000000000002</ele><time>2026-04-11T09:03:27.473Z</time></trkpt><trkpt lat="43.4091732" lon="11.2108759"><ele>190.8</ele><time>2026-04-11T09:03:29.479Z</time></trkpt><trkpt lat="43.4092706" lon="11.2108368"><ele>191.0</ele><time>2026-04-11T09:03:31.484Z</time></trkpt><trkpt lat="43.4093733" lon="11.2107933"><ele>191.0</ele><time>2026-04-11T09:03:33.478Z</time></trkpt><trkpt lat="43.4094776" lon="11.2107496"><ele>191.0</ele><time>2026-04-11T09:03:35.479Z</time></trkpt><trkpt lat="43.4095921" lon="11.2107064"><ele>191.0</ele><time>2026-04-11T09:03:37.479Z</time></trkpt><trkpt lat="43.4097078" lon="11.2106631"><ele>191.0</ele><time>2026-04-11T09:03:39.479Z</time></trkpt><trkpt lat="43.4098191" lon="11.2106194"><ele>191.25</ele><time>2026-04-11T09:03:41.481Z</time></trkpt><trkpt lat="43.4099345" lon="11.2105796"><ele>191.5</ele><time>2026-04-11T09:03:43.485Z</time></trkpt><trkpt lat="43.4100494" lon="11.2105437"><ele>191.75</ele><time>2026-04-11T09:03:45.477Z</time></trkpt><trkpt lat="43.4101587" lon="11.210489"><ele>192.0</ele><time>2026-04-11T09:03:47.471Z</time></trkpt><trkpt lat="43.4102759" lon="11.2104352"><ele>192.0</ele><time>2026-04-11T09:03:49.479Z</time></trkpt><trkpt lat="43.4103367" lon="11.2104063"><ele>192.0</ele><time>2026-04-11T09:03:50.481Z</time></trkpt><trkpt lat="43.4104558" lon="11.2103644"><ele>192.0</ele><time>2026-04-11T09:03:52.49Z</time></trkpt><trkpt lat="43.4105713" lon="11.2103273"><ele>192.0</ele><time>2026-04-11T09:03:54.487Z</time></trkpt><trkpt lat="43.4106857" lon="11.2102792"><ele>192.0</ele><time>2026-04-11T09:03:56.471Z</time></trkpt><trkpt lat="43.4108046" lon="11.2102301"><ele>191.5</ele><time>2026-04-11T09:03:58.479Z</time></trkpt><trkpt lat="43.410914" lon="11.2101769"><ele>191.0</ele><time>2026-04-11T09:04:00.468Z</time></trkpt><trkpt lat="43.411017" lon="11.2101142"><ele>190.5</ele><time>2026-04-11T09:04:02.472Z</time></trkpt><trkpt lat="43.4110989" lon="11.2100037"><ele>190.0</ele><time>2026-04-11T09:04:04.492Z</time></trkpt><trkpt lat="43.4111418" lon="11.2098459"><ele>190.16666666666669</ele><time>2026-04-11T09:04:06.469Z</time></trkpt><trkpt lat="43.4111651" lon="11.2096787"><ele>190.33333333333334</ele><time>2026-04-11T09:04:08.474Z</time></trkpt><trkpt lat="43.4111772" lon="11.209589"><ele>190.5</ele><time>2026-04-11T09:04:09.478Z</time></trkpt><trkpt lat="43.4111892" lon="11.2094957"><ele>190.66666666666666</ele><time>2026-04-11T09:04:10.471Z</time></trkpt><trkpt lat="43.4112013" lon="11.2094027"><ele>190.83333333333331</ele><time>2026-04-11T09:04:11.483Z</time></trkpt><trkpt lat="43.411213" lon="11.2093071"><ele>191.0</ele><time>2026-04-11T09:04:12.499Z</time></trkpt><trkpt lat="43.4112264" lon="11.2092129"><ele>191.0</ele><time>2026-04-11T09:04:13.471Z</time></trkpt><trkpt lat="43.411239" lon="11.2091176"><ele>191.0</ele><time>2026-04-11T09:04:14.489Z</time></trkpt><trkpt lat="43.4112481" lon="11.2090218"><ele>191.0</ele><time>2026-04-11T09:04:15.494Z</time></trkpt><trkpt lat="43.4112558" lon="11.2089255"><ele>191.0</ele><time>2026-04-11T09:04:16.47Z</time></trkpt><trkpt lat="43.411259" lon="11.2088282"><ele>191.0</ele><time>2026-04-11T09:04:17.484Z</time></trkpt><trkpt lat="43.4112546" lon="11.208738"><ele>191.0</ele><time>2026-04-11T09:04:18.474Z</time></trkpt><trkpt lat="43.411245" lon="11.2086477"><ele>191.0</ele><time>2026-04-11T09:04:19.477Z</time></trkpt><trkpt lat="43.4112337" lon="11.2085577"><ele>190.85714285714286</ele><time>2026-04-11T09:04:20.474Z</time></trkpt><trkpt lat="43.411219" lon="11.2084728"><ele>190.7142857142857</ele><time>2026-04-11T09:04:21.483Z</time></trkpt><trkpt lat="43.411198" lon="11.2083875"><ele>190.57142857142856</ele><time>2026-04-11T09:04:22.489Z</time></trkpt><trkpt lat="43.4111753" lon="11.2083056"><ele>190.42857142857144</ele><time>2026-04-11T09:04:23.494Z</time></trkpt><trkpt lat="43.4111503" lon="11.2082232"><ele>190.28571428571428</ele><time>2026-04-11T09:04:24.487Z</time></trkpt><trkpt lat="43.4111245" lon="11.2081382"><ele>190.14285714285714</ele><time>2026-04-11T09:04:25.482Z</time></trkpt><trkpt lat="43.4111012" lon="11.2080525"><ele>190.0</ele><time>2026-04-11T09:04:26.476Z</time></trkpt><trkpt lat="43.4110753" lon="11.2079647"><ele>189.83333333333334</ele><time>2026-04-11T09:04:27.486Z</time></trkpt><trkpt lat="43.4110488" lon="11.2078807"><ele>189.66666666666669</ele><time>2026-04-11T09:04:28.476Z</time></trkpt><trkpt lat="43.4110224" lon="11.2077998"><ele>189.5</ele><time>2026-04-11T09:04:29.483Z</time></trkpt><trkpt lat="43.4109967" lon="11.2077186"><ele>189.33333333333334</ele><time>2026-04-11T09:04:30.485Z</time></trkpt><trkpt lat="43.4109559" lon="11.2075652"><ele>189.16666666666666</ele><time>2026-04-11T09:04:32.477Z</time></trkpt><trkpt lat="43.4109126" lon="11.207424"><ele>189.0</ele><time>2026-04-11T09:04:34.476Z</time></trkpt><trkpt lat="43.4108659" lon="11.2072857"><ele>189.0</ele><time>2026-04-11T09:04:36.473Z</time></trkpt><trkpt lat="43.4108328" lon="11.20713"><ele>189.0</ele><time>2026-04-11T09:04:38.484Z</time></trkpt><trkpt lat="43.4108283" lon="11.2069752"><ele>189.0</ele><time>2026-04-11T09:04:40.487Z</time></trkpt><trkpt lat="43.4108407" lon="11.2068307"><ele>189.0</ele><time>2026-04-11T09:04:42.479Z</time></trkpt><trkpt lat="43.4108706" lon="11.2066866"><ele>189.0</ele><time>2026-04-11T09:04:44.484Z</time></trkpt><trkpt lat="43.410897" lon="11.2065338"><ele>189.79999999999998</ele><time>2026-04-11T09:04:46.488Z</time></trkpt><trkpt lat="43.4109268" lon="11.2063892"><ele>190.6</ele><time>2026-04-11T09:04:48.488Z</time></trkpt><trkpt lat="43.4109892" lon="11.2062758"><ele>191.4</ele><time>2026-04-11T09:04:50.479Z</time></trkpt><trkpt lat="43.4110649" lon="11.2061801"><ele>192.2</ele><time>2026-04-11T09:04:52.48Z</time></trkpt><trkpt lat="43.4111484" lon="11.206094"><ele>193.0</ele><time>2026-04-11T09:04:54.482Z</time></trkpt><trkpt lat="43.4112305" lon="11.2060086"><ele>193.0</ele><time>2026-04-11T09:04:56.482Z</time></trkpt><trkpt lat="43.4113127" lon="11.205929"><ele>193.0</ele><time>2026-04-11T09:04:58.488Z</time></trkpt><trkpt lat="43.4113968" lon="11.2058427"><ele>193.0</ele><time>2026-04-11T09:05:00.466Z</time></trkpt><trkpt lat="43.4114666" lon="11.2057621"><ele>193.0</ele><time>2026-04-11T09:05:02.481Z</time></trkpt><trkpt lat="43.4115348" lon="11.2056866"><ele>193.0</ele><time>2026-04-11T09:05:04.464Z</time></trkpt><trkpt lat="43.411607" lon="11.2055973"><ele>193.4</ele><time>2026-04-11T09:05:06.479Z</time></trkpt><trkpt lat="43.4116848" lon="11.2055047"><ele>193.8</ele><time>2026-04-11T09:05:08.485Z</time></trkpt><trkpt lat="43.4117566" lon="11.2054106"><ele>194.2</ele><time>2026-04-11T09:05:10.481Z</time></trkpt><trkpt lat="43.4118239" lon="11.205312"><ele>194.6</ele><time>2026-04-11T09:05:12.474Z</time></trkpt><trkpt lat="43.4119024" lon="11.205209"><ele>195.0</ele><time>2026-04-11T09:05:14.487Z</time></trkpt><trkpt lat="43.4119844" lon="11.2051007"><ele>195.0</ele><time>2026-04-11T09:05:16.482Z</time></trkpt><trkpt lat="43.4120745" lon="11.2049845"><ele>195.0</ele><time>2026-04-11T09:05:18.484Z</time></trkpt><trkpt lat="43.4121648" lon="11.2048641"><ele>195.0</ele><time>2026-04-11T09:05:20.479Z</time></trkpt><trkpt lat="43.4122109" lon="11.2048013"><ele>195.0</ele><time>2026-04-11T09:05:21.483Z</time></trkpt><trkpt lat="43.4122547" lon="11.204736"><ele>195.0</ele><time>2026-04-11T09:05:22.48Z</time></trkpt><trkpt lat="43.412296" lon="11.2046662"><ele>195.0</ele><time>2026-04-11T09:05:23.471Z</time></trkpt><trkpt lat="43.4123413" lon="11.2045943"><ele>194.42857142857142</ele><time>2026-04-11T09:05:24.48Z</time></trkpt><trkpt lat="43.4123903" lon="11.2045225"><ele>193.85714285714283</ele><time>2026-04-11T09:05:25.478Z</time></trkpt><trkpt lat="43.4124416" lon="11.2044524"><ele>193.28571428571428</ele><time>2026-04-11T09:05:26.477Z</time></trkpt><trkpt lat="43.4124915" lon="11.2043795"><ele>192.71428571428572</ele><time>2026-04-11T09:05:27.501Z</time></trkpt><trkpt lat="43.4125447" lon="11.2043063"><ele>192.14285714285714</ele><time>2026-04-11T09:05:28.483Z</time></trkpt><trkpt lat="43.4126001" lon="11.2042297"><ele>191.57142857142858</ele><time>2026-04-11T09:05:29.47Z</time></trkpt><trkpt lat="43.4126559" lon="11.2041558"><ele>191.0</ele><time>2026-04-11T09:05:30.486Z</time></trkpt><trkpt lat="43.4127118" lon="11.2040835"><ele>191.0</ele><time>2026-04-11T09:05:31.465Z</time></trkpt><trkpt lat="43.4127681" lon="11.2040068"><ele>191.0</ele><time>2026-04-11T09:05:32.478Z</time></trkpt><trkpt lat="43.4128219" lon="11.2039325"><ele>191.0</ele><time>2026-04-11T09:05:33.481Z</time></trkpt><trkpt lat="43.4128752" lon="11.2038644"><ele>191.0</ele><time>2026-04-11T09:05:34.468Z</time></trkpt><trkpt lat="43.4129281" lon="11.2037931"><ele>191.0</ele><time>2026-04-11T09:05:35.468Z</time></trkpt><trkpt lat="43.4129794" lon="11.2037214"><ele>191.0</ele><time>2026-04-11T09:05:36.477Z</time></trkpt><trkpt lat="43.4130302" lon="11.2036468"><ele>190.5</ele><time>2026-04-11T09:05:37.469Z</time></trkpt><trkpt lat="43.4130851" lon="11.2035741"><ele>190.0</ele><time>2026-04-11T09:05:38.493Z</time></trkpt><trkpt lat="43.4131384" lon="11.2034978"><ele>189.5</ele><time>2026-04-11T09:05:39.49Z</time></trkpt><trkpt lat="43.4131951" lon="11.2034219"><ele>189.0</ele><time>2026-04-11T09:05:40.479Z</time></trkpt><trkpt lat="43.4132498" lon="11.2033475"><ele>188.5</ele><time>2026-04-11T09:05:41.465Z</time></trkpt><trkpt lat="43.4133065" lon="11.2032699"><ele>188.0</ele><time>2026-04-11T09:05:42.478Z</time></trkpt><trkpt lat="43.4133668" lon="11.2031908"><ele>188.33333333333331</ele><time>2026-04-11T09:05:43.485Z</time></trkpt><trkpt lat="43.4134252" lon="11.2031171"><ele>188.66666666666666</ele><time>2026-04-11T09:05:44.484Z</time></trkpt><trkpt lat="43.413487" lon="11.2030442"><ele>189.0</ele><time>2026-04-11T09:05:45.479Z</time></trkpt><trkpt lat="43.4135498" lon="11.2029717"><ele>189.33333333333334</ele><time>2026-04-11T09:05:46.465Z</time></trkpt><trkpt lat="43.413614" lon="11.202896"><ele>189.66666666666669</ele><time>2026-04-11T09:05:47.475Z</time></trkpt><trkpt lat="43.4136782" lon="11.2028222"><ele>190.0</ele><time>2026-04-11T09:05:48.476Z</time></trkpt><trkpt lat="43.4137401" lon="11.2027474"><ele>190.0</ele><time>2026-04-11T09:05:49.487Z</time></trkpt><trkpt lat="43.4138026" lon="11.2026695"><ele>190.0</ele><time>2026-04-11T09:05:50.467Z</time></trkpt><trkpt lat="43.4138681" lon="11.20259"><ele>190.0</ele><time>2026-04-11T09:05:51.474Z</time></trkpt><trkpt lat="43.413935" lon="11.2025078"><ele>190.0</ele><time>2026-04-11T09:05:52.498Z</time></trkpt><trkpt lat="43.4139985" lon="11.2024291"><ele>190.0</ele><time>2026-04-11T09:05:53.468Z</time></trkpt><trkpt lat="43.4140621" lon="11.2023496"><ele>190.0</ele><time>2026-04-11T09:05:54.482Z</time></trkpt><trkpt lat="43.4141235" lon="11.2022707"><ele>189.0</ele><time>2026-04-11T09:05:55.481Z</time></trkpt><trkpt lat="43.4141836" lon="11.2021864"><ele>188.0</ele><time>2026-04-11T09:05:56.493Z</time></trkpt><trkpt lat="43.4142364" lon="11.2021015"><ele>187.0</ele><time>2026-04-11T09:05:57.47Z</time></trkpt><trkpt lat="43.4142897" lon="11.2020112"><ele>186.0</ele><time>2026-04-11T09:05:58.474Z</time></trkpt><trkpt lat="43.4143402" lon="11.201925"><ele>185.0</ele><time>2026-04-11T09:05:59.485Z</time></trkpt><trkpt lat="43.4143897" lon="11.2018365"><ele>184.0</ele><time>2026-04-11T09:06:00.483Z</time></trkpt><trkpt lat="43.4144346" lon="11.2017441"><ele>184.0</ele><time>2026-04-11T09:06:01.477Z</time></trkpt><trkpt lat="43.4144823" lon="11.2016528"><ele>184.0</ele><time>2026-04-11T09:06:02.488Z</time></trkpt><trkpt lat="43.4145319" lon="11.201565"><ele>184.0</ele><time>2026-04-11T09:06:03.47Z</time></trkpt><trkpt lat="43.4145836" lon="11.2014757"><ele>184.0</ele><time>2026-04-11T09:06:04.479Z</time></trkpt><trkpt lat="43.4146328" lon="11.2013867"><ele>184.0</ele><time>2026-04-11T09:06:05.481Z</time></trkpt><trkpt lat="43.4146807" lon="11.2012991"><ele>184.0</ele><time>2026-04-11T09:06:06.481Z</time></trkpt><trkpt lat="43.4147285" lon="11.20121"><ele>183.66666666666669</ele><time>2026-04-11T09:06:07.493Z</time></trkpt><trkpt lat="43.4147755" lon="11.2011204"><ele>183.33333333333334</ele><time>2026-04-11T09:06:08.478Z</time></trkpt><trkpt lat="43.4148211" lon="11.2010329"><ele>183.0</ele><time>2026-04-11T09:06:09.466Z</time></trkpt><trkpt lat="43.414867" lon="11.2009428"><ele>182.66666666666666</ele><time>2026-04-11T09:06:10.481Z</time></trkpt><trkpt lat="43.4149121" lon="11.2008571"><ele>182.33333333333331</ele><time>2026-04-11T09:06:11.478Z</time></trkpt><trkpt lat="43.4149533" lon="11.2007656"><ele>182.0</ele><time>2026-04-11T09:06:12.482Z</time></trkpt><trkpt lat="43.4149903" lon="11.2006691"><ele>181.83333333333331</ele><time>2026-04-11T09:06:13.487Z</time></trkpt><trkpt lat="43.4150254" lon="11.2005735"><ele>181.66666666666666</ele><time>2026-04-11T09:06:14.47Z</time></trkpt><trkpt lat="43.4150582" lon="11.2004739"><ele>181.5</ele><time>2026-04-11T09:06:15.485Z</time></trkpt><trkpt lat="43.4150879" lon="11.2003719"><ele>181.33333333333334</ele><time>2026-04-11T09:06:16.475Z</time></trkpt><trkpt lat="43.4151151" lon="11.20027"><ele>181.16666666666669</ele><time>2026-04-11T09:06:17.483Z</time></trkpt><trkpt lat="43.4151407" lon="11.2001661"><ele>181.0</ele><time>2026-04-11T09:06:18.488Z</time></trkpt><trkpt lat="43.4151643" lon="11.2000648"><ele>181.0</ele><time>2026-04-11T09:06:19.471Z</time></trkpt><trkpt lat="43.4151886" lon="11.1999597"><ele>181.0</ele><time>2026-04-11T09:06:20.47Z</time></trkpt><trkpt lat="43.4152127" lon="11.19986"><ele>181.0</ele><time>2026-04-11T09:06:21.474Z</time></trkpt><trkpt lat="43.4152345" lon="11.1997571"><ele>181.0</ele><time>2026-04-11T09:06:22.469Z</time></trkpt><trkpt lat="43.4152514" lon="11.1996497"><ele>181.0</ele><time>2026-04-11T09:06:23.488Z</time></trkpt><trkpt lat="43.4152616" lon="11.1995426"><ele>181.0</ele><time>2026-04-11T09:06:24.481Z</time></trkpt><trkpt lat="43.4152735" lon="11.1994379"><ele>181.33333333333334</ele><time>2026-04-11T09:06:25.486Z</time></trkpt><trkpt lat="43.4152871" lon="11.1993324"><ele>181.66666666666669</ele><time>2026-04-11T09:06:26.481Z</time></trkpt><trkpt lat="43.4153022" lon="11.1992229"><ele>182.0</ele><time>2026-04-11T09:06:27.479Z</time></trkpt><trkpt lat="43.4153205" lon="11.1991156"><ele>182.33333333333334</ele><time>2026-04-11T09:06:28.479Z</time></trkpt><trkpt lat="43.4153465" lon="11.1990062"><ele>182.66666666666666</ele><time>2026-04-11T09:06:29.494Z</time></trkpt><trkpt lat="43.4153812" lon="11.1989013"><ele>183.0</ele><time>2026-04-11T09:06:30.476Z</time></trkpt><trkpt lat="43.4154244" lon="11.1987993"><ele>183.0</ele><time>2026-04-11T09:06:31.49Z</time></trkpt><trkpt lat="43.415472" lon="11.1987051"><ele>183.0</ele><time>2026-04-11T09:06:32.479Z</time></trkpt><trkpt lat="43.4155199" lon="11.1986109"><ele>183.0</ele><time>2026-04-11T09:06:33.469Z</time></trkpt><trkpt lat="43.4155671" lon="11.1985143"><ele>183.0</ele><time>2026-04-11T09:06:34.481Z</time></trkpt><trkpt lat="43.4156149" lon="11.1984185"><ele>183.0</ele><time>2026-04-11T09:06:35.49Z</time></trkpt><trkpt lat="43.4156618" lon="11.1983239"><ele>183.0</ele><time>2026-04-11T09:06:36.506Z</time></trkpt><trkpt lat="43.4157063" lon="11.1982282"><ele>182.16666666666666</ele><time>2026-04-11T09:06:37.485Z</time></trkpt><trkpt lat="43.4157512" lon="11.1981302"><ele>181.33333333333334</ele><time>2026-04-11T09:06:38.473Z</time></trkpt><trkpt lat="43.4157919" lon="11.1980319"><ele>180.5</ele><time>2026-04-11T09:06:39.481Z</time></trkpt><trkpt lat="43.4158331" lon="11.1979345"><ele>179.66666666666669</ele><time>2026-04-11T09:06:40.478Z</time></trkpt><trkpt lat="43.4158771" lon="11.1978404"><ele>178.83333333333334</ele><time>2026-04-11T09:06:41.48Z</time></trkpt><trkpt lat="43.4159231" lon="11.1977498"><ele>178.0</ele><time>2026-04-11T09:06:42.479Z</time></trkpt><trkpt lat="43.4159675" lon="11.1976598"><ele>178.0</ele><time>2026-04-11T09:06:43.495Z</time></trkpt><trkpt lat="43.4160072" lon="11.1975692"><ele>178.0</ele><time>2026-04-11T09:06:44.48Z</time></trkpt><trkpt lat="43.4160497" lon="11.1974777"><ele>178.0</ele><time>2026-04-11T09:06:45.478Z</time></trkpt><trkpt lat="43.4160972" lon="11.197391"><ele>178.0</ele><time>2026-04-11T09:06:46.473Z</time></trkpt><trkpt lat="43.4161488" lon="11.1973057"><ele>178.0</ele><time>2026-04-11T09:06:47.48Z</time></trkpt><trkpt lat="43.4162015" lon="11.1972292"><ele>178.0</ele><time>2026-04-11T09:06:48.467Z</time></trkpt><trkpt lat="43.4162564" lon="11.1971558"><ele>177.85714285714283</ele><time>2026-04-11T09:06:49.48Z</time></trkpt><trkpt lat="43.416309" lon="11.1970817"><ele>177.71428571428572</ele><time>2026-04-11T09:06:50.483Z</time></trkpt><trkpt lat="43.4163588" lon="11.1970045"><ele>177.57142857142856</ele><time>2026-04-11T09:06:51.478Z</time></trkpt><trkpt lat="43.4164004" lon="11.1969221"><ele>177.42857142857142</ele><time>2026-04-11T09:06:52.492Z</time></trkpt><trkpt lat="43.4164386" lon="11.196839"><ele>177.28571428571428</ele><time>2026-04-11T09:06:53.485Z</time></trkpt><trkpt lat="43.4164747" lon="11.1967514"><ele>177.14285714285714</ele><time>2026-04-11T09:06:54.495Z</time></trkpt><trkpt lat="43.4165071" lon="11.1966658"><ele>177.0</ele><time>2026-04-11T09:06:55.482Z</time></trkpt><trkpt lat="43.4165342" lon="11.1965785"><ele>176.57142857142858</ele><time>2026-04-11T09:06:56.465Z</time></trkpt><trkpt lat="43.416558" lon="11.1964874"><ele>176.14285714285714</ele><time>2026-04-11T09:06:57.488Z</time></trkpt><trkpt lat="43.4165818" lon="11.196397"><ele>175.71428571428572</ele><time>2026-04-11T09:06:58.479Z</time></trkpt><trkpt lat="43.4166032" lon="11.196308"><ele>175.28571428571428</ele><time>2026-04-11T09:06:59.481Z</time></trkpt><trkpt lat="43.4166288" lon="11.1962186"><ele>174.85714285714286</ele><time>2026-04-11T09:07:00.47Z</time></trkpt><trkpt lat="43.4166578" lon="11.1961259"><ele>174.42857142857142</ele><time>2026-04-11T09:07:01.48Z</time></trkpt><trkpt lat="43.4166845" lon="11.1960257"><ele>174.0</ele><time>2026-04-11T09:07:02.472Z</time></trkpt><trkpt lat="43.4167083" lon="11.195923"><ele>174.0</ele><time>2026-04-11T09:07:03.477Z</time></trkpt><trkpt lat="43.4167332" lon="11.195811"><ele>174.0</ele><time>2026-04-11T09:07:04.487Z</time></trkpt><trkpt lat="43.4167553" lon="11.1956956"><ele>174.0</ele><time>2026-04-11T09:07:05.469Z</time></trkpt><trkpt lat="43.4167757" lon="11.1955805"><ele>174.0</ele><time>2026-04-11T09:07:06.483Z</time></trkpt><trkpt lat="43.4167908" lon="11.1954673"><ele>174.0</ele><time>2026-04-11T09:07:07.485Z</time></trkpt><trkpt lat="43.4167881" lon="11.1953512"><ele>174.0</ele><time>2026-04-11T09:07:08.475Z</time></trkpt><trkpt lat="43.4167703" lon="11.1952314"><ele>173.39999999999998</ele><time>2026-04-11T09:07:09.472Z</time></trkpt><trkpt lat="43.4167377" lon="11.1951104"><ele>172.8</ele><time>2026-04-11T09:07:10.487Z</time></trkpt><trkpt lat="43.4166911" lon="11.1949892"><ele>172.2</ele><time>2026-04-11T09:07:11.473Z</time></trkpt><trkpt lat="43.4166391" lon="11.1948663"><ele>171.60000000000002</ele><time>2026-04-11T09:07:12.483Z</time></trkpt><trkpt lat="43.4165904" lon="11.1947405"><ele>171.0</ele><time>2026-04-11T09:07:13.477Z</time></trkpt><trkpt lat="43.4165555" lon="11.1946041"><ele>170.4</ele><time>2026-04-11T09:07:14.473Z</time></trkpt><trkpt lat="43.4165467" lon="11.194466"><ele>169.8</ele><time>2026-04-11T09:07:15.483Z</time></trkpt><trkpt lat="43.4165495" lon="11.1943345"><ele>169.20000000000002</ele><time>2026-04-11T09:07:16.483Z</time></trkpt><trkpt lat="43.4165736" lon="11.1942032"><ele>168.60000000000002</ele><time>2026-04-11T09:07:17.491Z</time></trkpt><trkpt lat="43.4166058" lon="11.1940728"><ele>168.0</ele><time>2026-04-11T09:07:18.478Z</time></trkpt><trkpt lat="43.4166369" lon="11.1939458"><ele>168.0</ele><time>2026-04-11T09:07:19.48Z</time></trkpt><trkpt lat="43.4166733" lon="11.1938276"><ele>168.0</ele><time>2026-04-11T09:07:20.471Z</time></trkpt><trkpt lat="43.4167241" lon="11.1937224"><ele>168.0</ele><time>2026-04-11T09:07:21.476Z</time></trkpt><trkpt lat="43.4167795" lon="11.193636"><ele>168.0</ele><time>2026-04-11T09:07:22.478Z</time></trkpt><trkpt lat="43.4168416" lon="11.1935596"><ele>168.0</ele><time>2026-04-11T09:07:23.475Z</time></trkpt><trkpt lat="43.4169054" lon="11.1934823"><ele>168.0</ele><time>2026-04-11T09:07:24.5Z</time></trkpt><trkpt lat="43.4169572" lon="11.1933979"><ele>168.0</ele><time>2026-04-11T09:07:25.485Z</time></trkpt><trkpt lat="43.4169982" lon="11.1932977"><ele>168.0</ele><time>2026-04-11T09:07:26.485Z</time></trkpt><trkpt lat="43.4170202" lon="11.1931923"><ele>168.0</ele><time>2026-04-11T09:07:27.492Z</time></trkpt><trkpt lat="43.4170339" lon="11.1930847"><ele>168.0</ele><time>2026-04-11T09:07:28.476Z</time></trkpt><trkpt lat="43.4170467" lon="11.1929747"><ele>168.0</ele><time>2026-04-11T09:07:29.474Z</time></trkpt><trkpt lat="43.4170605" lon="11.1928623"><ele>168.0</ele><time>2026-04-11T09:07:30.497Z</time></trkpt><trkpt lat="43.4170694" lon="11.1927441"><ele>168.5</ele><time>2026-04-11T09:07:31.479Z</time></trkpt><trkpt lat="43.4170779" lon="11.1926305"><ele>169.0</ele><time>2026-04-11T09:07:32.469Z</time></trkpt><trkpt lat="43.417089" lon="11.1925213"><ele>169.5</ele><time>2026-04-11T09:07:33.489Z</time></trkpt><trkpt lat="43.4171036" lon="11.1924205"><ele>170.0</ele><time>2026-04-11T09:07:34.486Z</time></trkpt><trkpt lat="43.4171229" lon="11.1923235"><ele>170.5</ele><time>2026-04-11T09:07:35.475Z</time></trkpt><trkpt lat="43.4171463" lon="11.1922272"><ele>171.0</ele><time>2026-04-11T09:07:36.479Z</time></trkpt><trkpt lat="43.4171732" lon="11.1921397"><ele>171.60000000000002</ele><time>2026-04-11T09:07:37.471Z</time></trkpt><trkpt lat="43.417201" lon="11.1920606"><ele>172.2</ele><time>2026-04-11T09:07:38.478Z</time></trkpt><trkpt lat="43.4172622" lon="11.1919192"><ele>172.8</ele><time>2026-04-11T09:07:40.466Z</time></trkpt><trkpt lat="43.4173189" lon="11.1917742"><ele>173.39999999999998</ele><time>2026-04-11T09:07:42.478Z</time></trkpt><trkpt lat="43.4173815" lon="11.1916454"><ele>174.0</ele><time>2026-04-11T09:07:44.488Z</time></trkpt><trkpt lat="43.4174397" lon="11.1915322"><ele>174.39999999999998</ele><time>2026-04-11T09:07:46.485Z</time></trkpt><trkpt lat="43.4174912" lon="11.1914169"><ele>174.8</ele><time>2026-04-11T09:07:48.465Z</time></trkpt><trkpt lat="43.4175398" lon="11.191308"><ele>175.2</ele><time>2026-04-11T09:07:50.481Z</time></trkpt><trkpt lat="43.4175881" lon="11.1912104"><ele>175.60000000000002</ele><time>2026-04-11T09:07:52.465Z</time></trkpt><trkpt lat="43.4176367" lon="11.191115"><ele>176.0</ele><time>2026-04-11T09:07:54.478Z</time></trkpt><trkpt lat="43.417686" lon="11.1910042"><ele>176.0</ele><time>2026-04-11T09:07:56.503Z</time></trkpt><trkpt lat="43.4177266" lon="11.1908759"><ele>176.0</ele><time>2026-04-11T09:07:58.484Z</time></trkpt><trkpt lat="43.4177778" lon="11.1907349"><ele>176.0</ele><time>2026-04-11T09:08:00.466Z</time></trkpt><trkpt lat="43.4178001" lon="11.1906514"><ele>176.0</ele><time>2026-04-11T09:08:01.475Z</time></trkpt><trkpt lat="43.4178259" lon="11.1905707"><ele>176.0</ele><time>2026-04-11T09:08:02.478Z</time></trkpt><trkpt lat="43.4178565" lon="11.1904878"><ele>176.0</ele><time>2026-04-11T09:08:03.463Z</time></trkpt><trkpt lat="43.4178882" lon="11.190405"><ele>175.71428571428572</ele><time>2026-04-11T09:08:04.482Z</time></trkpt><trkpt lat="43.4179221" lon="11.1903202"><ele>175.42857142857142</ele><time>2026-04-11T09:08:05.477Z</time></trkpt><trkpt lat="43.4179552" lon="11.1902321"><ele>175.14285714285714</ele><time>2026-04-11T09:08:06.484Z</time></trkpt><trkpt lat="43.4179901" lon="11.1901398"><ele>174.85714285714286</ele><time>2026-04-11T09:08:07.482Z</time></trkpt><trkpt lat="43.4180215" lon="11.1900454"><ele>174.57142857142858</ele><time>2026-04-11T09:08:08.468Z</time></trkpt><trkpt lat="43.418051" lon="11.1899488"><ele>174.28571428571428</ele><time>2026-04-11T09:08:09.475Z</time></trkpt><trkpt lat="43.4180736" lon="11.1898487"><ele>174.0</ele><time>2026-04-11T09:08:10.475Z</time></trkpt><trkpt lat="43.4180923" lon="11.1897453"><ele>173.33333333333334</ele><time>2026-04-11T09:08:11.482Z</time></trkpt><trkpt lat="43.4181073" lon="11.1896414"><ele>172.66666666666666</ele><time>2026-04-11T09:08:12.474Z</time></trkpt><trkpt lat="43.4181229" lon="11.1895344"><ele>172.0</ele><time>2026-04-11T09:08:13.482Z</time></trkpt><trkpt lat="43.4181384" lon="11.1894286"><ele>171.33333333333331</ele><time>2026-04-11T09:08:14.489Z</time></trkpt><trkpt lat="43.4181595" lon="11.1893242"><ele>170.66666666666666</ele><time>2026-04-11T09:08:15.484Z</time></trkpt><trkpt lat="43.4181968" lon="11.189234"><ele>170.0</ele><time>2026-04-11T09:08:16.47Z</time></trkpt><trkpt lat="43.4182575" lon="11.1891684"><ele>170.0</ele><time>2026-04-11T09:08:17.496Z</time></trkpt><trkpt lat="43.4183179" lon="11.1891078"><ele>170.0</ele><time>2026-04-11T09:08:18.471Z</time></trkpt><trkpt lat="43.4183656" lon="11.1890286"><ele>170.0</ele><time>2026-04-11T09:08:19.483Z</time></trkpt><trkpt lat="43.4183902" lon="11.1889397"><ele>170.0</ele><time>2026-04-11T09:08:20.473Z</time></trkpt><trkpt lat="43.4184071" lon="11.1888413"><ele>170.0</ele><time>2026-04-11T09:08:21.478Z</time></trkpt><trkpt lat="43.4184213" lon="11.1887414"><ele>170.0</ele><time>2026-04-11T09:08:22.498Z</time></trkpt><trkpt lat="43.4184335" lon="11.1886447"><ele>170.0</ele><time>2026-04-11T09:08:23.488Z</time></trkpt><trkpt lat="43.4184547" lon="11.1885495"><ele>169.85714285714286</ele><time>2026-04-11T09:08:24.477Z</time></trkpt><trkpt lat="43.4184925" lon="11.188465"><ele>169.7142857142857</ele><time>2026-04-11T09:08:25.477Z</time></trkpt><trkpt lat="43.418545" lon="11.188394"><ele>169.57142857142856</ele><time>2026-04-11T09:08:26.474Z</time></trkpt><trkpt lat="43.4186019" lon="11.1883276"><ele>169.42857142857144</ele><time>2026-04-11T09:08:27.486Z</time></trkpt><trkpt lat="43.4186551" lon="11.1882621"><ele>169.28571428571428</ele><time>2026-04-11T09:08:28.484Z</time></trkpt><trkpt lat="43.4187071" lon="11.188196"><ele>169.14285714285714</ele><time>2026-04-11T09:08:29.486Z</time></trkpt><trkpt lat="43.4187581" lon="11.1881288"><ele>169.0</ele><time>2026-04-11T09:08:30.476Z</time></trkpt><trkpt lat="43.4188046" lon="11.1880602"><ele>169.42857142857144</ele><time>2026-04-11T09:08:31.483Z</time></trkpt><trkpt lat="43.418849" lon="11.1879899"><ele>169.85714285714286</ele><time>2026-04-11T09:08:32.477Z</time></trkpt><trkpt lat="43.4188919" lon="11.1879135"><ele>170.28571428571428</ele><time>2026-04-11T09:08:33.493Z</time></trkpt><trkpt lat="43.4189344" lon="11.1878372"><ele>170.71428571428572</ele><time>2026-04-11T09:08:34.488Z</time></trkpt><trkpt lat="43.4189793" lon="11.1877588"><ele>171.14285714285714</ele><time>2026-04-11T09:08:35.487Z</time></trkpt><trkpt lat="43.4190228" lon="11.1876786"><ele>171.57142857142858</ele><time>2026-04-11T09:08:36.477Z</time></trkpt><trkpt lat="43.4190646" lon="11.1875979"><ele>172.0</ele><time>2026-04-11T09:08:37.476Z</time></trkpt><trkpt lat="43.419105" lon="11.1875176"><ele>172.0</ele><time>2026-04-11T09:08:38.489Z</time></trkpt><trkpt lat="43.4191454" lon="11.1874424"><ele>172.0</ele><time>2026-04-11T09:08:39.478Z</time></trkpt><trkpt lat="43.419186" lon="11.1873713"><ele>172.0</ele><time>2026-04-11T09:08:40.476Z</time></trkpt><trkpt lat="43.4192278" lon="11.1873026"><ele>172.0</ele><time>2026-04-11T09:08:41.474Z</time></trkpt><trkpt lat="43.4192667" lon="11.1872335"><ele>172.0</ele><time>2026-04-11T09:08:42.496Z</time></trkpt><trkpt lat="43.4193406" lon="11.1871006"><ele>172.0</ele><time>2026-04-11T09:08:44.481Z</time></trkpt><trkpt lat="43.419411" lon="11.1869678"><ele>172.39999999999998</ele><time>2026-04-11T09:08:46.469Z</time></trkpt><trkpt lat="43.419479" lon="11.1868412"><ele>172.79999999999998</ele><time>2026-04-11T09:08:48.482Z</time></trkpt><trkpt lat="43.4195373" lon="11.1867248"><ele>173.2</ele><time>2026-04-11T09:08:50.47Z</time></trkpt><trkpt lat="43.4195975" lon="11.1866086"><ele>173.6</ele><time>2026-04-11T09:08:52.467Z</time></trkpt><trkpt lat="43.419655" lon="11.1865001"><ele>174.0</ele><time>2026-04-11T09:08:54.485Z</time></trkpt><trkpt lat="43.4197122" lon="11.1864001"><ele>174.33333333333334</ele><time>2026-04-11T09:08:56.501Z</time></trkpt><trkpt lat="43.4197685" lon="11.1863103"><ele>174.66666666666666</ele><time>2026-04-11T09:08:58.487Z</time></trkpt><trkpt lat="43.419828" lon="11.1862112"><ele>175.0</ele><time>2026-04-11T09:09:00.487Z</time></trkpt><trkpt lat="43.4198794" lon="11.1861096"><ele>175.33333333333331</ele><time>2026-04-11T09:09:02.485Z</time></trkpt><trkpt lat="43.4199311" lon="11.1860146"><ele>175.66666666666666</ele><time>2026-04-11T09:09:04.469Z</time></trkpt><trkpt lat="43.4199807" lon="11.1859326"><ele>176.0</ele><time>2026-04-11T09:09:06.473Z</time></trkpt><trkpt lat="43.4200346" lon="11.1858433"><ele>176.0</ele><time>2026-04-11T09:09:08.479Z</time></trkpt><trkpt lat="43.4200882" lon="11.1857455"><ele>176.0</ele><time>2026-04-11T09:09:10.476Z</time></trkpt><trkpt lat="43.4201469" lon="11.1856457"><ele>176.0</ele><time>2026-04-11T09:09:12.493Z</time></trkpt><trkpt lat="43.4202075" lon="11.1855361"><ele>176.0</ele><time>2026-04-11T09:09:14.478Z</time></trkpt><trkpt lat="43.4202674" lon="11.1854279"><ele>176.0</ele><time>2026-04-11T09:09:16.477Z</time></trkpt><trkpt lat="43.4203319" lon="11.1853222"><ele>176.0</ele><time>2026-04-11T09:09:18.49Z</time></trkpt><trkpt lat="43.4203911" lon="11.1852107"><ele>176.0</ele><time>2026-04-11T09:09:20.491Z</time></trkpt><trkpt lat="43.4204522" lon="11.1850881"><ele>176.0</ele><time>2026-04-11T09:09:22.472Z</time></trkpt><trkpt lat="43.4205115" lon="11.1849734"><ele>176.0</ele><time>2026-04-11T09:09:24.469Z</time></trkpt><trkpt lat="43.420571" lon="11.1848615"><ele>176.0</ele><time>2026-04-11T09:09:26.477Z</time></trkpt><trkpt lat="43.4206394" lon="11.184744"><ele>176.20000000000002</ele><time>2026-04-11T09:09:28.492Z</time></trkpt><trkpt lat="43.4207042" lon="11.1846339"><ele>176.4</ele><time>2026-04-11T09:09:30.468Z</time></trkpt><trkpt lat="43.4207637" lon="11.1845177"><ele>176.6</ele><time>2026-04-11T09:09:32.476Z</time></trkpt><trkpt lat="43.4208259" lon="11.1844052"><ele>176.8</ele><time>2026-04-11T09:09:34.504Z</time></trkpt><trkpt lat="43.4208887" lon="11.184296"><ele>177.0</ele><time>2026-04-11T09:09:36.481Z</time></trkpt><trkpt lat="43.420951" lon="11.1841793"><ele>177.0</ele><time>2026-04-11T09:09:38.495Z</time></trkpt><trkpt lat="43.4210123" lon="11.1840668"><ele>177.0</ele><time>2026-04-11T09:09:40.493Z</time></trkpt><trkpt lat="43.4210732" lon="11.1839593"><ele>177.0</ele><time>2026-04-11T09:09:42.48Z</time></trkpt><trkpt lat="43.4211332" lon="11.1838473"><ele>177.0</ele><time>2026-04-11T09:09:44.488Z</time></trkpt><trkpt lat="43.4211904" lon="11.1837446"><ele>177.0</ele><time>2026-04-11T09:09:46.488Z</time></trkpt><trkpt lat="43.4212576" lon="11.1836561"><ele>176.6</ele><time>2026-04-11T09:09:48.484Z</time></trkpt><trkpt lat="43.4213306" lon="11.1835619"><ele>176.2</ele><time>2026-04-11T09:09:50.485Z</time></trkpt><trkpt lat="43.4214084" lon="11.1834819"><ele>175.8</ele><time>2026-04-11T09:09:52.487Z</time></trkpt><trkpt lat="43.4214873" lon="11.1834078"><ele>175.4</ele><time>2026-04-11T09:09:54.477Z</time></trkpt><trkpt lat="43.4215606" lon="11.1833363"><ele>175.0</ele><time>2026-04-11T09:09:56.471Z</time></trkpt><trkpt lat="43.4216338" lon="11.1832592"><ele>175.0</ele><time>2026-04-11T09:09:58.487Z</time></trkpt><trkpt lat="43.421708" lon="11.1831799"><ele>175.0</ele><time>2026-04-11T09:10:00.489Z</time></trkpt><trkpt lat="43.4217907" lon="11.1830974"><ele>175.0</ele><time>2026-04-11T09:10:02.487Z</time></trkpt><trkpt lat="43.4218804" lon="11.1830067"><ele>175.0</ele><time>2026-04-11T09:10:04.464Z</time></trkpt><trkpt lat="43.4219814" lon="11.182917"><ele>175.0</ele><time>2026-04-11T09:10:06.479Z</time></trkpt><trkpt lat="43.4220854" lon="11.1828326"><ele>174.5</ele><time>2026-04-11T09:10:08.465Z</time></trkpt><trkpt lat="43.4221878" lon="11.1827445"><ele>174.0</ele><time>2026-04-11T09:10:10.491Z</time></trkpt><trkpt lat="43.4222765" lon="11.1826437"><ele>173.5</ele><time>2026-04-11T09:10:12.492Z</time></trkpt><trkpt lat="43.4222631" lon="11.1824975"><ele>173.0</ele><time>2026-04-11T09:10:14.471Z</time></trkpt><trkpt lat="43.4222086" lon="11.1823528"><ele>173.5</ele><time>2026-04-11T09:10:16.496Z</time></trkpt><trkpt lat="43.4221601" lon="11.1822094"><ele>174.0</ele><time>2026-04-11T09:10:18.483Z</time></trkpt><trkpt lat="43.4221023" lon="11.1820798"><ele>174.5</ele><time>2026-04-11T09:10:20.468Z</time></trkpt><trkpt lat="43.4220411" lon="11.1819464"><ele>175.0</ele><time>2026-04-11T09:10:22.478Z</time></trkpt><trkpt lat="43.4219829" lon="11.1818074"><ele>175.0</ele><time>2026-04-11T09:10:24.5Z</time></trkpt><trkpt lat="43.4219305" lon="11.181667"><ele>175.0</ele><time>2026-04-11T09:10:26.48Z</time></trkpt><trkpt lat="43.4218845" lon="11.1815358"><ele>175.0</ele><time>2026-04-11T09:10:28.481Z</time></trkpt><trkpt lat="43.4218435" lon="11.1814049"><ele>175.0</ele><time>2026-04-11T09:10:30.49Z</time></trkpt><trkpt lat="43.4218013" lon="11.1812753"><ele>175.0</ele><time>2026-04-11T09:10:32.475Z</time></trkpt><trkpt lat="43.4217532" lon="11.1811476"><ele>174.83333333333334</ele><time>2026-04-11T09:10:34.481Z</time></trkpt><trkpt lat="43.421708" lon="11.1810206"><ele>174.66666666666669</ele><time>2026-04-11T09:10:36.473Z</time></trkpt><trkpt lat="43.4216644" lon="11.1808979"><ele>174.5</ele><time>2026-04-11T09:10:38.483Z</time></trkpt><trkpt lat="43.421626" lon="11.1807874"><ele>174.33333333333334</ele><time>2026-04-11T09:10:40.478Z</time></trkpt><trkpt lat="43.4216297" lon="11.1806818"><ele>174.16666666666666</ele><time>2026-04-11T09:10:43.497Z</time></trkpt><trkpt lat="43.4216969" lon="11.1806193"><ele>174.0</ele><time>2026-04-11T09:10:46.487Z</time></trkpt><trkpt lat="43.4217699" lon="11.1805703"><ele>173.83333333333334</ele><time>2026-04-11T09:10:49.508Z</time></trkpt><trkpt lat="43.4218406" lon="11.1805315"><ele>173.66666666666666</ele><time>2026-04-11T09:10:52.47Z</time></trkpt><trkpt lat="43.4219172" lon="11.1804804"><ele>173.5</ele><time>2026-04-11T09:10:55.481Z</time></trkpt><trkpt lat="43.4219851" lon="11.1804218"><ele>173.33333333333331</ele><time>2026-04-11T09:10:58.48Z</time></trkpt><trkpt lat="43.4220521" lon="11.1803702"><ele>173.16666666666666</ele><time>2026-04-11T09:11:01.468Z</time></trkpt><trkpt lat="43.4221161" lon="11.1803632"><ele>173.0</ele><time>2026-04-11T09:11:04.471Z</time></trkpt><trkpt lat="43.4221574" lon="11.1804632"><ele>172.83333333333331</ele><time>2026-04-11T09:11:07.47Z</time></trkpt><trkpt lat="43.4221584" lon="11.1805567"><ele>172.66666666666666</ele><time>2026-04-11T09:11:09.474Z</time></trkpt><trkpt lat="43.4221582" lon="11.1806602"><ele>172.5</ele><time>2026-04-11T09:11:11.478Z</time></trkpt><trkpt lat="43.4221836" lon="11.1807586"><ele>172.33333333333334</ele><time>2026-04-11T09:11:13.475Z</time></trkpt><trkpt lat="43.4221922" lon="11.1808625"><ele>172.16666666666669</ele><time>2026-04-11T09:11:15.484Z</time></trkpt><trkpt lat="43.4221997" lon="11.1809641"><ele>172.0</ele><time>2026-04-11T09:11:17.477Z</time></trkpt><trkpt lat="43.4222024" lon="11.1810784"><ele>170.0</ele><time>2026-04-11T09:11:20.472Z</time></trkpt><trkpt lat="43.4221649" lon="11.1811504"><ele>170.0</ele><time>2026-04-11T09:11:23.481Z</time></trkpt><trkpt lat="43.4220959" lon="11.1811885"><ele>174.0</ele><time>2026-04-11T09:11:28.483Z</time></trkpt><trkpt lat="43.4219889" lon="11.1811754"><ele>174.0</ele><time>2026-04-11T09:14:02.463Z</time></trkpt></trkseg></trk></gpx>